<?xml version="1.0" encoding="UTF-8" standalone="no" ?>
<gpx xmlns="http://www.topografix.com/GPX/1/1" xmlns:xsi="http://www.w3.org/2001/XMLSchema-instance" xsi:schemaLocation="http://www.topografix.com/GPX/1/1 http://www.topografix.com/GPX/1/1/gpx.xsd" version="1.1" creator="VisuGPX - https://www.visugpx.com">
  <metadata>
    <name>Randionnée </name>
    <desc><![CDATA[Première participation aux 30 Clochers pour moi,parcours magnifique , paysage sublime,et orga au top!!!!  ]]></desc>
  </metadata>
  <trk>
    <name><![CDATA[170903070838]]></name>
    <trkseg>
      <trkpt lat="47.07119" lon="5.48464">
        <ele>202</ele>
        <time>2017-09-03T06:08:44Z</time>
      </trkpt>
      <trkpt lat="47.07114" lon="5.48454">
        <ele>202</ele>
        <time>2017-09-03T06:08:48Z</time>
      </trkpt>
      <trkpt lat="47.07105" lon="5.48442">
        <ele>202</ele>
        <time>2017-09-03T06:08:52Z</time>
      </trkpt>
      <trkpt lat="47.07096" lon="5.48431">
        <ele>202</ele>
        <time>2017-09-03T06:08:56Z</time>
      </trkpt>
      <trkpt lat="47.07085" lon="5.48416">
        <ele>201</ele>
        <time>2017-09-03T06:09:00Z</time>
      </trkpt>
      <trkpt lat="47.07072" lon="5.48416">
        <ele>201</ele>
        <time>2017-09-03T06:09:04Z</time>
      </trkpt>
      <trkpt lat="47.07064" lon="5.48431">
        <ele>201</ele>
        <time>2017-09-03T06:09:08Z</time>
      </trkpt>
      <trkpt lat="47.07054" lon="5.48446">
        <ele>202</ele>
        <time>2017-09-03T06:09:12Z</time>
      </trkpt>
      <trkpt lat="47.07047" lon="5.48462">
        <ele>201</ele>
        <time>2017-09-03T06:09:16Z</time>
      </trkpt>
      <trkpt lat="47.07049" lon="5.48478">
        <ele>202</ele>
        <time>2017-09-03T06:09:20Z</time>
      </trkpt>
      <trkpt lat="47.07051" lon="5.48495">
        <ele>202</ele>
        <time>2017-09-03T06:09:24Z</time>
      </trkpt>
      <trkpt lat="47.07051" lon="5.48513">
        <ele>202</ele>
        <time>2017-09-03T06:09:28Z</time>
      </trkpt>
      <trkpt lat="47.0705" lon="5.4853">
        <ele>203</ele>
        <time>2017-09-03T06:09:32Z</time>
      </trkpt>
      <trkpt lat="47.07043" lon="5.48545">
        <ele>203</ele>
        <time>2017-09-03T06:09:36Z</time>
      </trkpt>
      <trkpt lat="47.07038" lon="5.48562">
        <ele>203</ele>
        <time>2017-09-03T06:09:40Z</time>
      </trkpt>
      <trkpt lat="47.0703" lon="5.48579">
        <ele>204</ele>
        <time>2017-09-03T06:09:44Z</time>
      </trkpt>
      <trkpt lat="47.07022" lon="5.48595">
        <ele>204</ele>
        <time>2017-09-03T06:09:48Z</time>
      </trkpt>
      <trkpt lat="47.07015" lon="5.48612">
        <ele>205</ele>
        <time>2017-09-03T06:09:52Z</time>
      </trkpt>
      <trkpt lat="47.07006" lon="5.48629">
        <ele>205</ele>
        <time>2017-09-03T06:09:56Z</time>
      </trkpt>
      <trkpt lat="47.06998" lon="5.48645">
        <ele>205</ele>
        <time>2017-09-03T06:10:00Z</time>
      </trkpt>
      <trkpt lat="47.06991" lon="5.48661">
        <ele>206</ele>
        <time>2017-09-03T06:10:04Z</time>
      </trkpt>
      <trkpt lat="47.06982" lon="5.48677">
        <ele>206</ele>
        <time>2017-09-03T06:10:08Z</time>
      </trkpt>
      <trkpt lat="47.06976" lon="5.48693">
        <ele>207</ele>
        <time>2017-09-03T06:10:12Z</time>
      </trkpt>
      <trkpt lat="47.06971" lon="5.48702">
        <ele>207</ele>
        <time>2017-09-03T06:10:16Z</time>
      </trkpt>
      <trkpt lat="47.06961" lon="5.48702">
        <ele>207</ele>
        <time>2017-09-03T06:10:20Z</time>
      </trkpt>
      <trkpt lat="47.06949" lon="5.48699">
        <ele>208</ele>
        <time>2017-09-03T06:10:24Z</time>
      </trkpt>
      <trkpt lat="47.06937" lon="5.48697">
        <ele>208</ele>
        <time>2017-09-03T06:10:28Z</time>
      </trkpt>
      <trkpt lat="47.06923" lon="5.48696">
        <ele>208</ele>
        <time>2017-09-03T06:10:32Z</time>
      </trkpt>
      <trkpt lat="47.0691" lon="5.487">
        <ele>209</ele>
        <time>2017-09-03T06:10:36Z</time>
      </trkpt>
      <trkpt lat="47.06896" lon="5.48706">
        <ele>209</ele>
        <time>2017-09-03T06:10:40Z</time>
      </trkpt>
      <trkpt lat="47.06883" lon="5.48717">
        <ele>209</ele>
        <time>2017-09-03T06:10:44Z</time>
      </trkpt>
      <trkpt lat="47.06871" lon="5.48728">
        <ele>209</ele>
        <time>2017-09-03T06:10:48Z</time>
      </trkpt>
      <trkpt lat="47.06859" lon="5.4874">
        <ele>209</ele>
        <time>2017-09-03T06:10:52Z</time>
      </trkpt>
      <trkpt lat="47.06847" lon="5.48751">
        <ele>210</ele>
        <time>2017-09-03T06:10:56Z</time>
      </trkpt>
      <trkpt lat="47.06834" lon="5.48763">
        <ele>210</ele>
        <time>2017-09-03T06:11:00Z</time>
      </trkpt>
      <trkpt lat="47.06823" lon="5.48775">
        <ele>210</ele>
        <time>2017-09-03T06:11:04Z</time>
      </trkpt>
      <trkpt lat="47.0681" lon="5.48787">
        <ele>210</ele>
        <time>2017-09-03T06:11:08Z</time>
      </trkpt>
      <trkpt lat="47.06797" lon="5.48799">
        <ele>210</ele>
        <time>2017-09-03T06:11:12Z</time>
      </trkpt>
      <trkpt lat="47.06784" lon="5.48812">
        <ele>211</ele>
        <time>2017-09-03T06:11:16Z</time>
      </trkpt>
      <trkpt lat="47.06771" lon="5.48824">
        <ele>211</ele>
        <time>2017-09-03T06:11:20Z</time>
      </trkpt>
      <trkpt lat="47.06759" lon="5.48836">
        <ele>211</ele>
        <time>2017-09-03T06:11:24Z</time>
      </trkpt>
      <trkpt lat="47.06746" lon="5.48847">
        <ele>211</ele>
        <time>2017-09-03T06:11:28Z</time>
      </trkpt>
      <trkpt lat="47.06734" lon="5.4886">
        <ele>211</ele>
        <time>2017-09-03T06:11:32Z</time>
      </trkpt>
      <trkpt lat="47.06721" lon="5.48873">
        <ele>211</ele>
        <time>2017-09-03T06:11:36Z</time>
      </trkpt>
      <trkpt lat="47.06707" lon="5.48887">
        <ele>211</ele>
        <time>2017-09-03T06:11:40Z</time>
      </trkpt>
      <trkpt lat="47.06696" lon="5.48903">
        <ele>212</ele>
        <time>2017-09-03T06:11:44Z</time>
      </trkpt>
      <trkpt lat="47.06685" lon="5.48919">
        <ele>212</ele>
        <time>2017-09-03T06:11:48Z</time>
      </trkpt>
      <trkpt lat="47.06675" lon="5.48935">
        <ele>212</ele>
        <time>2017-09-03T06:11:52Z</time>
      </trkpt>
      <trkpt lat="47.06665" lon="5.48952">
        <ele>211</ele>
        <time>2017-09-03T06:11:56Z</time>
      </trkpt>
      <trkpt lat="47.06654" lon="5.4897">
        <ele>212</ele>
        <time>2017-09-03T06:12:00Z</time>
      </trkpt>
      <trkpt lat="47.06643" lon="5.48993">
        <ele>211</ele>
        <time>2017-09-03T06:12:04Z</time>
      </trkpt>
      <trkpt lat="47.06634" lon="5.49017">
        <ele>211</ele>
        <time>2017-09-03T06:12:08Z</time>
      </trkpt>
      <trkpt lat="47.06626" lon="5.4904">
        <ele>211</ele>
        <time>2017-09-03T06:12:12Z</time>
      </trkpt>
      <trkpt lat="47.06621" lon="5.49064">
        <ele>211</ele>
        <time>2017-09-03T06:12:16Z</time>
      </trkpt>
      <trkpt lat="47.06616" lon="5.4909">
        <ele>211</ele>
        <time>2017-09-03T06:12:20Z</time>
      </trkpt>
      <trkpt lat="47.06613" lon="5.49116">
        <ele>211</ele>
        <time>2017-09-03T06:12:24Z</time>
      </trkpt>
      <trkpt lat="47.06611" lon="5.49141">
        <ele>211</ele>
        <time>2017-09-03T06:12:28Z</time>
      </trkpt>
      <trkpt lat="47.06608" lon="5.49166">
        <ele>211</ele>
        <time>2017-09-03T06:12:32Z</time>
      </trkpt>
      <trkpt lat="47.06605" lon="5.49191">
        <ele>211</ele>
        <time>2017-09-03T06:12:36Z</time>
      </trkpt>
      <trkpt lat="47.06603" lon="5.49217">
        <ele>212</ele>
        <time>2017-09-03T06:12:40Z</time>
      </trkpt>
      <trkpt lat="47.06599" lon="5.49242">
        <ele>212</ele>
        <time>2017-09-03T06:12:44Z</time>
      </trkpt>
      <trkpt lat="47.06596" lon="5.49267">
        <ele>212</ele>
        <time>2017-09-03T06:12:48Z</time>
      </trkpt>
      <trkpt lat="47.06593" lon="5.49291">
        <ele>212</ele>
        <time>2017-09-03T06:12:52Z</time>
      </trkpt>
      <trkpt lat="47.06591" lon="5.49316">
        <ele>212</ele>
        <time>2017-09-03T06:12:56Z</time>
      </trkpt>
      <trkpt lat="47.06587" lon="5.49342">
        <ele>212</ele>
        <time>2017-09-03T06:13:00Z</time>
      </trkpt>
      <trkpt lat="47.06584" lon="5.49367">
        <ele>212</ele>
        <time>2017-09-03T06:13:04Z</time>
      </trkpt>
      <trkpt lat="47.0658" lon="5.49391">
        <ele>213</ele>
        <time>2017-09-03T06:13:08Z</time>
      </trkpt>
      <trkpt lat="47.06577" lon="5.49414">
        <ele>213</ele>
        <time>2017-09-03T06:13:12Z</time>
      </trkpt>
      <trkpt lat="47.06573" lon="5.49436">
        <ele>213</ele>
        <time>2017-09-03T06:13:16Z</time>
      </trkpt>
      <trkpt lat="47.06569" lon="5.49457">
        <ele>213</ele>
        <time>2017-09-03T06:13:20Z</time>
      </trkpt>
      <trkpt lat="47.06565" lon="5.49476">
        <ele>214</ele>
        <time>2017-09-03T06:13:24Z</time>
      </trkpt>
      <trkpt lat="47.06557" lon="5.4949">
        <ele>214</ele>
        <time>2017-09-03T06:13:28Z</time>
      </trkpt>
      <trkpt lat="47.06545" lon="5.4949">
        <ele>214</ele>
        <time>2017-09-03T06:13:32Z</time>
      </trkpt>
      <trkpt lat="47.0653" lon="5.49495">
        <ele>214</ele>
        <time>2017-09-03T06:13:36Z</time>
      </trkpt>
      <trkpt lat="47.06525" lon="5.49518">
        <ele>214</ele>
        <time>2017-09-03T06:13:40Z</time>
      </trkpt>
      <trkpt lat="47.06528" lon="5.49541">
        <ele>214</ele>
        <time>2017-09-03T06:13:44Z</time>
      </trkpt>
      <trkpt lat="47.06533" lon="5.49563">
        <ele>214</ele>
        <time>2017-09-03T06:13:48Z</time>
      </trkpt>
      <trkpt lat="47.06544" lon="5.4958">
        <ele>214</ele>
        <time>2017-09-03T06:13:52Z</time>
      </trkpt>
      <trkpt lat="47.06557" lon="5.49593">
        <ele>215</ele>
        <time>2017-09-03T06:13:56Z</time>
      </trkpt>
      <trkpt lat="47.06569" lon="5.49603">
        <ele>215</ele>
        <time>2017-09-03T06:14:00Z</time>
      </trkpt>
      <trkpt lat="47.06582" lon="5.49612">
        <ele>216</ele>
        <time>2017-09-03T06:14:04Z</time>
      </trkpt>
      <trkpt lat="47.06595" lon="5.49624">
        <ele>216</ele>
        <time>2017-09-03T06:14:08Z</time>
      </trkpt>
      <trkpt lat="47.06609" lon="5.49634">
        <ele>216</ele>
        <time>2017-09-03T06:14:12Z</time>
      </trkpt>
      <trkpt lat="47.06622" lon="5.49646">
        <ele>216</ele>
        <time>2017-09-03T06:14:16Z</time>
      </trkpt>
      <trkpt lat="47.06635" lon="5.49658">
        <ele>216</ele>
        <time>2017-09-03T06:14:20Z</time>
      </trkpt>
      <trkpt lat="47.06648" lon="5.49669">
        <ele>216</ele>
        <time>2017-09-03T06:14:24Z</time>
      </trkpt>
      <trkpt lat="47.06661" lon="5.49681">
        <ele>217</ele>
        <time>2017-09-03T06:14:28Z</time>
      </trkpt>
      <trkpt lat="47.06673" lon="5.49694">
        <ele>217</ele>
        <time>2017-09-03T06:14:32Z</time>
      </trkpt>
      <trkpt lat="47.06686" lon="5.49708">
        <ele>217</ele>
        <time>2017-09-03T06:14:36Z</time>
      </trkpt>
      <trkpt lat="47.06699" lon="5.49722">
        <ele>217</ele>
        <time>2017-09-03T06:14:40Z</time>
      </trkpt>
      <trkpt lat="47.06711" lon="5.49737">
        <ele>217</ele>
        <time>2017-09-03T06:14:44Z</time>
      </trkpt>
      <trkpt lat="47.06723" lon="5.49752">
        <ele>217</ele>
        <time>2017-09-03T06:14:48Z</time>
      </trkpt>
      <trkpt lat="47.06734" lon="5.49769">
        <ele>217</ele>
        <time>2017-09-03T06:14:52Z</time>
      </trkpt>
      <trkpt lat="47.06744" lon="5.49787">
        <ele>218</ele>
        <time>2017-09-03T06:14:56Z</time>
      </trkpt>
      <trkpt lat="47.06752" lon="5.49804">
        <ele>218</ele>
        <time>2017-09-03T06:15:00Z</time>
      </trkpt>
      <trkpt lat="47.06758" lon="5.49822">
        <ele>218</ele>
        <time>2017-09-03T06:15:04Z</time>
      </trkpt>
      <trkpt lat="47.06752" lon="5.49838">
        <ele>218</ele>
        <time>2017-09-03T06:15:08Z</time>
      </trkpt>
      <trkpt lat="47.06744" lon="5.49851">
        <ele>218</ele>
        <time>2017-09-03T06:15:12Z</time>
      </trkpt>
      <trkpt lat="47.06738" lon="5.49862">
        <ele>218</ele>
        <time>2017-09-03T06:15:16Z</time>
      </trkpt>
      <trkpt lat="47.06735" lon="5.49877">
        <ele>218</ele>
        <time>2017-09-03T06:15:20Z</time>
      </trkpt>
      <trkpt lat="47.06732" lon="5.49893">
        <ele>219</ele>
        <time>2017-09-03T06:15:24Z</time>
      </trkpt>
      <trkpt lat="47.06734" lon="5.49903">
        <ele>219</ele>
        <time>2017-09-03T06:15:28Z</time>
      </trkpt>
      <trkpt lat="47.06733" lon="5.49914">
        <ele>219</ele>
        <time>2017-09-03T06:15:32Z</time>
      </trkpt>
      <trkpt lat="47.06726" lon="5.49922">
        <ele>219</ele>
        <time>2017-09-03T06:15:36Z</time>
      </trkpt>
      <trkpt lat="47.06719" lon="5.4993">
        <ele>220</ele>
        <time>2017-09-03T06:15:40Z</time>
      </trkpt>
      <trkpt lat="47.06711" lon="5.49936">
        <ele>219</ele>
        <time>2017-09-03T06:15:44Z</time>
      </trkpt>
      <trkpt lat="47.06696" lon="5.49946">
        <ele>219</ele>
        <time>2017-09-03T06:15:48Z</time>
      </trkpt>
      <trkpt lat="47.06684" lon="5.49957">
        <ele>219</ele>
        <time>2017-09-03T06:15:52Z</time>
      </trkpt>
      <trkpt lat="47.06668" lon="5.4997">
        <ele>219</ele>
        <time>2017-09-03T06:15:56Z</time>
      </trkpt>
      <trkpt lat="47.06653" lon="5.49979">
        <ele>219</ele>
        <time>2017-09-03T06:16:00Z</time>
      </trkpt>
      <trkpt lat="47.06641" lon="5.49988">
        <ele>219</ele>
        <time>2017-09-03T06:16:04Z</time>
      </trkpt>
      <trkpt lat="47.0663" lon="5.5">
        <ele>219</ele>
        <time>2017-09-03T06:16:08Z</time>
      </trkpt>
      <trkpt lat="47.06631" lon="5.50015">
        <ele>219</ele>
        <time>2017-09-03T06:16:12Z</time>
      </trkpt>
      <trkpt lat="47.0663" lon="5.50038">
        <ele>220</ele>
        <time>2017-09-03T06:16:16Z</time>
      </trkpt>
      <trkpt lat="47.06632" lon="5.50058">
        <ele>220</ele>
        <time>2017-09-03T06:16:20Z</time>
      </trkpt>
      <trkpt lat="47.06635" lon="5.50081">
        <ele>221</ele>
        <time>2017-09-03T06:16:24Z</time>
      </trkpt>
      <trkpt lat="47.06636" lon="5.50105">
        <ele>221</ele>
        <time>2017-09-03T06:16:28Z</time>
      </trkpt>
      <trkpt lat="47.06636" lon="5.50126">
        <ele>221</ele>
        <time>2017-09-03T06:16:32Z</time>
      </trkpt>
      <trkpt lat="47.06639" lon="5.50146">
        <ele>222</ele>
        <time>2017-09-03T06:16:36Z</time>
      </trkpt>
      <trkpt lat="47.06638" lon="5.50167">
        <ele>222</ele>
        <time>2017-09-03T06:16:40Z</time>
      </trkpt>
      <trkpt lat="47.06641" lon="5.50188">
        <ele>222</ele>
        <time>2017-09-03T06:16:44Z</time>
      </trkpt>
      <trkpt lat="47.06645" lon="5.50209">
        <ele>223</ele>
        <time>2017-09-03T06:16:48Z</time>
      </trkpt>
      <trkpt lat="47.06652" lon="5.50229">
        <ele>224</ele>
        <time>2017-09-03T06:16:52Z</time>
      </trkpt>
      <trkpt lat="47.06663" lon="5.50242">
        <ele>224</ele>
        <time>2017-09-03T06:16:56Z</time>
      </trkpt>
      <trkpt lat="47.06675" lon="5.50248">
        <ele>225</ele>
        <time>2017-09-03T06:17:00Z</time>
      </trkpt>
      <trkpt lat="47.06686" lon="5.50253">
        <ele>226</ele>
        <time>2017-09-03T06:17:04Z</time>
      </trkpt>
      <trkpt lat="47.067" lon="5.50256">
        <ele>226</ele>
        <time>2017-09-03T06:17:08Z</time>
      </trkpt>
      <trkpt lat="47.06716" lon="5.50259">
        <ele>227</ele>
        <time>2017-09-03T06:17:12Z</time>
      </trkpt>
      <trkpt lat="47.06735" lon="5.5026">
        <ele>228</ele>
        <time>2017-09-03T06:17:16Z</time>
      </trkpt>
      <trkpt lat="47.06753" lon="5.50265">
        <ele>229</ele>
        <time>2017-09-03T06:17:20Z</time>
      </trkpt>
      <trkpt lat="47.06759" lon="5.50281">
        <ele>229</ele>
        <time>2017-09-03T06:17:24Z</time>
      </trkpt>
      <trkpt lat="47.06765" lon="5.50299">
        <ele>229</ele>
        <time>2017-09-03T06:17:28Z</time>
      </trkpt>
      <trkpt lat="47.06771" lon="5.50313">
        <ele>230</ele>
        <time>2017-09-03T06:17:32Z</time>
      </trkpt>
      <trkpt lat="47.06781" lon="5.50324">
        <ele>230</ele>
        <time>2017-09-03T06:17:36Z</time>
      </trkpt>
      <trkpt lat="47.06791" lon="5.50334">
        <ele>231</ele>
        <time>2017-09-03T06:17:40Z</time>
      </trkpt>
      <trkpt lat="47.06798" lon="5.50343">
        <ele>231</ele>
        <time>2017-09-03T06:17:44Z</time>
      </trkpt>
      <trkpt lat="47.06806" lon="5.50353">
        <ele>232</ele>
        <time>2017-09-03T06:17:48Z</time>
      </trkpt>
      <trkpt lat="47.06815" lon="5.50358">
        <ele>232</ele>
        <time>2017-09-03T06:17:52Z</time>
      </trkpt>
      <trkpt lat="47.06826" lon="5.50367">
        <ele>233</ele>
        <time>2017-09-03T06:17:56Z</time>
      </trkpt>
      <trkpt lat="47.06831" lon="5.50379">
        <ele>233</ele>
        <time>2017-09-03T06:18:00Z</time>
      </trkpt>
      <trkpt lat="47.0684" lon="5.5039">
        <ele>233</ele>
        <time>2017-09-03T06:18:04Z</time>
      </trkpt>
      <trkpt lat="47.06853" lon="5.50399">
        <ele>234</ele>
        <time>2017-09-03T06:18:08Z</time>
      </trkpt>
      <trkpt lat="47.06866" lon="5.50409">
        <ele>234</ele>
        <time>2017-09-03T06:18:12Z</time>
      </trkpt>
      <trkpt lat="47.06876" lon="5.50421">
        <ele>234</ele>
        <time>2017-09-03T06:18:16Z</time>
      </trkpt>
      <trkpt lat="47.06886" lon="5.50429">
        <ele>234</ele>
        <time>2017-09-03T06:18:20Z</time>
      </trkpt>
      <trkpt lat="47.06897" lon="5.50436">
        <ele>234</ele>
        <time>2017-09-03T06:18:24Z</time>
      </trkpt>
      <trkpt lat="47.06913" lon="5.5044">
        <ele>234</ele>
        <time>2017-09-03T06:18:28Z</time>
      </trkpt>
      <trkpt lat="47.06926" lon="5.50441">
        <ele>235</ele>
        <time>2017-09-03T06:18:32Z</time>
      </trkpt>
      <trkpt lat="47.06933" lon="5.50447">
        <ele>235</ele>
        <time>2017-09-03T06:18:36Z</time>
      </trkpt>
      <trkpt lat="47.06933" lon="5.50459">
        <ele>235</ele>
        <time>2017-09-03T06:18:40Z</time>
      </trkpt>
      <trkpt lat="47.06933" lon="5.50472">
        <ele>235</ele>
        <time>2017-09-03T06:18:44Z</time>
      </trkpt>
      <trkpt lat="47.06932" lon="5.50487">
        <ele>235</ele>
        <time>2017-09-03T06:18:48Z</time>
      </trkpt>
      <trkpt lat="47.06933" lon="5.50505">
        <ele>236</ele>
        <time>2017-09-03T06:18:52Z</time>
      </trkpt>
      <trkpt lat="47.06934" lon="5.50527">
        <ele>236</ele>
        <time>2017-09-03T06:18:56Z</time>
      </trkpt>
      <trkpt lat="47.0693" lon="5.50546">
        <ele>235</ele>
        <time>2017-09-03T06:19:00Z</time>
      </trkpt>
      <trkpt lat="47.06924" lon="5.50568">
        <ele>235</ele>
        <time>2017-09-03T06:19:04Z</time>
      </trkpt>
      <trkpt lat="47.06924" lon="5.50585">
        <ele>235</ele>
        <time>2017-09-03T06:19:08Z</time>
      </trkpt>
      <trkpt lat="47.06928" lon="5.50603">
        <ele>234</ele>
        <time>2017-09-03T06:19:12Z</time>
      </trkpt>
      <trkpt lat="47.0693" lon="5.5062">
        <ele>234</ele>
        <time>2017-09-03T06:19:16Z</time>
      </trkpt>
      <trkpt lat="47.06928" lon="5.50645">
        <ele>234</ele>
        <time>2017-09-03T06:19:20Z</time>
      </trkpt>
      <trkpt lat="47.0693" lon="5.50667">
        <ele>234</ele>
        <time>2017-09-03T06:19:24Z</time>
      </trkpt>
      <trkpt lat="47.06937" lon="5.50686">
        <ele>234</ele>
        <time>2017-09-03T06:19:28Z</time>
      </trkpt>
      <trkpt lat="47.0694" lon="5.50704">
        <ele>234</ele>
        <time>2017-09-03T06:19:32Z</time>
      </trkpt>
      <trkpt lat="47.0695" lon="5.5072">
        <ele>234</ele>
        <time>2017-09-03T06:19:36Z</time>
      </trkpt>
      <trkpt lat="47.0696" lon="5.50733">
        <ele>234</ele>
        <time>2017-09-03T06:19:40Z</time>
      </trkpt>
      <trkpt lat="47.06971" lon="5.5074">
        <ele>234</ele>
        <time>2017-09-03T06:19:44Z</time>
      </trkpt>
      <trkpt lat="47.06986" lon="5.5074">
        <ele>234</ele>
        <time>2017-09-03T06:19:48Z</time>
      </trkpt>
      <trkpt lat="47.06997" lon="5.50738">
        <ele>235</ele>
        <time>2017-09-03T06:19:52Z</time>
      </trkpt>
      <trkpt lat="47.07008" lon="5.50738">
        <ele>235</ele>
        <time>2017-09-03T06:19:56Z</time>
      </trkpt>
      <trkpt lat="47.07018" lon="5.50737">
        <ele>235</ele>
        <time>2017-09-03T06:20:00Z</time>
      </trkpt>
      <trkpt lat="47.07025" lon="5.5074">
        <ele>235</ele>
        <time>2017-09-03T06:20:04Z</time>
      </trkpt>
      <trkpt lat="47.07027" lon="5.50751">
        <ele>235</ele>
        <time>2017-09-03T06:20:08Z</time>
      </trkpt>
      <trkpt lat="47.0703" lon="5.50765">
        <ele>235</ele>
        <time>2017-09-03T06:20:12Z</time>
      </trkpt>
      <trkpt lat="47.07037" lon="5.5078">
        <ele>235</ele>
        <time>2017-09-03T06:20:16Z</time>
      </trkpt>
      <trkpt lat="47.07038" lon="5.50798">
        <ele>235</ele>
        <time>2017-09-03T06:20:20Z</time>
      </trkpt>
      <trkpt lat="47.07036" lon="5.50813">
        <ele>235</ele>
        <time>2017-09-03T06:20:24Z</time>
      </trkpt>
      <trkpt lat="47.07036" lon="5.50831">
        <ele>235</ele>
        <time>2017-09-03T06:20:28Z</time>
      </trkpt>
      <trkpt lat="47.07038" lon="5.50852">
        <ele>235</ele>
        <time>2017-09-03T06:20:32Z</time>
      </trkpt>
      <trkpt lat="47.07045" lon="5.5087">
        <ele>236</ele>
        <time>2017-09-03T06:20:36Z</time>
      </trkpt>
      <trkpt lat="47.07055" lon="5.50887">
        <ele>236</ele>
        <time>2017-09-03T06:20:40Z</time>
      </trkpt>
      <trkpt lat="47.07061" lon="5.50907">
        <ele>236</ele>
        <time>2017-09-03T06:20:44Z</time>
      </trkpt>
      <trkpt lat="47.07065" lon="5.50929">
        <ele>236</ele>
        <time>2017-09-03T06:20:48Z</time>
      </trkpt>
      <trkpt lat="47.07068" lon="5.50949">
        <ele>236</ele>
        <time>2017-09-03T06:20:52Z</time>
      </trkpt>
      <trkpt lat="47.07071" lon="5.50967">
        <ele>236</ele>
        <time>2017-09-03T06:20:56Z</time>
      </trkpt>
      <trkpt lat="47.0707" lon="5.50983">
        <ele>236</ele>
        <time>2017-09-03T06:21:00Z</time>
      </trkpt>
      <trkpt lat="47.07071" lon="5.51001">
        <ele>237</ele>
        <time>2017-09-03T06:21:04Z</time>
      </trkpt>
      <trkpt lat="47.07073" lon="5.5102">
        <ele>237</ele>
        <time>2017-09-03T06:21:08Z</time>
      </trkpt>
      <trkpt lat="47.07087" lon="5.51027">
        <ele>237</ele>
        <time>2017-09-03T06:21:12Z</time>
      </trkpt>
      <trkpt lat="47.07099" lon="5.51025">
        <ele>237</ele>
        <time>2017-09-03T06:21:16Z</time>
      </trkpt>
      <trkpt lat="47.07113" lon="5.51026">
        <ele>237</ele>
        <time>2017-09-03T06:21:21Z</time>
      </trkpt>
      <trkpt lat="47.07122" lon="5.51033">
        <ele>237</ele>
        <time>2017-09-03T06:21:24Z</time>
      </trkpt>
      <trkpt lat="47.07126" lon="5.51045">
        <ele>237</ele>
        <time>2017-09-03T06:21:28Z</time>
      </trkpt>
      <trkpt lat="47.07129" lon="5.51058">
        <ele>237</ele>
        <time>2017-09-03T06:21:32Z</time>
      </trkpt>
      <trkpt lat="47.07132" lon="5.51077">
        <ele>237</ele>
        <time>2017-09-03T06:21:36Z</time>
      </trkpt>
      <trkpt lat="47.07133" lon="5.51101">
        <ele>238</ele>
        <time>2017-09-03T06:21:40Z</time>
      </trkpt>
      <trkpt lat="47.07138" lon="5.51121">
        <ele>238</ele>
        <time>2017-09-03T06:21:44Z</time>
      </trkpt>
      <trkpt lat="47.0714" lon="5.51137">
        <ele>237</ele>
        <time>2017-09-03T06:21:48Z</time>
      </trkpt>
      <trkpt lat="47.07147" lon="5.51158">
        <ele>237</ele>
        <time>2017-09-03T06:21:52Z</time>
      </trkpt>
      <trkpt lat="47.07152" lon="5.5118">
        <ele>237</ele>
        <time>2017-09-03T06:21:56Z</time>
      </trkpt>
      <trkpt lat="47.07153" lon="5.512">
        <ele>237</ele>
        <time>2017-09-03T06:22:00Z</time>
      </trkpt>
      <trkpt lat="47.07159" lon="5.51219">
        <ele>237</ele>
        <time>2017-09-03T06:22:04Z</time>
      </trkpt>
      <trkpt lat="47.07168" lon="5.5124">
        <ele>237</ele>
        <time>2017-09-03T06:22:08Z</time>
      </trkpt>
      <trkpt lat="47.07167" lon="5.51266">
        <ele>237</ele>
        <time>2017-09-03T06:22:12Z</time>
      </trkpt>
      <trkpt lat="47.07183" lon="5.51287">
        <ele>236</ele>
        <time>2017-09-03T06:22:16Z</time>
      </trkpt>
      <trkpt lat="47.0719" lon="5.51307">
        <ele>236</ele>
        <time>2017-09-03T06:22:20Z</time>
      </trkpt>
      <trkpt lat="47.07194" lon="5.51331">
        <ele>236</ele>
        <time>2017-09-03T06:22:24Z</time>
      </trkpt>
      <trkpt lat="47.07194" lon="5.51356">
        <ele>235</ele>
        <time>2017-09-03T06:22:28Z</time>
      </trkpt>
      <trkpt lat="47.07197" lon="5.51378">
        <ele>235</ele>
        <time>2017-09-03T06:22:32Z</time>
      </trkpt>
      <trkpt lat="47.07193" lon="5.51409">
        <ele>234</ele>
        <time>2017-09-03T06:22:36Z</time>
      </trkpt>
      <trkpt lat="47.072" lon="5.51429">
        <ele>234</ele>
        <time>2017-09-03T06:22:40Z</time>
      </trkpt>
      <trkpt lat="47.07198" lon="5.51454">
        <ele>234</ele>
        <time>2017-09-03T06:22:44Z</time>
      </trkpt>
      <trkpt lat="47.07208" lon="5.51473">
        <ele>233</ele>
        <time>2017-09-03T06:22:48Z</time>
      </trkpt>
      <trkpt lat="47.0722" lon="5.51487">
        <ele>233</ele>
        <time>2017-09-03T06:22:52Z</time>
      </trkpt>
      <trkpt lat="47.0724" lon="5.51505">
        <ele>233</ele>
        <time>2017-09-03T06:23:00Z</time>
      </trkpt>
      <trkpt lat="47.07254" lon="5.51517">
        <ele>233</ele>
        <time>2017-09-03T06:23:04Z</time>
      </trkpt>
      <trkpt lat="47.07256" lon="5.51536">
        <ele>233</ele>
        <time>2017-09-03T06:23:08Z</time>
      </trkpt>
      <trkpt lat="47.07263" lon="5.51557">
        <ele>233</ele>
        <time>2017-09-03T06:23:12Z</time>
      </trkpt>
      <trkpt lat="47.07271" lon="5.51571">
        <ele>233</ele>
        <time>2017-09-03T06:23:16Z</time>
      </trkpt>
      <trkpt lat="47.07274" lon="5.51592">
        <ele>234</ele>
        <time>2017-09-03T06:23:20Z</time>
      </trkpt>
      <trkpt lat="47.07278" lon="5.51611">
        <ele>234</ele>
        <time>2017-09-03T06:23:24Z</time>
      </trkpt>
      <trkpt lat="47.07277" lon="5.51626">
        <ele>234</ele>
        <time>2017-09-03T06:23:28Z</time>
      </trkpt>
      <trkpt lat="47.07283" lon="5.51641">
        <ele>234</ele>
        <time>2017-09-03T06:23:32Z</time>
      </trkpt>
      <trkpt lat="47.07284" lon="5.51663">
        <ele>235</ele>
        <time>2017-09-03T06:23:36Z</time>
      </trkpt>
      <trkpt lat="47.07293" lon="5.51682">
        <ele>235</ele>
        <time>2017-09-03T06:23:40Z</time>
      </trkpt>
      <trkpt lat="47.07298" lon="5.51704">
        <ele>234</ele>
        <time>2017-09-03T06:23:44Z</time>
      </trkpt>
      <trkpt lat="47.07304" lon="5.51729">
        <ele>235</ele>
        <time>2017-09-03T06:23:48Z</time>
      </trkpt>
      <trkpt lat="47.07308" lon="5.51752">
        <ele>235</ele>
        <time>2017-09-03T06:23:52Z</time>
      </trkpt>
      <trkpt lat="47.07313" lon="5.51771">
        <ele>235</ele>
        <time>2017-09-03T06:23:56Z</time>
      </trkpt>
      <trkpt lat="47.07319" lon="5.51784">
        <ele>235</ele>
        <time>2017-09-03T06:24:00Z</time>
      </trkpt>
      <trkpt lat="47.0732" lon="5.51798">
        <ele>235</ele>
        <time>2017-09-03T06:24:04Z</time>
      </trkpt>
      <trkpt lat="47.07322" lon="5.51808">
        <ele>235</ele>
        <time>2017-09-03T06:24:08Z</time>
      </trkpt>
      <trkpt lat="47.0732" lon="5.51825">
        <ele>235</ele>
        <time>2017-09-03T06:24:12Z</time>
      </trkpt>
      <trkpt lat="47.07323" lon="5.51844">
        <ele>235</ele>
        <time>2017-09-03T06:24:16Z</time>
      </trkpt>
      <trkpt lat="47.07329" lon="5.51864">
        <ele>235</ele>
        <time>2017-09-03T06:24:20Z</time>
      </trkpt>
      <trkpt lat="47.07336" lon="5.51882">
        <ele>235</ele>
        <time>2017-09-03T06:24:24Z</time>
      </trkpt>
      <trkpt lat="47.07337" lon="5.51899">
        <ele>235</ele>
        <time>2017-09-03T06:24:28Z</time>
      </trkpt>
      <trkpt lat="47.07346" lon="5.51912">
        <ele>235</ele>
        <time>2017-09-03T06:24:32Z</time>
      </trkpt>
      <trkpt lat="47.07357" lon="5.51924">
        <ele>235</ele>
        <time>2017-09-03T06:24:36Z</time>
      </trkpt>
      <trkpt lat="47.07372" lon="5.51938">
        <ele>234</ele>
        <time>2017-09-03T06:24:40Z</time>
      </trkpt>
      <trkpt lat="47.07397" lon="5.51951">
        <ele>233</ele>
        <time>2017-09-03T06:24:44Z</time>
      </trkpt>
      <trkpt lat="47.07416" lon="5.51966">
        <ele>233</ele>
        <time>2017-09-03T06:24:48Z</time>
      </trkpt>
      <trkpt lat="47.07434" lon="5.51979">
        <ele>232</ele>
        <time>2017-09-03T06:24:52Z</time>
      </trkpt>
      <trkpt lat="47.07453" lon="5.5199">
        <ele>232</ele>
        <time>2017-09-03T06:24:56Z</time>
      </trkpt>
      <trkpt lat="47.07474" lon="5.52">
        <ele>232</ele>
        <time>2017-09-03T06:25:00Z</time>
      </trkpt>
      <trkpt lat="47.07496" lon="5.52009">
        <ele>231</ele>
        <time>2017-09-03T06:25:04Z</time>
      </trkpt>
      <trkpt lat="47.07509" lon="5.52022">
        <ele>231</ele>
        <time>2017-09-03T06:25:08Z</time>
      </trkpt>
      <trkpt lat="47.07519" lon="5.52029">
        <ele>232</ele>
        <time>2017-09-03T06:25:12Z</time>
      </trkpt>
      <trkpt lat="47.07524" lon="5.52042">
        <ele>231</ele>
        <time>2017-09-03T06:25:16Z</time>
      </trkpt>
      <trkpt lat="47.07533" lon="5.52052">
        <ele>231</ele>
        <time>2017-09-03T06:25:20Z</time>
      </trkpt>
      <trkpt lat="47.0754" lon="5.52061">
        <ele>231</ele>
        <time>2017-09-03T06:25:24Z</time>
      </trkpt>
      <trkpt lat="47.07541" lon="5.52073">
        <ele>231</ele>
        <time>2017-09-03T06:25:28Z</time>
      </trkpt>
      <trkpt lat="47.07537" lon="5.5209">
        <ele>230</ele>
        <time>2017-09-03T06:25:32Z</time>
      </trkpt>
      <trkpt lat="47.07537" lon="5.5211">
        <ele>230</ele>
        <time>2017-09-03T06:25:36Z</time>
      </trkpt>
      <trkpt lat="47.0754" lon="5.52128">
        <ele>229</ele>
        <time>2017-09-03T06:25:40Z</time>
      </trkpt>
      <trkpt lat="47.07551" lon="5.52142">
        <ele>229</ele>
        <time>2017-09-03T06:25:44Z</time>
      </trkpt>
      <trkpt lat="47.07562" lon="5.52155">
        <ele>230</ele>
        <time>2017-09-03T06:25:48Z</time>
      </trkpt>
      <trkpt lat="47.07574" lon="5.52161">
        <ele>230</ele>
        <time>2017-09-03T06:25:52Z</time>
      </trkpt>
      <trkpt lat="47.07585" lon="5.52171">
        <ele>231</ele>
        <time>2017-09-03T06:25:56Z</time>
      </trkpt>
      <trkpt lat="47.07593" lon="5.52182">
        <ele>230</ele>
        <time>2017-09-03T06:26:00Z</time>
      </trkpt>
      <trkpt lat="47.07603" lon="5.52189">
        <ele>230</ele>
        <time>2017-09-03T06:26:04Z</time>
      </trkpt>
      <trkpt lat="47.07615" lon="5.52199">
        <ele>231</ele>
        <time>2017-09-03T06:26:08Z</time>
      </trkpt>
      <trkpt lat="47.07629" lon="5.52207">
        <ele>232</ele>
        <time>2017-09-03T06:26:12Z</time>
      </trkpt>
      <trkpt lat="47.07634" lon="5.52222">
        <ele>231</ele>
        <time>2017-09-03T06:26:16Z</time>
      </trkpt>
      <trkpt lat="47.07643" lon="5.52242">
        <ele>231</ele>
        <time>2017-09-03T06:26:20Z</time>
      </trkpt>
      <trkpt lat="47.07654" lon="5.52254">
        <ele>231</ele>
        <time>2017-09-03T06:26:24Z</time>
      </trkpt>
      <trkpt lat="47.07661" lon="5.52269">
        <ele>231</ele>
        <time>2017-09-03T06:26:28Z</time>
      </trkpt>
      <trkpt lat="47.07668" lon="5.52285">
        <ele>231</ele>
        <time>2017-09-03T06:26:32Z</time>
      </trkpt>
      <trkpt lat="47.07672" lon="5.52307">
        <ele>231</ele>
        <time>2017-09-03T06:26:36Z</time>
      </trkpt>
      <trkpt lat="47.07677" lon="5.52327">
        <ele>231</ele>
        <time>2017-09-03T06:26:40Z</time>
      </trkpt>
      <trkpt lat="47.0768" lon="5.52346">
        <ele>231</ele>
        <time>2017-09-03T06:26:44Z</time>
      </trkpt>
      <trkpt lat="47.07685" lon="5.52372">
        <ele>231</ele>
        <time>2017-09-03T06:26:48Z</time>
      </trkpt>
      <trkpt lat="47.07693" lon="5.52391">
        <ele>231</ele>
        <time>2017-09-03T06:26:52Z</time>
      </trkpt>
      <trkpt lat="47.07694" lon="5.52416">
        <ele>231</ele>
        <time>2017-09-03T06:26:56Z</time>
      </trkpt>
      <trkpt lat="47.07694" lon="5.52439">
        <ele>231</ele>
        <time>2017-09-03T06:27:00Z</time>
      </trkpt>
      <trkpt lat="47.07693" lon="5.52464">
        <ele>231</ele>
        <time>2017-09-03T06:27:04Z</time>
      </trkpt>
      <trkpt lat="47.07698" lon="5.52487">
        <ele>231</ele>
        <time>2017-09-03T06:27:08Z</time>
      </trkpt>
      <trkpt lat="47.07702" lon="5.52513">
        <ele>231</ele>
        <time>2017-09-03T06:27:12Z</time>
      </trkpt>
      <trkpt lat="47.07711" lon="5.52541">
        <ele>231</ele>
        <time>2017-09-03T06:27:16Z</time>
      </trkpt>
      <trkpt lat="47.07719" lon="5.52562">
        <ele>231</ele>
        <time>2017-09-03T06:27:20Z</time>
      </trkpt>
      <trkpt lat="47.07724" lon="5.52592">
        <ele>232</ele>
        <time>2017-09-03T06:27:24Z</time>
      </trkpt>
      <trkpt lat="47.07726" lon="5.52616">
        <ele>232</ele>
        <time>2017-09-03T06:27:28Z</time>
      </trkpt>
      <trkpt lat="47.07735" lon="5.52643">
        <ele>232</ele>
        <time>2017-09-03T06:27:32Z</time>
      </trkpt>
      <trkpt lat="47.07743" lon="5.52665">
        <ele>231</ele>
        <time>2017-09-03T06:27:36Z</time>
      </trkpt>
      <trkpt lat="47.07748" lon="5.52687">
        <ele>231</ele>
        <time>2017-09-03T06:27:40Z</time>
      </trkpt>
      <trkpt lat="47.07758" lon="5.52705">
        <ele>230</ele>
        <time>2017-09-03T06:27:44Z</time>
      </trkpt>
      <trkpt lat="47.07761" lon="5.52732">
        <ele>229</ele>
        <time>2017-09-03T06:27:48Z</time>
      </trkpt>
      <trkpt lat="47.07769" lon="5.52762">
        <ele>226</ele>
        <time>2017-09-03T06:27:52Z</time>
      </trkpt>
      <trkpt lat="47.0777" lon="5.52786">
        <ele>223</ele>
        <time>2017-09-03T06:27:57Z</time>
      </trkpt>
      <trkpt lat="47.07768" lon="5.52808">
        <ele>218</ele>
        <time>2017-09-03T06:28:00Z</time>
      </trkpt>
      <trkpt lat="47.07769" lon="5.52835">
        <ele>215</ele>
        <time>2017-09-03T06:28:04Z</time>
      </trkpt>
      <trkpt lat="47.07778" lon="5.52855">
        <ele>211</ele>
        <time>2017-09-03T06:28:08Z</time>
      </trkpt>
      <trkpt lat="47.07793" lon="5.5287">
        <ele>211</ele>
        <time>2017-09-03T06:28:12Z</time>
      </trkpt>
      <trkpt lat="47.078" lon="5.52884">
        <ele>210</ele>
        <time>2017-09-03T06:28:16Z</time>
      </trkpt>
      <trkpt lat="47.07802" lon="5.52896">
        <ele>210</ele>
        <time>2017-09-03T06:28:20Z</time>
      </trkpt>
      <trkpt lat="47.07805" lon="5.52913">
        <ele>211</ele>
        <time>2017-09-03T06:28:24Z</time>
      </trkpt>
      <trkpt lat="47.078" lon="5.52933">
        <ele>212</ele>
        <time>2017-09-03T06:28:28Z</time>
      </trkpt>
      <trkpt lat="47.07792" lon="5.5294">
        <ele>213</ele>
        <time>2017-09-03T06:28:32Z</time>
      </trkpt>
      <trkpt lat="47.0778" lon="5.52945">
        <ele>214</ele>
        <time>2017-09-03T06:28:36Z</time>
      </trkpt>
      <trkpt lat="47.07769" lon="5.52958">
        <ele>216</ele>
        <time>2017-09-03T06:28:40Z</time>
      </trkpt>
      <trkpt lat="47.07765" lon="5.52967">
        <ele>217</ele>
        <time>2017-09-03T06:28:44Z</time>
      </trkpt>
      <trkpt lat="47.07769" lon="5.5298">
        <ele>218</ele>
        <time>2017-09-03T06:28:48Z</time>
      </trkpt>
      <trkpt lat="47.07781" lon="5.52996">
        <ele>219</ele>
        <time>2017-09-03T06:28:52Z</time>
      </trkpt>
      <trkpt lat="47.07788" lon="5.53015">
        <ele>220</ele>
        <time>2017-09-03T06:28:56Z</time>
      </trkpt>
      <trkpt lat="47.07794" lon="5.53032">
        <ele>221</ele>
        <time>2017-09-03T06:29:00Z</time>
      </trkpt>
      <trkpt lat="47.07791" lon="5.53047">
        <ele>222</ele>
        <time>2017-09-03T06:29:04Z</time>
      </trkpt>
      <trkpt lat="47.07794" lon="5.53056">
        <ele>222</ele>
        <time>2017-09-03T06:29:08Z</time>
      </trkpt>
      <trkpt lat="47.07801" lon="5.53068">
        <ele>224</ele>
        <time>2017-09-03T06:29:12Z</time>
      </trkpt>
      <trkpt lat="47.07806" lon="5.53078">
        <ele>224</ele>
        <time>2017-09-03T06:29:16Z</time>
      </trkpt>
      <trkpt lat="47.07804" lon="5.53088">
        <ele>224</ele>
        <time>2017-09-03T06:29:20Z</time>
      </trkpt>
      <trkpt lat="47.07813" lon="5.53102">
        <ele>225</ele>
        <time>2017-09-03T06:29:24Z</time>
      </trkpt>
      <trkpt lat="47.0782" lon="5.53118">
        <ele>226</ele>
        <time>2017-09-03T06:29:28Z</time>
      </trkpt>
      <trkpt lat="47.07819" lon="5.53136">
        <ele>227</ele>
        <time>2017-09-03T06:29:32Z</time>
      </trkpt>
      <trkpt lat="47.07822" lon="5.53158">
        <ele>227</ele>
        <time>2017-09-03T06:29:36Z</time>
      </trkpt>
      <trkpt lat="47.07829" lon="5.53177">
        <ele>228</ele>
        <time>2017-09-03T06:29:40Z</time>
      </trkpt>
      <trkpt lat="47.07834" lon="5.53195">
        <ele>229</ele>
        <time>2017-09-03T06:29:44Z</time>
      </trkpt>
      <trkpt lat="47.07841" lon="5.53211">
        <ele>229</ele>
        <time>2017-09-03T06:29:48Z</time>
      </trkpt>
      <trkpt lat="47.07849" lon="5.53219">
        <ele>229</ele>
        <time>2017-09-03T06:29:52Z</time>
      </trkpt>
      <trkpt lat="47.07868" lon="5.53216">
        <ele>228</ele>
        <time>2017-09-03T06:29:56Z</time>
      </trkpt>
      <trkpt lat="47.07881" lon="5.53218">
        <ele>226</ele>
        <time>2017-09-03T06:30:00Z</time>
      </trkpt>
      <trkpt lat="47.0789" lon="5.53232">
        <ele>227</ele>
        <time>2017-09-03T06:30:04Z</time>
      </trkpt>
      <trkpt lat="47.07894" lon="5.53241">
        <ele>228</ele>
        <time>2017-09-03T06:30:08Z</time>
      </trkpt>
      <trkpt lat="47.07899" lon="5.53252">
        <ele>229</ele>
        <time>2017-09-03T06:30:12Z</time>
      </trkpt>
      <trkpt lat="47.07904" lon="5.53262">
        <ele>230</ele>
        <time>2017-09-03T06:30:16Z</time>
      </trkpt>
      <trkpt lat="47.0791" lon="5.53273">
        <ele>230</ele>
        <time>2017-09-03T06:30:20Z</time>
      </trkpt>
      <trkpt lat="47.07915" lon="5.53283">
        <ele>231</ele>
        <time>2017-09-03T06:30:24Z</time>
      </trkpt>
      <trkpt lat="47.0792" lon="5.53297">
        <ele>231</ele>
        <time>2017-09-03T06:30:28Z</time>
      </trkpt>
      <trkpt lat="47.07923" lon="5.5331">
        <ele>231</ele>
        <time>2017-09-03T06:30:32Z</time>
      </trkpt>
      <trkpt lat="47.07926" lon="5.53322">
        <ele>232</ele>
        <time>2017-09-03T06:30:36Z</time>
      </trkpt>
      <trkpt lat="47.07927" lon="5.53336">
        <ele>232</ele>
        <time>2017-09-03T06:30:40Z</time>
      </trkpt>
      <trkpt lat="47.0793" lon="5.53349">
        <ele>232</ele>
        <time>2017-09-03T06:30:44Z</time>
      </trkpt>
      <trkpt lat="47.07935" lon="5.5336">
        <ele>232</ele>
        <time>2017-09-03T06:30:48Z</time>
      </trkpt>
      <trkpt lat="47.07936" lon="5.53373">
        <ele>232</ele>
        <time>2017-09-03T06:30:52Z</time>
      </trkpt>
      <trkpt lat="47.07938" lon="5.53386">
        <ele>232</ele>
        <time>2017-09-03T06:30:56Z</time>
      </trkpt>
      <trkpt lat="47.07939" lon="5.53402">
        <ele>232</ele>
        <time>2017-09-03T06:31:00Z</time>
      </trkpt>
      <trkpt lat="47.07943" lon="5.53417">
        <ele>231</ele>
        <time>2017-09-03T06:31:04Z</time>
      </trkpt>
      <trkpt lat="47.07947" lon="5.53436">
        <ele>231</ele>
        <time>2017-09-03T06:31:08Z</time>
      </trkpt>
      <trkpt lat="47.07954" lon="5.53456">
        <ele>230</ele>
        <time>2017-09-03T06:31:12Z</time>
      </trkpt>
      <trkpt lat="47.07957" lon="5.53478">
        <ele>229</ele>
        <time>2017-09-03T06:31:16Z</time>
      </trkpt>
      <trkpt lat="47.07961" lon="5.53506">
        <ele>227</ele>
        <time>2017-09-03T06:31:20Z</time>
      </trkpt>
      <trkpt lat="47.07964" lon="5.53535">
        <ele>225</ele>
        <time>2017-09-03T06:31:24Z</time>
      </trkpt>
      <trkpt lat="47.07967" lon="5.53564">
        <ele>225</ele>
        <time>2017-09-03T06:31:28Z</time>
      </trkpt>
      <trkpt lat="47.07978" lon="5.53603">
        <ele>222</ele>
        <time>2017-09-03T06:31:32Z</time>
      </trkpt>
      <trkpt lat="47.07989" lon="5.53644">
        <ele>219</ele>
        <time>2017-09-03T06:31:36Z</time>
      </trkpt>
      <trkpt lat="47.07997" lon="5.53675">
        <ele>216</ele>
        <time>2017-09-03T06:31:40Z</time>
      </trkpt>
      <trkpt lat="47.08008" lon="5.53702">
        <ele>211</ele>
        <time>2017-09-03T06:31:44Z</time>
      </trkpt>
      <trkpt lat="47.08011" lon="5.53718">
        <ele>209</ele>
        <time>2017-09-03T06:31:48Z</time>
      </trkpt>
      <trkpt lat="47.08015" lon="5.53729">
        <ele>208</ele>
        <time>2017-09-03T06:31:52Z</time>
      </trkpt>
      <trkpt lat="47.08023" lon="5.53737">
        <ele>208</ele>
        <time>2017-09-03T06:31:56Z</time>
      </trkpt>
      <trkpt lat="47.08034" lon="5.53771">
        <ele>213</ele>
        <time>2017-09-03T06:32:12Z</time>
      </trkpt>
      <trkpt lat="47.08035" lon="5.53781">
        <ele>214</ele>
        <time>2017-09-03T06:32:16Z</time>
      </trkpt>
      <trkpt lat="47.08038" lon="5.53799">
        <ele>218</ele>
        <time>2017-09-03T06:32:24Z</time>
      </trkpt>
      <trkpt lat="47.0804" lon="5.53807">
        <ele>219</ele>
        <time>2017-09-03T06:32:28Z</time>
      </trkpt>
      <trkpt lat="47.08074" lon="5.53901">
        <ele>230</ele>
        <time>2017-09-03T06:33:44Z</time>
      </trkpt>
      <trkpt lat="47.08074" lon="5.5391">
        <ele>231</ele>
        <time>2017-09-03T06:33:48Z</time>
      </trkpt>
      <trkpt lat="47.08075" lon="5.53918">
        <ele>231</ele>
        <time>2017-09-03T06:33:52Z</time>
      </trkpt>
      <trkpt lat="47.0807" lon="5.53969">
        <ele>231</ele>
        <time>2017-09-03T06:36:00Z</time>
      </trkpt>
      <trkpt lat="47.08073" lon="5.53974">
        <ele>232</ele>
        <time>2017-09-03T06:36:04Z</time>
      </trkpt>
      <trkpt lat="47.08075" lon="5.53979">
        <ele>232</ele>
        <time>2017-09-03T06:36:08Z</time>
      </trkpt>
      <trkpt lat="47.0808" lon="5.53991">
        <ele>233</ele>
        <time>2017-09-03T06:36:20Z</time>
      </trkpt>
      <trkpt lat="47.08084" lon="5.54001">
        <ele>233</ele>
        <time>2017-09-03T06:36:24Z</time>
      </trkpt>
      <trkpt lat="47.0809" lon="5.5401">
        <ele>233</ele>
        <time>2017-09-03T06:36:28Z</time>
      </trkpt>
      <trkpt lat="47.08091" lon="5.54026">
        <ele>232</ele>
        <time>2017-09-03T06:36:32Z</time>
      </trkpt>
      <trkpt lat="47.08093" lon="5.54036">
        <ele>232</ele>
        <time>2017-09-03T06:36:36Z</time>
      </trkpt>
      <trkpt lat="47.08102" lon="5.54095">
        <ele>232</ele>
        <time>2017-09-03T06:38:00Z</time>
      </trkpt>
      <trkpt lat="47.08103" lon="5.54104">
        <ele>232</ele>
        <time>2017-09-03T06:38:04Z</time>
      </trkpt>
      <trkpt lat="47.08104" lon="5.54115">
        <ele>231</ele>
        <time>2017-09-03T06:38:08Z</time>
      </trkpt>
      <trkpt lat="47.08105" lon="5.54128">
        <ele>231</ele>
        <time>2017-09-03T06:38:12Z</time>
      </trkpt>
      <trkpt lat="47.08107" lon="5.54147">
        <ele>229</ele>
        <time>2017-09-03T06:38:16Z</time>
      </trkpt>
      <trkpt lat="47.08109" lon="5.54167">
        <ele>228</ele>
        <time>2017-09-03T06:38:20Z</time>
      </trkpt>
      <trkpt lat="47.08111" lon="5.5418">
        <ele>227</ele>
        <time>2017-09-03T06:38:24Z</time>
      </trkpt>
      <trkpt lat="47.08113" lon="5.54192">
        <ele>226</ele>
        <time>2017-09-03T06:38:28Z</time>
      </trkpt>
      <trkpt lat="47.08119" lon="5.54207">
        <ele>224</ele>
        <time>2017-09-03T06:38:32Z</time>
      </trkpt>
      <trkpt lat="47.08124" lon="5.54222">
        <ele>223</ele>
        <time>2017-09-03T06:38:36Z</time>
      </trkpt>
      <trkpt lat="47.0813" lon="5.54242">
        <ele>221</ele>
        <time>2017-09-03T06:38:40Z</time>
      </trkpt>
      <trkpt lat="47.08133" lon="5.54258">
        <ele>219</ele>
        <time>2017-09-03T06:38:44Z</time>
      </trkpt>
      <trkpt lat="47.08129" lon="5.5428">
        <ele>216</ele>
        <time>2017-09-03T06:38:48Z</time>
      </trkpt>
      <trkpt lat="47.08132" lon="5.54302">
        <ele>214</ele>
        <time>2017-09-03T06:38:52Z</time>
      </trkpt>
      <trkpt lat="47.08134" lon="5.5432">
        <ele>213</ele>
        <time>2017-09-03T06:38:56Z</time>
      </trkpt>
      <trkpt lat="47.08137" lon="5.54339">
        <ele>213</ele>
        <time>2017-09-03T06:39:00Z</time>
      </trkpt>
      <trkpt lat="47.08141" lon="5.54359">
        <ele>213</ele>
        <time>2017-09-03T06:39:04Z</time>
      </trkpt>
      <trkpt lat="47.08147" lon="5.54373">
        <ele>214</ele>
        <time>2017-09-03T06:39:08Z</time>
      </trkpt>
      <trkpt lat="47.08147" lon="5.54388">
        <ele>215</ele>
        <time>2017-09-03T06:39:12Z</time>
      </trkpt>
      <trkpt lat="47.08155" lon="5.54405">
        <ele>216</ele>
        <time>2017-09-03T06:39:16Z</time>
      </trkpt>
      <trkpt lat="47.08158" lon="5.54414">
        <ele>217</ele>
        <time>2017-09-03T06:39:20Z</time>
      </trkpt>
      <trkpt lat="47.08162" lon="5.54423">
        <ele>219</ele>
        <time>2017-09-03T06:39:24Z</time>
      </trkpt>
      <trkpt lat="47.08168" lon="5.54428">
        <ele>220</ele>
        <time>2017-09-03T06:39:28Z</time>
      </trkpt>
      <trkpt lat="47.08174" lon="5.54433">
        <ele>221</ele>
        <time>2017-09-03T06:39:32Z</time>
      </trkpt>
      <trkpt lat="47.08179" lon="5.5444">
        <ele>223</ele>
        <time>2017-09-03T06:39:36Z</time>
      </trkpt>
      <trkpt lat="47.08184" lon="5.54444">
        <ele>224</ele>
        <time>2017-09-03T06:39:40Z</time>
      </trkpt>
      <trkpt lat="47.08192" lon="5.54446">
        <ele>225</ele>
        <time>2017-09-03T06:39:44Z</time>
      </trkpt>
      <trkpt lat="47.08199" lon="5.54442">
        <ele>225</ele>
        <time>2017-09-03T06:39:48Z</time>
      </trkpt>
      <trkpt lat="47.08204" lon="5.54437">
        <ele>224</ele>
        <time>2017-09-03T06:39:52Z</time>
      </trkpt>
      <trkpt lat="47.08209" lon="5.54431">
        <ele>224</ele>
        <time>2017-09-03T06:39:56Z</time>
      </trkpt>
      <trkpt lat="47.08217" lon="5.54426">
        <ele>224</ele>
        <time>2017-09-03T06:40:00Z</time>
      </trkpt>
      <trkpt lat="47.08224" lon="5.5442">
        <ele>224</ele>
        <time>2017-09-03T06:40:04Z</time>
      </trkpt>
      <trkpt lat="47.0823" lon="5.54416">
        <ele>223</ele>
        <time>2017-09-03T06:40:08Z</time>
      </trkpt>
      <trkpt lat="47.08239" lon="5.54413">
        <ele>222</ele>
        <time>2017-09-03T06:40:12Z</time>
      </trkpt>
      <trkpt lat="47.08249" lon="5.54415">
        <ele>221</ele>
        <time>2017-09-03T06:40:16Z</time>
      </trkpt>
      <trkpt lat="47.08259" lon="5.54422">
        <ele>221</ele>
        <time>2017-09-03T06:40:20Z</time>
      </trkpt>
      <trkpt lat="47.08266" lon="5.5443">
        <ele>220</ele>
        <time>2017-09-03T06:40:24Z</time>
      </trkpt>
      <trkpt lat="47.08275" lon="5.54441">
        <ele>220</ele>
        <time>2017-09-03T06:40:28Z</time>
      </trkpt>
      <trkpt lat="47.08287" lon="5.54451">
        <ele>218</ele>
        <time>2017-09-03T06:40:32Z</time>
      </trkpt>
      <trkpt lat="47.08299" lon="5.5446">
        <ele>218</ele>
        <time>2017-09-03T06:40:36Z</time>
      </trkpt>
      <trkpt lat="47.08313" lon="5.5447">
        <ele>216</ele>
        <time>2017-09-03T06:40:40Z</time>
      </trkpt>
      <trkpt lat="47.08331" lon="5.54486">
        <ele>215</ele>
        <time>2017-09-03T06:40:44Z</time>
      </trkpt>
      <trkpt lat="47.08356" lon="5.54498">
        <ele>213</ele>
        <time>2017-09-03T06:40:48Z</time>
      </trkpt>
      <trkpt lat="47.08376" lon="5.54501">
        <ele>212</ele>
        <time>2017-09-03T06:40:52Z</time>
      </trkpt>
      <trkpt lat="47.08393" lon="5.54495">
        <ele>210</ele>
        <time>2017-09-03T06:40:56Z</time>
      </trkpt>
      <trkpt lat="47.08431" lon="5.54496">
        <ele>209</ele>
        <time>2017-09-03T06:41:00Z</time>
      </trkpt>
      <trkpt lat="47.0846" lon="5.545">
        <ele>207</ele>
        <time>2017-09-03T06:41:04Z</time>
      </trkpt>
      <trkpt lat="47.08487" lon="5.54501">
        <ele>206</ele>
        <time>2017-09-03T06:41:08Z</time>
      </trkpt>
      <trkpt lat="47.08517" lon="5.54492">
        <ele>203</ele>
        <time>2017-09-03T06:41:12Z</time>
      </trkpt>
      <trkpt lat="47.08544" lon="5.5449">
        <ele>202</ele>
        <time>2017-09-03T06:41:16Z</time>
      </trkpt>
      <trkpt lat="47.0856" lon="5.54489">
        <ele>202</ele>
        <time>2017-09-03T06:41:21Z</time>
      </trkpt>
      <trkpt lat="47.08576" lon="5.5448">
        <ele>202</ele>
        <time>2017-09-03T06:42:00Z</time>
      </trkpt>
      <trkpt lat="47.08577" lon="5.5447">
        <ele>201</ele>
        <time>2017-09-03T06:42:04Z</time>
      </trkpt>
      <trkpt lat="47.08583" lon="5.54454">
        <ele>201</ele>
        <time>2017-09-03T06:42:08Z</time>
      </trkpt>
      <trkpt lat="47.0859" lon="5.54441">
        <ele>201</ele>
        <time>2017-09-03T06:42:12Z</time>
      </trkpt>
      <trkpt lat="47.08601" lon="5.54428">
        <ele>201</ele>
        <time>2017-09-03T06:42:16Z</time>
      </trkpt>
      <trkpt lat="47.08614" lon="5.54423">
        <ele>202</ele>
        <time>2017-09-03T06:42:20Z</time>
      </trkpt>
      <trkpt lat="47.08625" lon="5.54422">
        <ele>202</ele>
        <time>2017-09-03T06:42:24Z</time>
      </trkpt>
      <trkpt lat="47.08641" lon="5.54424">
        <ele>202</ele>
        <time>2017-09-03T06:42:28Z</time>
      </trkpt>
      <trkpt lat="47.08658" lon="5.54429">
        <ele>202</ele>
        <time>2017-09-03T06:42:32Z</time>
      </trkpt>
      <trkpt lat="47.08671" lon="5.54436">
        <ele>202</ele>
        <time>2017-09-03T06:42:36Z</time>
      </trkpt>
      <trkpt lat="47.08682" lon="5.54444">
        <ele>202</ele>
        <time>2017-09-03T06:42:40Z</time>
      </trkpt>
      <trkpt lat="47.08695" lon="5.54453">
        <ele>203</ele>
        <time>2017-09-03T06:42:44Z</time>
      </trkpt>
      <trkpt lat="47.08708" lon="5.54463">
        <ele>203</ele>
        <time>2017-09-03T06:42:48Z</time>
      </trkpt>
      <trkpt lat="47.08718" lon="5.54474">
        <ele>204</ele>
        <time>2017-09-03T06:42:52Z</time>
      </trkpt>
      <trkpt lat="47.08725" lon="5.54486">
        <ele>204</ele>
        <time>2017-09-03T06:42:56Z</time>
      </trkpt>
      <trkpt lat="47.0873" lon="5.54495">
        <ele>204</ele>
        <time>2017-09-03T06:43:00Z</time>
      </trkpt>
      <trkpt lat="47.0874" lon="5.54504">
        <ele>206</ele>
        <time>2017-09-03T06:43:04Z</time>
      </trkpt>
      <trkpt lat="47.08766" lon="5.54514">
        <ele>206</ele>
        <time>2017-09-03T06:43:08Z</time>
      </trkpt>
      <trkpt lat="47.08779" lon="5.54524">
        <ele>207</ele>
        <time>2017-09-03T06:43:12Z</time>
      </trkpt>
      <trkpt lat="47.0879" lon="5.54535">
        <ele>208</ele>
        <time>2017-09-03T06:43:16Z</time>
      </trkpt>
      <trkpt lat="47.08802" lon="5.54542">
        <ele>209</ele>
        <time>2017-09-03T06:43:20Z</time>
      </trkpt>
      <trkpt lat="47.08814" lon="5.54547">
        <ele>210</ele>
        <time>2017-09-03T06:43:24Z</time>
      </trkpt>
      <trkpt lat="47.08824" lon="5.54555">
        <ele>212</ele>
        <time>2017-09-03T06:43:28Z</time>
      </trkpt>
      <trkpt lat="47.08834" lon="5.54557">
        <ele>212</ele>
        <time>2017-09-03T06:43:32Z</time>
      </trkpt>
      <trkpt lat="47.08843" lon="5.54565">
        <ele>213</ele>
        <time>2017-09-03T06:43:36Z</time>
      </trkpt>
      <trkpt lat="47.08851" lon="5.54572">
        <ele>214</ele>
        <time>2017-09-03T06:43:40Z</time>
      </trkpt>
      <trkpt lat="47.0886" lon="5.54581">
        <ele>215</ele>
        <time>2017-09-03T06:43:44Z</time>
      </trkpt>
      <trkpt lat="47.08867" lon="5.5459">
        <ele>216</ele>
        <time>2017-09-03T06:43:48Z</time>
      </trkpt>
      <trkpt lat="47.08873" lon="5.54602">
        <ele>217</ele>
        <time>2017-09-03T06:43:52Z</time>
      </trkpt>
      <trkpt lat="47.0888" lon="5.54615">
        <ele>218</ele>
        <time>2017-09-03T06:43:56Z</time>
      </trkpt>
      <trkpt lat="47.08886" lon="5.54627">
        <ele>218</ele>
        <time>2017-09-03T06:44:00Z</time>
      </trkpt>
      <trkpt lat="47.08892" lon="5.54637">
        <ele>219</ele>
        <time>2017-09-03T06:44:04Z</time>
      </trkpt>
      <trkpt lat="47.08899" lon="5.54648">
        <ele>219</ele>
        <time>2017-09-03T06:44:08Z</time>
      </trkpt>
      <trkpt lat="47.08905" lon="5.54658">
        <ele>220</ele>
        <time>2017-09-03T06:44:12Z</time>
      </trkpt>
      <trkpt lat="47.08912" lon="5.54668">
        <ele>220</ele>
        <time>2017-09-03T06:44:16Z</time>
      </trkpt>
      <trkpt lat="47.08918" lon="5.54679">
        <ele>221</ele>
        <time>2017-09-03T06:44:20Z</time>
      </trkpt>
      <trkpt lat="47.08922" lon="5.54688">
        <ele>222</ele>
        <time>2017-09-03T06:44:24Z</time>
      </trkpt>
      <trkpt lat="47.08926" lon="5.54699">
        <ele>223</ele>
        <time>2017-09-03T06:44:28Z</time>
      </trkpt>
      <trkpt lat="47.0893" lon="5.54708">
        <ele>224</ele>
        <time>2017-09-03T06:44:32Z</time>
      </trkpt>
      <trkpt lat="47.08934" lon="5.54718">
        <ele>224</ele>
        <time>2017-09-03T06:44:36Z</time>
      </trkpt>
      <trkpt lat="47.08939" lon="5.54728">
        <ele>225</ele>
        <time>2017-09-03T06:44:40Z</time>
      </trkpt>
      <trkpt lat="47.08944" lon="5.54739">
        <ele>225</ele>
        <time>2017-09-03T06:44:44Z</time>
      </trkpt>
      <trkpt lat="47.08947" lon="5.54751">
        <ele>226</ele>
        <time>2017-09-03T06:44:48Z</time>
      </trkpt>
      <trkpt lat="47.08952" lon="5.54762">
        <ele>226</ele>
        <time>2017-09-03T06:44:52Z</time>
      </trkpt>
      <trkpt lat="47.08955" lon="5.54775">
        <ele>226</ele>
        <time>2017-09-03T06:44:56Z</time>
      </trkpt>
      <trkpt lat="47.08959" lon="5.54787">
        <ele>227</ele>
        <time>2017-09-03T06:45:00Z</time>
      </trkpt>
      <trkpt lat="47.08961" lon="5.548">
        <ele>227</ele>
        <time>2017-09-03T06:45:04Z</time>
      </trkpt>
      <trkpt lat="47.08962" lon="5.54815">
        <ele>228</ele>
        <time>2017-09-03T06:45:08Z</time>
      </trkpt>
      <trkpt lat="47.0896" lon="5.54827">
        <ele>228</ele>
        <time>2017-09-03T06:45:12Z</time>
      </trkpt>
      <trkpt lat="47.08958" lon="5.54838">
        <ele>229</ele>
        <time>2017-09-03T06:45:16Z</time>
      </trkpt>
      <trkpt lat="47.0896" lon="5.54849">
        <ele>229</ele>
        <time>2017-09-03T06:45:21Z</time>
      </trkpt>
      <trkpt lat="47.08964" lon="5.54855">
        <ele>229</ele>
        <time>2017-09-03T06:45:24Z</time>
      </trkpt>
      <trkpt lat="47.08968" lon="5.54864">
        <ele>229</ele>
        <time>2017-09-03T06:45:28Z</time>
      </trkpt>
      <trkpt lat="47.08972" lon="5.54874">
        <ele>229</ele>
        <time>2017-09-03T06:45:32Z</time>
      </trkpt>
      <trkpt lat="47.08982" lon="5.54883">
        <ele>228</ele>
        <time>2017-09-03T06:45:36Z</time>
      </trkpt>
      <trkpt lat="47.08988" lon="5.54893">
        <ele>228</ele>
        <time>2017-09-03T06:45:40Z</time>
      </trkpt>
      <trkpt lat="47.08997" lon="5.54906">
        <ele>227</ele>
        <time>2017-09-03T06:45:44Z</time>
      </trkpt>
      <trkpt lat="47.09007" lon="5.54917">
        <ele>226</ele>
        <time>2017-09-03T06:45:48Z</time>
      </trkpt>
      <trkpt lat="47.09015" lon="5.54932">
        <ele>225</ele>
        <time>2017-09-03T06:45:52Z</time>
      </trkpt>
      <trkpt lat="47.09026" lon="5.54955">
        <ele>223</ele>
        <time>2017-09-03T06:45:56Z</time>
      </trkpt>
      <trkpt lat="47.09033" lon="5.54975">
        <ele>219</ele>
        <time>2017-09-03T06:46:00Z</time>
      </trkpt>
      <trkpt lat="47.09039" lon="5.54994">
        <ele>214</ele>
        <time>2017-09-03T06:46:04Z</time>
      </trkpt>
      <trkpt lat="47.09046" lon="5.55012">
        <ele>210</ele>
        <time>2017-09-03T06:46:08Z</time>
      </trkpt>
      <trkpt lat="47.09056" lon="5.55029">
        <ele>207</ele>
        <time>2017-09-03T06:46:12Z</time>
      </trkpt>
      <trkpt lat="47.09058" lon="5.5504">
        <ele>206</ele>
        <time>2017-09-03T06:46:16Z</time>
      </trkpt>
      <trkpt lat="47.09062" lon="5.55049">
        <ele>207</ele>
        <time>2017-09-03T06:46:20Z</time>
      </trkpt>
      <trkpt lat="47.09063" lon="5.55063">
        <ele>207</ele>
        <time>2017-09-03T06:46:24Z</time>
      </trkpt>
      <trkpt lat="47.09064" lon="5.55075">
        <ele>207</ele>
        <time>2017-09-03T06:46:28Z</time>
      </trkpt>
      <trkpt lat="47.09064" lon="5.55092">
        <ele>207</ele>
        <time>2017-09-03T06:46:32Z</time>
      </trkpt>
      <trkpt lat="47.09064" lon="5.55108">
        <ele>208</ele>
        <time>2017-09-03T06:46:36Z</time>
      </trkpt>
      <trkpt lat="47.09065" lon="5.55127">
        <ele>209</ele>
        <time>2017-09-03T06:46:40Z</time>
      </trkpt>
      <trkpt lat="47.09065" lon="5.55145">
        <ele>209</ele>
        <time>2017-09-03T06:46:44Z</time>
      </trkpt>
      <trkpt lat="47.09059" lon="5.55165">
        <ele>210</ele>
        <time>2017-09-03T06:46:48Z</time>
      </trkpt>
      <trkpt lat="47.09053" lon="5.55184">
        <ele>210</ele>
        <time>2017-09-03T06:46:52Z</time>
      </trkpt>
      <trkpt lat="47.09049" lon="5.552">
        <ele>211</ele>
        <time>2017-09-03T06:46:56Z</time>
      </trkpt>
      <trkpt lat="47.09045" lon="5.55218">
        <ele>210</ele>
        <time>2017-09-03T06:47:00Z</time>
      </trkpt>
      <trkpt lat="47.09042" lon="5.55239">
        <ele>211</ele>
        <time>2017-09-03T06:47:04Z</time>
      </trkpt>
      <trkpt lat="47.09039" lon="5.55257">
        <ele>211</ele>
        <time>2017-09-03T06:47:08Z</time>
      </trkpt>
      <trkpt lat="47.09035" lon="5.55273">
        <ele>212</ele>
        <time>2017-09-03T06:47:12Z</time>
      </trkpt>
      <trkpt lat="47.09032" lon="5.55285">
        <ele>212</ele>
        <time>2017-09-03T06:47:16Z</time>
      </trkpt>
      <trkpt lat="47.0903" lon="5.55296">
        <ele>213</ele>
        <time>2017-09-03T06:47:20Z</time>
      </trkpt>
      <trkpt lat="47.09025" lon="5.55305">
        <ele>213</ele>
        <time>2017-09-03T06:47:24Z</time>
      </trkpt>
      <trkpt lat="47.09017" lon="5.55315">
        <ele>214</ele>
        <time>2017-09-03T06:47:28Z</time>
      </trkpt>
      <trkpt lat="47.09014" lon="5.55328">
        <ele>215</ele>
        <time>2017-09-03T06:47:32Z</time>
      </trkpt>
      <trkpt lat="47.09013" lon="5.55339">
        <ele>215</ele>
        <time>2017-09-03T06:47:36Z</time>
      </trkpt>
      <trkpt lat="47.09012" lon="5.55351">
        <ele>216</ele>
        <time>2017-09-03T06:47:40Z</time>
      </trkpt>
      <trkpt lat="47.0901" lon="5.55359">
        <ele>217</ele>
        <time>2017-09-03T06:47:44Z</time>
      </trkpt>
      <trkpt lat="47.0901" lon="5.55366">
        <ele>216</ele>
        <time>2017-09-03T06:47:48Z</time>
      </trkpt>
      <trkpt lat="47.09013" lon="5.55376">
        <ele>216</ele>
        <time>2017-09-03T06:47:52Z</time>
      </trkpt>
      <trkpt lat="47.09016" lon="5.55393">
        <ele>216</ele>
        <time>2017-09-03T06:47:56Z</time>
      </trkpt>
      <trkpt lat="47.09024" lon="5.55411">
        <ele>215</ele>
        <time>2017-09-03T06:48:00Z</time>
      </trkpt>
      <trkpt lat="47.09028" lon="5.55431">
        <ele>214</ele>
        <time>2017-09-03T06:48:04Z</time>
      </trkpt>
      <trkpt lat="47.09032" lon="5.55449">
        <ele>214</ele>
        <time>2017-09-03T06:48:08Z</time>
      </trkpt>
      <trkpt lat="47.09035" lon="5.55466">
        <ele>214</ele>
        <time>2017-09-03T06:48:12Z</time>
      </trkpt>
      <trkpt lat="47.09043" lon="5.55482">
        <ele>214</ele>
        <time>2017-09-03T06:48:16Z</time>
      </trkpt>
      <trkpt lat="47.09048" lon="5.55496">
        <ele>214</ele>
        <time>2017-09-03T06:48:20Z</time>
      </trkpt>
      <trkpt lat="47.09049" lon="5.55515">
        <ele>214</ele>
        <time>2017-09-03T06:48:24Z</time>
      </trkpt>
      <trkpt lat="47.09053" lon="5.55535">
        <ele>215</ele>
        <time>2017-09-03T06:48:28Z</time>
      </trkpt>
      <trkpt lat="47.09058" lon="5.55553">
        <ele>215</ele>
        <time>2017-09-03T06:48:32Z</time>
      </trkpt>
      <trkpt lat="47.09061" lon="5.55571">
        <ele>215</ele>
        <time>2017-09-03T06:48:36Z</time>
      </trkpt>
      <trkpt lat="47.09064" lon="5.55587">
        <ele>215</ele>
        <time>2017-09-03T06:48:40Z</time>
      </trkpt>
      <trkpt lat="47.0907" lon="5.55598">
        <ele>216</ele>
        <time>2017-09-03T06:48:44Z</time>
      </trkpt>
      <trkpt lat="47.09072" lon="5.55614">
        <ele>216</ele>
        <time>2017-09-03T06:48:48Z</time>
      </trkpt>
      <trkpt lat="47.09075" lon="5.5563">
        <ele>216</ele>
        <time>2017-09-03T06:48:52Z</time>
      </trkpt>
      <trkpt lat="47.0908" lon="5.55646">
        <ele>216</ele>
        <time>2017-09-03T06:48:56Z</time>
      </trkpt>
      <trkpt lat="47.09086" lon="5.55661">
        <ele>216</ele>
        <time>2017-09-03T06:49:00Z</time>
      </trkpt>
      <trkpt lat="47.09087" lon="5.55684">
        <ele>216</ele>
        <time>2017-09-03T06:49:04Z</time>
      </trkpt>
      <trkpt lat="47.0908" lon="5.55705">
        <ele>216</ele>
        <time>2017-09-03T06:49:08Z</time>
      </trkpt>
      <trkpt lat="47.09069" lon="5.55731">
        <ele>216</ele>
        <time>2017-09-03T06:49:12Z</time>
      </trkpt>
      <trkpt lat="47.09071" lon="5.5575">
        <ele>216</ele>
        <time>2017-09-03T06:49:16Z</time>
      </trkpt>
      <trkpt lat="47.09076" lon="5.55768">
        <ele>216</ele>
        <time>2017-09-03T06:49:20Z</time>
      </trkpt>
      <trkpt lat="47.09085" lon="5.55791">
        <ele>216</ele>
        <time>2017-09-03T06:49:24Z</time>
      </trkpt>
      <trkpt lat="47.09091" lon="5.55812">
        <ele>215</ele>
        <time>2017-09-03T06:49:28Z</time>
      </trkpt>
      <trkpt lat="47.09095" lon="5.55835">
        <ele>215</ele>
        <time>2017-09-03T06:49:32Z</time>
      </trkpt>
      <trkpt lat="47.09101" lon="5.55855">
        <ele>214</ele>
        <time>2017-09-03T06:49:36Z</time>
      </trkpt>
      <trkpt lat="47.09102" lon="5.55876">
        <ele>214</ele>
        <time>2017-09-03T06:49:40Z</time>
      </trkpt>
      <trkpt lat="47.09105" lon="5.55899">
        <ele>213</ele>
        <time>2017-09-03T06:49:44Z</time>
      </trkpt>
      <trkpt lat="47.09111" lon="5.5592">
        <ele>213</ele>
        <time>2017-09-03T06:49:48Z</time>
      </trkpt>
      <trkpt lat="47.09115" lon="5.55939">
        <ele>214</ele>
        <time>2017-09-03T06:49:52Z</time>
      </trkpt>
      <trkpt lat="47.0912" lon="5.55945">
        <ele>214</ele>
        <time>2017-09-03T06:49:56Z</time>
      </trkpt>
      <trkpt lat="47.09128" lon="5.55989">
        <ele>215</ele>
        <time>2017-09-03T06:57:28Z</time>
      </trkpt>
      <trkpt lat="47.09131" lon="5.55996">
        <ele>216</ele>
        <time>2017-09-03T06:57:32Z</time>
      </trkpt>
      <trkpt lat="47.09132" lon="5.56003">
        <ele>217</ele>
        <time>2017-09-03T06:57:36Z</time>
      </trkpt>
      <trkpt lat="47.09131" lon="5.56009">
        <ele>218</ele>
        <time>2017-09-03T06:57:40Z</time>
      </trkpt>
      <trkpt lat="47.09133" lon="5.56034">
        <ele>218</ele>
        <time>2017-09-03T06:58:04Z</time>
      </trkpt>
      <trkpt lat="47.09133" lon="5.56044">
        <ele>219</ele>
        <time>2017-09-03T06:58:08Z</time>
      </trkpt>
      <trkpt lat="47.09135" lon="5.56057">
        <ele>219</ele>
        <time>2017-09-03T06:58:12Z</time>
      </trkpt>
      <trkpt lat="47.09134" lon="5.56065">
        <ele>219</ele>
        <time>2017-09-03T06:58:16Z</time>
      </trkpt>
      <trkpt lat="47.09141" lon="5.56088">
        <ele>220</ele>
        <time>2017-09-03T06:58:40Z</time>
      </trkpt>
      <trkpt lat="47.09143" lon="5.56095">
        <ele>220</ele>
        <time>2017-09-03T06:58:44Z</time>
      </trkpt>
      <trkpt lat="47.09145" lon="5.56101">
        <ele>220</ele>
        <time>2017-09-03T06:58:48Z</time>
      </trkpt>
      <trkpt lat="47.09151" lon="5.56105">
        <ele>221</ele>
        <time>2017-09-03T06:58:52Z</time>
      </trkpt>
      <trkpt lat="47.09158" lon="5.56114">
        <ele>221</ele>
        <time>2017-09-03T06:58:56Z</time>
      </trkpt>
      <trkpt lat="47.09161" lon="5.5613">
        <ele>222</ele>
        <time>2017-09-03T06:59:00Z</time>
      </trkpt>
      <trkpt lat="47.09166" lon="5.56141">
        <ele>222</ele>
        <time>2017-09-03T06:59:04Z</time>
      </trkpt>
      <trkpt lat="47.0917" lon="5.5615">
        <ele>223</ele>
        <time>2017-09-03T06:59:08Z</time>
      </trkpt>
      <trkpt lat="47.09174" lon="5.56155">
        <ele>224</ele>
        <time>2017-09-03T06:59:12Z</time>
      </trkpt>
      <trkpt lat="47.0918" lon="5.56154">
        <ele>225</ele>
        <time>2017-09-03T06:59:16Z</time>
      </trkpt>
      <trkpt lat="47.09186" lon="5.56155">
        <ele>226</ele>
        <time>2017-09-03T06:59:20Z</time>
      </trkpt>
      <trkpt lat="47.09194" lon="5.56152">
        <ele>227</ele>
        <time>2017-09-03T06:59:24Z</time>
      </trkpt>
      <trkpt lat="47.09201" lon="5.5615">
        <ele>228</ele>
        <time>2017-09-03T06:59:28Z</time>
      </trkpt>
      <trkpt lat="47.09213" lon="5.56147">
        <ele>229</ele>
        <time>2017-09-03T06:59:32Z</time>
      </trkpt>
      <trkpt lat="47.09222" lon="5.56144">
        <ele>229</ele>
        <time>2017-09-03T06:59:36Z</time>
      </trkpt>
      <trkpt lat="47.09231" lon="5.56141">
        <ele>230</ele>
        <time>2017-09-03T06:59:40Z</time>
      </trkpt>
      <trkpt lat="47.09242" lon="5.56136">
        <ele>230</ele>
        <time>2017-09-03T06:59:44Z</time>
      </trkpt>
      <trkpt lat="47.09249" lon="5.56133">
        <ele>230</ele>
        <time>2017-09-03T06:59:48Z</time>
      </trkpt>
      <trkpt lat="47.0926" lon="5.56127">
        <ele>230</ele>
        <time>2017-09-03T06:59:52Z</time>
      </trkpt>
      <trkpt lat="47.0927" lon="5.56122">
        <ele>230</ele>
        <time>2017-09-03T06:59:56Z</time>
      </trkpt>
      <trkpt lat="47.09287" lon="5.56117">
        <ele>230</ele>
        <time>2017-09-03T07:00:01Z</time>
      </trkpt>
      <trkpt lat="47.09308" lon="5.56113">
        <ele>230</ele>
        <time>2017-09-03T07:00:04Z</time>
      </trkpt>
      <trkpt lat="47.09329" lon="5.56107">
        <ele>229</ele>
        <time>2017-09-03T07:00:08Z</time>
      </trkpt>
      <trkpt lat="47.09342" lon="5.56098">
        <ele>228</ele>
        <time>2017-09-03T07:00:12Z</time>
      </trkpt>
      <trkpt lat="47.09358" lon="5.5609">
        <ele>227</ele>
        <time>2017-09-03T07:00:16Z</time>
      </trkpt>
      <trkpt lat="47.09372" lon="5.56086">
        <ele>226</ele>
        <time>2017-09-03T07:00:20Z</time>
      </trkpt>
      <trkpt lat="47.09387" lon="5.56072">
        <ele>224</ele>
        <time>2017-09-03T07:00:24Z</time>
      </trkpt>
      <trkpt lat="47.094" lon="5.5605">
        <ele>223</ele>
        <time>2017-09-03T07:00:28Z</time>
      </trkpt>
      <trkpt lat="47.09411" lon="5.56027">
        <ele>220</ele>
        <time>2017-09-03T07:00:32Z</time>
      </trkpt>
      <trkpt lat="47.09421" lon="5.5602">
        <ele>219</ele>
        <time>2017-09-03T07:00:36Z</time>
      </trkpt>
      <trkpt lat="47.09428" lon="5.56022">
        <ele>220</ele>
        <time>2017-09-03T07:00:40Z</time>
      </trkpt>
      <trkpt lat="47.09438" lon="5.56024">
        <ele>221</ele>
        <time>2017-09-03T07:00:44Z</time>
      </trkpt>
      <trkpt lat="47.09454" lon="5.56022">
        <ele>221</ele>
        <time>2017-09-03T07:00:48Z</time>
      </trkpt>
      <trkpt lat="47.09469" lon="5.56021">
        <ele>222</ele>
        <time>2017-09-03T07:00:52Z</time>
      </trkpt>
      <trkpt lat="47.0948" lon="5.56019">
        <ele>222</ele>
        <time>2017-09-03T07:00:56Z</time>
      </trkpt>
      <trkpt lat="47.09493" lon="5.56025">
        <ele>223</ele>
        <time>2017-09-03T07:01:00Z</time>
      </trkpt>
      <trkpt lat="47.09523" lon="5.56033">
        <ele>224</ele>
        <time>2017-09-03T07:01:04Z</time>
      </trkpt>
      <trkpt lat="47.09545" lon="5.56035">
        <ele>224</ele>
        <time>2017-09-03T07:01:08Z</time>
      </trkpt>
      <trkpt lat="47.09564" lon="5.56039">
        <ele>224</ele>
        <time>2017-09-03T07:01:12Z</time>
      </trkpt>
      <trkpt lat="47.09581" lon="5.56045">
        <ele>224</ele>
        <time>2017-09-03T07:01:16Z</time>
      </trkpt>
      <trkpt lat="47.09597" lon="5.56051">
        <ele>224</ele>
        <time>2017-09-03T07:01:20Z</time>
      </trkpt>
      <trkpt lat="47.09612" lon="5.56056">
        <ele>225</ele>
        <time>2017-09-03T07:01:24Z</time>
      </trkpt>
      <trkpt lat="47.09624" lon="5.5606">
        <ele>224</ele>
        <time>2017-09-03T07:01:28Z</time>
      </trkpt>
      <trkpt lat="47.09637" lon="5.56061">
        <ele>224</ele>
        <time>2017-09-03T07:01:32Z</time>
      </trkpt>
      <trkpt lat="47.09654" lon="5.56065">
        <ele>224</ele>
        <time>2017-09-03T07:01:36Z</time>
      </trkpt>
      <trkpt lat="47.09663" lon="5.56071">
        <ele>225</ele>
        <time>2017-09-03T07:01:40Z</time>
      </trkpt>
      <trkpt lat="47.0967" lon="5.5608">
        <ele>225</ele>
        <time>2017-09-03T07:01:44Z</time>
      </trkpt>
      <trkpt lat="47.09678" lon="5.56089">
        <ele>226</ele>
        <time>2017-09-03T07:01:48Z</time>
      </trkpt>
      <trkpt lat="47.09692" lon="5.56091">
        <ele>226</ele>
        <time>2017-09-03T07:01:52Z</time>
      </trkpt>
      <trkpt lat="47.09712" lon="5.56097">
        <ele>227</ele>
        <time>2017-09-03T07:01:56Z</time>
      </trkpt>
      <trkpt lat="47.09729" lon="5.56102">
        <ele>227</ele>
        <time>2017-09-03T07:02:00Z</time>
      </trkpt>
      <trkpt lat="47.09744" lon="5.56109">
        <ele>227</ele>
        <time>2017-09-03T07:02:04Z</time>
      </trkpt>
      <trkpt lat="47.09758" lon="5.56116">
        <ele>227</ele>
        <time>2017-09-03T07:02:08Z</time>
      </trkpt>
      <trkpt lat="47.09772" lon="5.56121">
        <ele>227</ele>
        <time>2017-09-03T07:02:12Z</time>
      </trkpt>
      <trkpt lat="47.09789" lon="5.56126">
        <ele>226</ele>
        <time>2017-09-03T07:02:16Z</time>
      </trkpt>
      <trkpt lat="47.09806" lon="5.56136">
        <ele>227</ele>
        <time>2017-09-03T07:02:20Z</time>
      </trkpt>
      <trkpt lat="47.09819" lon="5.56144">
        <ele>228</ele>
        <time>2017-09-03T07:02:24Z</time>
      </trkpt>
      <trkpt lat="47.09832" lon="5.56151">
        <ele>229</ele>
        <time>2017-09-03T07:02:28Z</time>
      </trkpt>
      <trkpt lat="47.09844" lon="5.56156">
        <ele>229</ele>
        <time>2017-09-03T07:02:32Z</time>
      </trkpt>
      <trkpt lat="47.09854" lon="5.56162">
        <ele>229</ele>
        <time>2017-09-03T07:02:36Z</time>
      </trkpt>
      <trkpt lat="47.09862" lon="5.56167">
        <ele>229</ele>
        <time>2017-09-03T07:02:40Z</time>
      </trkpt>
      <trkpt lat="47.09871" lon="5.56175">
        <ele>228</ele>
        <time>2017-09-03T07:02:44Z</time>
      </trkpt>
      <trkpt lat="47.09879" lon="5.56184">
        <ele>228</ele>
        <time>2017-09-03T07:02:48Z</time>
      </trkpt>
      <trkpt lat="47.09889" lon="5.56191">
        <ele>228</ele>
        <time>2017-09-03T07:02:52Z</time>
      </trkpt>
      <trkpt lat="47.09902" lon="5.56198">
        <ele>227</ele>
        <time>2017-09-03T07:02:56Z</time>
      </trkpt>
      <trkpt lat="47.09917" lon="5.56203">
        <ele>227</ele>
        <time>2017-09-03T07:03:00Z</time>
      </trkpt>
      <trkpt lat="47.09935" lon="5.5621">
        <ele>226</ele>
        <time>2017-09-03T07:03:04Z</time>
      </trkpt>
      <trkpt lat="47.09955" lon="5.56218">
        <ele>225</ele>
        <time>2017-09-03T07:03:08Z</time>
      </trkpt>
      <trkpt lat="47.09977" lon="5.56224">
        <ele>224</ele>
        <time>2017-09-03T07:03:13Z</time>
      </trkpt>
      <trkpt lat="47.10001" lon="5.56219">
        <ele>222</ele>
        <time>2017-09-03T07:03:16Z</time>
      </trkpt>
      <trkpt lat="47.10026" lon="5.56216">
        <ele>220</ele>
        <time>2017-09-03T07:03:20Z</time>
      </trkpt>
      <trkpt lat="47.10053" lon="5.56221">
        <ele>218</ele>
        <time>2017-09-03T07:03:24Z</time>
      </trkpt>
      <trkpt lat="47.10088" lon="5.56227">
        <ele>215</ele>
        <time>2017-09-03T07:03:28Z</time>
      </trkpt>
      <trkpt lat="47.10129" lon="5.56233">
        <ele>211</ele>
        <time>2017-09-03T07:03:32Z</time>
      </trkpt>
      <trkpt lat="47.1017" lon="5.56237">
        <ele>208</ele>
        <time>2017-09-03T07:03:36Z</time>
      </trkpt>
      <trkpt lat="47.10208" lon="5.56246">
        <ele>205</ele>
        <time>2017-09-03T07:03:40Z</time>
      </trkpt>
      <trkpt lat="47.10238" lon="5.56265">
        <ele>204</ele>
        <time>2017-09-03T07:03:44Z</time>
      </trkpt>
      <trkpt lat="47.10251" lon="5.56272">
        <ele>203</ele>
        <time>2017-09-03T07:03:48Z</time>
      </trkpt>
      <trkpt lat="47.1026" lon="5.56259">
        <ele>203</ele>
        <time>2017-09-03T07:03:52Z</time>
      </trkpt>
      <trkpt lat="47.10268" lon="5.56239">
        <ele>203</ele>
        <time>2017-09-03T07:03:56Z</time>
      </trkpt>
      <trkpt lat="47.10281" lon="5.56237">
        <ele>203</ele>
        <time>2017-09-03T07:04:00Z</time>
      </trkpt>
      <trkpt lat="47.10292" lon="5.56241">
        <ele>204</ele>
        <time>2017-09-03T07:04:04Z</time>
      </trkpt>
      <trkpt lat="47.10302" lon="5.56245">
        <ele>205</ele>
        <time>2017-09-03T07:04:08Z</time>
      </trkpt>
      <trkpt lat="47.1031" lon="5.56249">
        <ele>205</ele>
        <time>2017-09-03T07:04:12Z</time>
      </trkpt>
      <trkpt lat="47.10316" lon="5.56251">
        <ele>206</ele>
        <time>2017-09-03T07:04:16Z</time>
      </trkpt>
      <trkpt lat="47.10325" lon="5.56253">
        <ele>207</ele>
        <time>2017-09-03T07:04:20Z</time>
      </trkpt>
      <trkpt lat="47.10335" lon="5.56258">
        <ele>208</ele>
        <time>2017-09-03T07:04:24Z</time>
      </trkpt>
      <trkpt lat="47.10343" lon="5.56263">
        <ele>209</ele>
        <time>2017-09-03T07:04:28Z</time>
      </trkpt>
      <trkpt lat="47.10349" lon="5.56269">
        <ele>209</ele>
        <time>2017-09-03T07:04:32Z</time>
      </trkpt>
      <trkpt lat="47.10354" lon="5.56276">
        <ele>210</ele>
        <time>2017-09-03T07:04:36Z</time>
      </trkpt>
      <trkpt lat="47.1036" lon="5.56281">
        <ele>212</ele>
        <time>2017-09-03T07:04:40Z</time>
      </trkpt>
      <trkpt lat="47.10368" lon="5.56286">
        <ele>213</ele>
        <time>2017-09-03T07:04:44Z</time>
      </trkpt>
      <trkpt lat="47.10375" lon="5.56291">
        <ele>214</ele>
        <time>2017-09-03T07:04:48Z</time>
      </trkpt>
      <trkpt lat="47.10382" lon="5.56296">
        <ele>214</ele>
        <time>2017-09-03T07:04:52Z</time>
      </trkpt>
      <trkpt lat="47.1039" lon="5.56301">
        <ele>215</ele>
        <time>2017-09-03T07:04:56Z</time>
      </trkpt>
      <trkpt lat="47.10397" lon="5.56306">
        <ele>216</ele>
        <time>2017-09-03T07:05:00Z</time>
      </trkpt>
      <trkpt lat="47.10404" lon="5.56313">
        <ele>217</ele>
        <time>2017-09-03T07:05:04Z</time>
      </trkpt>
      <trkpt lat="47.10408" lon="5.5632">
        <ele>218</ele>
        <time>2017-09-03T07:05:08Z</time>
      </trkpt>
      <trkpt lat="47.1041" lon="5.56332">
        <ele>218</ele>
        <time>2017-09-03T07:05:12Z</time>
      </trkpt>
      <trkpt lat="47.10409" lon="5.56342">
        <ele>219</ele>
        <time>2017-09-03T07:05:16Z</time>
      </trkpt>
      <trkpt lat="47.10407" lon="5.56353">
        <ele>220</ele>
        <time>2017-09-03T07:05:20Z</time>
      </trkpt>
      <trkpt lat="47.10406" lon="5.56363">
        <ele>221</ele>
        <time>2017-09-03T07:05:24Z</time>
      </trkpt>
      <trkpt lat="47.10406" lon="5.56373">
        <ele>221</ele>
        <time>2017-09-03T07:05:28Z</time>
      </trkpt>
      <trkpt lat="47.10405" lon="5.56385">
        <ele>222</ele>
        <time>2017-09-03T07:05:32Z</time>
      </trkpt>
      <trkpt lat="47.10404" lon="5.56396">
        <ele>223</ele>
        <time>2017-09-03T07:05:36Z</time>
      </trkpt>
      <trkpt lat="47.10405" lon="5.56407">
        <ele>223</ele>
        <time>2017-09-03T07:05:40Z</time>
      </trkpt>
      <trkpt lat="47.10405" lon="5.56417">
        <ele>224</ele>
        <time>2017-09-03T07:05:44Z</time>
      </trkpt>
      <trkpt lat="47.10403" lon="5.56427">
        <ele>225</ele>
        <time>2017-09-03T07:05:48Z</time>
      </trkpt>
      <trkpt lat="47.10401" lon="5.56437">
        <ele>226</ele>
        <time>2017-09-03T07:05:52Z</time>
      </trkpt>
      <trkpt lat="47.10399" lon="5.56447">
        <ele>227</ele>
        <time>2017-09-03T07:05:56Z</time>
      </trkpt>
      <trkpt lat="47.10396" lon="5.56457">
        <ele>228</ele>
        <time>2017-09-03T07:06:00Z</time>
      </trkpt>
      <trkpt lat="47.10394" lon="5.56466">
        <ele>228</ele>
        <time>2017-09-03T07:06:04Z</time>
      </trkpt>
      <trkpt lat="47.1039" lon="5.56476">
        <ele>228</ele>
        <time>2017-09-03T07:06:09Z</time>
      </trkpt>
      <trkpt lat="47.10384" lon="5.56486">
        <ele>229</ele>
        <time>2017-09-03T07:06:12Z</time>
      </trkpt>
      <trkpt lat="47.10375" lon="5.56496">
        <ele>229</ele>
        <time>2017-09-03T07:06:16Z</time>
      </trkpt>
      <trkpt lat="47.10364" lon="5.56507">
        <ele>228</ele>
        <time>2017-09-03T07:06:20Z</time>
      </trkpt>
      <trkpt lat="47.10346" lon="5.56517">
        <ele>228</ele>
        <time>2017-09-03T07:06:24Z</time>
      </trkpt>
      <trkpt lat="47.10323" lon="5.56529">
        <ele>226</ele>
        <time>2017-09-03T07:06:28Z</time>
      </trkpt>
      <trkpt lat="47.10296" lon="5.56549">
        <ele>224</ele>
        <time>2017-09-03T07:06:32Z</time>
      </trkpt>
      <trkpt lat="47.1027" lon="5.56575">
        <ele>223</ele>
        <time>2017-09-03T07:06:36Z</time>
      </trkpt>
      <trkpt lat="47.10242" lon="5.56601">
        <ele>221</ele>
        <time>2017-09-03T07:06:40Z</time>
      </trkpt>
      <trkpt lat="47.10211" lon="5.56622">
        <ele>219</ele>
        <time>2017-09-03T07:06:44Z</time>
      </trkpt>
      <trkpt lat="47.1019" lon="5.56658">
        <ele>217</ele>
        <time>2017-09-03T07:06:48Z</time>
      </trkpt>
      <trkpt lat="47.10174" lon="5.56704">
        <ele>215</ele>
        <time>2017-09-03T07:06:52Z</time>
      </trkpt>
      <trkpt lat="47.10154" lon="5.56753">
        <ele>212</ele>
        <time>2017-09-03T07:06:56Z</time>
      </trkpt>
      <trkpt lat="47.10133" lon="5.56796">
        <ele>211</ele>
        <time>2017-09-03T07:07:00Z</time>
      </trkpt>
      <trkpt lat="47.10111" lon="5.56831">
        <ele>211</ele>
        <time>2017-09-03T07:07:04Z</time>
      </trkpt>
      <trkpt lat="47.10093" lon="5.56858">
        <ele>211</ele>
        <time>2017-09-03T07:07:08Z</time>
      </trkpt>
      <trkpt lat="47.10081" lon="5.56879">
        <ele>212</ele>
        <time>2017-09-03T07:07:12Z</time>
      </trkpt>
      <trkpt lat="47.10071" lon="5.56894">
        <ele>213</ele>
        <time>2017-09-03T07:07:16Z</time>
      </trkpt>
      <trkpt lat="47.10065" lon="5.56904">
        <ele>214</ele>
        <time>2017-09-03T07:07:20Z</time>
      </trkpt>
      <trkpt lat="47.10061" lon="5.56912">
        <ele>215</ele>
        <time>2017-09-03T07:07:24Z</time>
      </trkpt>
      <trkpt lat="47.10057" lon="5.56919">
        <ele>215</ele>
        <time>2017-09-03T07:07:28Z</time>
      </trkpt>
      <trkpt lat="47.10053" lon="5.5693">
        <ele>215</ele>
        <time>2017-09-03T07:07:32Z</time>
      </trkpt>
      <trkpt lat="47.10048" lon="5.56938">
        <ele>216</ele>
        <time>2017-09-03T07:07:36Z</time>
      </trkpt>
      <trkpt lat="47.10044" lon="5.56946">
        <ele>217</ele>
        <time>2017-09-03T07:07:40Z</time>
      </trkpt>
      <trkpt lat="47.10042" lon="5.56952">
        <ele>217</ele>
        <time>2017-09-03T07:07:44Z</time>
      </trkpt>
      <trkpt lat="47.10037" lon="5.56968">
        <ele>217</ele>
        <time>2017-09-03T07:07:48Z</time>
      </trkpt>
      <trkpt lat="47.10037" lon="5.56984">
        <ele>217</ele>
        <time>2017-09-03T07:07:52Z</time>
      </trkpt>
      <trkpt lat="47.10036" lon="5.57001">
        <ele>217</ele>
        <time>2017-09-03T07:07:56Z</time>
      </trkpt>
      <trkpt lat="47.10037" lon="5.57015">
        <ele>217</ele>
        <time>2017-09-03T07:08:00Z</time>
      </trkpt>
      <trkpt lat="47.10041" lon="5.57029">
        <ele>217</ele>
        <time>2017-09-03T07:08:04Z</time>
      </trkpt>
      <trkpt lat="47.10043" lon="5.57043">
        <ele>217</ele>
        <time>2017-09-03T07:08:08Z</time>
      </trkpt>
      <trkpt lat="47.10043" lon="5.57061">
        <ele>217</ele>
        <time>2017-09-03T07:08:12Z</time>
      </trkpt>
      <trkpt lat="47.1004" lon="5.57083">
        <ele>218</ele>
        <time>2017-09-03T07:08:16Z</time>
      </trkpt>
      <trkpt lat="47.10032" lon="5.57113">
        <ele>218</ele>
        <time>2017-09-03T07:08:20Z</time>
      </trkpt>
      <trkpt lat="47.10027" lon="5.57131">
        <ele>219</ele>
        <time>2017-09-03T07:08:24Z</time>
      </trkpt>
      <trkpt lat="47.10026" lon="5.57143">
        <ele>219</ele>
        <time>2017-09-03T07:08:28Z</time>
      </trkpt>
      <trkpt lat="47.10028" lon="5.57152">
        <ele>220</ele>
        <time>2017-09-03T07:08:32Z</time>
      </trkpt>
      <trkpt lat="47.10027" lon="5.57165">
        <ele>221</ele>
        <time>2017-09-03T07:08:36Z</time>
      </trkpt>
      <trkpt lat="47.10024" lon="5.57176">
        <ele>222</ele>
        <time>2017-09-03T07:08:40Z</time>
      </trkpt>
      <trkpt lat="47.10024" lon="5.57188">
        <ele>222</ele>
        <time>2017-09-03T07:08:44Z</time>
      </trkpt>
      <trkpt lat="47.10023" lon="5.57199">
        <ele>223</ele>
        <time>2017-09-03T07:08:48Z</time>
      </trkpt>
      <trkpt lat="47.10022" lon="5.57211">
        <ele>224</ele>
        <time>2017-09-03T07:08:52Z</time>
      </trkpt>
      <trkpt lat="47.10021" lon="5.57229">
        <ele>224</ele>
        <time>2017-09-03T07:08:56Z</time>
      </trkpt>
      <trkpt lat="47.10022" lon="5.57241">
        <ele>225</ele>
        <time>2017-09-03T07:09:00Z</time>
      </trkpt>
      <trkpt lat="47.10022" lon="5.57251">
        <ele>226</ele>
        <time>2017-09-03T07:09:04Z</time>
      </trkpt>
      <trkpt lat="47.10023" lon="5.57262">
        <ele>227</ele>
        <time>2017-09-03T07:09:08Z</time>
      </trkpt>
      <trkpt lat="47.10022" lon="5.57274">
        <ele>227</ele>
        <time>2017-09-03T07:09:12Z</time>
      </trkpt>
      <trkpt lat="47.10023" lon="5.57285">
        <ele>228</ele>
        <time>2017-09-03T07:09:16Z</time>
      </trkpt>
      <trkpt lat="47.10026" lon="5.57294">
        <ele>228</ele>
        <time>2017-09-03T07:09:20Z</time>
      </trkpt>
      <trkpt lat="47.10026" lon="5.57305">
        <ele>228</ele>
        <time>2017-09-03T07:09:24Z</time>
      </trkpt>
      <trkpt lat="47.10031" lon="5.57327">
        <ele>229</ele>
        <time>2017-09-03T07:09:32Z</time>
      </trkpt>
      <trkpt lat="47.10035" lon="5.57337">
        <ele>229</ele>
        <time>2017-09-03T07:09:36Z</time>
      </trkpt>
      <trkpt lat="47.10037" lon="5.57345">
        <ele>230</ele>
        <time>2017-09-03T07:09:40Z</time>
      </trkpt>
      <trkpt lat="47.10038" lon="5.57355">
        <ele>231</ele>
        <time>2017-09-03T07:09:44Z</time>
      </trkpt>
      <trkpt lat="47.10039" lon="5.5736">
        <ele>231</ele>
        <time>2017-09-03T07:09:48Z</time>
      </trkpt>
      <trkpt lat="47.1004" lon="5.57369">
        <ele>232</ele>
        <time>2017-09-03T07:09:56Z</time>
      </trkpt>
      <trkpt lat="47.10044" lon="5.57379">
        <ele>233</ele>
        <time>2017-09-03T07:10:00Z</time>
      </trkpt>
      <trkpt lat="47.10047" lon="5.57388">
        <ele>233</ele>
        <time>2017-09-03T07:10:04Z</time>
      </trkpt>
      <trkpt lat="47.10055" lon="5.57408">
        <ele>234</ele>
        <time>2017-09-03T07:10:08Z</time>
      </trkpt>
      <trkpt lat="47.10058" lon="5.57418">
        <ele>234</ele>
        <time>2017-09-03T07:10:12Z</time>
      </trkpt>
      <trkpt lat="47.10061" lon="5.57429">
        <ele>235</ele>
        <time>2017-09-03T07:10:16Z</time>
      </trkpt>
      <trkpt lat="47.10065" lon="5.57441">
        <ele>235</ele>
        <time>2017-09-03T07:10:20Z</time>
      </trkpt>
      <trkpt lat="47.10069" lon="5.57453">
        <ele>236</ele>
        <time>2017-09-03T07:10:24Z</time>
      </trkpt>
      <trkpt lat="47.10074" lon="5.57466">
        <ele>236</ele>
        <time>2017-09-03T07:10:28Z</time>
      </trkpt>
      <trkpt lat="47.10078" lon="5.57476">
        <ele>237</ele>
        <time>2017-09-03T07:10:32Z</time>
      </trkpt>
      <trkpt lat="47.10081" lon="5.5749">
        <ele>237</ele>
        <time>2017-09-03T07:10:36Z</time>
      </trkpt>
      <trkpt lat="47.10083" lon="5.57509">
        <ele>238</ele>
        <time>2017-09-03T07:10:40Z</time>
      </trkpt>
      <trkpt lat="47.10087" lon="5.57527">
        <ele>238</ele>
        <time>2017-09-03T07:10:44Z</time>
      </trkpt>
      <trkpt lat="47.10093" lon="5.57542">
        <ele>238</ele>
        <time>2017-09-03T07:10:48Z</time>
      </trkpt>
      <trkpt lat="47.10097" lon="5.57557">
        <ele>239</ele>
        <time>2017-09-03T07:10:52Z</time>
      </trkpt>
      <trkpt lat="47.10101" lon="5.57567">
        <ele>239</ele>
        <time>2017-09-03T07:10:56Z</time>
      </trkpt>
      <trkpt lat="47.10103" lon="5.57586">
        <ele>239</ele>
        <time>2017-09-03T07:11:00Z</time>
      </trkpt>
      <trkpt lat="47.10106" lon="5.57601">
        <ele>239</ele>
        <time>2017-09-03T07:11:04Z</time>
      </trkpt>
      <trkpt lat="47.10111" lon="5.57617">
        <ele>240</ele>
        <time>2017-09-03T07:11:08Z</time>
      </trkpt>
      <trkpt lat="47.10111" lon="5.57635">
        <ele>240</ele>
        <time>2017-09-03T07:11:12Z</time>
      </trkpt>
      <trkpt lat="47.10113" lon="5.57648">
        <ele>240</ele>
        <time>2017-09-03T07:11:16Z</time>
      </trkpt>
      <trkpt lat="47.10117" lon="5.5765">
        <ele>240</ele>
        <time>2017-09-03T07:11:20Z</time>
      </trkpt>
      <trkpt lat="47.10121" lon="5.5765">
        <ele>240</ele>
        <time>2017-09-03T07:11:24Z</time>
      </trkpt>
      <trkpt lat="47.10129" lon="5.57653">
        <ele>241</ele>
        <time>2017-09-03T07:11:28Z</time>
      </trkpt>
      <trkpt lat="47.1014" lon="5.57653">
        <ele>241</ele>
        <time>2017-09-03T07:11:32Z</time>
      </trkpt>
      <trkpt lat="47.1015" lon="5.57649">
        <ele>241</ele>
        <time>2017-09-03T07:11:36Z</time>
      </trkpt>
      <trkpt lat="47.10164" lon="5.57645">
        <ele>240</ele>
        <time>2017-09-03T07:11:40Z</time>
      </trkpt>
      <trkpt lat="47.10176" lon="5.57641">
        <ele>240</ele>
        <time>2017-09-03T07:11:44Z</time>
      </trkpt>
      <trkpt lat="47.10187" lon="5.57638">
        <ele>240</ele>
        <time>2017-09-03T07:11:48Z</time>
      </trkpt>
      <trkpt lat="47.10192" lon="5.57636">
        <ele>240</ele>
        <time>2017-09-03T07:11:52Z</time>
      </trkpt>
      <trkpt lat="47.10198" lon="5.57636">
        <ele>240</ele>
        <time>2017-09-03T07:11:56Z</time>
      </trkpt>
      <trkpt lat="47.10206" lon="5.57635">
        <ele>239</ele>
        <time>2017-09-03T07:12:00Z</time>
      </trkpt>
      <trkpt lat="47.10215" lon="5.57629">
        <ele>239</ele>
        <time>2017-09-03T07:12:04Z</time>
      </trkpt>
      <trkpt lat="47.10222" lon="5.57623">
        <ele>239</ele>
        <time>2017-09-03T07:12:08Z</time>
      </trkpt>
      <trkpt lat="47.10232" lon="5.57619">
        <ele>239</ele>
        <time>2017-09-03T07:12:12Z</time>
      </trkpt>
      <trkpt lat="47.10244" lon="5.57613">
        <ele>239</ele>
        <time>2017-09-03T07:12:16Z</time>
      </trkpt>
      <trkpt lat="47.10255" lon="5.57607">
        <ele>239</ele>
        <time>2017-09-03T07:12:20Z</time>
      </trkpt>
      <trkpt lat="47.10265" lon="5.57602">
        <ele>239</ele>
        <time>2017-09-03T07:12:24Z</time>
      </trkpt>
      <trkpt lat="47.1028" lon="5.57592">
        <ele>239</ele>
        <time>2017-09-03T07:12:28Z</time>
      </trkpt>
      <trkpt lat="47.10293" lon="5.57583">
        <ele>239</ele>
        <time>2017-09-03T07:12:32Z</time>
      </trkpt>
      <trkpt lat="47.10307" lon="5.57572">
        <ele>239</ele>
        <time>2017-09-03T07:12:36Z</time>
      </trkpt>
      <trkpt lat="47.10318" lon="5.57563">
        <ele>239</ele>
        <time>2017-09-03T07:12:40Z</time>
      </trkpt>
      <trkpt lat="47.10329" lon="5.57559">
        <ele>239</ele>
        <time>2017-09-03T07:12:48Z</time>
      </trkpt>
      <trkpt lat="47.1034" lon="5.57551">
        <ele>240</ele>
        <time>2017-09-03T07:12:52Z</time>
      </trkpt>
      <trkpt lat="47.10369" lon="5.5754">
        <ele>239</ele>
        <time>2017-09-03T07:12:56Z</time>
      </trkpt>
      <trkpt lat="47.10388" lon="5.57557">
        <ele>239</ele>
        <time>2017-09-03T07:13:00Z</time>
      </trkpt>
      <trkpt lat="47.10401" lon="5.57576">
        <ele>239</ele>
        <time>2017-09-03T07:13:04Z</time>
      </trkpt>
      <trkpt lat="47.10412" lon="5.57594">
        <ele>239</ele>
        <time>2017-09-03T07:13:08Z</time>
      </trkpt>
      <trkpt lat="47.10423" lon="5.57611">
        <ele>240</ele>
        <time>2017-09-03T07:13:12Z</time>
      </trkpt>
      <trkpt lat="47.10435" lon="5.57626">
        <ele>240</ele>
        <time>2017-09-03T07:13:16Z</time>
      </trkpt>
      <trkpt lat="47.10446" lon="5.57643">
        <ele>240</ele>
        <time>2017-09-03T07:13:20Z</time>
      </trkpt>
      <trkpt lat="47.10457" lon="5.57658">
        <ele>240</ele>
        <time>2017-09-03T07:13:24Z</time>
      </trkpt>
      <trkpt lat="47.10468" lon="5.57672">
        <ele>240</ele>
        <time>2017-09-03T07:13:28Z</time>
      </trkpt>
      <trkpt lat="47.1048" lon="5.57686">
        <ele>240</ele>
        <time>2017-09-03T07:13:32Z</time>
      </trkpt>
      <trkpt lat="47.10491" lon="5.57703">
        <ele>240</ele>
        <time>2017-09-03T07:13:36Z</time>
      </trkpt>
      <trkpt lat="47.10504" lon="5.57718">
        <ele>240</ele>
        <time>2017-09-03T07:13:40Z</time>
      </trkpt>
      <trkpt lat="47.10515" lon="5.57732">
        <ele>240</ele>
        <time>2017-09-03T07:13:44Z</time>
      </trkpt>
      <trkpt lat="47.10526" lon="5.57747">
        <ele>239</ele>
        <time>2017-09-03T07:13:48Z</time>
      </trkpt>
      <trkpt lat="47.1054" lon="5.5776">
        <ele>238</ele>
        <time>2017-09-03T07:13:52Z</time>
      </trkpt>
      <trkpt lat="47.10552" lon="5.57776">
        <ele>237</ele>
        <time>2017-09-03T07:13:56Z</time>
      </trkpt>
      <trkpt lat="47.10566" lon="5.57793">
        <ele>236</ele>
        <time>2017-09-03T07:14:00Z</time>
      </trkpt>
      <trkpt lat="47.10582" lon="5.57815">
        <ele>234</ele>
        <time>2017-09-03T07:14:04Z</time>
      </trkpt>
      <trkpt lat="47.10609" lon="5.57847">
        <ele>230</ele>
        <time>2017-09-03T07:14:08Z</time>
      </trkpt>
      <trkpt lat="47.10633" lon="5.57884">
        <ele>227</ele>
        <time>2017-09-03T07:14:12Z</time>
      </trkpt>
      <trkpt lat="47.10653" lon="5.57912">
        <ele>226</ele>
        <time>2017-09-03T07:14:16Z</time>
      </trkpt>
      <trkpt lat="47.10668" lon="5.57926">
        <ele>227</ele>
        <time>2017-09-03T07:14:20Z</time>
      </trkpt>
      <trkpt lat="47.10677" lon="5.57931">
        <ele>229</ele>
        <time>2017-09-03T07:14:24Z</time>
      </trkpt>
      <trkpt lat="47.1069" lon="5.5793">
        <ele>230</ele>
        <time>2017-09-03T07:14:28Z</time>
      </trkpt>
      <trkpt lat="47.107" lon="5.5791">
        <ele>230</ele>
        <time>2017-09-03T07:14:32Z</time>
      </trkpt>
      <trkpt lat="47.10707" lon="5.57888">
        <ele>230</ele>
        <time>2017-09-03T07:14:36Z</time>
      </trkpt>
      <trkpt lat="47.10713" lon="5.57862">
        <ele>229</ele>
        <time>2017-09-03T07:14:40Z</time>
      </trkpt>
      <trkpt lat="47.10724" lon="5.57828">
        <ele>227</ele>
        <time>2017-09-03T07:14:44Z</time>
      </trkpt>
      <trkpt lat="47.10738" lon="5.57794">
        <ele>226</ele>
        <time>2017-09-03T07:14:48Z</time>
      </trkpt>
      <trkpt lat="47.10756" lon="5.57764">
        <ele>226</ele>
        <time>2017-09-03T07:14:52Z</time>
      </trkpt>
      <trkpt lat="47.1077" lon="5.57744">
        <ele>227</ele>
        <time>2017-09-03T07:14:56Z</time>
      </trkpt>
      <trkpt lat="47.10783" lon="5.57725">
        <ele>228</ele>
        <time>2017-09-03T07:15:00Z</time>
      </trkpt>
      <trkpt lat="47.10792" lon="5.57711">
        <ele>229</ele>
        <time>2017-09-03T07:15:04Z</time>
      </trkpt>
      <trkpt lat="47.10798" lon="5.57702">
        <ele>229</ele>
        <time>2017-09-03T07:15:08Z</time>
      </trkpt>
      <trkpt lat="47.10799" lon="5.57696">
        <ele>230</ele>
        <time>2017-09-03T07:15:12Z</time>
      </trkpt>
      <trkpt lat="47.10803" lon="5.57688">
        <ele>231</ele>
        <time>2017-09-03T07:15:16Z</time>
      </trkpt>
      <trkpt lat="47.10811" lon="5.57678">
        <ele>231</ele>
        <time>2017-09-03T07:15:21Z</time>
      </trkpt>
      <trkpt lat="47.10816" lon="5.57668">
        <ele>232</ele>
        <time>2017-09-03T07:15:28Z</time>
      </trkpt>
      <trkpt lat="47.1082" lon="5.57658">
        <ele>233</ele>
        <time>2017-09-03T07:15:32Z</time>
      </trkpt>
      <trkpt lat="47.10828" lon="5.57642">
        <ele>234</ele>
        <time>2017-09-03T07:15:36Z</time>
      </trkpt>
      <trkpt lat="47.10836" lon="5.57627">
        <ele>234</ele>
        <time>2017-09-03T07:15:40Z</time>
      </trkpt>
      <trkpt lat="47.10845" lon="5.57614">
        <ele>235</ele>
        <time>2017-09-03T07:15:44Z</time>
      </trkpt>
      <trkpt lat="47.10852" lon="5.57601">
        <ele>236</ele>
        <time>2017-09-03T07:15:48Z</time>
      </trkpt>
      <trkpt lat="47.10867" lon="5.5758">
        <ele>237</ele>
        <time>2017-09-03T07:15:52Z</time>
      </trkpt>
      <trkpt lat="47.10877" lon="5.57569">
        <ele>238</ele>
        <time>2017-09-03T07:15:56Z</time>
      </trkpt>
      <trkpt lat="47.10886" lon="5.57558">
        <ele>239</ele>
        <time>2017-09-03T07:16:00Z</time>
      </trkpt>
      <trkpt lat="47.10895" lon="5.57549">
        <ele>239</ele>
        <time>2017-09-03T07:16:04Z</time>
      </trkpt>
      <trkpt lat="47.10905" lon="5.57541">
        <ele>239</ele>
        <time>2017-09-03T07:16:08Z</time>
      </trkpt>
      <trkpt lat="47.10914" lon="5.57534">
        <ele>240</ele>
        <time>2017-09-03T07:16:12Z</time>
      </trkpt>
      <trkpt lat="47.10924" lon="5.57527">
        <ele>241</ele>
        <time>2017-09-03T07:16:16Z</time>
      </trkpt>
      <trkpt lat="47.10934" lon="5.57521">
        <ele>241</ele>
        <time>2017-09-03T07:16:20Z</time>
      </trkpt>
      <trkpt lat="47.10944" lon="5.57516">
        <ele>241</ele>
        <time>2017-09-03T07:16:24Z</time>
      </trkpt>
      <trkpt lat="47.10956" lon="5.5751">
        <ele>241</ele>
        <time>2017-09-03T07:16:28Z</time>
      </trkpt>
      <trkpt lat="47.10971" lon="5.57502">
        <ele>241</ele>
        <time>2017-09-03T07:16:32Z</time>
      </trkpt>
      <trkpt lat="47.10987" lon="5.5749">
        <ele>240</ele>
        <time>2017-09-03T07:16:36Z</time>
      </trkpt>
      <trkpt lat="47.11006" lon="5.57478">
        <ele>240</ele>
        <time>2017-09-03T07:16:40Z</time>
      </trkpt>
      <trkpt lat="47.11024" lon="5.57467">
        <ele>240</ele>
        <time>2017-09-03T07:16:44Z</time>
      </trkpt>
      <trkpt lat="47.11043" lon="5.57456">
        <ele>240</ele>
        <time>2017-09-03T07:16:48Z</time>
      </trkpt>
      <trkpt lat="47.11061" lon="5.57445">
        <ele>239</ele>
        <time>2017-09-03T07:16:52Z</time>
      </trkpt>
      <trkpt lat="47.11079" lon="5.57433">
        <ele>239</ele>
        <time>2017-09-03T07:16:56Z</time>
      </trkpt>
      <trkpt lat="47.11096" lon="5.57422">
        <ele>239</ele>
        <time>2017-09-03T07:17:00Z</time>
      </trkpt>
      <trkpt lat="47.11114" lon="5.5741">
        <ele>239</ele>
        <time>2017-09-03T07:17:04Z</time>
      </trkpt>
      <trkpt lat="47.11132" lon="5.57396">
        <ele>239</ele>
        <time>2017-09-03T07:17:08Z</time>
      </trkpt>
      <trkpt lat="47.1115" lon="5.57377">
        <ele>238</ele>
        <time>2017-09-03T07:17:12Z</time>
      </trkpt>
      <trkpt lat="47.11168" lon="5.57356">
        <ele>237</ele>
        <time>2017-09-03T07:17:16Z</time>
      </trkpt>
      <trkpt lat="47.11189" lon="5.57331">
        <ele>236</ele>
        <time>2017-09-03T07:17:20Z</time>
      </trkpt>
      <trkpt lat="47.11212" lon="5.57302">
        <ele>234</ele>
        <time>2017-09-03T07:17:24Z</time>
      </trkpt>
      <trkpt lat="47.11234" lon="5.57264">
        <ele>231</ele>
        <time>2017-09-03T07:17:28Z</time>
      </trkpt>
      <trkpt lat="47.11252" lon="5.57228">
        <ele>228</ele>
        <time>2017-09-03T07:17:32Z</time>
      </trkpt>
      <trkpt lat="47.11257" lon="5.57205">
        <ele>227</ele>
        <time>2017-09-03T07:17:36Z</time>
      </trkpt>
      <trkpt lat="47.11266" lon="5.5718">
        <ele>226</ele>
        <time>2017-09-03T07:17:40Z</time>
      </trkpt>
      <trkpt lat="47.11283" lon="5.57157">
        <ele>224</ele>
        <time>2017-09-03T07:17:44Z</time>
      </trkpt>
      <trkpt lat="47.11301" lon="5.57131">
        <ele>223</ele>
        <time>2017-09-03T07:17:48Z</time>
      </trkpt>
      <trkpt lat="47.11314" lon="5.57096">
        <ele>222</ele>
        <time>2017-09-03T07:17:52Z</time>
      </trkpt>
      <trkpt lat="47.11318" lon="5.57051">
        <ele>220</ele>
        <time>2017-09-03T07:17:56Z</time>
      </trkpt>
      <trkpt lat="47.11319" lon="5.57016">
        <ele>217</ele>
        <time>2017-09-03T07:18:00Z</time>
      </trkpt>
      <trkpt lat="47.11329" lon="5.57003">
        <ele>215</ele>
        <time>2017-09-03T07:18:04Z</time>
      </trkpt>
      <trkpt lat="47.11342" lon="5.57003">
        <ele>213</ele>
        <time>2017-09-03T07:18:08Z</time>
      </trkpt>
      <trkpt lat="47.11359" lon="5.57015">
        <ele>211</ele>
        <time>2017-09-03T07:18:12Z</time>
      </trkpt>
      <trkpt lat="47.11384" lon="5.57024">
        <ele>209</ele>
        <time>2017-09-03T07:18:16Z</time>
      </trkpt>
      <trkpt lat="47.11408" lon="5.57024">
        <ele>208</ele>
        <time>2017-09-03T07:18:20Z</time>
      </trkpt>
      <trkpt lat="47.11432" lon="5.57012">
        <ele>207</ele>
        <time>2017-09-03T07:18:24Z</time>
      </trkpt>
      <trkpt lat="47.11456" lon="5.57001">
        <ele>206</ele>
        <time>2017-09-03T07:18:28Z</time>
      </trkpt>
      <trkpt lat="47.11477" lon="5.56989">
        <ele>206</ele>
        <time>2017-09-03T07:18:32Z</time>
      </trkpt>
      <trkpt lat="47.115" lon="5.56979">
        <ele>206</ele>
        <time>2017-09-03T07:18:36Z</time>
      </trkpt>
      <trkpt lat="47.11524" lon="5.56969">
        <ele>206</ele>
        <time>2017-09-03T07:18:40Z</time>
      </trkpt>
      <trkpt lat="47.11546" lon="5.5696">
        <ele>205</ele>
        <time>2017-09-03T07:18:44Z</time>
      </trkpt>
      <trkpt lat="47.1157" lon="5.56952">
        <ele>205</ele>
        <time>2017-09-03T07:18:52Z</time>
      </trkpt>
      <trkpt lat="47.11592" lon="5.56942">
        <ele>204</ele>
        <time>2017-09-03T07:18:56Z</time>
      </trkpt>
      <trkpt lat="47.11615" lon="5.56933">
        <ele>204</ele>
        <time>2017-09-03T07:19:00Z</time>
      </trkpt>
      <trkpt lat="47.11635" lon="5.56924">
        <ele>205</ele>
        <time>2017-09-03T07:19:04Z</time>
      </trkpt>
      <trkpt lat="47.11656" lon="5.56915">
        <ele>205</ele>
        <time>2017-09-03T07:19:08Z</time>
      </trkpt>
      <trkpt lat="47.11676" lon="5.56909">
        <ele>204</ele>
        <time>2017-09-03T07:19:12Z</time>
      </trkpt>
      <trkpt lat="47.11696" lon="5.56906">
        <ele>204</ele>
        <time>2017-09-03T07:19:16Z</time>
      </trkpt>
      <trkpt lat="47.11716" lon="5.56906">
        <ele>204</ele>
        <time>2017-09-03T07:19:20Z</time>
      </trkpt>
      <trkpt lat="47.11754" lon="5.56909">
        <ele>205</ele>
        <time>2017-09-03T07:19:24Z</time>
      </trkpt>
      <trkpt lat="47.11774" lon="5.56912">
        <ele>205</ele>
        <time>2017-09-03T07:19:28Z</time>
      </trkpt>
      <trkpt lat="47.11794" lon="5.56914">
        <ele>205</ele>
        <time>2017-09-03T07:19:32Z</time>
      </trkpt>
      <trkpt lat="47.1181" lon="5.56916">
        <ele>205</ele>
        <time>2017-09-03T07:19:36Z</time>
      </trkpt>
      <trkpt lat="47.11824" lon="5.56908">
        <ele>205</ele>
        <time>2017-09-03T07:19:40Z</time>
      </trkpt>
      <trkpt lat="47.11836" lon="5.56893">
        <ele>204</ele>
        <time>2017-09-03T07:19:44Z</time>
      </trkpt>
      <trkpt lat="47.11849" lon="5.56879">
        <ele>204</ele>
        <time>2017-09-03T07:19:48Z</time>
      </trkpt>
      <trkpt lat="47.11863" lon="5.56866">
        <ele>205</ele>
        <time>2017-09-03T07:19:52Z</time>
      </trkpt>
      <trkpt lat="47.11877" lon="5.56852">
        <ele>204</ele>
        <time>2017-09-03T07:19:56Z</time>
      </trkpt>
      <trkpt lat="47.11892" lon="5.56837">
        <ele>205</ele>
        <time>2017-09-03T07:20:00Z</time>
      </trkpt>
      <trkpt lat="47.11908" lon="5.56822">
        <ele>205</ele>
        <time>2017-09-03T07:20:04Z</time>
      </trkpt>
      <trkpt lat="47.11923" lon="5.56807">
        <ele>204</ele>
        <time>2017-09-03T07:20:08Z</time>
      </trkpt>
      <trkpt lat="47.11939" lon="5.56792">
        <ele>204</ele>
        <time>2017-09-03T07:20:12Z</time>
      </trkpt>
      <trkpt lat="47.11955" lon="5.56776">
        <ele>204</ele>
        <time>2017-09-03T07:20:16Z</time>
      </trkpt>
      <trkpt lat="47.11971" lon="5.5676">
        <ele>204</ele>
        <time>2017-09-03T07:20:20Z</time>
      </trkpt>
      <trkpt lat="47.11987" lon="5.56745">
        <ele>204</ele>
        <time>2017-09-03T07:20:24Z</time>
      </trkpt>
      <trkpt lat="47.12003" lon="5.56729">
        <ele>204</ele>
        <time>2017-09-03T07:20:28Z</time>
      </trkpt>
      <trkpt lat="47.12019" lon="5.56713">
        <ele>204</ele>
        <time>2017-09-03T07:20:32Z</time>
      </trkpt>
      <trkpt lat="47.12035" lon="5.56697">
        <ele>204</ele>
        <time>2017-09-03T07:20:36Z</time>
      </trkpt>
      <trkpt lat="47.12051" lon="5.5668">
        <ele>204</ele>
        <time>2017-09-03T07:20:40Z</time>
      </trkpt>
      <trkpt lat="47.12068" lon="5.56665">
        <ele>204</ele>
        <time>2017-09-03T07:20:44Z</time>
      </trkpt>
      <trkpt lat="47.12087" lon="5.56663">
        <ele>204</ele>
        <time>2017-09-03T07:20:48Z</time>
      </trkpt>
      <trkpt lat="47.12104" lon="5.56677">
        <ele>204</ele>
        <time>2017-09-03T07:20:52Z</time>
      </trkpt>
      <trkpt lat="47.12115" lon="5.567">
        <ele>204</ele>
        <time>2017-09-03T07:20:56Z</time>
      </trkpt>
      <trkpt lat="47.12126" lon="5.56725">
        <ele>205</ele>
        <time>2017-09-03T07:21:00Z</time>
      </trkpt>
      <trkpt lat="47.12136" lon="5.56749">
        <ele>204</ele>
        <time>2017-09-03T07:21:04Z</time>
      </trkpt>
      <trkpt lat="47.12146" lon="5.56773">
        <ele>204</ele>
        <time>2017-09-03T07:21:08Z</time>
      </trkpt>
      <trkpt lat="47.12157" lon="5.56796">
        <ele>204</ele>
        <time>2017-09-03T07:21:12Z</time>
      </trkpt>
      <trkpt lat="47.12169" lon="5.56819">
        <ele>204</ele>
        <time>2017-09-03T07:21:16Z</time>
      </trkpt>
      <trkpt lat="47.12183" lon="5.56839">
        <ele>204</ele>
        <time>2017-09-03T07:21:20Z</time>
      </trkpt>
      <trkpt lat="47.122" lon="5.56853">
        <ele>204</ele>
        <time>2017-09-03T07:21:24Z</time>
      </trkpt>
      <trkpt lat="47.12218" lon="5.56862">
        <ele>204</ele>
        <time>2017-09-03T07:21:28Z</time>
      </trkpt>
      <trkpt lat="47.12236" lon="5.5687">
        <ele>204</ele>
        <time>2017-09-03T07:21:32Z</time>
      </trkpt>
      <trkpt lat="47.12254" lon="5.56877">
        <ele>205</ele>
        <time>2017-09-03T07:21:36Z</time>
      </trkpt>
      <trkpt lat="47.12272" lon="5.5688">
        <ele>205</ele>
        <time>2017-09-03T07:21:40Z</time>
      </trkpt>
      <trkpt lat="47.12289" lon="5.56879">
        <ele>205</ele>
        <time>2017-09-03T07:21:44Z</time>
      </trkpt>
      <trkpt lat="47.12301" lon="5.56875">
        <ele>205</ele>
        <time>2017-09-03T07:21:48Z</time>
      </trkpt>
      <trkpt lat="47.12304" lon="5.56866">
        <ele>204</ele>
        <time>2017-09-03T07:21:52Z</time>
      </trkpt>
      <trkpt lat="47.12304" lon="5.5685">
        <ele>205</ele>
        <time>2017-09-03T07:21:56Z</time>
      </trkpt>
      <trkpt lat="47.12305" lon="5.56829">
        <ele>204</ele>
        <time>2017-09-03T07:22:01Z</time>
      </trkpt>
      <trkpt lat="47.12304" lon="5.56806">
        <ele>204</ele>
        <time>2017-09-03T07:22:08Z</time>
      </trkpt>
      <trkpt lat="47.12304" lon="5.56782">
        <ele>205</ele>
        <time>2017-09-03T07:22:12Z</time>
      </trkpt>
      <trkpt lat="47.12304" lon="5.56736">
        <ele>205</ele>
        <time>2017-09-03T07:22:16Z</time>
      </trkpt>
      <trkpt lat="47.12304" lon="5.56709">
        <ele>205</ele>
        <time>2017-09-03T07:22:20Z</time>
      </trkpt>
      <trkpt lat="47.12304" lon="5.5668">
        <ele>205</ele>
        <time>2017-09-03T07:22:24Z</time>
      </trkpt>
      <trkpt lat="47.12304" lon="5.56654">
        <ele>205</ele>
        <time>2017-09-03T07:22:28Z</time>
      </trkpt>
      <trkpt lat="47.12306" lon="5.5663">
        <ele>206</ele>
        <time>2017-09-03T07:22:32Z</time>
      </trkpt>
      <trkpt lat="47.1231" lon="5.56607">
        <ele>206</ele>
        <time>2017-09-03T07:22:36Z</time>
      </trkpt>
      <trkpt lat="47.12317" lon="5.56584">
        <ele>206</ele>
        <time>2017-09-03T07:22:40Z</time>
      </trkpt>
      <trkpt lat="47.12327" lon="5.56563">
        <ele>207</ele>
        <time>2017-09-03T07:22:44Z</time>
      </trkpt>
      <trkpt lat="47.12338" lon="5.56544">
        <ele>208</ele>
        <time>2017-09-03T07:22:48Z</time>
      </trkpt>
      <trkpt lat="47.1235" lon="5.56526">
        <ele>208</ele>
        <time>2017-09-03T07:22:52Z</time>
      </trkpt>
      <trkpt lat="47.12363" lon="5.56508">
        <ele>208</ele>
        <time>2017-09-03T07:22:56Z</time>
      </trkpt>
      <trkpt lat="47.12375" lon="5.56489">
        <ele>208</ele>
        <time>2017-09-03T07:23:00Z</time>
      </trkpt>
      <trkpt lat="47.12387" lon="5.5647">
        <ele>208</ele>
        <time>2017-09-03T07:23:04Z</time>
      </trkpt>
      <trkpt lat="47.12401" lon="5.56451">
        <ele>208</ele>
        <time>2017-09-03T07:23:08Z</time>
      </trkpt>
      <trkpt lat="47.12414" lon="5.56431">
        <ele>208</ele>
        <time>2017-09-03T07:23:12Z</time>
      </trkpt>
      <trkpt lat="47.12427" lon="5.56412">
        <ele>208</ele>
        <time>2017-09-03T07:23:16Z</time>
      </trkpt>
      <trkpt lat="47.12441" lon="5.56392">
        <ele>207</ele>
        <time>2017-09-03T07:23:20Z</time>
      </trkpt>
      <trkpt lat="47.12452" lon="5.56367">
        <ele>207</ele>
        <time>2017-09-03T07:23:24Z</time>
      </trkpt>
      <trkpt lat="47.12459" lon="5.5634">
        <ele>207</ele>
        <time>2017-09-03T07:23:28Z</time>
      </trkpt>
      <trkpt lat="47.12463" lon="5.56318">
        <ele>207</ele>
        <time>2017-09-03T07:23:32Z</time>
      </trkpt>
      <trkpt lat="47.12462" lon="5.56292">
        <ele>206</ele>
        <time>2017-09-03T07:23:36Z</time>
      </trkpt>
      <trkpt lat="47.12449" lon="5.56264">
        <ele>205</ele>
        <time>2017-09-03T07:23:40Z</time>
      </trkpt>
      <trkpt lat="47.12433" lon="5.56239">
        <ele>205</ele>
        <time>2017-09-03T07:23:44Z</time>
      </trkpt>
      <trkpt lat="47.12422" lon="5.56203">
        <ele>205</ele>
        <time>2017-09-03T07:23:48Z</time>
      </trkpt>
      <trkpt lat="47.12427" lon="5.56172">
        <ele>205</ele>
        <time>2017-09-03T07:23:52Z</time>
      </trkpt>
      <trkpt lat="47.12444" lon="5.56156">
        <ele>206</ele>
        <time>2017-09-03T07:23:56Z</time>
      </trkpt>
      <trkpt lat="47.12466" lon="5.56154">
        <ele>206</ele>
        <time>2017-09-03T07:24:00Z</time>
      </trkpt>
      <trkpt lat="47.12482" lon="5.56146">
        <ele>206</ele>
        <time>2017-09-03T07:24:04Z</time>
      </trkpt>
      <trkpt lat="47.12488" lon="5.56118">
        <ele>206</ele>
        <time>2017-09-03T07:24:08Z</time>
      </trkpt>
      <trkpt lat="47.12496" lon="5.56089">
        <ele>206</ele>
        <time>2017-09-03T07:24:12Z</time>
      </trkpt>
      <trkpt lat="47.12505" lon="5.56058">
        <ele>205</ele>
        <time>2017-09-03T07:24:16Z</time>
      </trkpt>
      <trkpt lat="47.12513" lon="5.56028">
        <ele>206</ele>
        <time>2017-09-03T07:24:20Z</time>
      </trkpt>
      <trkpt lat="47.12521" lon="5.56004">
        <ele>205</ele>
        <time>2017-09-03T07:24:24Z</time>
      </trkpt>
      <trkpt lat="47.12528" lon="5.55979">
        <ele>205</ele>
        <time>2017-09-03T07:24:28Z</time>
      </trkpt>
      <trkpt lat="47.12546" lon="5.55977">
        <ele>205</ele>
        <time>2017-09-03T07:24:32Z</time>
      </trkpt>
      <trkpt lat="47.12562" lon="5.55991">
        <ele>205</ele>
        <time>2017-09-03T07:24:36Z</time>
      </trkpt>
      <trkpt lat="47.12571" lon="5.56004">
        <ele>204</ele>
        <time>2017-09-03T07:24:40Z</time>
      </trkpt>
      <trkpt lat="47.12571" lon="5.56">
        <ele>205</ele>
        <time>2017-09-03T07:34:52Z</time>
      </trkpt>
      <trkpt lat="47.12571" lon="5.55994">
        <ele>205</ele>
        <time>2017-09-03T07:34:56Z</time>
      </trkpt>
      <trkpt lat="47.12572" lon="5.55985">
        <ele>204</ele>
        <time>2017-09-03T07:35:00Z</time>
      </trkpt>
      <trkpt lat="47.12577" lon="5.55986">
        <ele>205</ele>
        <time>2017-09-03T07:35:04Z</time>
      </trkpt>
      <trkpt lat="47.12576" lon="5.55986">
        <ele>204</ele>
        <time>2017-09-03T07:35:52Z</time>
      </trkpt>
      <trkpt lat="47.12572" lon="5.55986">
        <ele>205</ele>
        <time>2017-09-03T07:35:56Z</time>
      </trkpt>
      <trkpt lat="47.12572" lon="5.55978">
        <ele>205</ele>
        <time>2017-09-03T07:36:00Z</time>
      </trkpt>
      <trkpt lat="47.12579" lon="5.55974">
        <ele>205</ele>
        <time>2017-09-03T07:36:04Z</time>
      </trkpt>
      <trkpt lat="47.1259" lon="5.5598">
        <ele>205</ele>
        <time>2017-09-03T07:36:08Z</time>
      </trkpt>
      <trkpt lat="47.12597" lon="5.55995">
        <ele>205</ele>
        <time>2017-09-03T07:36:12Z</time>
      </trkpt>
      <trkpt lat="47.12602" lon="5.56012">
        <ele>205</ele>
        <time>2017-09-03T07:36:16Z</time>
      </trkpt>
      <trkpt lat="47.12601" lon="5.56029">
        <ele>205</ele>
        <time>2017-09-03T07:36:20Z</time>
      </trkpt>
      <trkpt lat="47.12605" lon="5.56044">
        <ele>205</ele>
        <time>2017-09-03T07:36:24Z</time>
      </trkpt>
      <trkpt lat="47.1262" lon="5.56046">
        <ele>205</ele>
        <time>2017-09-03T07:36:28Z</time>
      </trkpt>
      <trkpt lat="47.12637" lon="5.56047">
        <ele>204</ele>
        <time>2017-09-03T07:36:32Z</time>
      </trkpt>
      <trkpt lat="47.12654" lon="5.56051">
        <ele>204</ele>
        <time>2017-09-03T07:36:36Z</time>
      </trkpt>
      <trkpt lat="47.1267" lon="5.56053">
        <ele>205</ele>
        <time>2017-09-03T07:36:40Z</time>
      </trkpt>
      <trkpt lat="47.12686" lon="5.56055">
        <ele>204</ele>
        <time>2017-09-03T07:36:44Z</time>
      </trkpt>
      <trkpt lat="47.12703" lon="5.56056">
        <ele>205</ele>
        <time>2017-09-03T07:36:48Z</time>
      </trkpt>
      <trkpt lat="47.12716" lon="5.56071">
        <ele>205</ele>
        <time>2017-09-03T07:36:52Z</time>
      </trkpt>
      <trkpt lat="47.12715" lon="5.56095">
        <ele>205</ele>
        <time>2017-09-03T07:36:56Z</time>
      </trkpt>
      <trkpt lat="47.1271" lon="5.56119">
        <ele>205</ele>
        <time>2017-09-03T07:37:00Z</time>
      </trkpt>
      <trkpt lat="47.12706" lon="5.56141">
        <ele>205</ele>
        <time>2017-09-03T07:37:04Z</time>
      </trkpt>
      <trkpt lat="47.12704" lon="5.56156">
        <ele>205</ele>
        <time>2017-09-03T07:37:08Z</time>
      </trkpt>
      <trkpt lat="47.12709" lon="5.56169">
        <ele>206</ele>
        <time>2017-09-03T07:37:36Z</time>
      </trkpt>
      <trkpt lat="47.12718" lon="5.56169">
        <ele>206</ele>
        <time>2017-09-03T07:37:40Z</time>
      </trkpt>
      <trkpt lat="47.1273" lon="5.56172">
        <ele>206</ele>
        <time>2017-09-03T07:37:44Z</time>
      </trkpt>
      <trkpt lat="47.12744" lon="5.56172">
        <ele>206</ele>
        <time>2017-09-03T07:37:48Z</time>
      </trkpt>
      <trkpt lat="47.12758" lon="5.5617">
        <ele>206</ele>
        <time>2017-09-03T07:37:52Z</time>
      </trkpt>
      <trkpt lat="47.12772" lon="5.56168">
        <ele>206</ele>
        <time>2017-09-03T07:37:56Z</time>
      </trkpt>
      <trkpt lat="47.12785" lon="5.56169">
        <ele>207</ele>
        <time>2017-09-03T07:38:00Z</time>
      </trkpt>
      <trkpt lat="47.12799" lon="5.56168">
        <ele>208</ele>
        <time>2017-09-03T07:38:04Z</time>
      </trkpt>
      <trkpt lat="47.12814" lon="5.56166">
        <ele>208</ele>
        <time>2017-09-03T07:38:08Z</time>
      </trkpt>
      <trkpt lat="47.12827" lon="5.56161">
        <ele>209</ele>
        <time>2017-09-03T07:38:12Z</time>
      </trkpt>
      <trkpt lat="47.12842" lon="5.56159">
        <ele>209</ele>
        <time>2017-09-03T07:38:16Z</time>
      </trkpt>
      <trkpt lat="47.12855" lon="5.56152">
        <ele>210</ele>
        <time>2017-09-03T07:38:20Z</time>
      </trkpt>
      <trkpt lat="47.12866" lon="5.56134">
        <ele>210</ele>
        <time>2017-09-03T07:38:24Z</time>
      </trkpt>
      <trkpt lat="47.12881" lon="5.5612">
        <ele>210</ele>
        <time>2017-09-03T07:38:28Z</time>
      </trkpt>
      <trkpt lat="47.12898" lon="5.56135">
        <ele>209</ele>
        <time>2017-09-03T07:38:32Z</time>
      </trkpt>
      <trkpt lat="47.12914" lon="5.56155">
        <ele>209</ele>
        <time>2017-09-03T07:38:36Z</time>
      </trkpt>
      <trkpt lat="47.12932" lon="5.56168">
        <ele>209</ele>
        <time>2017-09-03T07:38:40Z</time>
      </trkpt>
      <trkpt lat="47.12952" lon="5.56179">
        <ele>209</ele>
        <time>2017-09-03T07:38:44Z</time>
      </trkpt>
      <trkpt lat="47.12972" lon="5.56188">
        <ele>209</ele>
        <time>2017-09-03T07:38:48Z</time>
      </trkpt>
      <trkpt lat="47.12992" lon="5.56196">
        <ele>209</ele>
        <time>2017-09-03T07:38:52Z</time>
      </trkpt>
      <trkpt lat="47.13012" lon="5.56202">
        <ele>209</ele>
        <time>2017-09-03T07:38:56Z</time>
      </trkpt>
      <trkpt lat="47.13033" lon="5.56208">
        <ele>210</ele>
        <time>2017-09-03T07:39:00Z</time>
      </trkpt>
      <trkpt lat="47.13053" lon="5.56215">
        <ele>210</ele>
        <time>2017-09-03T07:39:04Z</time>
      </trkpt>
      <trkpt lat="47.13072" lon="5.56222">
        <ele>211</ele>
        <time>2017-09-03T07:39:08Z</time>
      </trkpt>
      <trkpt lat="47.13091" lon="5.56229">
        <ele>211</ele>
        <time>2017-09-03T07:39:12Z</time>
      </trkpt>
      <trkpt lat="47.13109" lon="5.56236">
        <ele>212</ele>
        <time>2017-09-03T07:39:16Z</time>
      </trkpt>
      <trkpt lat="47.13127" lon="5.56244">
        <ele>212</ele>
        <time>2017-09-03T07:39:20Z</time>
      </trkpt>
      <trkpt lat="47.13145" lon="5.56251">
        <ele>213</ele>
        <time>2017-09-03T07:39:24Z</time>
      </trkpt>
      <trkpt lat="47.13164" lon="5.56258">
        <ele>214</ele>
        <time>2017-09-03T07:39:28Z</time>
      </trkpt>
      <trkpt lat="47.13181" lon="5.56265">
        <ele>214</ele>
        <time>2017-09-03T07:39:32Z</time>
      </trkpt>
      <trkpt lat="47.132" lon="5.56271">
        <ele>214</ele>
        <time>2017-09-03T07:39:36Z</time>
      </trkpt>
      <trkpt lat="47.13218" lon="5.56276">
        <ele>214</ele>
        <time>2017-09-03T07:39:40Z</time>
      </trkpt>
      <trkpt lat="47.13237" lon="5.5628">
        <ele>214</ele>
        <time>2017-09-03T07:39:44Z</time>
      </trkpt>
      <trkpt lat="47.13255" lon="5.56282">
        <ele>214</ele>
        <time>2017-09-03T07:39:48Z</time>
      </trkpt>
      <trkpt lat="47.13275" lon="5.56286">
        <ele>215</ele>
        <time>2017-09-03T07:39:52Z</time>
      </trkpt>
      <trkpt lat="47.13295" lon="5.56289">
        <ele>214</ele>
        <time>2017-09-03T07:39:56Z</time>
      </trkpt>
      <trkpt lat="47.13315" lon="5.56292">
        <ele>215</ele>
        <time>2017-09-03T07:40:00Z</time>
      </trkpt>
      <trkpt lat="47.13336" lon="5.56294">
        <ele>215</ele>
        <time>2017-09-03T07:40:04Z</time>
      </trkpt>
      <trkpt lat="47.13358" lon="5.56296">
        <ele>215</ele>
        <time>2017-09-03T07:40:08Z</time>
      </trkpt>
      <trkpt lat="47.13379" lon="5.56298">
        <ele>215</ele>
        <time>2017-09-03T07:40:12Z</time>
      </trkpt>
      <trkpt lat="47.13401" lon="5.563">
        <ele>215</ele>
        <time>2017-09-03T07:40:16Z</time>
      </trkpt>
      <trkpt lat="47.13423" lon="5.56302">
        <ele>215</ele>
        <time>2017-09-03T07:40:20Z</time>
      </trkpt>
      <trkpt lat="47.13446" lon="5.56304">
        <ele>214</ele>
        <time>2017-09-03T07:40:24Z</time>
      </trkpt>
      <trkpt lat="47.13467" lon="5.56306">
        <ele>214</ele>
        <time>2017-09-03T07:40:28Z</time>
      </trkpt>
      <trkpt lat="47.13489" lon="5.56308">
        <ele>214</ele>
        <time>2017-09-03T07:40:32Z</time>
      </trkpt>
      <trkpt lat="47.13511" lon="5.5631">
        <ele>214</ele>
        <time>2017-09-03T07:40:36Z</time>
      </trkpt>
      <trkpt lat="47.13533" lon="5.56312">
        <ele>214</ele>
        <time>2017-09-03T07:40:40Z</time>
      </trkpt>
      <trkpt lat="47.13556" lon="5.56313">
        <ele>213</ele>
        <time>2017-09-03T07:40:44Z</time>
      </trkpt>
      <trkpt lat="47.1358" lon="5.56316">
        <ele>213</ele>
        <time>2017-09-03T07:40:48Z</time>
      </trkpt>
      <trkpt lat="47.13604" lon="5.56319">
        <ele>213</ele>
        <time>2017-09-03T07:40:52Z</time>
      </trkpt>
      <trkpt lat="47.13629" lon="5.56324">
        <ele>212</ele>
        <time>2017-09-03T07:40:57Z</time>
      </trkpt>
      <trkpt lat="47.13653" lon="5.56329">
        <ele>212</ele>
        <time>2017-09-03T07:41:00Z</time>
      </trkpt>
      <trkpt lat="47.13674" lon="5.56334">
        <ele>212</ele>
        <time>2017-09-03T07:41:04Z</time>
      </trkpt>
      <trkpt lat="47.13696" lon="5.56339">
        <ele>212</ele>
        <time>2017-09-03T07:41:08Z</time>
      </trkpt>
      <trkpt lat="47.13717" lon="5.56343">
        <ele>212</ele>
        <time>2017-09-03T07:41:12Z</time>
      </trkpt>
      <trkpt lat="47.13737" lon="5.56347">
        <ele>212</ele>
        <time>2017-09-03T07:41:16Z</time>
      </trkpt>
      <trkpt lat="47.13757" lon="5.5635">
        <ele>212</ele>
        <time>2017-09-03T07:41:20Z</time>
      </trkpt>
      <trkpt lat="47.13775" lon="5.56352">
        <ele>212</ele>
        <time>2017-09-03T07:41:24Z</time>
      </trkpt>
      <trkpt lat="47.13793" lon="5.56355">
        <ele>213</ele>
        <time>2017-09-03T07:41:28Z</time>
      </trkpt>
      <trkpt lat="47.13812" lon="5.56357">
        <ele>213</ele>
        <time>2017-09-03T07:41:32Z</time>
      </trkpt>
      <trkpt lat="47.13829" lon="5.56357">
        <ele>213</ele>
        <time>2017-09-03T07:41:36Z</time>
      </trkpt>
      <trkpt lat="47.13843" lon="5.5636">
        <ele>213</ele>
        <time>2017-09-03T07:41:40Z</time>
      </trkpt>
      <trkpt lat="47.13861" lon="5.56362">
        <ele>213</ele>
        <time>2017-09-03T07:41:44Z</time>
      </trkpt>
      <trkpt lat="47.13869" lon="5.56366">
        <ele>213</ele>
        <time>2017-09-03T07:41:48Z</time>
      </trkpt>
      <trkpt lat="47.13882" lon="5.56368">
        <ele>213</ele>
        <time>2017-09-03T07:44:00Z</time>
      </trkpt>
      <trkpt lat="47.13889" lon="5.56368">
        <ele>213</ele>
        <time>2017-09-03T07:44:04Z</time>
      </trkpt>
      <trkpt lat="47.139" lon="5.5637">
        <ele>213</ele>
        <time>2017-09-03T07:44:08Z</time>
      </trkpt>
      <trkpt lat="47.13911" lon="5.56372">
        <ele>213</ele>
        <time>2017-09-03T07:44:12Z</time>
      </trkpt>
      <trkpt lat="47.13923" lon="5.56375">
        <ele>213</ele>
        <time>2017-09-03T07:44:16Z</time>
      </trkpt>
      <trkpt lat="47.13936" lon="5.56379">
        <ele>213</ele>
        <time>2017-09-03T07:44:20Z</time>
      </trkpt>
      <trkpt lat="47.13949" lon="5.56384">
        <ele>214</ele>
        <time>2017-09-03T07:44:24Z</time>
      </trkpt>
      <trkpt lat="47.13963" lon="5.5639">
        <ele>214</ele>
        <time>2017-09-03T07:44:28Z</time>
      </trkpt>
      <trkpt lat="47.13977" lon="5.56397">
        <ele>214</ele>
        <time>2017-09-03T07:44:32Z</time>
      </trkpt>
      <trkpt lat="47.1399" lon="5.56404">
        <ele>214</ele>
        <time>2017-09-03T07:44:36Z</time>
      </trkpt>
      <trkpt lat="47.14004" lon="5.56411">
        <ele>215</ele>
        <time>2017-09-03T07:44:40Z</time>
      </trkpt>
      <trkpt lat="47.14017" lon="5.56419">
        <ele>215</ele>
        <time>2017-09-03T07:44:44Z</time>
      </trkpt>
      <trkpt lat="47.14031" lon="5.56426">
        <ele>215</ele>
        <time>2017-09-03T07:44:48Z</time>
      </trkpt>
      <trkpt lat="47.14045" lon="5.56433">
        <ele>215</ele>
        <time>2017-09-03T07:44:53Z</time>
      </trkpt>
      <trkpt lat="47.14059" lon="5.56438">
        <ele>216</ele>
        <time>2017-09-03T07:45:00Z</time>
      </trkpt>
      <trkpt lat="47.14073" lon="5.56443">
        <ele>216</ele>
        <time>2017-09-03T07:45:04Z</time>
      </trkpt>
      <trkpt lat="47.14087" lon="5.56448">
        <ele>217</ele>
        <time>2017-09-03T07:45:08Z</time>
      </trkpt>
      <trkpt lat="47.14101" lon="5.56452">
        <ele>217</ele>
        <time>2017-09-03T07:45:12Z</time>
      </trkpt>
      <trkpt lat="47.14115" lon="5.56456">
        <ele>217</ele>
        <time>2017-09-03T07:45:16Z</time>
      </trkpt>
      <trkpt lat="47.14129" lon="5.5646">
        <ele>218</ele>
        <time>2017-09-03T07:45:20Z</time>
      </trkpt>
      <trkpt lat="47.14145" lon="5.56463">
        <ele>217</ele>
        <time>2017-09-03T07:45:24Z</time>
      </trkpt>
      <trkpt lat="47.1416" lon="5.56467">
        <ele>218</ele>
        <time>2017-09-03T07:45:28Z</time>
      </trkpt>
      <trkpt lat="47.14191" lon="5.56474">
        <ele>218</ele>
        <time>2017-09-03T07:45:32Z</time>
      </trkpt>
      <trkpt lat="47.14207" lon="5.56478">
        <ele>218</ele>
        <time>2017-09-03T07:45:36Z</time>
      </trkpt>
      <trkpt lat="47.14221" lon="5.56481">
        <ele>219</ele>
        <time>2017-09-03T07:45:40Z</time>
      </trkpt>
      <trkpt lat="47.14234" lon="5.56485">
        <ele>220</ele>
        <time>2017-09-03T07:45:44Z</time>
      </trkpt>
      <trkpt lat="47.14248" lon="5.56488">
        <ele>220</ele>
        <time>2017-09-03T07:45:48Z</time>
      </trkpt>
      <trkpt lat="47.14261" lon="5.56491">
        <ele>220</ele>
        <time>2017-09-03T07:45:52Z</time>
      </trkpt>
      <trkpt lat="47.14274" lon="5.56493">
        <ele>221</ele>
        <time>2017-09-03T07:45:56Z</time>
      </trkpt>
      <trkpt lat="47.14287" lon="5.56496">
        <ele>221</ele>
        <time>2017-09-03T07:46:00Z</time>
      </trkpt>
      <trkpt lat="47.143" lon="5.56499">
        <ele>222</ele>
        <time>2017-09-03T07:46:04Z</time>
      </trkpt>
      <trkpt lat="47.14314" lon="5.56502">
        <ele>223</ele>
        <time>2017-09-03T07:46:08Z</time>
      </trkpt>
      <trkpt lat="47.14327" lon="5.56504">
        <ele>223</ele>
        <time>2017-09-03T07:46:12Z</time>
      </trkpt>
      <trkpt lat="47.14341" lon="5.56506">
        <ele>224</ele>
        <time>2017-09-03T07:46:16Z</time>
      </trkpt>
      <trkpt lat="47.14353" lon="5.56508">
        <ele>224</ele>
        <time>2017-09-03T07:46:20Z</time>
      </trkpt>
      <trkpt lat="47.14366" lon="5.56509">
        <ele>225</ele>
        <time>2017-09-03T07:46:24Z</time>
      </trkpt>
      <trkpt lat="47.14379" lon="5.5651">
        <ele>225</ele>
        <time>2017-09-03T07:46:28Z</time>
      </trkpt>
      <trkpt lat="47.14392" lon="5.56511">
        <ele>226</ele>
        <time>2017-09-03T07:46:32Z</time>
      </trkpt>
      <trkpt lat="47.14406" lon="5.56511">
        <ele>226</ele>
        <time>2017-09-03T07:46:36Z</time>
      </trkpt>
      <trkpt lat="47.1442" lon="5.5651">
        <ele>226</ele>
        <time>2017-09-03T07:46:40Z</time>
      </trkpt>
      <trkpt lat="47.14434" lon="5.56508">
        <ele>226</ele>
        <time>2017-09-03T07:46:44Z</time>
      </trkpt>
      <trkpt lat="47.14448" lon="5.56507">
        <ele>227</ele>
        <time>2017-09-03T07:46:48Z</time>
      </trkpt>
      <trkpt lat="47.14463" lon="5.56504">
        <ele>228</ele>
        <time>2017-09-03T07:46:52Z</time>
      </trkpt>
      <trkpt lat="47.1447" lon="5.56486">
        <ele>228</ele>
        <time>2017-09-03T07:46:56Z</time>
      </trkpt>
      <trkpt lat="47.14469" lon="5.56457">
        <ele>226</ele>
        <time>2017-09-03T07:47:00Z</time>
      </trkpt>
      <trkpt lat="47.14468" lon="5.5642">
        <ele>225</ele>
        <time>2017-09-03T07:47:04Z</time>
      </trkpt>
      <trkpt lat="47.1447" lon="5.56373">
        <ele>223</ele>
        <time>2017-09-03T07:47:08Z</time>
      </trkpt>
      <trkpt lat="47.14481" lon="5.56322">
        <ele>220</ele>
        <time>2017-09-03T07:47:12Z</time>
      </trkpt>
      <trkpt lat="47.14503" lon="5.56269">
        <ele>218</ele>
        <time>2017-09-03T07:47:16Z</time>
      </trkpt>
      <trkpt lat="47.14526" lon="5.56214">
        <ele>215</ele>
        <time>2017-09-03T07:47:20Z</time>
      </trkpt>
      <trkpt lat="47.1455" lon="5.56167">
        <ele>214</ele>
        <time>2017-09-03T07:47:24Z</time>
      </trkpt>
      <trkpt lat="47.14572" lon="5.56121">
        <ele>212</ele>
        <time>2017-09-03T07:47:28Z</time>
      </trkpt>
      <trkpt lat="47.14592" lon="5.56076">
        <ele>211</ele>
        <time>2017-09-03T07:47:32Z</time>
      </trkpt>
      <trkpt lat="47.14609" lon="5.56035">
        <ele>211</ele>
        <time>2017-09-03T07:47:36Z</time>
      </trkpt>
      <trkpt lat="47.14625" lon="5.55995">
        <ele>211</ele>
        <time>2017-09-03T07:47:40Z</time>
      </trkpt>
      <trkpt lat="47.14636" lon="5.55957">
        <ele>211</ele>
        <time>2017-09-03T07:47:44Z</time>
      </trkpt>
      <trkpt lat="47.14648" lon="5.55917">
        <ele>210</ele>
        <time>2017-09-03T07:47:48Z</time>
      </trkpt>
      <trkpt lat="47.14659" lon="5.55877">
        <ele>210</ele>
        <time>2017-09-03T07:47:52Z</time>
      </trkpt>
      <trkpt lat="47.14669" lon="5.5584">
        <ele>210</ele>
        <time>2017-09-03T07:47:56Z</time>
      </trkpt>
      <trkpt lat="47.1468" lon="5.55805">
        <ele>210</ele>
        <time>2017-09-03T07:48:00Z</time>
      </trkpt>
      <trkpt lat="47.1469" lon="5.5577">
        <ele>210</ele>
        <time>2017-09-03T07:48:04Z</time>
      </trkpt>
      <trkpt lat="47.14702" lon="5.55739">
        <ele>211</ele>
        <time>2017-09-03T07:48:08Z</time>
      </trkpt>
      <trkpt lat="47.1471" lon="5.55711">
        <ele>212</ele>
        <time>2017-09-03T07:48:16Z</time>
      </trkpt>
      <trkpt lat="47.14714" lon="5.55685">
        <ele>212</ele>
        <time>2017-09-03T07:48:20Z</time>
      </trkpt>
      <trkpt lat="47.14732" lon="5.55635">
        <ele>212</ele>
        <time>2017-09-03T07:48:24Z</time>
      </trkpt>
      <trkpt lat="47.14742" lon="5.55611">
        <ele>213</ele>
        <time>2017-09-03T07:48:28Z</time>
      </trkpt>
      <trkpt lat="47.14749" lon="5.55587">
        <ele>213</ele>
        <time>2017-09-03T07:48:32Z</time>
      </trkpt>
      <trkpt lat="47.14758" lon="5.55564">
        <ele>213</ele>
        <time>2017-09-03T07:48:36Z</time>
      </trkpt>
      <trkpt lat="47.14765" lon="5.5554">
        <ele>213</ele>
        <time>2017-09-03T07:48:40Z</time>
      </trkpt>
      <trkpt lat="47.14772" lon="5.55517">
        <ele>214</ele>
        <time>2017-09-03T07:48:44Z</time>
      </trkpt>
      <trkpt lat="47.1478" lon="5.55495">
        <ele>214</ele>
        <time>2017-09-03T07:48:48Z</time>
      </trkpt>
      <trkpt lat="47.14788" lon="5.55472">
        <ele>215</ele>
        <time>2017-09-03T07:48:52Z</time>
      </trkpt>
      <trkpt lat="47.14795" lon="5.55452">
        <ele>215</ele>
        <time>2017-09-03T07:48:56Z</time>
      </trkpt>
      <trkpt lat="47.14804" lon="5.55433">
        <ele>215</ele>
        <time>2017-09-03T07:49:00Z</time>
      </trkpt>
      <trkpt lat="47.14812" lon="5.55413">
        <ele>215</ele>
        <time>2017-09-03T07:49:04Z</time>
      </trkpt>
      <trkpt lat="47.14821" lon="5.55394">
        <ele>216</ele>
        <time>2017-09-03T07:49:08Z</time>
      </trkpt>
      <trkpt lat="47.14829" lon="5.55375">
        <ele>216</ele>
        <time>2017-09-03T07:49:12Z</time>
      </trkpt>
      <trkpt lat="47.14836" lon="5.55357">
        <ele>216</ele>
        <time>2017-09-03T07:49:16Z</time>
      </trkpt>
      <trkpt lat="47.14843" lon="5.5534">
        <ele>216</ele>
        <time>2017-09-03T07:49:20Z</time>
      </trkpt>
      <trkpt lat="47.14848" lon="5.55325">
        <ele>217</ele>
        <time>2017-09-03T07:49:24Z</time>
      </trkpt>
      <trkpt lat="47.14854" lon="5.55313">
        <ele>218</ele>
        <time>2017-09-03T07:49:28Z</time>
      </trkpt>
      <trkpt lat="47.1486" lon="5.55303">
        <ele>219</ele>
        <time>2017-09-03T07:49:32Z</time>
      </trkpt>
      <trkpt lat="47.14866" lon="5.55295">
        <ele>220</ele>
        <time>2017-09-03T07:49:36Z</time>
      </trkpt>
      <trkpt lat="47.1487" lon="5.55282">
        <ele>221</ele>
        <time>2017-09-03T07:49:40Z</time>
      </trkpt>
      <trkpt lat="47.14874" lon="5.55267">
        <ele>221</ele>
        <time>2017-09-03T07:49:44Z</time>
      </trkpt>
      <trkpt lat="47.14875" lon="5.55248">
        <ele>221</ele>
        <time>2017-09-03T07:49:48Z</time>
      </trkpt>
      <trkpt lat="47.14879" lon="5.55226">
        <ele>221</ele>
        <time>2017-09-03T07:49:52Z</time>
      </trkpt>
      <trkpt lat="47.14884" lon="5.55203">
        <ele>220</ele>
        <time>2017-09-03T07:49:56Z</time>
      </trkpt>
      <trkpt lat="47.1489" lon="5.55174">
        <ele>220</ele>
        <time>2017-09-03T07:50:00Z</time>
      </trkpt>
      <trkpt lat="47.149" lon="5.5515">
        <ele>219</ele>
        <time>2017-09-03T07:50:04Z</time>
      </trkpt>
      <trkpt lat="47.14911" lon="5.55125">
        <ele>220</ele>
        <time>2017-09-03T07:50:08Z</time>
      </trkpt>
      <trkpt lat="47.14921" lon="5.55101">
        <ele>220</ele>
        <time>2017-09-03T07:50:12Z</time>
      </trkpt>
      <trkpt lat="47.1493" lon="5.55076">
        <ele>220</ele>
        <time>2017-09-03T07:50:16Z</time>
      </trkpt>
      <trkpt lat="47.14941" lon="5.55051">
        <ele>220</ele>
        <time>2017-09-03T07:50:20Z</time>
      </trkpt>
      <trkpt lat="47.14954" lon="5.55029">
        <ele>220</ele>
        <time>2017-09-03T07:50:24Z</time>
      </trkpt>
      <trkpt lat="47.14966" lon="5.55008">
        <ele>221</ele>
        <time>2017-09-03T07:50:28Z</time>
      </trkpt>
      <trkpt lat="47.14979" lon="5.54989">
        <ele>221</ele>
        <time>2017-09-03T07:50:32Z</time>
      </trkpt>
      <trkpt lat="47.1499" lon="5.54971">
        <ele>222</ele>
        <time>2017-09-03T07:50:36Z</time>
      </trkpt>
      <trkpt lat="47.15001" lon="5.54954">
        <ele>222</ele>
        <time>2017-09-03T07:50:40Z</time>
      </trkpt>
      <trkpt lat="47.15012" lon="5.54938">
        <ele>223</ele>
        <time>2017-09-03T07:50:44Z</time>
      </trkpt>
      <trkpt lat="47.15024" lon="5.5492">
        <ele>223</ele>
        <time>2017-09-03T07:50:48Z</time>
      </trkpt>
      <trkpt lat="47.15037" lon="5.54904">
        <ele>222</ele>
        <time>2017-09-03T07:50:52Z</time>
      </trkpt>
      <trkpt lat="47.15054" lon="5.549">
        <ele>223</ele>
        <time>2017-09-03T07:50:56Z</time>
      </trkpt>
      <trkpt lat="47.1507" lon="5.54909">
        <ele>223</ele>
        <time>2017-09-03T07:51:00Z</time>
      </trkpt>
      <trkpt lat="47.15083" lon="5.54922">
        <ele>224</ele>
        <time>2017-09-03T07:51:04Z</time>
      </trkpt>
      <trkpt lat="47.15095" lon="5.54932">
        <ele>224</ele>
        <time>2017-09-03T07:51:08Z</time>
      </trkpt>
      <trkpt lat="47.15107" lon="5.54941">
        <ele>225</ele>
        <time>2017-09-03T07:51:12Z</time>
      </trkpt>
      <trkpt lat="47.15117" lon="5.54951">
        <ele>226</ele>
        <time>2017-09-03T07:51:16Z</time>
      </trkpt>
      <trkpt lat="47.15128" lon="5.54959">
        <ele>226</ele>
        <time>2017-09-03T07:51:20Z</time>
      </trkpt>
      <trkpt lat="47.15139" lon="5.54968">
        <ele>226</ele>
        <time>2017-09-03T07:51:24Z</time>
      </trkpt>
      <trkpt lat="47.15149" lon="5.54974">
        <ele>227</ele>
        <time>2017-09-03T07:51:29Z</time>
      </trkpt>
      <trkpt lat="47.15161" lon="5.5498">
        <ele>227</ele>
        <time>2017-09-03T07:51:36Z</time>
      </trkpt>
      <trkpt lat="47.15174" lon="5.54984">
        <ele>227</ele>
        <time>2017-09-03T07:51:40Z</time>
      </trkpt>
      <trkpt lat="47.15186" lon="5.54987">
        <ele>228</ele>
        <time>2017-09-03T07:51:44Z</time>
      </trkpt>
      <trkpt lat="47.15198" lon="5.54987">
        <ele>228</ele>
        <time>2017-09-03T07:51:48Z</time>
      </trkpt>
      <trkpt lat="47.15211" lon="5.54985">
        <ele>228</ele>
        <time>2017-09-03T07:51:52Z</time>
      </trkpt>
      <trkpt lat="47.15226" lon="5.5498">
        <ele>228</ele>
        <time>2017-09-03T07:51:56Z</time>
      </trkpt>
      <trkpt lat="47.1524" lon="5.54976">
        <ele>228</ele>
        <time>2017-09-03T07:52:00Z</time>
      </trkpt>
      <trkpt lat="47.15254" lon="5.54968">
        <ele>228</ele>
        <time>2017-09-03T07:52:04Z</time>
      </trkpt>
      <trkpt lat="47.15266" lon="5.54958">
        <ele>228</ele>
        <time>2017-09-03T07:52:08Z</time>
      </trkpt>
      <trkpt lat="47.15277" lon="5.54946">
        <ele>228</ele>
        <time>2017-09-03T07:52:12Z</time>
      </trkpt>
      <trkpt lat="47.15299" lon="5.54921">
        <ele>229</ele>
        <time>2017-09-03T07:52:16Z</time>
      </trkpt>
      <trkpt lat="47.15312" lon="5.54909">
        <ele>229</ele>
        <time>2017-09-03T07:52:20Z</time>
      </trkpt>
      <trkpt lat="47.15324" lon="5.54897">
        <ele>229</ele>
        <time>2017-09-03T07:52:24Z</time>
      </trkpt>
      <trkpt lat="47.15336" lon="5.54885">
        <ele>229</ele>
        <time>2017-09-03T07:52:28Z</time>
      </trkpt>
      <trkpt lat="47.15347" lon="5.54874">
        <ele>229</ele>
        <time>2017-09-03T07:52:32Z</time>
      </trkpt>
      <trkpt lat="47.15358" lon="5.54862">
        <ele>230</ele>
        <time>2017-09-03T07:52:36Z</time>
      </trkpt>
      <trkpt lat="47.15368" lon="5.54851">
        <ele>230</ele>
        <time>2017-09-03T07:52:40Z</time>
      </trkpt>
      <trkpt lat="47.15376" lon="5.54842">
        <ele>231</ele>
        <time>2017-09-03T07:52:44Z</time>
      </trkpt>
      <trkpt lat="47.15385" lon="5.54832">
        <ele>231</ele>
        <time>2017-09-03T07:52:48Z</time>
      </trkpt>
      <trkpt lat="47.15395" lon="5.54823">
        <ele>232</ele>
        <time>2017-09-03T07:52:52Z</time>
      </trkpt>
      <trkpt lat="47.15406" lon="5.54816">
        <ele>233</ele>
        <time>2017-09-03T07:52:56Z</time>
      </trkpt>
      <trkpt lat="47.15417" lon="5.54812">
        <ele>234</ele>
        <time>2017-09-03T07:53:00Z</time>
      </trkpt>
      <trkpt lat="47.15429" lon="5.5481">
        <ele>234</ele>
        <time>2017-09-03T07:53:04Z</time>
      </trkpt>
      <trkpt lat="47.1544" lon="5.5481">
        <ele>235</ele>
        <time>2017-09-03T07:53:08Z</time>
      </trkpt>
      <trkpt lat="47.15452" lon="5.54811">
        <ele>235</ele>
        <time>2017-09-03T07:53:12Z</time>
      </trkpt>
      <trkpt lat="47.15464" lon="5.54812">
        <ele>236</ele>
        <time>2017-09-03T07:53:16Z</time>
      </trkpt>
      <trkpt lat="47.15475" lon="5.54812">
        <ele>236</ele>
        <time>2017-09-03T07:53:20Z</time>
      </trkpt>
      <trkpt lat="47.15486" lon="5.54811">
        <ele>236</ele>
        <time>2017-09-03T07:53:24Z</time>
      </trkpt>
      <trkpt lat="47.15496" lon="5.5481">
        <ele>237</ele>
        <time>2017-09-03T07:53:28Z</time>
      </trkpt>
      <trkpt lat="47.15506" lon="5.54808">
        <ele>237</ele>
        <time>2017-09-03T07:53:32Z</time>
      </trkpt>
      <trkpt lat="47.15517" lon="5.54805">
        <ele>237</ele>
        <time>2017-09-03T07:53:36Z</time>
      </trkpt>
      <trkpt lat="47.15529" lon="5.54803">
        <ele>238</ele>
        <time>2017-09-03T07:53:40Z</time>
      </trkpt>
      <trkpt lat="47.1554" lon="5.54801">
        <ele>238</ele>
        <time>2017-09-03T07:53:44Z</time>
      </trkpt>
      <trkpt lat="47.15551" lon="5.54799">
        <ele>238</ele>
        <time>2017-09-03T07:53:48Z</time>
      </trkpt>
      <trkpt lat="47.15562" lon="5.54797">
        <ele>239</ele>
        <time>2017-09-03T07:53:52Z</time>
      </trkpt>
      <trkpt lat="47.15573" lon="5.54793">
        <ele>239</ele>
        <time>2017-09-03T07:53:56Z</time>
      </trkpt>
      <trkpt lat="47.15584" lon="5.54791">
        <ele>239</ele>
        <time>2017-09-03T07:54:00Z</time>
      </trkpt>
      <trkpt lat="47.15597" lon="5.54787">
        <ele>239</ele>
        <time>2017-09-03T07:54:04Z</time>
      </trkpt>
      <trkpt lat="47.1561" lon="5.54782">
        <ele>239</ele>
        <time>2017-09-03T07:54:08Z</time>
      </trkpt>
      <trkpt lat="47.15623" lon="5.54776">
        <ele>240</ele>
        <time>2017-09-03T07:54:12Z</time>
      </trkpt>
      <trkpt lat="47.15635" lon="5.54768">
        <ele>240</ele>
        <time>2017-09-03T07:54:16Z</time>
      </trkpt>
      <trkpt lat="47.15647" lon="5.54759">
        <ele>240</ele>
        <time>2017-09-03T07:54:20Z</time>
      </trkpt>
      <trkpt lat="47.15659" lon="5.54751">
        <ele>240</ele>
        <time>2017-09-03T07:54:24Z</time>
      </trkpt>
      <trkpt lat="47.1567" lon="5.54742">
        <ele>240</ele>
        <time>2017-09-03T07:54:28Z</time>
      </trkpt>
      <trkpt lat="47.15681" lon="5.54734">
        <ele>240</ele>
        <time>2017-09-03T07:54:32Z</time>
      </trkpt>
      <trkpt lat="47.15692" lon="5.54724">
        <ele>241</ele>
        <time>2017-09-03T07:54:36Z</time>
      </trkpt>
      <trkpt lat="47.15704" lon="5.54714">
        <ele>241</ele>
        <time>2017-09-03T07:54:40Z</time>
      </trkpt>
      <trkpt lat="47.15716" lon="5.54703">
        <ele>242</ele>
        <time>2017-09-03T07:54:44Z</time>
      </trkpt>
      <trkpt lat="47.15728" lon="5.54693">
        <ele>243</ele>
        <time>2017-09-03T07:54:48Z</time>
      </trkpt>
      <trkpt lat="47.15739" lon="5.54683">
        <ele>243</ele>
        <time>2017-09-03T07:54:52Z</time>
      </trkpt>
      <trkpt lat="47.15751" lon="5.54673">
        <ele>244</ele>
        <time>2017-09-03T07:54:56Z</time>
      </trkpt>
      <trkpt lat="47.15764" lon="5.54665">
        <ele>245</ele>
        <time>2017-09-03T07:55:00Z</time>
      </trkpt>
      <trkpt lat="47.15776" lon="5.5466">
        <ele>245</ele>
        <time>2017-09-03T07:55:04Z</time>
      </trkpt>
      <trkpt lat="47.15788" lon="5.54655">
        <ele>245</ele>
        <time>2017-09-03T07:55:08Z</time>
      </trkpt>
      <trkpt lat="47.15801" lon="5.5465">
        <ele>246</ele>
        <time>2017-09-03T07:55:12Z</time>
      </trkpt>
      <trkpt lat="47.15815" lon="5.54644">
        <ele>246</ele>
        <time>2017-09-03T07:55:16Z</time>
      </trkpt>
      <trkpt lat="47.15829" lon="5.54639">
        <ele>246</ele>
        <time>2017-09-03T07:55:20Z</time>
      </trkpt>
      <trkpt lat="47.15841" lon="5.54634">
        <ele>246</ele>
        <time>2017-09-03T07:55:24Z</time>
      </trkpt>
      <trkpt lat="47.15855" lon="5.54627">
        <ele>246</ele>
        <time>2017-09-03T07:55:28Z</time>
      </trkpt>
      <trkpt lat="47.1587" lon="5.54615">
        <ele>246</ele>
        <time>2017-09-03T07:55:32Z</time>
      </trkpt>
      <trkpt lat="47.15885" lon="5.54601">
        <ele>245</ele>
        <time>2017-09-03T07:55:36Z</time>
      </trkpt>
      <trkpt lat="47.15899" lon="5.54586">
        <ele>245</ele>
        <time>2017-09-03T07:55:40Z</time>
      </trkpt>
      <trkpt lat="47.15911" lon="5.54568">
        <ele>245</ele>
        <time>2017-09-03T07:55:44Z</time>
      </trkpt>
      <trkpt lat="47.15922" lon="5.54551">
        <ele>245</ele>
        <time>2017-09-03T07:55:48Z</time>
      </trkpt>
      <trkpt lat="47.15931" lon="5.54535">
        <ele>245</ele>
        <time>2017-09-03T07:55:52Z</time>
      </trkpt>
      <trkpt lat="47.15933" lon="5.5452">
        <ele>245</ele>
        <time>2017-09-03T07:55:56Z</time>
      </trkpt>
      <trkpt lat="47.15922" lon="5.54507">
        <ele>245</ele>
        <time>2017-09-03T07:56:00Z</time>
      </trkpt>
      <trkpt lat="47.15906" lon="5.54489">
        <ele>245</ele>
        <time>2017-09-03T07:56:04Z</time>
      </trkpt>
      <trkpt lat="47.15885" lon="5.54469">
        <ele>242</ele>
        <time>2017-09-03T07:56:08Z</time>
      </trkpt>
      <trkpt lat="47.15863" lon="5.54448">
        <ele>241</ele>
        <time>2017-09-03T07:56:12Z</time>
      </trkpt>
      <trkpt lat="47.15842" lon="5.54427">
        <ele>241</ele>
        <time>2017-09-03T07:56:16Z</time>
      </trkpt>
      <trkpt lat="47.1583" lon="5.54404">
        <ele>240</ele>
        <time>2017-09-03T07:56:20Z</time>
      </trkpt>
      <trkpt lat="47.15824" lon="5.54383">
        <ele>241</ele>
        <time>2017-09-03T07:56:24Z</time>
      </trkpt>
      <trkpt lat="47.1582" lon="5.54366">
        <ele>241</ele>
        <time>2017-09-03T07:56:28Z</time>
      </trkpt>
      <trkpt lat="47.15815" lon="5.54349">
        <ele>242</ele>
        <time>2017-09-03T07:56:32Z</time>
      </trkpt>
      <trkpt lat="47.15814" lon="5.54334">
        <ele>243</ele>
        <time>2017-09-03T07:56:36Z</time>
      </trkpt>
      <trkpt lat="47.15812" lon="5.54319">
        <ele>243</ele>
        <time>2017-09-03T07:56:40Z</time>
      </trkpt>
      <trkpt lat="47.15805" lon="5.54304">
        <ele>242</ele>
        <time>2017-09-03T07:56:44Z</time>
      </trkpt>
      <trkpt lat="47.158" lon="5.54289">
        <ele>242</ele>
        <time>2017-09-03T07:56:48Z</time>
      </trkpt>
      <trkpt lat="47.15795" lon="5.54267">
        <ele>240</ele>
        <time>2017-09-03T07:56:52Z</time>
      </trkpt>
      <trkpt lat="47.15789" lon="5.54244">
        <ele>239</ele>
        <time>2017-09-03T07:56:56Z</time>
      </trkpt>
      <trkpt lat="47.15782" lon="5.54217">
        <ele>238</ele>
        <time>2017-09-03T07:57:00Z</time>
      </trkpt>
      <trkpt lat="47.15779" lon="5.5419">
        <ele>237</ele>
        <time>2017-09-03T07:57:04Z</time>
      </trkpt>
      <trkpt lat="47.15777" lon="5.54163">
        <ele>236</ele>
        <time>2017-09-03T07:57:08Z</time>
      </trkpt>
      <trkpt lat="47.15773" lon="5.54132">
        <ele>236</ele>
        <time>2017-09-03T07:57:12Z</time>
      </trkpt>
      <trkpt lat="47.15771" lon="5.54097">
        <ele>237</ele>
        <time>2017-09-03T07:57:16Z</time>
      </trkpt>
      <trkpt lat="47.15771" lon="5.54073">
        <ele>237</ele>
        <time>2017-09-03T07:57:20Z</time>
      </trkpt>
      <trkpt lat="47.15769" lon="5.54051">
        <ele>237</ele>
        <time>2017-09-03T07:57:24Z</time>
      </trkpt>
      <trkpt lat="47.15758" lon="5.5402">
        <ele>237</ele>
        <time>2017-09-03T07:57:28Z</time>
      </trkpt>
      <trkpt lat="47.15749" lon="5.53984">
        <ele>235</ele>
        <time>2017-09-03T07:57:32Z</time>
      </trkpt>
      <trkpt lat="47.15755" lon="5.53952">
        <ele>232</ele>
        <time>2017-09-03T07:57:36Z</time>
      </trkpt>
      <trkpt lat="47.15755" lon="5.53913">
        <ele>231</ele>
        <time>2017-09-03T07:57:40Z</time>
      </trkpt>
      <trkpt lat="47.15756" lon="5.53877">
        <ele>229</ele>
        <time>2017-09-03T07:57:44Z</time>
      </trkpt>
      <trkpt lat="47.15755" lon="5.5385">
        <ele>227</ele>
        <time>2017-09-03T07:57:48Z</time>
      </trkpt>
      <trkpt lat="47.1576" lon="5.53831">
        <ele>224</ele>
        <time>2017-09-03T07:57:52Z</time>
      </trkpt>
      <trkpt lat="47.15765" lon="5.53813">
        <ele>222</ele>
        <time>2017-09-03T07:57:56Z</time>
      </trkpt>
      <trkpt lat="47.15769" lon="5.53789">
        <ele>222</ele>
        <time>2017-09-03T07:58:00Z</time>
      </trkpt>
      <trkpt lat="47.15775" lon="5.53769">
        <ele>223</ele>
        <time>2017-09-03T07:58:04Z</time>
      </trkpt>
      <trkpt lat="47.15781" lon="5.53749">
        <ele>223</ele>
        <time>2017-09-03T07:58:08Z</time>
      </trkpt>
      <trkpt lat="47.15786" lon="5.53732">
        <ele>223</ele>
        <time>2017-09-03T07:58:12Z</time>
      </trkpt>
      <trkpt lat="47.15791" lon="5.53714">
        <ele>223</ele>
        <time>2017-09-03T07:58:16Z</time>
      </trkpt>
      <trkpt lat="47.15794" lon="5.53699">
        <ele>223</ele>
        <time>2017-09-03T07:58:20Z</time>
      </trkpt>
      <trkpt lat="47.158" lon="5.53685">
        <ele>223</ele>
        <time>2017-09-03T07:58:24Z</time>
      </trkpt>
      <trkpt lat="47.15802" lon="5.53672">
        <ele>223</ele>
        <time>2017-09-03T07:58:28Z</time>
      </trkpt>
      <trkpt lat="47.15805" lon="5.53659">
        <ele>223</ele>
        <time>2017-09-03T07:58:32Z</time>
      </trkpt>
      <trkpt lat="47.15808" lon="5.53648">
        <ele>224</ele>
        <time>2017-09-03T07:58:36Z</time>
      </trkpt>
      <trkpt lat="47.15811" lon="5.53636">
        <ele>224</ele>
        <time>2017-09-03T07:58:40Z</time>
      </trkpt>
      <trkpt lat="47.15817" lon="5.53624">
        <ele>224</ele>
        <time>2017-09-03T07:58:44Z</time>
      </trkpt>
      <trkpt lat="47.15821" lon="5.53611">
        <ele>224</ele>
        <time>2017-09-03T07:58:48Z</time>
      </trkpt>
      <trkpt lat="47.15827" lon="5.53601">
        <ele>224</ele>
        <time>2017-09-03T07:58:52Z</time>
      </trkpt>
      <trkpt lat="47.1583" lon="5.53594">
        <ele>225</ele>
        <time>2017-09-03T07:58:56Z</time>
      </trkpt>
      <trkpt lat="47.15834" lon="5.53585">
        <ele>226</ele>
        <time>2017-09-03T07:59:00Z</time>
      </trkpt>
      <trkpt lat="47.1584" lon="5.53578">
        <ele>226</ele>
        <time>2017-09-03T07:59:04Z</time>
      </trkpt>
      <trkpt lat="47.15847" lon="5.53575">
        <ele>228</ele>
        <time>2017-09-03T07:59:08Z</time>
      </trkpt>
      <trkpt lat="47.15853" lon="5.53569">
        <ele>228</ele>
        <time>2017-09-03T07:59:12Z</time>
      </trkpt>
      <trkpt lat="47.15871" lon="5.53551">
        <ele>231</ele>
        <time>2017-09-03T07:59:28Z</time>
      </trkpt>
      <trkpt lat="47.15877" lon="5.53543">
        <ele>231</ele>
        <time>2017-09-03T07:59:32Z</time>
      </trkpt>
      <trkpt lat="47.15888" lon="5.5353">
        <ele>231</ele>
        <time>2017-09-03T07:59:36Z</time>
      </trkpt>
      <trkpt lat="47.15895" lon="5.53516">
        <ele>231</ele>
        <time>2017-09-03T07:59:40Z</time>
      </trkpt>
      <trkpt lat="47.15904" lon="5.53508">
        <ele>231</ele>
        <time>2017-09-03T07:59:44Z</time>
      </trkpt>
      <trkpt lat="47.15913" lon="5.535">
        <ele>231</ele>
        <time>2017-09-03T07:59:48Z</time>
      </trkpt>
      <trkpt lat="47.15922" lon="5.53491">
        <ele>232</ele>
        <time>2017-09-03T07:59:52Z</time>
      </trkpt>
      <trkpt lat="47.15927" lon="5.53481">
        <ele>232</ele>
        <time>2017-09-03T07:59:56Z</time>
      </trkpt>
      <trkpt lat="47.15928" lon="5.53465">
        <ele>232</ele>
        <time>2017-09-03T08:00:00Z</time>
      </trkpt>
      <trkpt lat="47.15931" lon="5.53449">
        <ele>232</ele>
        <time>2017-09-03T08:00:04Z</time>
      </trkpt>
      <trkpt lat="47.15936" lon="5.53436">
        <ele>232</ele>
        <time>2017-09-03T08:00:08Z</time>
      </trkpt>
      <trkpt lat="47.15946" lon="5.53427">
        <ele>232</ele>
        <time>2017-09-03T08:00:12Z</time>
      </trkpt>
      <trkpt lat="47.15952" lon="5.53413">
        <ele>232</ele>
        <time>2017-09-03T08:00:16Z</time>
      </trkpt>
      <trkpt lat="47.15957" lon="5.53402">
        <ele>232</ele>
        <time>2017-09-03T08:00:20Z</time>
      </trkpt>
      <trkpt lat="47.15964" lon="5.53398">
        <ele>233</ele>
        <time>2017-09-03T08:00:24Z</time>
      </trkpt>
      <trkpt lat="47.15972" lon="5.53393">
        <ele>232</ele>
        <time>2017-09-03T08:00:28Z</time>
      </trkpt>
      <trkpt lat="47.15979" lon="5.53387">
        <ele>232</ele>
        <time>2017-09-03T08:00:32Z</time>
      </trkpt>
      <trkpt lat="47.15986" lon="5.53377">
        <ele>232</ele>
        <time>2017-09-03T08:00:36Z</time>
      </trkpt>
      <trkpt lat="47.15993" lon="5.53372">
        <ele>232</ele>
        <time>2017-09-03T08:00:40Z</time>
      </trkpt>
      <trkpt lat="47.16006" lon="5.53364">
        <ele>232</ele>
        <time>2017-09-03T08:00:44Z</time>
      </trkpt>
      <trkpt lat="47.1602" lon="5.53359">
        <ele>232</ele>
        <time>2017-09-03T08:00:48Z</time>
      </trkpt>
      <trkpt lat="47.16029" lon="5.53351">
        <ele>232</ele>
        <time>2017-09-03T08:00:52Z</time>
      </trkpt>
      <trkpt lat="47.1604" lon="5.53343">
        <ele>233</ele>
        <time>2017-09-03T08:00:56Z</time>
      </trkpt>
      <trkpt lat="47.16052" lon="5.53335">
        <ele>234</ele>
        <time>2017-09-03T08:01:00Z</time>
      </trkpt>
      <trkpt lat="47.1606" lon="5.53329">
        <ele>234</ele>
        <time>2017-09-03T08:01:04Z</time>
      </trkpt>
      <trkpt lat="47.16065" lon="5.53324">
        <ele>235</ele>
        <time>2017-09-03T08:01:08Z</time>
      </trkpt>
      <trkpt lat="47.16072" lon="5.53321">
        <ele>235</ele>
        <time>2017-09-03T08:01:12Z</time>
      </trkpt>
      <trkpt lat="47.16082" lon="5.53315">
        <ele>236</ele>
        <time>2017-09-03T08:01:16Z</time>
      </trkpt>
      <trkpt lat="47.16089" lon="5.53307">
        <ele>237</ele>
        <time>2017-09-03T08:01:20Z</time>
      </trkpt>
      <trkpt lat="47.16097" lon="5.533">
        <ele>237</ele>
        <time>2017-09-03T08:01:24Z</time>
      </trkpt>
      <trkpt lat="47.16104" lon="5.53292">
        <ele>237</ele>
        <time>2017-09-03T08:01:28Z</time>
      </trkpt>
      <trkpt lat="47.16113" lon="5.53288">
        <ele>238</ele>
        <time>2017-09-03T08:01:32Z</time>
      </trkpt>
      <trkpt lat="47.16123" lon="5.53277">
        <ele>239</ele>
        <time>2017-09-03T08:01:36Z</time>
      </trkpt>
      <trkpt lat="47.16132" lon="5.53264">
        <ele>239</ele>
        <time>2017-09-03T08:01:40Z</time>
      </trkpt>
      <trkpt lat="47.16139" lon="5.53255">
        <ele>240</ele>
        <time>2017-09-03T08:01:44Z</time>
      </trkpt>
      <trkpt lat="47.16146" lon="5.53248">
        <ele>242</ele>
        <time>2017-09-03T08:01:48Z</time>
      </trkpt>
      <trkpt lat="47.16157" lon="5.53242">
        <ele>242</ele>
        <time>2017-09-03T08:01:52Z</time>
      </trkpt>
      <trkpt lat="47.16166" lon="5.53235">
        <ele>243</ele>
        <time>2017-09-03T08:01:56Z</time>
      </trkpt>
      <trkpt lat="47.16173" lon="5.53231">
        <ele>244</ele>
        <time>2017-09-03T08:02:00Z</time>
      </trkpt>
      <trkpt lat="47.1618" lon="5.53225">
        <ele>246</ele>
        <time>2017-09-03T08:02:04Z</time>
      </trkpt>
      <trkpt lat="47.16187" lon="5.53222">
        <ele>247</ele>
        <time>2017-09-03T08:02:08Z</time>
      </trkpt>
      <trkpt lat="47.16194" lon="5.53219">
        <ele>247</ele>
        <time>2017-09-03T08:02:12Z</time>
      </trkpt>
      <trkpt lat="47.16202" lon="5.53216">
        <ele>249</ele>
        <time>2017-09-03T08:02:16Z</time>
      </trkpt>
      <trkpt lat="47.16207" lon="5.53215">
        <ele>250</ele>
        <time>2017-09-03T08:02:20Z</time>
      </trkpt>
      <trkpt lat="47.16213" lon="5.53212">
        <ele>250</ele>
        <time>2017-09-03T08:02:24Z</time>
      </trkpt>
      <trkpt lat="47.1622" lon="5.53204">
        <ele>249</ele>
        <time>2017-09-03T08:02:28Z</time>
      </trkpt>
      <trkpt lat="47.16225" lon="5.53196">
        <ele>249</ele>
        <time>2017-09-03T08:02:32Z</time>
      </trkpt>
      <trkpt lat="47.16237" lon="5.53173">
        <ele>251</ele>
        <time>2017-09-03T08:02:44Z</time>
      </trkpt>
      <trkpt lat="47.16242" lon="5.53163">
        <ele>250</ele>
        <time>2017-09-03T08:02:48Z</time>
      </trkpt>
      <trkpt lat="47.1625" lon="5.53147">
        <ele>249</ele>
        <time>2017-09-03T08:02:52Z</time>
      </trkpt>
      <trkpt lat="47.16258" lon="5.53135">
        <ele>249</ele>
        <time>2017-09-03T08:02:56Z</time>
      </trkpt>
      <trkpt lat="47.16265" lon="5.53124">
        <ele>250</ele>
        <time>2017-09-03T08:03:00Z</time>
      </trkpt>
      <trkpt lat="47.1627" lon="5.53116">
        <ele>250</ele>
        <time>2017-09-03T08:03:04Z</time>
      </trkpt>
      <trkpt lat="47.16279" lon="5.53112">
        <ele>251</ele>
        <time>2017-09-03T08:03:08Z</time>
      </trkpt>
      <trkpt lat="47.16285" lon="5.53103">
        <ele>252</ele>
        <time>2017-09-03T08:03:12Z</time>
      </trkpt>
      <trkpt lat="47.16291" lon="5.531">
        <ele>252</ele>
        <time>2017-09-03T08:03:16Z</time>
      </trkpt>
      <trkpt lat="47.16297" lon="5.53099">
        <ele>254</ele>
        <time>2017-09-03T08:03:20Z</time>
      </trkpt>
      <trkpt lat="47.16303" lon="5.53097">
        <ele>255</ele>
        <time>2017-09-03T08:03:24Z</time>
      </trkpt>
      <trkpt lat="47.16311" lon="5.5309">
        <ele>255</ele>
        <time>2017-09-03T08:03:28Z</time>
      </trkpt>
      <trkpt lat="47.16316" lon="5.53082">
        <ele>255</ele>
        <time>2017-09-03T08:03:32Z</time>
      </trkpt>
      <trkpt lat="47.16324" lon="5.53077">
        <ele>255</ele>
        <time>2017-09-03T08:03:36Z</time>
      </trkpt>
      <trkpt lat="47.1633" lon="5.53071">
        <ele>256</ele>
        <time>2017-09-03T08:03:40Z</time>
      </trkpt>
      <trkpt lat="47.16337" lon="5.53063">
        <ele>256</ele>
        <time>2017-09-03T08:03:44Z</time>
      </trkpt>
      <trkpt lat="47.16344" lon="5.53055">
        <ele>256</ele>
        <time>2017-09-03T08:03:48Z</time>
      </trkpt>
      <trkpt lat="47.16354" lon="5.53047">
        <ele>256</ele>
        <time>2017-09-03T08:03:52Z</time>
      </trkpt>
      <trkpt lat="47.16363" lon="5.53035">
        <ele>256</ele>
        <time>2017-09-03T08:03:56Z</time>
      </trkpt>
      <trkpt lat="47.16373" lon="5.53025">
        <ele>256</ele>
        <time>2017-09-03T08:04:00Z</time>
      </trkpt>
      <trkpt lat="47.16383" lon="5.53014">
        <ele>255</ele>
        <time>2017-09-03T08:04:04Z</time>
      </trkpt>
      <trkpt lat="47.16392" lon="5.53005">
        <ele>255</ele>
        <time>2017-09-03T08:04:08Z</time>
      </trkpt>
      <trkpt lat="47.16397" lon="5.52994">
        <ele>255</ele>
        <time>2017-09-03T08:04:12Z</time>
      </trkpt>
      <trkpt lat="47.16406" lon="5.52987">
        <ele>256</ele>
        <time>2017-09-03T08:04:16Z</time>
      </trkpt>
      <trkpt lat="47.16413" lon="5.52978">
        <ele>256</ele>
        <time>2017-09-03T08:04:20Z</time>
      </trkpt>
      <trkpt lat="47.16423" lon="5.52968">
        <ele>257</ele>
        <time>2017-09-03T08:04:24Z</time>
      </trkpt>
      <trkpt lat="47.1643" lon="5.52959">
        <ele>257</ele>
        <time>2017-09-03T08:04:28Z</time>
      </trkpt>
      <trkpt lat="47.16437" lon="5.52953">
        <ele>257</ele>
        <time>2017-09-03T08:04:32Z</time>
      </trkpt>
      <trkpt lat="47.16444" lon="5.5295">
        <ele>258</ele>
        <time>2017-09-03T08:04:36Z</time>
      </trkpt>
      <trkpt lat="47.16451" lon="5.52948">
        <ele>260</ele>
        <time>2017-09-03T08:04:40Z</time>
      </trkpt>
      <trkpt lat="47.1646" lon="5.52943">
        <ele>261</ele>
        <time>2017-09-03T08:04:44Z</time>
      </trkpt>
      <trkpt lat="47.16467" lon="5.52934">
        <ele>260</ele>
        <time>2017-09-03T08:04:48Z</time>
      </trkpt>
      <trkpt lat="47.16475" lon="5.5293">
        <ele>259</ele>
        <time>2017-09-03T08:04:52Z</time>
      </trkpt>
      <trkpt lat="47.16484" lon="5.52927">
        <ele>260</ele>
        <time>2017-09-03T08:04:56Z</time>
      </trkpt>
      <trkpt lat="47.1649" lon="5.52924">
        <ele>261</ele>
        <time>2017-09-03T08:05:00Z</time>
      </trkpt>
      <trkpt lat="47.16498" lon="5.52918">
        <ele>262</ele>
        <time>2017-09-03T08:05:04Z</time>
      </trkpt>
      <trkpt lat="47.16506" lon="5.52916">
        <ele>262</ele>
        <time>2017-09-03T08:05:08Z</time>
      </trkpt>
      <trkpt lat="47.16513" lon="5.52917">
        <ele>263</ele>
        <time>2017-09-03T08:05:12Z</time>
      </trkpt>
      <trkpt lat="47.1652" lon="5.52918">
        <ele>264</ele>
        <time>2017-09-03T08:05:16Z</time>
      </trkpt>
      <trkpt lat="47.16529" lon="5.52914">
        <ele>264</ele>
        <time>2017-09-03T08:05:20Z</time>
      </trkpt>
      <trkpt lat="47.16535" lon="5.52912">
        <ele>265</ele>
        <time>2017-09-03T08:05:24Z</time>
      </trkpt>
      <trkpt lat="47.16541" lon="5.52907">
        <ele>267</ele>
        <time>2017-09-03T08:05:28Z</time>
      </trkpt>
      <trkpt lat="47.16546" lon="5.52903">
        <ele>267</ele>
        <time>2017-09-03T08:05:32Z</time>
      </trkpt>
      <trkpt lat="47.16562" lon="5.52891">
        <ele>266</ele>
        <time>2017-09-03T08:05:40Z</time>
      </trkpt>
      <trkpt lat="47.16569" lon="5.52883">
        <ele>267</ele>
        <time>2017-09-03T08:05:44Z</time>
      </trkpt>
      <trkpt lat="47.16576" lon="5.52879">
        <ele>268</ele>
        <time>2017-09-03T08:05:48Z</time>
      </trkpt>
      <trkpt lat="47.16593" lon="5.52866">
        <ele>269</ele>
        <time>2017-09-03T08:05:56Z</time>
      </trkpt>
      <trkpt lat="47.16601" lon="5.52859">
        <ele>270</ele>
        <time>2017-09-03T08:06:00Z</time>
      </trkpt>
      <trkpt lat="47.16609" lon="5.52852">
        <ele>271</ele>
        <time>2017-09-03T08:06:04Z</time>
      </trkpt>
      <trkpt lat="47.16618" lon="5.52846">
        <ele>272</ele>
        <time>2017-09-03T08:06:08Z</time>
      </trkpt>
      <trkpt lat="47.16626" lon="5.5284">
        <ele>274</ele>
        <time>2017-09-03T08:06:16Z</time>
      </trkpt>
      <trkpt lat="47.16633" lon="5.52834">
        <ele>275</ele>
        <time>2017-09-03T08:06:20Z</time>
      </trkpt>
      <trkpt lat="47.16638" lon="5.52829">
        <ele>276</ele>
        <time>2017-09-03T08:06:24Z</time>
      </trkpt>
      <trkpt lat="47.16645" lon="5.52821">
        <ele>276</ele>
        <time>2017-09-03T08:06:28Z</time>
      </trkpt>
      <trkpt lat="47.16655" lon="5.52817">
        <ele>277</ele>
        <time>2017-09-03T08:06:32Z</time>
      </trkpt>
      <trkpt lat="47.16661" lon="5.52808">
        <ele>277</ele>
        <time>2017-09-03T08:06:36Z</time>
      </trkpt>
      <trkpt lat="47.16668" lon="5.52802">
        <ele>278</ele>
        <time>2017-09-03T08:06:40Z</time>
      </trkpt>
      <trkpt lat="47.16673" lon="5.52797">
        <ele>279</ele>
        <time>2017-09-03T08:06:44Z</time>
      </trkpt>
      <trkpt lat="47.16685" lon="5.52793">
        <ele>280</ele>
        <time>2017-09-03T08:06:48Z</time>
      </trkpt>
      <trkpt lat="47.16693" lon="5.52793">
        <ele>281</ele>
        <time>2017-09-03T08:06:52Z</time>
      </trkpt>
      <trkpt lat="47.167" lon="5.52792">
        <ele>281</ele>
        <time>2017-09-03T08:06:56Z</time>
      </trkpt>
      <trkpt lat="47.16707" lon="5.52793">
        <ele>282</ele>
        <time>2017-09-03T08:07:00Z</time>
      </trkpt>
      <trkpt lat="47.16715" lon="5.52794">
        <ele>282</ele>
        <time>2017-09-03T08:07:04Z</time>
      </trkpt>
      <trkpt lat="47.16725" lon="5.52796">
        <ele>283</ele>
        <time>2017-09-03T08:07:08Z</time>
      </trkpt>
      <trkpt lat="47.16735" lon="5.52799">
        <ele>284</ele>
        <time>2017-09-03T08:07:12Z</time>
      </trkpt>
      <trkpt lat="47.16743" lon="5.52801">
        <ele>284</ele>
        <time>2017-09-03T08:07:16Z</time>
      </trkpt>
      <trkpt lat="47.16752" lon="5.52803">
        <ele>285</ele>
        <time>2017-09-03T08:07:20Z</time>
      </trkpt>
      <trkpt lat="47.16764" lon="5.52805">
        <ele>286</ele>
        <time>2017-09-03T08:07:24Z</time>
      </trkpt>
      <trkpt lat="47.16773" lon="5.52808">
        <ele>286</ele>
        <time>2017-09-03T08:07:28Z</time>
      </trkpt>
      <trkpt lat="47.16783" lon="5.52815">
        <ele>286</ele>
        <time>2017-09-03T08:07:32Z</time>
      </trkpt>
      <trkpt lat="47.16793" lon="5.52816">
        <ele>288</ele>
        <time>2017-09-03T08:07:36Z</time>
      </trkpt>
      <trkpt lat="47.16803" lon="5.52819">
        <ele>288</ele>
        <time>2017-09-03T08:07:40Z</time>
      </trkpt>
      <trkpt lat="47.16814" lon="5.52821">
        <ele>289</ele>
        <time>2017-09-03T08:07:44Z</time>
      </trkpt>
      <trkpt lat="47.16822" lon="5.52818">
        <ele>290</ele>
        <time>2017-09-03T08:07:48Z</time>
      </trkpt>
      <trkpt lat="47.16834" lon="5.52818">
        <ele>291</ele>
        <time>2017-09-03T08:07:52Z</time>
      </trkpt>
      <trkpt lat="47.16843" lon="5.52818">
        <ele>292</ele>
        <time>2017-09-03T08:07:56Z</time>
      </trkpt>
      <trkpt lat="47.16851" lon="5.5282">
        <ele>293</ele>
        <time>2017-09-03T08:08:00Z</time>
      </trkpt>
      <trkpt lat="47.16862" lon="5.52825">
        <ele>294</ele>
        <time>2017-09-03T08:08:04Z</time>
      </trkpt>
      <trkpt lat="47.16869" lon="5.52825">
        <ele>295</ele>
        <time>2017-09-03T08:08:08Z</time>
      </trkpt>
      <trkpt lat="47.16877" lon="5.52825">
        <ele>296</ele>
        <time>2017-09-03T08:08:12Z</time>
      </trkpt>
      <trkpt lat="47.16886" lon="5.52826">
        <ele>297</ele>
        <time>2017-09-03T08:08:16Z</time>
      </trkpt>
      <trkpt lat="47.16897" lon="5.52828">
        <ele>298</ele>
        <time>2017-09-03T08:08:20Z</time>
      </trkpt>
      <trkpt lat="47.16907" lon="5.52833">
        <ele>298</ele>
        <time>2017-09-03T08:08:24Z</time>
      </trkpt>
      <trkpt lat="47.16915" lon="5.52835">
        <ele>299</ele>
        <time>2017-09-03T08:08:28Z</time>
      </trkpt>
      <trkpt lat="47.16923" lon="5.52837">
        <ele>300</ele>
        <time>2017-09-03T08:08:32Z</time>
      </trkpt>
      <trkpt lat="47.16929" lon="5.52836">
        <ele>301</ele>
        <time>2017-09-03T08:08:36Z</time>
      </trkpt>
      <trkpt lat="47.16936" lon="5.52832">
        <ele>301</ele>
        <time>2017-09-03T08:08:40Z</time>
      </trkpt>
      <trkpt lat="47.16945" lon="5.52832">
        <ele>301</ele>
        <time>2017-09-03T08:08:44Z</time>
      </trkpt>
      <trkpt lat="47.16955" lon="5.52835">
        <ele>302</ele>
        <time>2017-09-03T08:08:48Z</time>
      </trkpt>
      <trkpt lat="47.16967" lon="5.52838">
        <ele>303</ele>
        <time>2017-09-03T08:08:52Z</time>
      </trkpt>
      <trkpt lat="47.16978" lon="5.5284">
        <ele>303</ele>
        <time>2017-09-03T08:08:56Z</time>
      </trkpt>
      <trkpt lat="47.16989" lon="5.52842">
        <ele>304</ele>
        <time>2017-09-03T08:09:00Z</time>
      </trkpt>
      <trkpt lat="47.16997" lon="5.52845">
        <ele>305</ele>
        <time>2017-09-03T08:09:04Z</time>
      </trkpt>
      <trkpt lat="47.17003" lon="5.52849">
        <ele>307</ele>
        <time>2017-09-03T08:09:08Z</time>
      </trkpt>
      <trkpt lat="47.17011" lon="5.52855">
        <ele>308</ele>
        <time>2017-09-03T08:09:12Z</time>
      </trkpt>
      <trkpt lat="47.17018" lon="5.52856">
        <ele>309</ele>
        <time>2017-09-03T08:09:16Z</time>
      </trkpt>
      <trkpt lat="47.17025" lon="5.52855">
        <ele>310</ele>
        <time>2017-09-03T08:09:20Z</time>
      </trkpt>
      <trkpt lat="47.17032" lon="5.52854">
        <ele>310</ele>
        <time>2017-09-03T08:09:24Z</time>
      </trkpt>
      <trkpt lat="47.1704" lon="5.52859">
        <ele>310</ele>
        <time>2017-09-03T08:09:28Z</time>
      </trkpt>
      <trkpt lat="47.17048" lon="5.52866">
        <ele>311</ele>
        <time>2017-09-03T08:09:32Z</time>
      </trkpt>
      <trkpt lat="47.17059" lon="5.52875">
        <ele>310</ele>
        <time>2017-09-03T08:09:40Z</time>
      </trkpt>
      <trkpt lat="47.17069" lon="5.52883">
        <ele>311</ele>
        <time>2017-09-03T08:09:44Z</time>
      </trkpt>
      <trkpt lat="47.17079" lon="5.52888">
        <ele>312</ele>
        <time>2017-09-03T08:09:48Z</time>
      </trkpt>
      <trkpt lat="47.17087" lon="5.52891">
        <ele>313</ele>
        <time>2017-09-03T08:09:52Z</time>
      </trkpt>
      <trkpt lat="47.17096" lon="5.52891">
        <ele>314</ele>
        <time>2017-09-03T08:09:56Z</time>
      </trkpt>
      <trkpt lat="47.17107" lon="5.52892">
        <ele>315</ele>
        <time>2017-09-03T08:10:00Z</time>
      </trkpt>
      <trkpt lat="47.17117" lon="5.52897">
        <ele>316</ele>
        <time>2017-09-03T08:10:04Z</time>
      </trkpt>
      <trkpt lat="47.17128" lon="5.52912">
        <ele>317</ele>
        <time>2017-09-03T08:10:08Z</time>
      </trkpt>
      <trkpt lat="47.17133" lon="5.52917">
        <ele>318</ele>
        <time>2017-09-03T08:10:12Z</time>
      </trkpt>
      <trkpt lat="47.17139" lon="5.52928">
        <ele>319</ele>
        <time>2017-09-03T08:10:16Z</time>
      </trkpt>
      <trkpt lat="47.17149" lon="5.52938">
        <ele>320</ele>
        <time>2017-09-03T08:10:20Z</time>
      </trkpt>
      <trkpt lat="47.17157" lon="5.5294">
        <ele>320</ele>
        <time>2017-09-03T08:10:24Z</time>
      </trkpt>
      <trkpt lat="47.17163" lon="5.52939">
        <ele>320</ele>
        <time>2017-09-03T08:10:28Z</time>
      </trkpt>
      <trkpt lat="47.17171" lon="5.52943">
        <ele>319</ele>
        <time>2017-09-03T08:10:32Z</time>
      </trkpt>
      <trkpt lat="47.1718" lon="5.52948">
        <ele>319</ele>
        <time>2017-09-03T08:10:36Z</time>
      </trkpt>
      <trkpt lat="47.17187" lon="5.52952">
        <ele>320</ele>
        <time>2017-09-03T08:10:40Z</time>
      </trkpt>
      <trkpt lat="47.17197" lon="5.52958">
        <ele>321</ele>
        <time>2017-09-03T08:10:44Z</time>
      </trkpt>
      <trkpt lat="47.17205" lon="5.52963">
        <ele>321</ele>
        <time>2017-09-03T08:10:48Z</time>
      </trkpt>
      <trkpt lat="47.17214" lon="5.52971">
        <ele>322</ele>
        <time>2017-09-03T08:10:52Z</time>
      </trkpt>
      <trkpt lat="47.17221" lon="5.52979">
        <ele>323</ele>
        <time>2017-09-03T08:10:56Z</time>
      </trkpt>
      <trkpt lat="47.17226" lon="5.52987">
        <ele>324</ele>
        <time>2017-09-03T08:11:00Z</time>
      </trkpt>
      <trkpt lat="47.17229" lon="5.52994">
        <ele>326</ele>
        <time>2017-09-03T08:11:04Z</time>
      </trkpt>
      <trkpt lat="47.17232" lon="5.52999">
        <ele>327</ele>
        <time>2017-09-03T08:11:08Z</time>
      </trkpt>
      <trkpt lat="47.17234" lon="5.53005">
        <ele>328</ele>
        <time>2017-09-03T08:11:12Z</time>
      </trkpt>
      <trkpt lat="47.17236" lon="5.53011">
        <ele>330</ele>
        <time>2017-09-03T08:11:16Z</time>
      </trkpt>
      <trkpt lat="47.17239" lon="5.53015">
        <ele>331</ele>
        <time>2017-09-03T08:11:20Z</time>
      </trkpt>
      <trkpt lat="47.17254" lon="5.53028">
        <ele>333</ele>
        <time>2017-09-03T08:11:32Z</time>
      </trkpt>
      <trkpt lat="47.17259" lon="5.53033">
        <ele>334</ele>
        <time>2017-09-03T08:11:36Z</time>
      </trkpt>
      <trkpt lat="47.17264" lon="5.53042">
        <ele>335</ele>
        <time>2017-09-03T08:11:40Z</time>
      </trkpt>
      <trkpt lat="47.17266" lon="5.53049">
        <ele>336</ele>
        <time>2017-09-03T08:11:44Z</time>
      </trkpt>
      <trkpt lat="47.17267" lon="5.53059">
        <ele>337</ele>
        <time>2017-09-03T08:11:48Z</time>
      </trkpt>
      <trkpt lat="47.17269" lon="5.53068">
        <ele>338</ele>
        <time>2017-09-03T08:11:52Z</time>
      </trkpt>
      <trkpt lat="47.17273" lon="5.53071">
        <ele>338</ele>
        <time>2017-09-03T08:11:56Z</time>
      </trkpt>
      <trkpt lat="47.17278" lon="5.5308">
        <ele>340</ele>
        <time>2017-09-03T08:12:04Z</time>
      </trkpt>
      <trkpt lat="47.17296" lon="5.53111">
        <ele>343</ele>
        <time>2017-09-03T08:12:24Z</time>
      </trkpt>
      <trkpt lat="47.17299" lon="5.53118">
        <ele>344</ele>
        <time>2017-09-03T08:12:28Z</time>
      </trkpt>
      <trkpt lat="47.17304" lon="5.53126">
        <ele>345</ele>
        <time>2017-09-03T08:12:32Z</time>
      </trkpt>
      <trkpt lat="47.17308" lon="5.53131">
        <ele>346</ele>
        <time>2017-09-03T08:12:36Z</time>
      </trkpt>
      <trkpt lat="47.17314" lon="5.53135">
        <ele>346</ele>
        <time>2017-09-03T08:12:40Z</time>
      </trkpt>
      <trkpt lat="47.1732" lon="5.53135">
        <ele>346</ele>
        <time>2017-09-03T08:12:44Z</time>
      </trkpt>
      <trkpt lat="47.17326" lon="5.53129">
        <ele>345</ele>
        <time>2017-09-03T08:12:48Z</time>
      </trkpt>
      <trkpt lat="47.17336" lon="5.53118">
        <ele>344</ele>
        <time>2017-09-03T08:12:52Z</time>
      </trkpt>
      <trkpt lat="47.17345" lon="5.53103">
        <ele>343</ele>
        <time>2017-09-03T08:12:56Z</time>
      </trkpt>
      <trkpt lat="47.17358" lon="5.53091">
        <ele>342</ele>
        <time>2017-09-03T08:13:00Z</time>
      </trkpt>
      <trkpt lat="47.17367" lon="5.53092">
        <ele>342</ele>
        <time>2017-09-03T08:13:05Z</time>
      </trkpt>
      <trkpt lat="47.17373" lon="5.53093">
        <ele>342</ele>
        <time>2017-09-03T08:13:08Z</time>
      </trkpt>
      <trkpt lat="47.17382" lon="5.53095">
        <ele>343</ele>
        <time>2017-09-03T08:13:12Z</time>
      </trkpt>
      <trkpt lat="47.1739" lon="5.53098">
        <ele>344</ele>
        <time>2017-09-03T08:13:16Z</time>
      </trkpt>
      <trkpt lat="47.17395" lon="5.531">
        <ele>345</ele>
        <time>2017-09-03T08:13:20Z</time>
      </trkpt>
      <trkpt lat="47.17402" lon="5.53102">
        <ele>346</ele>
        <time>2017-09-03T08:13:24Z</time>
      </trkpt>
      <trkpt lat="47.17411" lon="5.53108">
        <ele>346</ele>
        <time>2017-09-03T08:13:28Z</time>
      </trkpt>
      <trkpt lat="47.17417" lon="5.53115">
        <ele>347</ele>
        <time>2017-09-03T08:13:32Z</time>
      </trkpt>
      <trkpt lat="47.17425" lon="5.53121">
        <ele>348</ele>
        <time>2017-09-03T08:13:36Z</time>
      </trkpt>
      <trkpt lat="47.17433" lon="5.53123">
        <ele>348</ele>
        <time>2017-09-03T08:13:40Z</time>
      </trkpt>
      <trkpt lat="47.1744" lon="5.53122">
        <ele>349</ele>
        <time>2017-09-03T08:13:44Z</time>
      </trkpt>
      <trkpt lat="47.17445" lon="5.53118">
        <ele>350</ele>
        <time>2017-09-03T08:13:48Z</time>
      </trkpt>
      <trkpt lat="47.1745" lon="5.53113">
        <ele>350</ele>
        <time>2017-09-03T08:13:52Z</time>
      </trkpt>
      <trkpt lat="47.17458" lon="5.53106">
        <ele>351</ele>
        <time>2017-09-03T08:13:56Z</time>
      </trkpt>
      <trkpt lat="47.17467" lon="5.53103">
        <ele>351</ele>
        <time>2017-09-03T08:14:00Z</time>
      </trkpt>
      <trkpt lat="47.17474" lon="5.53097">
        <ele>351</ele>
        <time>2017-09-03T08:14:04Z</time>
      </trkpt>
      <trkpt lat="47.17481" lon="5.53091">
        <ele>351</ele>
        <time>2017-09-03T08:14:08Z</time>
      </trkpt>
      <trkpt lat="47.17496" lon="5.53106">
        <ele>352</ele>
        <time>2017-09-03T08:21:24Z</time>
      </trkpt>
      <trkpt lat="47.17495" lon="5.53114">
        <ele>352</ele>
        <time>2017-09-03T08:21:28Z</time>
      </trkpt>
      <trkpt lat="47.17493" lon="5.5312">
        <ele>352</ele>
        <time>2017-09-03T08:21:32Z</time>
      </trkpt>
      <trkpt lat="47.17491" lon="5.53131">
        <ele>352</ele>
        <time>2017-09-03T08:21:36Z</time>
      </trkpt>
      <trkpt lat="47.17485" lon="5.53145">
        <ele>352</ele>
        <time>2017-09-03T08:21:40Z</time>
      </trkpt>
      <trkpt lat="47.17478" lon="5.53158">
        <ele>352</ele>
        <time>2017-09-03T08:21:44Z</time>
      </trkpt>
      <trkpt lat="47.17476" lon="5.53166">
        <ele>353</ele>
        <time>2017-09-03T08:21:52Z</time>
      </trkpt>
      <trkpt lat="47.1747" lon="5.53176">
        <ele>353</ele>
        <time>2017-09-03T08:21:56Z</time>
      </trkpt>
      <trkpt lat="47.17451" lon="5.53194">
        <ele>354</ele>
        <time>2017-09-03T08:22:00Z</time>
      </trkpt>
      <trkpt lat="47.17441" lon="5.532">
        <ele>354</ele>
        <time>2017-09-03T08:22:04Z</time>
      </trkpt>
      <trkpt lat="47.1743" lon="5.53206">
        <ele>354</ele>
        <time>2017-09-03T08:22:08Z</time>
      </trkpt>
      <trkpt lat="47.17417" lon="5.53208">
        <ele>353</ele>
        <time>2017-09-03T08:22:12Z</time>
      </trkpt>
      <trkpt lat="47.174" lon="5.5321">
        <ele>353</ele>
        <time>2017-09-03T08:22:16Z</time>
      </trkpt>
      <trkpt lat="47.1738" lon="5.53214">
        <ele>352</ele>
        <time>2017-09-03T08:22:20Z</time>
      </trkpt>
      <trkpt lat="47.17362" lon="5.53213">
        <ele>352</ele>
        <time>2017-09-03T08:22:24Z</time>
      </trkpt>
      <trkpt lat="47.17344" lon="5.53211">
        <ele>350</ele>
        <time>2017-09-03T08:22:28Z</time>
      </trkpt>
      <trkpt lat="47.17325" lon="5.53212">
        <ele>350</ele>
        <time>2017-09-03T08:22:32Z</time>
      </trkpt>
      <trkpt lat="47.17314" lon="5.53219">
        <ele>350</ele>
        <time>2017-09-03T08:22:36Z</time>
      </trkpt>
      <trkpt lat="47.17304" lon="5.53229">
        <ele>349</ele>
        <time>2017-09-03T08:22:40Z</time>
      </trkpt>
      <trkpt lat="47.17294" lon="5.53237">
        <ele>350</ele>
        <time>2017-09-03T08:22:44Z</time>
      </trkpt>
      <trkpt lat="47.17282" lon="5.5325">
        <ele>350</ele>
        <time>2017-09-03T08:22:48Z</time>
      </trkpt>
      <trkpt lat="47.17266" lon="5.53267">
        <ele>351</ele>
        <time>2017-09-03T08:22:52Z</time>
      </trkpt>
      <trkpt lat="47.17255" lon="5.5328">
        <ele>351</ele>
        <time>2017-09-03T08:22:56Z</time>
      </trkpt>
      <trkpt lat="47.17246" lon="5.5329">
        <ele>350</ele>
        <time>2017-09-03T08:23:00Z</time>
      </trkpt>
      <trkpt lat="47.17235" lon="5.53306">
        <ele>350</ele>
        <time>2017-09-03T08:23:04Z</time>
      </trkpt>
      <trkpt lat="47.17224" lon="5.5332">
        <ele>350</ele>
        <time>2017-09-03T08:23:08Z</time>
      </trkpt>
      <trkpt lat="47.17212" lon="5.53333">
        <ele>350</ele>
        <time>2017-09-03T08:23:12Z</time>
      </trkpt>
      <trkpt lat="47.17199" lon="5.53345">
        <ele>350</ele>
        <time>2017-09-03T08:23:16Z</time>
      </trkpt>
      <trkpt lat="47.17188" lon="5.53361">
        <ele>350</ele>
        <time>2017-09-03T08:23:20Z</time>
      </trkpt>
      <trkpt lat="47.17177" lon="5.53374">
        <ele>351</ele>
        <time>2017-09-03T08:23:24Z</time>
      </trkpt>
      <trkpt lat="47.17166" lon="5.53392">
        <ele>351</ele>
        <time>2017-09-03T08:23:28Z</time>
      </trkpt>
      <trkpt lat="47.17154" lon="5.53409">
        <ele>351</ele>
        <time>2017-09-03T08:23:32Z</time>
      </trkpt>
      <trkpt lat="47.17139" lon="5.53426">
        <ele>350</ele>
        <time>2017-09-03T08:23:36Z</time>
      </trkpt>
      <trkpt lat="47.17124" lon="5.53448">
        <ele>350</ele>
        <time>2017-09-03T08:23:40Z</time>
      </trkpt>
      <trkpt lat="47.17109" lon="5.53475">
        <ele>350</ele>
        <time>2017-09-03T08:23:44Z</time>
      </trkpt>
      <trkpt lat="47.17095" lon="5.535">
        <ele>348</ele>
        <time>2017-09-03T08:23:48Z</time>
      </trkpt>
      <trkpt lat="47.17079" lon="5.53515">
        <ele>347</ele>
        <time>2017-09-03T08:23:52Z</time>
      </trkpt>
      <trkpt lat="47.17067" lon="5.53536">
        <ele>346</ele>
        <time>2017-09-03T08:23:56Z</time>
      </trkpt>
      <trkpt lat="47.17055" lon="5.5356">
        <ele>346</ele>
        <time>2017-09-03T08:24:00Z</time>
      </trkpt>
      <trkpt lat="47.17043" lon="5.53585">
        <ele>347</ele>
        <time>2017-09-03T08:24:04Z</time>
      </trkpt>
      <trkpt lat="47.17034" lon="5.53607">
        <ele>347</ele>
        <time>2017-09-03T08:24:08Z</time>
      </trkpt>
      <trkpt lat="47.17028" lon="5.53628">
        <ele>347</ele>
        <time>2017-09-03T08:24:12Z</time>
      </trkpt>
      <trkpt lat="47.17015" lon="5.53658">
        <ele>347</ele>
        <time>2017-09-03T08:24:16Z</time>
      </trkpt>
      <trkpt lat="47.17003" lon="5.53678">
        <ele>348</ele>
        <time>2017-09-03T08:24:20Z</time>
      </trkpt>
      <trkpt lat="47.16996" lon="5.53698">
        <ele>349</ele>
        <time>2017-09-03T08:24:24Z</time>
      </trkpt>
      <trkpt lat="47.16987" lon="5.53718">
        <ele>349</ele>
        <time>2017-09-03T08:24:28Z</time>
      </trkpt>
      <trkpt lat="47.16978" lon="5.53742">
        <ele>350</ele>
        <time>2017-09-03T08:24:32Z</time>
      </trkpt>
      <trkpt lat="47.16969" lon="5.53762">
        <ele>350</ele>
        <time>2017-09-03T08:24:36Z</time>
      </trkpt>
      <trkpt lat="47.16961" lon="5.53777">
        <ele>350</ele>
        <time>2017-09-03T08:24:40Z</time>
      </trkpt>
      <trkpt lat="47.16957" lon="5.53797">
        <ele>350</ele>
        <time>2017-09-03T08:24:44Z</time>
      </trkpt>
      <trkpt lat="47.16952" lon="5.53815">
        <ele>350</ele>
        <time>2017-09-03T08:24:52Z</time>
      </trkpt>
      <trkpt lat="47.16938" lon="5.53836">
        <ele>350</ele>
        <time>2017-09-03T08:24:56Z</time>
      </trkpt>
      <trkpt lat="47.16933" lon="5.5386">
        <ele>350</ele>
        <time>2017-09-03T08:25:00Z</time>
      </trkpt>
      <trkpt lat="47.1693" lon="5.53882">
        <ele>349</ele>
        <time>2017-09-03T08:25:04Z</time>
      </trkpt>
      <trkpt lat="47.1692" lon="5.53911">
        <ele>347</ele>
        <time>2017-09-03T08:25:08Z</time>
      </trkpt>
      <trkpt lat="47.16914" lon="5.53934">
        <ele>347</ele>
        <time>2017-09-03T08:25:12Z</time>
      </trkpt>
      <trkpt lat="47.16916" lon="5.53952">
        <ele>347</ele>
        <time>2017-09-03T08:25:16Z</time>
      </trkpt>
      <trkpt lat="47.16915" lon="5.53974">
        <ele>347</ele>
        <time>2017-09-03T08:25:20Z</time>
      </trkpt>
      <trkpt lat="47.16917" lon="5.53996">
        <ele>346</ele>
        <time>2017-09-03T08:25:24Z</time>
      </trkpt>
      <trkpt lat="47.16919" lon="5.54011">
        <ele>345</ele>
        <time>2017-09-03T08:25:28Z</time>
      </trkpt>
      <trkpt lat="47.16917" lon="5.54025">
        <ele>344</ele>
        <time>2017-09-03T08:25:32Z</time>
      </trkpt>
      <trkpt lat="47.16933" lon="5.54043">
        <ele>343</ele>
        <time>2017-09-03T08:25:36Z</time>
      </trkpt>
      <trkpt lat="47.16944" lon="5.54042">
        <ele>341</ele>
        <time>2017-09-03T08:25:40Z</time>
      </trkpt>
      <trkpt lat="47.16953" lon="5.54037">
        <ele>341</ele>
        <time>2017-09-03T08:25:44Z</time>
      </trkpt>
      <trkpt lat="47.16964" lon="5.54035">
        <ele>341</ele>
        <time>2017-09-03T08:25:48Z</time>
      </trkpt>
      <trkpt lat="47.1698" lon="5.54021">
        <ele>339</ele>
        <time>2017-09-03T08:25:52Z</time>
      </trkpt>
      <trkpt lat="47.16987" lon="5.54019">
        <ele>335</ele>
        <time>2017-09-03T08:25:56Z</time>
      </trkpt>
      <trkpt lat="47.16993" lon="5.54031">
        <ele>332</ele>
        <time>2017-09-03T08:26:00Z</time>
      </trkpt>
      <trkpt lat="47.17003" lon="5.54036">
        <ele>330</ele>
        <time>2017-09-03T08:26:04Z</time>
      </trkpt>
      <trkpt lat="47.17008" lon="5.54047">
        <ele>328</ele>
        <time>2017-09-03T08:26:08Z</time>
      </trkpt>
      <trkpt lat="47.17014" lon="5.54054">
        <ele>326</ele>
        <time>2017-09-03T08:26:12Z</time>
      </trkpt>
      <trkpt lat="47.17023" lon="5.54055">
        <ele>324</ele>
        <time>2017-09-03T08:26:16Z</time>
      </trkpt>
      <trkpt lat="47.17031" lon="5.54065">
        <ele>322</ele>
        <time>2017-09-03T08:26:20Z</time>
      </trkpt>
      <trkpt lat="47.1704" lon="5.54079">
        <ele>320</ele>
        <time>2017-09-03T08:26:24Z</time>
      </trkpt>
      <trkpt lat="47.17048" lon="5.54091">
        <ele>318</ele>
        <time>2017-09-03T08:26:28Z</time>
      </trkpt>
      <trkpt lat="47.17051" lon="5.54103">
        <ele>317</ele>
        <time>2017-09-03T08:26:32Z</time>
      </trkpt>
      <trkpt lat="47.1705" lon="5.54121">
        <ele>315</ele>
        <time>2017-09-03T08:26:36Z</time>
      </trkpt>
      <trkpt lat="47.17047" lon="5.54142">
        <ele>311</ele>
        <time>2017-09-03T08:26:40Z</time>
      </trkpt>
      <trkpt lat="47.17047" lon="5.54162">
        <ele>306</ele>
        <time>2017-09-03T08:26:44Z</time>
      </trkpt>
      <trkpt lat="47.17047" lon="5.54173">
        <ele>303</ele>
        <time>2017-09-03T08:26:48Z</time>
      </trkpt>
      <trkpt lat="47.17043" lon="5.54183">
        <ele>301</ele>
        <time>2017-09-03T08:26:52Z</time>
      </trkpt>
      <trkpt lat="47.17038" lon="5.542">
        <ele>298</ele>
        <time>2017-09-03T08:26:56Z</time>
      </trkpt>
      <trkpt lat="47.17032" lon="5.54211">
        <ele>297</ele>
        <time>2017-09-03T08:27:00Z</time>
      </trkpt>
      <trkpt lat="47.17023" lon="5.54225">
        <ele>295</ele>
        <time>2017-09-03T08:27:04Z</time>
      </trkpt>
      <trkpt lat="47.17019" lon="5.54237">
        <ele>294</ele>
        <time>2017-09-03T08:27:08Z</time>
      </trkpt>
      <trkpt lat="47.17014" lon="5.54249">
        <ele>293</ele>
        <time>2017-09-03T08:27:12Z</time>
      </trkpt>
      <trkpt lat="47.17006" lon="5.54261">
        <ele>291</ele>
        <time>2017-09-03T08:27:16Z</time>
      </trkpt>
      <trkpt lat="47.16997" lon="5.54275">
        <ele>290</ele>
        <time>2017-09-03T08:27:20Z</time>
      </trkpt>
      <trkpt lat="47.16986" lon="5.54297">
        <ele>289</ele>
        <time>2017-09-03T08:27:24Z</time>
      </trkpt>
      <trkpt lat="47.16973" lon="5.54319">
        <ele>288</ele>
        <time>2017-09-03T08:27:28Z</time>
      </trkpt>
      <trkpt lat="47.16958" lon="5.54344">
        <ele>287</ele>
        <time>2017-09-03T08:27:32Z</time>
      </trkpt>
      <trkpt lat="47.16948" lon="5.54364">
        <ele>287</ele>
        <time>2017-09-03T08:27:36Z</time>
      </trkpt>
      <trkpt lat="47.16934" lon="5.54384">
        <ele>285</ele>
        <time>2017-09-03T08:27:40Z</time>
      </trkpt>
      <trkpt lat="47.16923" lon="5.5439">
        <ele>283</ele>
        <time>2017-09-03T08:27:44Z</time>
      </trkpt>
      <trkpt lat="47.16918" lon="5.54398">
        <ele>281</ele>
        <time>2017-09-03T08:27:48Z</time>
      </trkpt>
      <trkpt lat="47.16917" lon="5.54409">
        <ele>281</ele>
        <time>2017-09-03T08:27:53Z</time>
      </trkpt>
      <trkpt lat="47.16898" lon="5.54446">
        <ele>282</ele>
        <time>2017-09-03T08:28:52Z</time>
      </trkpt>
      <trkpt lat="47.16898" lon="5.54451">
        <ele>283</ele>
        <time>2017-09-03T08:28:56Z</time>
      </trkpt>
      <trkpt lat="47.16899" lon="5.54467">
        <ele>286</ele>
        <time>2017-09-03T08:29:04Z</time>
      </trkpt>
      <trkpt lat="47.169" lon="5.54475">
        <ele>288</ele>
        <time>2017-09-03T08:29:08Z</time>
      </trkpt>
      <trkpt lat="47.16895" lon="5.54501">
        <ele>294</ele>
        <time>2017-09-03T08:29:36Z</time>
      </trkpt>
      <trkpt lat="47.16889" lon="5.54504">
        <ele>295</ele>
        <time>2017-09-03T08:29:40Z</time>
      </trkpt>
      <trkpt lat="47.16884" lon="5.54513">
        <ele>296</ele>
        <time>2017-09-03T08:29:48Z</time>
      </trkpt>
      <trkpt lat="47.1688" lon="5.54519">
        <ele>297</ele>
        <time>2017-09-03T08:29:52Z</time>
      </trkpt>
      <trkpt lat="47.16877" lon="5.54524">
        <ele>298</ele>
        <time>2017-09-03T08:29:56Z</time>
      </trkpt>
      <trkpt lat="47.16876" lon="5.54529">
        <ele>298</ele>
        <time>2017-09-03T08:30:00Z</time>
      </trkpt>
      <trkpt lat="47.16857" lon="5.54547">
        <ele>300</ele>
        <time>2017-09-03T08:30:16Z</time>
      </trkpt>
      <trkpt lat="47.16851" lon="5.54554">
        <ele>300</ele>
        <time>2017-09-03T08:30:20Z</time>
      </trkpt>
      <trkpt lat="47.16847" lon="5.54561">
        <ele>301</ele>
        <time>2017-09-03T08:30:24Z</time>
      </trkpt>
      <trkpt lat="47.16842" lon="5.54564">
        <ele>302</ele>
        <time>2017-09-03T08:30:28Z</time>
      </trkpt>
      <trkpt lat="47.16836" lon="5.54571">
        <ele>303</ele>
        <time>2017-09-03T08:30:32Z</time>
      </trkpt>
      <trkpt lat="47.16832" lon="5.54581">
        <ele>303</ele>
        <time>2017-09-03T08:30:36Z</time>
      </trkpt>
      <trkpt lat="47.16827" lon="5.54589">
        <ele>304</ele>
        <time>2017-09-03T08:30:40Z</time>
      </trkpt>
      <trkpt lat="47.1682" lon="5.54601">
        <ele>305</ele>
        <time>2017-09-03T08:30:44Z</time>
      </trkpt>
      <trkpt lat="47.16816" lon="5.54609">
        <ele>306</ele>
        <time>2017-09-03T08:30:48Z</time>
      </trkpt>
      <trkpt lat="47.16811" lon="5.54616">
        <ele>306</ele>
        <time>2017-09-03T08:30:52Z</time>
      </trkpt>
      <trkpt lat="47.16807" lon="5.54623">
        <ele>307</ele>
        <time>2017-09-03T08:30:56Z</time>
      </trkpt>
      <trkpt lat="47.16804" lon="5.54631">
        <ele>308</ele>
        <time>2017-09-03T08:31:00Z</time>
      </trkpt>
      <trkpt lat="47.16801" lon="5.54637">
        <ele>310</ele>
        <time>2017-09-03T08:31:04Z</time>
      </trkpt>
      <trkpt lat="47.16808" lon="5.54643">
        <ele>311</ele>
        <time>2017-09-03T08:31:16Z</time>
      </trkpt>
      <trkpt lat="47.16812" lon="5.54642">
        <ele>311</ele>
        <time>2017-09-03T08:31:20Z</time>
      </trkpt>
      <trkpt lat="47.1682" lon="5.54645">
        <ele>312</ele>
        <time>2017-09-03T08:31:24Z</time>
      </trkpt>
      <trkpt lat="47.16826" lon="5.54646">
        <ele>312</ele>
        <time>2017-09-03T08:31:28Z</time>
      </trkpt>
      <trkpt lat="47.16832" lon="5.54648">
        <ele>312</ele>
        <time>2017-09-03T08:31:32Z</time>
      </trkpt>
      <trkpt lat="47.16837" lon="5.54651">
        <ele>314</ele>
        <time>2017-09-03T08:31:40Z</time>
      </trkpt>
      <trkpt lat="47.16843" lon="5.54654">
        <ele>315</ele>
        <time>2017-09-03T08:31:44Z</time>
      </trkpt>
      <trkpt lat="47.16848" lon="5.54656">
        <ele>315</ele>
        <time>2017-09-03T08:31:48Z</time>
      </trkpt>
      <trkpt lat="47.16854" lon="5.54657">
        <ele>316</ele>
        <time>2017-09-03T08:31:52Z</time>
      </trkpt>
      <trkpt lat="47.16861" lon="5.54657">
        <ele>316</ele>
        <time>2017-09-03T08:31:56Z</time>
      </trkpt>
      <trkpt lat="47.16867" lon="5.54655">
        <ele>316</ele>
        <time>2017-09-03T08:32:00Z</time>
      </trkpt>
      <trkpt lat="47.16873" lon="5.54658">
        <ele>317</ele>
        <time>2017-09-03T08:32:04Z</time>
      </trkpt>
      <trkpt lat="47.16908" lon="5.54684">
        <ele>325</ele>
        <time>2017-09-03T08:32:28Z</time>
      </trkpt>
      <trkpt lat="47.16914" lon="5.54691">
        <ele>326</ele>
        <time>2017-09-03T08:32:32Z</time>
      </trkpt>
      <trkpt lat="47.16921" lon="5.54695">
        <ele>327</ele>
        <time>2017-09-03T08:32:36Z</time>
      </trkpt>
      <trkpt lat="47.16929" lon="5.54701">
        <ele>328</ele>
        <time>2017-09-03T08:32:40Z</time>
      </trkpt>
      <trkpt lat="47.16935" lon="5.54708">
        <ele>328</ele>
        <time>2017-09-03T08:32:44Z</time>
      </trkpt>
      <trkpt lat="47.1694" lon="5.54713">
        <ele>329</ele>
        <time>2017-09-03T08:32:48Z</time>
      </trkpt>
      <trkpt lat="47.16944" lon="5.54719">
        <ele>329</ele>
        <time>2017-09-03T08:32:52Z</time>
      </trkpt>
      <trkpt lat="47.16947" lon="5.54726">
        <ele>330</ele>
        <time>2017-09-03T08:32:56Z</time>
      </trkpt>
      <trkpt lat="47.1695" lon="5.54735">
        <ele>330</ele>
        <time>2017-09-03T08:33:00Z</time>
      </trkpt>
      <trkpt lat="47.16955" lon="5.54742">
        <ele>330</ele>
        <time>2017-09-03T08:33:04Z</time>
      </trkpt>
      <trkpt lat="47.16963" lon="5.54749">
        <ele>330</ele>
        <time>2017-09-03T08:33:08Z</time>
      </trkpt>
      <trkpt lat="47.16971" lon="5.54753">
        <ele>330</ele>
        <time>2017-09-03T08:33:12Z</time>
      </trkpt>
      <trkpt lat="47.16978" lon="5.54759">
        <ele>331</ele>
        <time>2017-09-03T08:33:16Z</time>
      </trkpt>
      <trkpt lat="47.16985" lon="5.54764">
        <ele>330</ele>
        <time>2017-09-03T08:33:20Z</time>
      </trkpt>
      <trkpt lat="47.1699" lon="5.5477">
        <ele>331</ele>
        <time>2017-09-03T08:33:24Z</time>
      </trkpt>
      <trkpt lat="47.16993" lon="5.54776">
        <ele>331</ele>
        <time>2017-09-03T08:33:28Z</time>
      </trkpt>
      <trkpt lat="47.16997" lon="5.54785">
        <ele>331</ele>
        <time>2017-09-03T08:33:32Z</time>
      </trkpt>
      <trkpt lat="47.17004" lon="5.54794">
        <ele>330</ele>
        <time>2017-09-03T08:33:36Z</time>
      </trkpt>
      <trkpt lat="47.17013" lon="5.54807">
        <ele>330</ele>
        <time>2017-09-03T08:33:40Z</time>
      </trkpt>
      <trkpt lat="47.17027" lon="5.54824">
        <ele>328</ele>
        <time>2017-09-03T08:33:44Z</time>
      </trkpt>
      <trkpt lat="47.1704" lon="5.54842">
        <ele>326</ele>
        <time>2017-09-03T08:33:48Z</time>
      </trkpt>
      <trkpt lat="47.17047" lon="5.54864">
        <ele>324</ele>
        <time>2017-09-03T08:33:52Z</time>
      </trkpt>
      <trkpt lat="47.17054" lon="5.54878">
        <ele>321</ele>
        <time>2017-09-03T08:33:56Z</time>
      </trkpt>
      <trkpt lat="47.17052" lon="5.54894">
        <ele>319</ele>
        <time>2017-09-03T08:34:00Z</time>
      </trkpt>
      <trkpt lat="47.17052" lon="5.54913">
        <ele>316</ele>
        <time>2017-09-03T08:34:04Z</time>
      </trkpt>
      <trkpt lat="47.17053" lon="5.54936">
        <ele>313</ele>
        <time>2017-09-03T08:34:08Z</time>
      </trkpt>
      <trkpt lat="47.17057" lon="5.54954">
        <ele>311</ele>
        <time>2017-09-03T08:34:12Z</time>
      </trkpt>
      <trkpt lat="47.17058" lon="5.54972">
        <ele>310</ele>
        <time>2017-09-03T08:34:16Z</time>
      </trkpt>
      <trkpt lat="47.1706" lon="5.54989">
        <ele>310</ele>
        <time>2017-09-03T08:34:20Z</time>
      </trkpt>
      <trkpt lat="47.17064" lon="5.55012">
        <ele>307</ele>
        <time>2017-09-03T08:34:24Z</time>
      </trkpt>
      <trkpt lat="47.17071" lon="5.55035">
        <ele>305</ele>
        <time>2017-09-03T08:34:28Z</time>
      </trkpt>
      <trkpt lat="47.17081" lon="5.55058">
        <ele>303</ele>
        <time>2017-09-03T08:34:32Z</time>
      </trkpt>
      <trkpt lat="47.17094" lon="5.55086">
        <ele>301</ele>
        <time>2017-09-03T08:34:36Z</time>
      </trkpt>
      <trkpt lat="47.17107" lon="5.55114">
        <ele>297</ele>
        <time>2017-09-03T08:34:40Z</time>
      </trkpt>
      <trkpt lat="47.17119" lon="5.55134">
        <ele>295</ele>
        <time>2017-09-03T08:34:44Z</time>
      </trkpt>
      <trkpt lat="47.17129" lon="5.55162">
        <ele>293</ele>
        <time>2017-09-03T08:34:48Z</time>
      </trkpt>
      <trkpt lat="47.17132" lon="5.5518">
        <ele>291</ele>
        <time>2017-09-03T08:34:52Z</time>
      </trkpt>
      <trkpt lat="47.17134" lon="5.55202">
        <ele>290</ele>
        <time>2017-09-03T08:34:56Z</time>
      </trkpt>
      <trkpt lat="47.17133" lon="5.5523">
        <ele>287</ele>
        <time>2017-09-03T08:35:00Z</time>
      </trkpt>
      <trkpt lat="47.17131" lon="5.55293">
        <ele>283</ele>
        <time>2017-09-03T08:35:08Z</time>
      </trkpt>
      <trkpt lat="47.17134" lon="5.55323">
        <ele>280</ele>
        <time>2017-09-03T08:35:12Z</time>
      </trkpt>
      <trkpt lat="47.17134" lon="5.55349">
        <ele>277</ele>
        <time>2017-09-03T08:35:16Z</time>
      </trkpt>
      <trkpt lat="47.1713" lon="5.55372">
        <ele>274</ele>
        <time>2017-09-03T08:35:20Z</time>
      </trkpt>
      <trkpt lat="47.17141" lon="5.55398">
        <ele>272</ele>
        <time>2017-09-03T08:35:24Z</time>
      </trkpt>
      <trkpt lat="47.17153" lon="5.55427">
        <ele>271</ele>
        <time>2017-09-03T08:35:28Z</time>
      </trkpt>
      <trkpt lat="47.17178" lon="5.5546">
        <ele>270</ele>
        <time>2017-09-03T08:35:32Z</time>
      </trkpt>
      <trkpt lat="47.1723" lon="5.55496">
        <ele>268</ele>
        <time>2017-09-03T08:35:36Z</time>
      </trkpt>
      <trkpt lat="47.17251" lon="5.55521">
        <ele>267</ele>
        <time>2017-09-03T08:35:40Z</time>
      </trkpt>
      <trkpt lat="47.17259" lon="5.55544">
        <ele>267</ele>
        <time>2017-09-03T08:35:44Z</time>
      </trkpt>
      <trkpt lat="47.17262" lon="5.5556">
        <ele>268</ele>
        <time>2017-09-03T08:35:48Z</time>
      </trkpt>
      <trkpt lat="47.17254" lon="5.55582">
        <ele>270</ele>
        <time>2017-09-03T08:36:00Z</time>
      </trkpt>
      <trkpt lat="47.1725" lon="5.55592">
        <ele>271</ele>
        <time>2017-09-03T08:36:04Z</time>
      </trkpt>
      <trkpt lat="47.17246" lon="5.556">
        <ele>272</ele>
        <time>2017-09-03T08:36:08Z</time>
      </trkpt>
      <trkpt lat="47.17243" lon="5.55611">
        <ele>271</ele>
        <time>2017-09-03T08:36:12Z</time>
      </trkpt>
      <trkpt lat="47.1724" lon="5.55618">
        <ele>271</ele>
        <time>2017-09-03T08:36:16Z</time>
      </trkpt>
      <trkpt lat="47.17234" lon="5.55647">
        <ele>270</ele>
        <time>2017-09-03T08:37:24Z</time>
      </trkpt>
      <trkpt lat="47.17229" lon="5.55656">
        <ele>269</ele>
        <time>2017-09-03T08:37:28Z</time>
      </trkpt>
      <trkpt lat="47.17228" lon="5.55673">
        <ele>268</ele>
        <time>2017-09-03T08:37:32Z</time>
      </trkpt>
      <trkpt lat="47.17225" lon="5.55696">
        <ele>267</ele>
        <time>2017-09-03T08:37:36Z</time>
      </trkpt>
      <trkpt lat="47.17221" lon="5.5573">
        <ele>266</ele>
        <time>2017-09-03T08:37:40Z</time>
      </trkpt>
      <trkpt lat="47.17224" lon="5.55764">
        <ele>265</ele>
        <time>2017-09-03T08:37:44Z</time>
      </trkpt>
      <trkpt lat="47.17229" lon="5.55808">
        <ele>264</ele>
        <time>2017-09-03T08:37:48Z</time>
      </trkpt>
      <trkpt lat="47.17234" lon="5.55844">
        <ele>262</ele>
        <time>2017-09-03T08:37:52Z</time>
      </trkpt>
      <trkpt lat="47.17245" lon="5.55872">
        <ele>260</ele>
        <time>2017-09-03T08:37:56Z</time>
      </trkpt>
      <trkpt lat="47.17257" lon="5.55906">
        <ele>259</ele>
        <time>2017-09-03T08:38:00Z</time>
      </trkpt>
      <trkpt lat="47.17276" lon="5.55933">
        <ele>257</ele>
        <time>2017-09-03T08:38:04Z</time>
      </trkpt>
      <trkpt lat="47.17284" lon="5.55965">
        <ele>256</ele>
        <time>2017-09-03T08:38:08Z</time>
      </trkpt>
      <trkpt lat="47.1729" lon="5.55993">
        <ele>255</ele>
        <time>2017-09-03T08:38:12Z</time>
      </trkpt>
      <trkpt lat="47.17292" lon="5.56004">
        <ele>254</ele>
        <time>2017-09-03T08:38:16Z</time>
      </trkpt>
      <trkpt lat="47.17294" lon="5.56043">
        <ele>254</ele>
        <time>2017-09-03T08:38:44Z</time>
      </trkpt>
      <trkpt lat="47.17294" lon="5.5605">
        <ele>255</ele>
        <time>2017-09-03T08:38:48Z</time>
      </trkpt>
      <trkpt lat="47.17297" lon="5.56056">
        <ele>257</ele>
        <time>2017-09-03T08:38:52Z</time>
      </trkpt>
      <trkpt lat="47.173" lon="5.56061">
        <ele>258</ele>
        <time>2017-09-03T08:38:56Z</time>
      </trkpt>
      <trkpt lat="47.17316" lon="5.56087">
        <ele>264</ele>
        <time>2017-09-03T08:39:20Z</time>
      </trkpt>
      <trkpt lat="47.17321" lon="5.56096">
        <ele>265</ele>
        <time>2017-09-03T08:39:24Z</time>
      </trkpt>
      <trkpt lat="47.17324" lon="5.56105">
        <ele>266</ele>
        <time>2017-09-03T08:39:28Z</time>
      </trkpt>
      <trkpt lat="47.17327" lon="5.56111">
        <ele>267</ele>
        <time>2017-09-03T08:39:32Z</time>
      </trkpt>
      <trkpt lat="47.17332" lon="5.56118">
        <ele>268</ele>
        <time>2017-09-03T08:39:36Z</time>
      </trkpt>
      <trkpt lat="47.17336" lon="5.56122">
        <ele>269</ele>
        <time>2017-09-03T08:39:40Z</time>
      </trkpt>
      <trkpt lat="47.17339" lon="5.56129">
        <ele>269</ele>
        <time>2017-09-03T08:39:44Z</time>
      </trkpt>
      <trkpt lat="47.17342" lon="5.56134">
        <ele>270</ele>
        <time>2017-09-03T08:39:48Z</time>
      </trkpt>
      <trkpt lat="47.17349" lon="5.56145">
        <ele>273</ele>
        <time>2017-09-03T08:39:56Z</time>
      </trkpt>
      <trkpt lat="47.17356" lon="5.56159">
        <ele>275</ele>
        <time>2017-09-03T08:40:08Z</time>
      </trkpt>
      <trkpt lat="47.1736" lon="5.56174">
        <ele>276</ele>
        <time>2017-09-03T08:40:16Z</time>
      </trkpt>
      <trkpt lat="47.17364" lon="5.56181">
        <ele>276</ele>
        <time>2017-09-03T08:40:20Z</time>
      </trkpt>
      <trkpt lat="47.17367" lon="5.56188">
        <ele>277</ele>
        <time>2017-09-03T08:40:24Z</time>
      </trkpt>
      <trkpt lat="47.17371" lon="5.56196">
        <ele>278</ele>
        <time>2017-09-03T08:40:28Z</time>
      </trkpt>
      <trkpt lat="47.17372" lon="5.56205">
        <ele>278</ele>
        <time>2017-09-03T08:40:32Z</time>
      </trkpt>
      <trkpt lat="47.17374" lon="5.56214">
        <ele>278</ele>
        <time>2017-09-03T08:40:36Z</time>
      </trkpt>
      <trkpt lat="47.1738" lon="5.5622">
        <ele>279</ele>
        <time>2017-09-03T08:40:40Z</time>
      </trkpt>
      <trkpt lat="47.17384" lon="5.56228">
        <ele>280</ele>
        <time>2017-09-03T08:40:44Z</time>
      </trkpt>
      <trkpt lat="47.17388" lon="5.56235">
        <ele>282</ele>
        <time>2017-09-03T08:40:48Z</time>
      </trkpt>
      <trkpt lat="47.17395" lon="5.56249">
        <ele>284</ele>
        <time>2017-09-03T08:40:56Z</time>
      </trkpt>
      <trkpt lat="47.17402" lon="5.56257">
        <ele>285</ele>
        <time>2017-09-03T08:41:00Z</time>
      </trkpt>
      <trkpt lat="47.17409" lon="5.56264">
        <ele>286</ele>
        <time>2017-09-03T08:41:04Z</time>
      </trkpt>
      <trkpt lat="47.17415" lon="5.56269">
        <ele>287</ele>
        <time>2017-09-03T08:41:08Z</time>
      </trkpt>
      <trkpt lat="47.17419" lon="5.56274">
        <ele>288</ele>
        <time>2017-09-03T08:41:12Z</time>
      </trkpt>
      <trkpt lat="47.17424" lon="5.56279">
        <ele>289</ele>
        <time>2017-09-03T08:41:16Z</time>
      </trkpt>
      <trkpt lat="47.17427" lon="5.56282">
        <ele>290</ele>
        <time>2017-09-03T08:41:20Z</time>
      </trkpt>
      <trkpt lat="47.17443" lon="5.56304">
        <ele>295</ele>
        <time>2017-09-03T08:41:40Z</time>
      </trkpt>
      <trkpt lat="47.17447" lon="5.5631">
        <ele>296</ele>
        <time>2017-09-03T08:41:44Z</time>
      </trkpt>
      <trkpt lat="47.1745" lon="5.56315">
        <ele>297</ele>
        <time>2017-09-03T08:41:48Z</time>
      </trkpt>
      <trkpt lat="47.17454" lon="5.5632">
        <ele>297</ele>
        <time>2017-09-03T08:41:52Z</time>
      </trkpt>
      <trkpt lat="47.17463" lon="5.5633">
        <ele>298</ele>
        <time>2017-09-03T08:41:56Z</time>
      </trkpt>
      <trkpt lat="47.17467" lon="5.56337">
        <ele>298</ele>
        <time>2017-09-03T08:42:00Z</time>
      </trkpt>
      <trkpt lat="47.17469" lon="5.56343">
        <ele>299</ele>
        <time>2017-09-03T08:42:04Z</time>
      </trkpt>
      <trkpt lat="47.17485" lon="5.56364">
        <ele>303</ele>
        <time>2017-09-03T08:42:20Z</time>
      </trkpt>
      <trkpt lat="47.175" lon="5.56393">
        <ele>305</ele>
        <time>2017-09-03T08:42:40Z</time>
      </trkpt>
      <trkpt lat="47.17508" lon="5.56409">
        <ele>306</ele>
        <time>2017-09-03T08:43:20Z</time>
      </trkpt>
      <trkpt lat="47.17511" lon="5.56413">
        <ele>306</ele>
        <time>2017-09-03T08:43:24Z</time>
      </trkpt>
      <trkpt lat="47.17513" lon="5.56417">
        <ele>306</ele>
        <time>2017-09-03T08:43:28Z</time>
      </trkpt>
      <trkpt lat="47.17517" lon="5.56416">
        <ele>306</ele>
        <time>2017-09-03T08:43:32Z</time>
      </trkpt>
      <trkpt lat="47.17523" lon="5.56417">
        <ele>307</ele>
        <time>2017-09-03T08:43:36Z</time>
      </trkpt>
      <trkpt lat="47.17527" lon="5.5642">
        <ele>308</ele>
        <time>2017-09-03T08:43:40Z</time>
      </trkpt>
      <trkpt lat="47.17533" lon="5.56424">
        <ele>309</ele>
        <time>2017-09-03T08:43:44Z</time>
      </trkpt>
      <trkpt lat="47.17543" lon="5.56435">
        <ele>310</ele>
        <time>2017-09-03T08:43:52Z</time>
      </trkpt>
      <trkpt lat="47.1755" lon="5.5644">
        <ele>311</ele>
        <time>2017-09-03T08:43:56Z</time>
      </trkpt>
      <trkpt lat="47.17556" lon="5.56444">
        <ele>312</ele>
        <time>2017-09-03T08:44:00Z</time>
      </trkpt>
      <trkpt lat="47.1756" lon="5.56449">
        <ele>313</ele>
        <time>2017-09-03T08:44:04Z</time>
      </trkpt>
      <trkpt lat="47.17566" lon="5.56453">
        <ele>315</ele>
        <time>2017-09-03T08:44:08Z</time>
      </trkpt>
      <trkpt lat="47.17572" lon="5.56456">
        <ele>316</ele>
        <time>2017-09-03T08:44:12Z</time>
      </trkpt>
      <trkpt lat="47.17579" lon="5.5646">
        <ele>316</ele>
        <time>2017-09-03T08:44:16Z</time>
      </trkpt>
      <trkpt lat="47.17585" lon="5.56466">
        <ele>318</ele>
        <time>2017-09-03T08:44:20Z</time>
      </trkpt>
      <trkpt lat="47.17592" lon="5.56472">
        <ele>318</ele>
        <time>2017-09-03T08:44:24Z</time>
      </trkpt>
      <trkpt lat="47.176" lon="5.56474">
        <ele>319</ele>
        <time>2017-09-03T08:44:28Z</time>
      </trkpt>
      <trkpt lat="47.17609" lon="5.5648">
        <ele>319</ele>
        <time>2017-09-03T08:44:32Z</time>
      </trkpt>
      <trkpt lat="47.17616" lon="5.56481">
        <ele>318</ele>
        <time>2017-09-03T08:44:36Z</time>
      </trkpt>
      <trkpt lat="47.17623" lon="5.56487">
        <ele>319</ele>
        <time>2017-09-03T08:44:40Z</time>
      </trkpt>
      <trkpt lat="47.17629" lon="5.56493">
        <ele>320</ele>
        <time>2017-09-03T08:44:44Z</time>
      </trkpt>
      <trkpt lat="47.17634" lon="5.565">
        <ele>320</ele>
        <time>2017-09-03T08:44:48Z</time>
      </trkpt>
      <trkpt lat="47.17642" lon="5.56504">
        <ele>320</ele>
        <time>2017-09-03T08:44:52Z</time>
      </trkpt>
      <trkpt lat="47.1765" lon="5.5651">
        <ele>321</ele>
        <time>2017-09-03T08:44:56Z</time>
      </trkpt>
      <trkpt lat="47.17656" lon="5.5651">
        <ele>322</ele>
        <time>2017-09-03T08:45:00Z</time>
      </trkpt>
      <trkpt lat="47.17659" lon="5.56513">
        <ele>323</ele>
        <time>2017-09-03T08:45:04Z</time>
      </trkpt>
      <trkpt lat="47.17668" lon="5.56514">
        <ele>324</ele>
        <time>2017-09-03T08:45:12Z</time>
      </trkpt>
      <trkpt lat="47.17672" lon="5.56513">
        <ele>325</ele>
        <time>2017-09-03T08:45:16Z</time>
      </trkpt>
      <trkpt lat="47.17677" lon="5.56513">
        <ele>325</ele>
        <time>2017-09-03T08:45:20Z</time>
      </trkpt>
      <trkpt lat="47.17699" lon="5.56514">
        <ele>330</ele>
        <time>2017-09-03T08:45:40Z</time>
      </trkpt>
      <trkpt lat="47.1771" lon="5.56512">
        <ele>332</ele>
        <time>2017-09-03T08:45:48Z</time>
      </trkpt>
      <trkpt lat="47.17714" lon="5.56508">
        <ele>333</ele>
        <time>2017-09-03T08:45:52Z</time>
      </trkpt>
      <trkpt lat="47.17718" lon="5.56505">
        <ele>334</ele>
        <time>2017-09-03T08:45:56Z</time>
      </trkpt>
      <trkpt lat="47.17737" lon="5.565">
        <ele>337</ele>
        <time>2017-09-03T08:46:12Z</time>
      </trkpt>
      <trkpt lat="47.17742" lon="5.56501">
        <ele>338</ele>
        <time>2017-09-03T08:46:16Z</time>
      </trkpt>
      <trkpt lat="47.17836" lon="5.56536">
        <ele>352</ele>
        <time>2017-09-03T08:47:32Z</time>
      </trkpt>
      <trkpt lat="47.17842" lon="5.56534">
        <ele>353</ele>
        <time>2017-09-03T08:47:36Z</time>
      </trkpt>
      <trkpt lat="47.17852" lon="5.56531">
        <ele>354</ele>
        <time>2017-09-03T08:47:44Z</time>
      </trkpt>
      <trkpt lat="47.17858" lon="5.56529">
        <ele>355</ele>
        <time>2017-09-03T08:47:48Z</time>
      </trkpt>
      <trkpt lat="47.17863" lon="5.56529">
        <ele>356</ele>
        <time>2017-09-03T08:47:52Z</time>
      </trkpt>
      <trkpt lat="47.17879" lon="5.5653">
        <ele>358</ele>
        <time>2017-09-03T08:48:04Z</time>
      </trkpt>
      <trkpt lat="47.17885" lon="5.56531">
        <ele>359</ele>
        <time>2017-09-03T08:48:08Z</time>
      </trkpt>
      <trkpt lat="47.17892" lon="5.56531">
        <ele>360</ele>
        <time>2017-09-03T08:48:12Z</time>
      </trkpt>
      <trkpt lat="47.179" lon="5.5653">
        <ele>360</ele>
        <time>2017-09-03T08:48:16Z</time>
      </trkpt>
      <trkpt lat="47.17906" lon="5.56527">
        <ele>361</ele>
        <time>2017-09-03T08:48:20Z</time>
      </trkpt>
      <trkpt lat="47.17911" lon="5.56527">
        <ele>361</ele>
        <time>2017-09-03T08:48:24Z</time>
      </trkpt>
      <trkpt lat="47.17938" lon="5.56514">
        <ele>361</ele>
        <time>2017-09-03T08:51:36Z</time>
      </trkpt>
      <trkpt lat="47.17942" lon="5.56511">
        <ele>361</ele>
        <time>2017-09-03T08:51:40Z</time>
      </trkpt>
      <trkpt lat="47.17946" lon="5.56508">
        <ele>362</ele>
        <time>2017-09-03T08:51:44Z</time>
      </trkpt>
      <trkpt lat="47.17952" lon="5.56505">
        <ele>362</ele>
        <time>2017-09-03T08:51:48Z</time>
      </trkpt>
      <trkpt lat="47.17958" lon="5.565">
        <ele>361</ele>
        <time>2017-09-03T08:51:52Z</time>
      </trkpt>
      <trkpt lat="47.17964" lon="5.56495">
        <ele>361</ele>
        <time>2017-09-03T08:51:56Z</time>
      </trkpt>
      <trkpt lat="47.17975" lon="5.56482">
        <ele>360</ele>
        <time>2017-09-03T08:52:00Z</time>
      </trkpt>
      <trkpt lat="47.17991" lon="5.56462">
        <ele>354</ele>
        <time>2017-09-03T08:52:04Z</time>
      </trkpt>
      <trkpt lat="47.18007" lon="5.56437">
        <ele>352</ele>
        <time>2017-09-03T08:52:08Z</time>
      </trkpt>
      <trkpt lat="47.18026" lon="5.56402">
        <ele>352</ele>
        <time>2017-09-03T08:52:12Z</time>
      </trkpt>
      <trkpt lat="47.18043" lon="5.56372">
        <ele>352</ele>
        <time>2017-09-03T08:52:16Z</time>
      </trkpt>
      <trkpt lat="47.18061" lon="5.56342">
        <ele>351</ele>
        <time>2017-09-03T08:52:20Z</time>
      </trkpt>
      <trkpt lat="47.18073" lon="5.56321">
        <ele>351</ele>
        <time>2017-09-03T08:52:24Z</time>
      </trkpt>
      <trkpt lat="47.18088" lon="5.56306">
        <ele>350</ele>
        <time>2017-09-03T08:52:28Z</time>
      </trkpt>
      <trkpt lat="47.18098" lon="5.56293">
        <ele>350</ele>
        <time>2017-09-03T08:52:32Z</time>
      </trkpt>
      <trkpt lat="47.18111" lon="5.56283">
        <ele>350</ele>
        <time>2017-09-03T08:52:36Z</time>
      </trkpt>
      <trkpt lat="47.18125" lon="5.56273">
        <ele>350</ele>
        <time>2017-09-03T08:52:40Z</time>
      </trkpt>
      <trkpt lat="47.18139" lon="5.56263">
        <ele>350</ele>
        <time>2017-09-03T08:52:44Z</time>
      </trkpt>
      <trkpt lat="47.18152" lon="5.56248">
        <ele>350</ele>
        <time>2017-09-03T08:52:48Z</time>
      </trkpt>
      <trkpt lat="47.18161" lon="5.56234">
        <ele>351</ele>
        <time>2017-09-03T08:52:52Z</time>
      </trkpt>
      <trkpt lat="47.1817" lon="5.56221">
        <ele>352</ele>
        <time>2017-09-03T08:52:56Z</time>
      </trkpt>
      <trkpt lat="47.18178" lon="5.56207">
        <ele>352</ele>
        <time>2017-09-03T08:53:00Z</time>
      </trkpt>
      <trkpt lat="47.18189" lon="5.56192">
        <ele>352</ele>
        <time>2017-09-03T08:53:04Z</time>
      </trkpt>
      <trkpt lat="47.18197" lon="5.56175">
        <ele>353</ele>
        <time>2017-09-03T08:53:08Z</time>
      </trkpt>
      <trkpt lat="47.18208" lon="5.56159">
        <ele>353</ele>
        <time>2017-09-03T08:53:12Z</time>
      </trkpt>
      <trkpt lat="47.18216" lon="5.56145">
        <ele>353</ele>
        <time>2017-09-03T08:53:16Z</time>
      </trkpt>
      <trkpt lat="47.18222" lon="5.56131">
        <ele>353</ele>
        <time>2017-09-03T08:53:20Z</time>
      </trkpt>
      <trkpt lat="47.18231" lon="5.56114">
        <ele>352</ele>
        <time>2017-09-03T08:53:24Z</time>
      </trkpt>
      <trkpt lat="47.18243" lon="5.56101">
        <ele>352</ele>
        <time>2017-09-03T08:53:28Z</time>
      </trkpt>
      <trkpt lat="47.1825" lon="5.561">
        <ele>353</ele>
        <time>2017-09-03T08:53:32Z</time>
      </trkpt>
      <trkpt lat="47.18258" lon="5.56099">
        <ele>354</ele>
        <time>2017-09-03T08:53:36Z</time>
      </trkpt>
      <trkpt lat="47.18269" lon="5.56097">
        <ele>355</ele>
        <time>2017-09-03T08:53:40Z</time>
      </trkpt>
      <trkpt lat="47.18277" lon="5.56098">
        <ele>355</ele>
        <time>2017-09-03T08:53:44Z</time>
      </trkpt>
      <trkpt lat="47.18287" lon="5.56096">
        <ele>355</ele>
        <time>2017-09-03T08:53:48Z</time>
      </trkpt>
      <trkpt lat="47.18297" lon="5.56095">
        <ele>355</ele>
        <time>2017-09-03T08:53:52Z</time>
      </trkpt>
      <trkpt lat="47.18309" lon="5.56092">
        <ele>355</ele>
        <time>2017-09-03T08:53:56Z</time>
      </trkpt>
      <trkpt lat="47.18327" lon="5.56096">
        <ele>354</ele>
        <time>2017-09-03T08:54:00Z</time>
      </trkpt>
      <trkpt lat="47.18349" lon="5.56108">
        <ele>353</ele>
        <time>2017-09-03T08:54:04Z</time>
      </trkpt>
      <trkpt lat="47.18365" lon="5.56126">
        <ele>351</ele>
        <time>2017-09-03T08:54:08Z</time>
      </trkpt>
      <trkpt lat="47.18379" lon="5.56154">
        <ele>349</ele>
        <time>2017-09-03T08:54:12Z</time>
      </trkpt>
      <trkpt lat="47.18393" lon="5.56184">
        <ele>347</ele>
        <time>2017-09-03T08:54:16Z</time>
      </trkpt>
      <trkpt lat="47.18414" lon="5.56207">
        <ele>345</ele>
        <time>2017-09-03T08:54:20Z</time>
      </trkpt>
      <trkpt lat="47.18428" lon="5.56233">
        <ele>344</ele>
        <time>2017-09-03T08:54:24Z</time>
      </trkpt>
      <trkpt lat="47.18437" lon="5.56254">
        <ele>343</ele>
        <time>2017-09-03T08:54:28Z</time>
      </trkpt>
      <trkpt lat="47.18441" lon="5.56275">
        <ele>340</ele>
        <time>2017-09-03T08:54:32Z</time>
      </trkpt>
      <trkpt lat="47.18433" lon="5.56286">
        <ele>341</ele>
        <time>2017-09-03T08:54:36Z</time>
      </trkpt>
      <trkpt lat="47.18437" lon="5.56298">
        <ele>343</ele>
        <time>2017-09-03T08:54:40Z</time>
      </trkpt>
      <trkpt lat="47.18473" lon="5.56354">
        <ele>349</ele>
        <time>2017-09-03T08:54:56Z</time>
      </trkpt>
      <trkpt lat="47.18477" lon="5.56363">
        <ele>350</ele>
        <time>2017-09-03T08:55:00Z</time>
      </trkpt>
      <trkpt lat="47.18481" lon="5.56371">
        <ele>351</ele>
        <time>2017-09-03T08:55:04Z</time>
      </trkpt>
      <trkpt lat="47.18484" lon="5.5638">
        <ele>352</ele>
        <time>2017-09-03T08:55:08Z</time>
      </trkpt>
      <trkpt lat="47.18499" lon="5.56397">
        <ele>353</ele>
        <time>2017-09-03T08:55:12Z</time>
      </trkpt>
      <trkpt lat="47.18513" lon="5.56409">
        <ele>355</ele>
        <time>2017-09-03T08:55:16Z</time>
      </trkpt>
      <trkpt lat="47.18531" lon="5.5642">
        <ele>355</ele>
        <time>2017-09-03T08:55:20Z</time>
      </trkpt>
      <trkpt lat="47.18546" lon="5.56433">
        <ele>356</ele>
        <time>2017-09-03T08:55:24Z</time>
      </trkpt>
      <trkpt lat="47.18556" lon="5.56445">
        <ele>357</ele>
        <time>2017-09-03T08:55:28Z</time>
      </trkpt>
      <trkpt lat="47.18565" lon="5.56455">
        <ele>358</ele>
        <time>2017-09-03T08:55:32Z</time>
      </trkpt>
      <trkpt lat="47.18573" lon="5.56465">
        <ele>359</ele>
        <time>2017-09-03T08:55:36Z</time>
      </trkpt>
      <trkpt lat="47.18577" lon="5.56472">
        <ele>360</ele>
        <time>2017-09-03T08:55:40Z</time>
      </trkpt>
      <trkpt lat="47.18584" lon="5.56481">
        <ele>360</ele>
        <time>2017-09-03T08:55:44Z</time>
      </trkpt>
      <trkpt lat="47.18592" lon="5.5649">
        <ele>361</ele>
        <time>2017-09-03T08:55:48Z</time>
      </trkpt>
      <trkpt lat="47.18597" lon="5.56501">
        <ele>361</ele>
        <time>2017-09-03T08:55:52Z</time>
      </trkpt>
      <trkpt lat="47.18606" lon="5.56511">
        <ele>362</ele>
        <time>2017-09-03T08:55:56Z</time>
      </trkpt>
      <trkpt lat="47.18617" lon="5.56519">
        <ele>362</ele>
        <time>2017-09-03T08:56:00Z</time>
      </trkpt>
      <trkpt lat="47.18623" lon="5.56528">
        <ele>362</ele>
        <time>2017-09-03T08:56:04Z</time>
      </trkpt>
      <trkpt lat="47.18629" lon="5.56538">
        <ele>363</ele>
        <time>2017-09-03T08:56:08Z</time>
      </trkpt>
      <trkpt lat="47.18638" lon="5.56549">
        <ele>363</ele>
        <time>2017-09-03T08:56:12Z</time>
      </trkpt>
      <trkpt lat="47.18646" lon="5.56559">
        <ele>363</ele>
        <time>2017-09-03T08:56:16Z</time>
      </trkpt>
      <trkpt lat="47.18654" lon="5.56568">
        <ele>364</ele>
        <time>2017-09-03T08:56:20Z</time>
      </trkpt>
      <trkpt lat="47.18663" lon="5.56578">
        <ele>364</ele>
        <time>2017-09-03T08:56:24Z</time>
      </trkpt>
      <trkpt lat="47.1867" lon="5.56589">
        <ele>364</ele>
        <time>2017-09-03T08:56:28Z</time>
      </trkpt>
      <trkpt lat="47.18678" lon="5.56601">
        <ele>365</ele>
        <time>2017-09-03T08:56:32Z</time>
      </trkpt>
      <trkpt lat="47.18686" lon="5.56612">
        <ele>365</ele>
        <time>2017-09-03T08:56:36Z</time>
      </trkpt>
      <trkpt lat="47.18694" lon="5.56622">
        <ele>365</ele>
        <time>2017-09-03T08:56:40Z</time>
      </trkpt>
      <trkpt lat="47.18698" lon="5.56633">
        <ele>366</ele>
        <time>2017-09-03T08:56:44Z</time>
      </trkpt>
      <trkpt lat="47.18704" lon="5.56644">
        <ele>366</ele>
        <time>2017-09-03T08:56:48Z</time>
      </trkpt>
      <trkpt lat="47.18716" lon="5.56654">
        <ele>366</ele>
        <time>2017-09-03T08:56:52Z</time>
      </trkpt>
      <trkpt lat="47.18724" lon="5.56664">
        <ele>367</ele>
        <time>2017-09-03T08:56:56Z</time>
      </trkpt>
      <trkpt lat="47.18728" lon="5.56674">
        <ele>367</ele>
        <time>2017-09-03T08:57:00Z</time>
      </trkpt>
      <trkpt lat="47.18734" lon="5.56685">
        <ele>368</ele>
        <time>2017-09-03T08:57:04Z</time>
      </trkpt>
      <trkpt lat="47.18743" lon="5.56694">
        <ele>368</ele>
        <time>2017-09-03T08:57:08Z</time>
      </trkpt>
      <trkpt lat="47.1875" lon="5.56706">
        <ele>368</ele>
        <time>2017-09-03T08:57:12Z</time>
      </trkpt>
      <trkpt lat="47.18758" lon="5.56717">
        <ele>368</ele>
        <time>2017-09-03T08:57:16Z</time>
      </trkpt>
      <trkpt lat="47.18766" lon="5.56725">
        <ele>369</ele>
        <time>2017-09-03T08:57:20Z</time>
      </trkpt>
      <trkpt lat="47.18773" lon="5.5673">
        <ele>369</ele>
        <time>2017-09-03T08:57:24Z</time>
      </trkpt>
      <trkpt lat="47.18781" lon="5.56732">
        <ele>369</ele>
        <time>2017-09-03T08:57:28Z</time>
      </trkpt>
      <trkpt lat="47.18786" lon="5.56733">
        <ele>370</ele>
        <time>2017-09-03T08:57:32Z</time>
      </trkpt>
      <trkpt lat="47.18803" lon="5.5673">
        <ele>370</ele>
        <time>2017-09-03T08:58:16Z</time>
      </trkpt>
      <trkpt lat="47.18809" lon="5.56723">
        <ele>370</ele>
        <time>2017-09-03T08:58:20Z</time>
      </trkpt>
      <trkpt lat="47.18814" lon="5.56715">
        <ele>371</ele>
        <time>2017-09-03T08:58:24Z</time>
      </trkpt>
      <trkpt lat="47.18822" lon="5.5671">
        <ele>371</ele>
        <time>2017-09-03T08:58:28Z</time>
      </trkpt>
      <trkpt lat="47.18829" lon="5.56704">
        <ele>371</ele>
        <time>2017-09-03T08:58:32Z</time>
      </trkpt>
      <trkpt lat="47.18837" lon="5.567">
        <ele>371</ele>
        <time>2017-09-03T08:58:36Z</time>
      </trkpt>
      <trkpt lat="47.18845" lon="5.56698">
        <ele>372</ele>
        <time>2017-09-03T08:58:40Z</time>
      </trkpt>
      <trkpt lat="47.18855" lon="5.56695">
        <ele>372</ele>
        <time>2017-09-03T08:58:44Z</time>
      </trkpt>
      <trkpt lat="47.18863" lon="5.5669">
        <ele>371</ele>
        <time>2017-09-03T08:58:48Z</time>
      </trkpt>
      <trkpt lat="47.18872" lon="5.56686">
        <ele>372</ele>
        <time>2017-09-03T08:58:52Z</time>
      </trkpt>
      <trkpt lat="47.1888" lon="5.56687">
        <ele>372</ele>
        <time>2017-09-03T08:58:56Z</time>
      </trkpt>
      <trkpt lat="47.18889" lon="5.56688">
        <ele>373</ele>
        <time>2017-09-03T08:59:00Z</time>
      </trkpt>
      <trkpt lat="47.18902" lon="5.56687">
        <ele>373</ele>
        <time>2017-09-03T08:59:04Z</time>
      </trkpt>
      <trkpt lat="47.18916" lon="5.5669">
        <ele>373</ele>
        <time>2017-09-03T08:59:08Z</time>
      </trkpt>
      <trkpt lat="47.18929" lon="5.56688">
        <ele>373</ele>
        <time>2017-09-03T08:59:12Z</time>
      </trkpt>
      <trkpt lat="47.18937" lon="5.56681">
        <ele>373</ele>
        <time>2017-09-03T08:59:16Z</time>
      </trkpt>
      <trkpt lat="47.18939" lon="5.56667">
        <ele>372</ele>
        <time>2017-09-03T08:59:20Z</time>
      </trkpt>
      <trkpt lat="47.1894" lon="5.56657">
        <ele>372</ele>
        <time>2017-09-03T08:59:24Z</time>
      </trkpt>
      <trkpt lat="47.18935" lon="5.56641">
        <ele>370</ele>
        <time>2017-09-03T08:59:28Z</time>
      </trkpt>
      <trkpt lat="47.18928" lon="5.56622">
        <ele>368</ele>
        <time>2017-09-03T08:59:32Z</time>
      </trkpt>
      <trkpt lat="47.18911" lon="5.56583">
        <ele>366</ele>
        <time>2017-09-03T08:59:36Z</time>
      </trkpt>
      <trkpt lat="47.18895" lon="5.56549">
        <ele>365</ele>
        <time>2017-09-03T08:59:40Z</time>
      </trkpt>
      <trkpt lat="47.18879" lon="5.56521">
        <ele>363</ele>
        <time>2017-09-03T08:59:44Z</time>
      </trkpt>
      <trkpt lat="47.18869" lon="5.56491">
        <ele>361</ele>
        <time>2017-09-03T08:59:48Z</time>
      </trkpt>
      <trkpt lat="47.18855" lon="5.56467">
        <ele>357</ele>
        <time>2017-09-03T08:59:52Z</time>
      </trkpt>
      <trkpt lat="47.18835" lon="5.56449">
        <ele>354</ele>
        <time>2017-09-03T08:59:56Z</time>
      </trkpt>
      <trkpt lat="47.18812" lon="5.56422">
        <ele>349</ele>
        <time>2017-09-03T09:00:00Z</time>
      </trkpt>
      <trkpt lat="47.18794" lon="5.5639">
        <ele>346</ele>
        <time>2017-09-03T09:00:04Z</time>
      </trkpt>
      <trkpt lat="47.18782" lon="5.56371">
        <ele>345</ele>
        <time>2017-09-03T09:00:08Z</time>
      </trkpt>
      <trkpt lat="47.1877" lon="5.56363">
        <ele>344</ele>
        <time>2017-09-03T09:00:16Z</time>
      </trkpt>
      <trkpt lat="47.18763" lon="5.5635">
        <ele>344</ele>
        <time>2017-09-03T09:00:20Z</time>
      </trkpt>
      <trkpt lat="47.18762" lon="5.56339">
        <ele>344</ele>
        <time>2017-09-03T09:00:24Z</time>
      </trkpt>
      <trkpt lat="47.18738" lon="5.56294">
        <ele>344</ele>
        <time>2017-09-03T09:00:28Z</time>
      </trkpt>
      <trkpt lat="47.18713" lon="5.56256">
        <ele>343</ele>
        <time>2017-09-03T09:00:32Z</time>
      </trkpt>
      <trkpt lat="47.187" lon="5.56226">
        <ele>342</ele>
        <time>2017-09-03T09:00:36Z</time>
      </trkpt>
      <trkpt lat="47.18691" lon="5.56215">
        <ele>342</ele>
        <time>2017-09-03T09:00:40Z</time>
      </trkpt>
      <trkpt lat="47.18642" lon="5.56152">
        <ele>352</ele>
        <time>2017-09-03T09:01:28Z</time>
      </trkpt>
      <trkpt lat="47.18637" lon="5.56146">
        <ele>352</ele>
        <time>2017-09-03T09:01:32Z</time>
      </trkpt>
      <trkpt lat="47.18629" lon="5.56135">
        <ele>353</ele>
        <time>2017-09-03T09:01:40Z</time>
      </trkpt>
      <trkpt lat="47.18625" lon="5.56131">
        <ele>354</ele>
        <time>2017-09-03T09:01:44Z</time>
      </trkpt>
      <trkpt lat="47.18613" lon="5.56116">
        <ele>356</ele>
        <time>2017-09-03T09:01:52Z</time>
      </trkpt>
      <trkpt lat="47.18607" lon="5.5611">
        <ele>357</ele>
        <time>2017-09-03T09:01:56Z</time>
      </trkpt>
      <trkpt lat="47.18602" lon="5.56102">
        <ele>358</ele>
        <time>2017-09-03T09:02:00Z</time>
      </trkpt>
      <trkpt lat="47.18596" lon="5.56096">
        <ele>359</ele>
        <time>2017-09-03T09:02:04Z</time>
      </trkpt>
      <trkpt lat="47.18589" lon="5.56089">
        <ele>360</ele>
        <time>2017-09-03T09:02:08Z</time>
      </trkpt>
      <trkpt lat="47.18583" lon="5.56079">
        <ele>361</ele>
        <time>2017-09-03T09:02:12Z</time>
      </trkpt>
      <trkpt lat="47.18572" lon="5.56071">
        <ele>362</ele>
        <time>2017-09-03T09:02:16Z</time>
      </trkpt>
      <trkpt lat="47.18561" lon="5.56065">
        <ele>362</ele>
        <time>2017-09-03T09:02:20Z</time>
      </trkpt>
      <trkpt lat="47.18553" lon="5.56058">
        <ele>363</ele>
        <time>2017-09-03T09:02:24Z</time>
      </trkpt>
      <trkpt lat="47.18543" lon="5.56051">
        <ele>364</ele>
        <time>2017-09-03T09:02:28Z</time>
      </trkpt>
      <trkpt lat="47.18535" lon="5.56041">
        <ele>364</ele>
        <time>2017-09-03T09:02:32Z</time>
      </trkpt>
      <trkpt lat="47.18527" lon="5.56033">
        <ele>364</ele>
        <time>2017-09-03T09:02:36Z</time>
      </trkpt>
      <trkpt lat="47.18516" lon="5.56024">
        <ele>364</ele>
        <time>2017-09-03T09:02:40Z</time>
      </trkpt>
      <trkpt lat="47.18507" lon="5.56015">
        <ele>364</ele>
        <time>2017-09-03T09:02:44Z</time>
      </trkpt>
      <trkpt lat="47.18499" lon="5.56006">
        <ele>364</ele>
        <time>2017-09-03T09:02:48Z</time>
      </trkpt>
      <trkpt lat="47.18491" lon="5.55997">
        <ele>364</ele>
        <time>2017-09-03T09:02:52Z</time>
      </trkpt>
      <trkpt lat="47.18478" lon="5.55986">
        <ele>363</ele>
        <time>2017-09-03T09:02:56Z</time>
      </trkpt>
      <trkpt lat="47.18468" lon="5.55974">
        <ele>362</ele>
        <time>2017-09-03T09:03:00Z</time>
      </trkpt>
      <trkpt lat="47.18458" lon="5.55961">
        <ele>361</ele>
        <time>2017-09-03T09:03:04Z</time>
      </trkpt>
      <trkpt lat="47.18446" lon="5.55947">
        <ele>361</ele>
        <time>2017-09-03T09:03:08Z</time>
      </trkpt>
      <trkpt lat="47.18432" lon="5.55935">
        <ele>361</ele>
        <time>2017-09-03T09:03:12Z</time>
      </trkpt>
      <trkpt lat="47.18427" lon="5.55927">
        <ele>360</ele>
        <time>2017-09-03T09:03:16Z</time>
      </trkpt>
      <trkpt lat="47.18419" lon="5.55887">
        <ele>360</ele>
        <time>2017-09-03T09:03:44Z</time>
      </trkpt>
      <trkpt lat="47.18423" lon="5.55878">
        <ele>361</ele>
        <time>2017-09-03T09:03:52Z</time>
      </trkpt>
      <trkpt lat="47.18429" lon="5.55866">
        <ele>361</ele>
        <time>2017-09-03T09:03:56Z</time>
      </trkpt>
      <trkpt lat="47.18436" lon="5.55854">
        <ele>362</ele>
        <time>2017-09-03T09:04:00Z</time>
      </trkpt>
      <trkpt lat="47.18449" lon="5.55833">
        <ele>362</ele>
        <time>2017-09-03T09:04:04Z</time>
      </trkpt>
      <trkpt lat="47.18458" lon="5.55822">
        <ele>363</ele>
        <time>2017-09-03T09:04:08Z</time>
      </trkpt>
      <trkpt lat="47.18468" lon="5.5581">
        <ele>363</ele>
        <time>2017-09-03T09:04:12Z</time>
      </trkpt>
      <trkpt lat="47.18479" lon="5.55796">
        <ele>364</ele>
        <time>2017-09-03T09:04:16Z</time>
      </trkpt>
      <trkpt lat="47.18487" lon="5.55782">
        <ele>364</ele>
        <time>2017-09-03T09:04:20Z</time>
      </trkpt>
      <trkpt lat="47.18497" lon="5.55768">
        <ele>365</ele>
        <time>2017-09-03T09:04:24Z</time>
      </trkpt>
      <trkpt lat="47.18507" lon="5.55751">
        <ele>365</ele>
        <time>2017-09-03T09:04:28Z</time>
      </trkpt>
      <trkpt lat="47.18517" lon="5.55736">
        <ele>365</ele>
        <time>2017-09-03T09:04:32Z</time>
      </trkpt>
      <trkpt lat="47.18529" lon="5.55719">
        <ele>365</ele>
        <time>2017-09-03T09:04:36Z</time>
      </trkpt>
      <trkpt lat="47.18541" lon="5.55703">
        <ele>364</ele>
        <time>2017-09-03T09:04:40Z</time>
      </trkpt>
      <trkpt lat="47.18555" lon="5.55686">
        <ele>364</ele>
        <time>2017-09-03T09:04:44Z</time>
      </trkpt>
      <trkpt lat="47.18567" lon="5.55665">
        <ele>364</ele>
        <time>2017-09-03T09:04:48Z</time>
      </trkpt>
      <trkpt lat="47.18578" lon="5.55645">
        <ele>364</ele>
        <time>2017-09-03T09:04:52Z</time>
      </trkpt>
      <trkpt lat="47.1859" lon="5.55626">
        <ele>364</ele>
        <time>2017-09-03T09:04:56Z</time>
      </trkpt>
      <trkpt lat="47.18601" lon="5.55608">
        <ele>364</ele>
        <time>2017-09-03T09:05:00Z</time>
      </trkpt>
      <trkpt lat="47.18611" lon="5.55591">
        <ele>363</ele>
        <time>2017-09-03T09:05:04Z</time>
      </trkpt>
      <trkpt lat="47.18623" lon="5.55571">
        <ele>363</ele>
        <time>2017-09-03T09:05:08Z</time>
      </trkpt>
      <trkpt lat="47.18634" lon="5.55551">
        <ele>363</ele>
        <time>2017-09-03T09:05:12Z</time>
      </trkpt>
      <trkpt lat="47.18639" lon="5.55533">
        <ele>363</ele>
        <time>2017-09-03T09:05:16Z</time>
      </trkpt>
      <trkpt lat="47.18646" lon="5.55515">
        <ele>363</ele>
        <time>2017-09-03T09:05:20Z</time>
      </trkpt>
      <trkpt lat="47.18652" lon="5.55496">
        <ele>363</ele>
        <time>2017-09-03T09:05:24Z</time>
      </trkpt>
      <trkpt lat="47.18656" lon="5.55477">
        <ele>364</ele>
        <time>2017-09-03T09:05:28Z</time>
      </trkpt>
      <trkpt lat="47.18662" lon="5.55455">
        <ele>365</ele>
        <time>2017-09-03T09:05:32Z</time>
      </trkpt>
      <trkpt lat="47.18666" lon="5.55438">
        <ele>367</ele>
        <time>2017-09-03T09:05:36Z</time>
      </trkpt>
      <trkpt lat="47.18671" lon="5.55423">
        <ele>367</ele>
        <time>2017-09-03T09:05:40Z</time>
      </trkpt>
      <trkpt lat="47.18674" lon="5.55409">
        <ele>368</ele>
        <time>2017-09-03T09:05:44Z</time>
      </trkpt>
      <trkpt lat="47.18678" lon="5.55395">
        <ele>368</ele>
        <time>2017-09-03T09:05:48Z</time>
      </trkpt>
      <trkpt lat="47.18685" lon="5.55378">
        <ele>367</ele>
        <time>2017-09-03T09:05:52Z</time>
      </trkpt>
      <trkpt lat="47.18692" lon="5.55359">
        <ele>367</ele>
        <time>2017-09-03T09:05:56Z</time>
      </trkpt>
      <trkpt lat="47.18698" lon="5.55343">
        <ele>367</ele>
        <time>2017-09-03T09:06:00Z</time>
      </trkpt>
      <trkpt lat="47.187" lon="5.55324">
        <ele>367</ele>
        <time>2017-09-03T09:06:04Z</time>
      </trkpt>
      <trkpt lat="47.18702" lon="5.55301">
        <ele>368</ele>
        <time>2017-09-03T09:06:08Z</time>
      </trkpt>
      <trkpt lat="47.18702" lon="5.55281">
        <ele>368</ele>
        <time>2017-09-03T09:06:12Z</time>
      </trkpt>
      <trkpt lat="47.18698" lon="5.55256">
        <ele>367</ele>
        <time>2017-09-03T09:06:16Z</time>
      </trkpt>
      <trkpt lat="47.18692" lon="5.55223">
        <ele>367</ele>
        <time>2017-09-03T09:06:20Z</time>
      </trkpt>
      <trkpt lat="47.18686" lon="5.55194">
        <ele>367</ele>
        <time>2017-09-03T09:06:24Z</time>
      </trkpt>
      <trkpt lat="47.18685" lon="5.55164">
        <ele>368</ele>
        <time>2017-09-03T09:06:28Z</time>
      </trkpt>
      <trkpt lat="47.18684" lon="5.55139">
        <ele>368</ele>
        <time>2017-09-03T09:06:32Z</time>
      </trkpt>
      <trkpt lat="47.18683" lon="5.55113">
        <ele>368</ele>
        <time>2017-09-03T09:06:36Z</time>
      </trkpt>
      <trkpt lat="47.1868" lon="5.55081">
        <ele>368</ele>
        <time>2017-09-03T09:06:40Z</time>
      </trkpt>
      <trkpt lat="47.18678" lon="5.55053">
        <ele>368</ele>
        <time>2017-09-03T09:06:44Z</time>
      </trkpt>
      <trkpt lat="47.18681" lon="5.55021">
        <ele>368</ele>
        <time>2017-09-03T09:06:48Z</time>
      </trkpt>
      <trkpt lat="47.18687" lon="5.54987">
        <ele>367</ele>
        <time>2017-09-03T09:06:52Z</time>
      </trkpt>
      <trkpt lat="47.18691" lon="5.54959">
        <ele>366</ele>
        <time>2017-09-03T09:06:56Z</time>
      </trkpt>
      <trkpt lat="47.18693" lon="5.54938">
        <ele>365</ele>
        <time>2017-09-03T09:07:00Z</time>
      </trkpt>
      <trkpt lat="47.18704" lon="5.54919">
        <ele>364</ele>
        <time>2017-09-03T09:07:04Z</time>
      </trkpt>
      <trkpt lat="47.18712" lon="5.54907">
        <ele>362</ele>
        <time>2017-09-03T09:07:08Z</time>
      </trkpt>
      <trkpt lat="47.18719" lon="5.54898">
        <ele>359</ele>
        <time>2017-09-03T09:07:12Z</time>
      </trkpt>
      <trkpt lat="47.18722" lon="5.54888">
        <ele>358</ele>
        <time>2017-09-03T09:07:16Z</time>
      </trkpt>
      <trkpt lat="47.18718" lon="5.54882">
        <ele>358</ele>
        <time>2017-09-03T09:07:24Z</time>
      </trkpt>
      <trkpt lat="47.18712" lon="5.54875">
        <ele>359</ele>
        <time>2017-09-03T09:07:28Z</time>
      </trkpt>
      <trkpt lat="47.18708" lon="5.54866">
        <ele>360</ele>
        <time>2017-09-03T09:07:32Z</time>
      </trkpt>
      <trkpt lat="47.18707" lon="5.54856">
        <ele>360</ele>
        <time>2017-09-03T09:07:36Z</time>
      </trkpt>
      <trkpt lat="47.18707" lon="5.54844">
        <ele>360</ele>
        <time>2017-09-03T09:07:40Z</time>
      </trkpt>
      <trkpt lat="47.18707" lon="5.54826">
        <ele>359</ele>
        <time>2017-09-03T09:07:44Z</time>
      </trkpt>
      <trkpt lat="47.18701" lon="5.5477">
        <ele>359</ele>
        <time>2017-09-03T09:07:48Z</time>
      </trkpt>
      <trkpt lat="47.18704" lon="5.54748">
        <ele>358</ele>
        <time>2017-09-03T09:07:52Z</time>
      </trkpt>
      <trkpt lat="47.1871" lon="5.54726">
        <ele>355</ele>
        <time>2017-09-03T09:07:56Z</time>
      </trkpt>
      <trkpt lat="47.18718" lon="5.54707">
        <ele>354</ele>
        <time>2017-09-03T09:08:00Z</time>
      </trkpt>
      <trkpt lat="47.18723" lon="5.54685">
        <ele>354</ele>
        <time>2017-09-03T09:08:04Z</time>
      </trkpt>
      <trkpt lat="47.1872" lon="5.54669">
        <ele>354</ele>
        <time>2017-09-03T09:08:08Z</time>
      </trkpt>
      <trkpt lat="47.1871" lon="5.54653">
        <ele>354</ele>
        <time>2017-09-03T09:08:12Z</time>
      </trkpt>
      <trkpt lat="47.18703" lon="5.54638">
        <ele>354</ele>
        <time>2017-09-03T09:08:16Z</time>
      </trkpt>
      <trkpt lat="47.18698" lon="5.54625">
        <ele>353</ele>
        <time>2017-09-03T09:08:20Z</time>
      </trkpt>
      <trkpt lat="47.18695" lon="5.54613">
        <ele>351</ele>
        <time>2017-09-03T09:08:24Z</time>
      </trkpt>
      <trkpt lat="47.18696" lon="5.54595">
        <ele>351</ele>
        <time>2017-09-03T09:08:28Z</time>
      </trkpt>
      <trkpt lat="47.18698" lon="5.54577">
        <ele>351</ele>
        <time>2017-09-03T09:08:32Z</time>
      </trkpt>
      <trkpt lat="47.18689" lon="5.54563">
        <ele>351</ele>
        <time>2017-09-03T09:08:36Z</time>
      </trkpt>
      <trkpt lat="47.18673" lon="5.54552">
        <ele>351</ele>
        <time>2017-09-03T09:08:40Z</time>
      </trkpt>
      <trkpt lat="47.18654" lon="5.54546">
        <ele>351</ele>
        <time>2017-09-03T09:08:44Z</time>
      </trkpt>
      <trkpt lat="47.1864" lon="5.54543">
        <ele>352</ele>
        <time>2017-09-03T09:08:48Z</time>
      </trkpt>
      <trkpt lat="47.18629" lon="5.54543">
        <ele>353</ele>
        <time>2017-09-03T09:08:52Z</time>
      </trkpt>
      <trkpt lat="47.18619" lon="5.54543">
        <ele>354</ele>
        <time>2017-09-03T09:08:56Z</time>
      </trkpt>
      <trkpt lat="47.18606" lon="5.54545">
        <ele>355</ele>
        <time>2017-09-03T09:09:00Z</time>
      </trkpt>
      <trkpt lat="47.18592" lon="5.54548">
        <ele>356</ele>
        <time>2017-09-03T09:09:04Z</time>
      </trkpt>
      <trkpt lat="47.18573" lon="5.54551">
        <ele>358</ele>
        <time>2017-09-03T09:09:08Z</time>
      </trkpt>
      <trkpt lat="47.18555" lon="5.54555">
        <ele>359</ele>
        <time>2017-09-03T09:09:12Z</time>
      </trkpt>
      <trkpt lat="47.18542" lon="5.5456">
        <ele>360</ele>
        <time>2017-09-03T09:09:16Z</time>
      </trkpt>
      <trkpt lat="47.18531" lon="5.54562">
        <ele>361</ele>
        <time>2017-09-03T09:09:20Z</time>
      </trkpt>
      <trkpt lat="47.18522" lon="5.54563">
        <ele>361</ele>
        <time>2017-09-03T09:09:24Z</time>
      </trkpt>
      <trkpt lat="47.18515" lon="5.54563">
        <ele>361</ele>
        <time>2017-09-03T09:09:28Z</time>
      </trkpt>
      <trkpt lat="47.18491" lon="5.5457">
        <ele>362</ele>
        <time>2017-09-03T09:23:40Z</time>
      </trkpt>
      <trkpt lat="47.18487" lon="5.54569">
        <ele>362</ele>
        <time>2017-09-03T09:23:44Z</time>
      </trkpt>
      <trkpt lat="47.18482" lon="5.54565">
        <ele>362</ele>
        <time>2017-09-03T09:23:49Z</time>
      </trkpt>
      <trkpt lat="47.18477" lon="5.54561">
        <ele>362</ele>
        <time>2017-09-03T09:23:52Z</time>
      </trkpt>
      <trkpt lat="47.18471" lon="5.54553">
        <ele>362</ele>
        <time>2017-09-03T09:23:56Z</time>
      </trkpt>
      <trkpt lat="47.18462" lon="5.54541">
        <ele>361</ele>
        <time>2017-09-03T09:24:00Z</time>
      </trkpt>
      <trkpt lat="47.18453" lon="5.54531">
        <ele>361</ele>
        <time>2017-09-03T09:24:04Z</time>
      </trkpt>
      <trkpt lat="47.18442" lon="5.54519">
        <ele>362</ele>
        <time>2017-09-03T09:24:08Z</time>
      </trkpt>
      <trkpt lat="47.18428" lon="5.54505">
        <ele>361</ele>
        <time>2017-09-03T09:24:12Z</time>
      </trkpt>
      <trkpt lat="47.18413" lon="5.54492">
        <ele>361</ele>
        <time>2017-09-03T09:24:16Z</time>
      </trkpt>
      <trkpt lat="47.18398" lon="5.54475">
        <ele>361</ele>
        <time>2017-09-03T09:24:20Z</time>
      </trkpt>
      <trkpt lat="47.18383" lon="5.54461">
        <ele>361</ele>
        <time>2017-09-03T09:24:24Z</time>
      </trkpt>
      <trkpt lat="47.18369" lon="5.54446">
        <ele>361</ele>
        <time>2017-09-03T09:24:28Z</time>
      </trkpt>
      <trkpt lat="47.18351" lon="5.54429">
        <ele>362</ele>
        <time>2017-09-03T09:24:32Z</time>
      </trkpt>
      <trkpt lat="47.18333" lon="5.54413">
        <ele>362</ele>
        <time>2017-09-03T09:24:36Z</time>
      </trkpt>
      <trkpt lat="47.18316" lon="5.54401">
        <ele>362</ele>
        <time>2017-09-03T09:24:40Z</time>
      </trkpt>
      <trkpt lat="47.18302" lon="5.54392">
        <ele>363</ele>
        <time>2017-09-03T09:24:44Z</time>
      </trkpt>
      <trkpt lat="47.18287" lon="5.54383">
        <ele>363</ele>
        <time>2017-09-03T09:24:48Z</time>
      </trkpt>
      <trkpt lat="47.18272" lon="5.54373">
        <ele>363</ele>
        <time>2017-09-03T09:24:52Z</time>
      </trkpt>
      <trkpt lat="47.18258" lon="5.5436">
        <ele>364</ele>
        <time>2017-09-03T09:24:56Z</time>
      </trkpt>
      <trkpt lat="47.18245" lon="5.54349">
        <ele>365</ele>
        <time>2017-09-03T09:25:00Z</time>
      </trkpt>
      <trkpt lat="47.18233" lon="5.5434">
        <ele>365</ele>
        <time>2017-09-03T09:25:04Z</time>
      </trkpt>
      <trkpt lat="47.1822" lon="5.54328">
        <ele>365</ele>
        <time>2017-09-03T09:25:08Z</time>
      </trkpt>
      <trkpt lat="47.18209" lon="5.54317">
        <ele>365</ele>
        <time>2017-09-03T09:25:12Z</time>
      </trkpt>
      <trkpt lat="47.18196" lon="5.54306">
        <ele>365</ele>
        <time>2017-09-03T09:25:16Z</time>
      </trkpt>
      <trkpt lat="47.18182" lon="5.5429">
        <ele>365</ele>
        <time>2017-09-03T09:25:20Z</time>
      </trkpt>
      <trkpt lat="47.18169" lon="5.54265">
        <ele>365</ele>
        <time>2017-09-03T09:25:24Z</time>
      </trkpt>
      <trkpt lat="47.18157" lon="5.54238">
        <ele>364</ele>
        <time>2017-09-03T09:25:28Z</time>
      </trkpt>
      <trkpt lat="47.18144" lon="5.54209">
        <ele>364</ele>
        <time>2017-09-03T09:25:32Z</time>
      </trkpt>
      <trkpt lat="47.18134" lon="5.54183">
        <ele>364</ele>
        <time>2017-09-03T09:25:36Z</time>
      </trkpt>
      <trkpt lat="47.18125" lon="5.54161">
        <ele>364</ele>
        <time>2017-09-03T09:25:40Z</time>
      </trkpt>
      <trkpt lat="47.18118" lon="5.54141">
        <ele>365</ele>
        <time>2017-09-03T09:25:44Z</time>
      </trkpt>
      <trkpt lat="47.18108" lon="5.54128">
        <ele>365</ele>
        <time>2017-09-03T09:25:48Z</time>
      </trkpt>
      <trkpt lat="47.18098" lon="5.54105">
        <ele>364</ele>
        <time>2017-09-03T09:25:52Z</time>
      </trkpt>
      <trkpt lat="47.18085" lon="5.5408">
        <ele>364</ele>
        <time>2017-09-03T09:25:56Z</time>
      </trkpt>
      <trkpt lat="47.18075" lon="5.54058">
        <ele>364</ele>
        <time>2017-09-03T09:26:00Z</time>
      </trkpt>
      <trkpt lat="47.18066" lon="5.54037">
        <ele>363</ele>
        <time>2017-09-03T09:26:04Z</time>
      </trkpt>
      <trkpt lat="47.18056" lon="5.54012">
        <ele>363</ele>
        <time>2017-09-03T09:26:08Z</time>
      </trkpt>
      <trkpt lat="47.18041" lon="5.53985">
        <ele>363</ele>
        <time>2017-09-03T09:26:12Z</time>
      </trkpt>
      <trkpt lat="47.1803" lon="5.53964">
        <ele>364</ele>
        <time>2017-09-03T09:26:16Z</time>
      </trkpt>
      <trkpt lat="47.18018" lon="5.53942">
        <ele>365</ele>
        <time>2017-09-03T09:26:20Z</time>
      </trkpt>
      <trkpt lat="47.18009" lon="5.5392">
        <ele>365</ele>
        <time>2017-09-03T09:26:24Z</time>
      </trkpt>
      <trkpt lat="47.18001" lon="5.53904">
        <ele>366</ele>
        <time>2017-09-03T09:26:28Z</time>
      </trkpt>
      <trkpt lat="47.17994" lon="5.53887">
        <ele>367</ele>
        <time>2017-09-03T09:26:32Z</time>
      </trkpt>
      <trkpt lat="47.17988" lon="5.53877">
        <ele>368</ele>
        <time>2017-09-03T09:26:36Z</time>
      </trkpt>
      <trkpt lat="47.17981" lon="5.53864">
        <ele>368</ele>
        <time>2017-09-03T09:26:40Z</time>
      </trkpt>
      <trkpt lat="47.17973" lon="5.53851">
        <ele>368</ele>
        <time>2017-09-03T09:26:44Z</time>
      </trkpt>
      <trkpt lat="47.17965" lon="5.53839">
        <ele>368</ele>
        <time>2017-09-03T09:26:48Z</time>
      </trkpt>
      <trkpt lat="47.17953" lon="5.53827">
        <ele>368</ele>
        <time>2017-09-03T09:26:52Z</time>
      </trkpt>
      <trkpt lat="47.17939" lon="5.53814">
        <ele>368</ele>
        <time>2017-09-03T09:26:56Z</time>
      </trkpt>
      <trkpt lat="47.17925" lon="5.53799">
        <ele>368</ele>
        <time>2017-09-03T09:27:00Z</time>
      </trkpt>
      <trkpt lat="47.17907" lon="5.53785">
        <ele>369</ele>
        <time>2017-09-03T09:27:04Z</time>
      </trkpt>
      <trkpt lat="47.1789" lon="5.53773">
        <ele>369</ele>
        <time>2017-09-03T09:27:08Z</time>
      </trkpt>
      <trkpt lat="47.17874" lon="5.53757">
        <ele>369</ele>
        <time>2017-09-03T09:27:12Z</time>
      </trkpt>
      <trkpt lat="47.17857" lon="5.53743">
        <ele>369</ele>
        <time>2017-09-03T09:27:16Z</time>
      </trkpt>
      <trkpt lat="47.17839" lon="5.53727">
        <ele>368</ele>
        <time>2017-09-03T09:27:20Z</time>
      </trkpt>
      <trkpt lat="47.17823" lon="5.53712">
        <ele>367</ele>
        <time>2017-09-03T09:27:24Z</time>
      </trkpt>
      <trkpt lat="47.17803" lon="5.53695">
        <ele>366</ele>
        <time>2017-09-03T09:27:28Z</time>
      </trkpt>
      <trkpt lat="47.17782" lon="5.53675">
        <ele>364</ele>
        <time>2017-09-03T09:27:32Z</time>
      </trkpt>
      <trkpt lat="47.17756" lon="5.53651">
        <ele>364</ele>
        <time>2017-09-03T09:27:36Z</time>
      </trkpt>
      <trkpt lat="47.17731" lon="5.53629">
        <ele>362</ele>
        <time>2017-09-03T09:27:41Z</time>
      </trkpt>
      <trkpt lat="47.1771" lon="5.53609">
        <ele>362</ele>
        <time>2017-09-03T09:27:44Z</time>
      </trkpt>
      <trkpt lat="47.17691" lon="5.53585">
        <ele>362</ele>
        <time>2017-09-03T09:27:48Z</time>
      </trkpt>
      <trkpt lat="47.17675" lon="5.53558">
        <ele>361</ele>
        <time>2017-09-03T09:27:52Z</time>
      </trkpt>
      <trkpt lat="47.17658" lon="5.5353">
        <ele>361</ele>
        <time>2017-09-03T09:27:56Z</time>
      </trkpt>
      <trkpt lat="47.17643" lon="5.53506">
        <ele>361</ele>
        <time>2017-09-03T09:28:00Z</time>
      </trkpt>
      <trkpt lat="47.17631" lon="5.53482">
        <ele>361</ele>
        <time>2017-09-03T09:28:04Z</time>
      </trkpt>
      <trkpt lat="47.17617" lon="5.53456">
        <ele>360</ele>
        <time>2017-09-03T09:28:08Z</time>
      </trkpt>
      <trkpt lat="47.17604" lon="5.5343">
        <ele>360</ele>
        <time>2017-09-03T09:28:12Z</time>
      </trkpt>
      <trkpt lat="47.1759" lon="5.53405">
        <ele>359</ele>
        <time>2017-09-03T09:28:16Z</time>
      </trkpt>
      <trkpt lat="47.17576" lon="5.53377">
        <ele>359</ele>
        <time>2017-09-03T09:28:20Z</time>
      </trkpt>
      <trkpt lat="47.17569" lon="5.53352">
        <ele>359</ele>
        <time>2017-09-03T09:28:24Z</time>
      </trkpt>
      <trkpt lat="47.17564" lon="5.53332">
        <ele>359</ele>
        <time>2017-09-03T09:28:28Z</time>
      </trkpt>
      <trkpt lat="47.17563" lon="5.53306">
        <ele>358</ele>
        <time>2017-09-03T09:28:32Z</time>
      </trkpt>
      <trkpt lat="47.17559" lon="5.53272">
        <ele>357</ele>
        <time>2017-09-03T09:28:36Z</time>
      </trkpt>
      <trkpt lat="47.17561" lon="5.53245">
        <ele>356</ele>
        <time>2017-09-03T09:28:40Z</time>
      </trkpt>
      <trkpt lat="47.17562" lon="5.53213">
        <ele>354</ele>
        <time>2017-09-03T09:28:44Z</time>
      </trkpt>
      <trkpt lat="47.17561" lon="5.53182">
        <ele>354</ele>
        <time>2017-09-03T09:28:48Z</time>
      </trkpt>
      <trkpt lat="47.17553" lon="5.53142">
        <ele>353</ele>
        <time>2017-09-03T09:28:52Z</time>
      </trkpt>
      <trkpt lat="47.17545" lon="5.53104">
        <ele>353</ele>
        <time>2017-09-03T09:28:56Z</time>
      </trkpt>
      <trkpt lat="47.17542" lon="5.53069">
        <ele>353</ele>
        <time>2017-09-03T09:29:00Z</time>
      </trkpt>
      <trkpt lat="47.17544" lon="5.53044">
        <ele>353</ele>
        <time>2017-09-03T09:29:04Z</time>
      </trkpt>
      <trkpt lat="47.17552" lon="5.53025">
        <ele>350</ele>
        <time>2017-09-03T09:29:08Z</time>
      </trkpt>
      <trkpt lat="47.17573" lon="5.53006">
        <ele>347</ele>
        <time>2017-09-03T09:29:12Z</time>
      </trkpt>
      <trkpt lat="47.17593" lon="5.53004">
        <ele>345</ele>
        <time>2017-09-03T09:29:16Z</time>
      </trkpt>
      <trkpt lat="47.17609" lon="5.53014">
        <ele>343</ele>
        <time>2017-09-03T09:29:20Z</time>
      </trkpt>
      <trkpt lat="47.17627" lon="5.53018">
        <ele>341</ele>
        <time>2017-09-03T09:29:24Z</time>
      </trkpt>
      <trkpt lat="47.17649" lon="5.53017">
        <ele>339</ele>
        <time>2017-09-03T09:29:28Z</time>
      </trkpt>
      <trkpt lat="47.17664" lon="5.53008">
        <ele>338</ele>
        <time>2017-09-03T09:29:32Z</time>
      </trkpt>
      <trkpt lat="47.1767" lon="5.52992">
        <ele>335</ele>
        <time>2017-09-03T09:29:36Z</time>
      </trkpt>
      <trkpt lat="47.17677" lon="5.52983">
        <ele>333</ele>
        <time>2017-09-03T09:29:40Z</time>
      </trkpt>
      <trkpt lat="47.17685" lon="5.52976">
        <ele>330</ele>
        <time>2017-09-03T09:29:44Z</time>
      </trkpt>
      <trkpt lat="47.17696" lon="5.5296">
        <ele>331</ele>
        <time>2017-09-03T09:29:48Z</time>
      </trkpt>
      <trkpt lat="47.17708" lon="5.52945">
        <ele>331</ele>
        <time>2017-09-03T09:29:52Z</time>
      </trkpt>
      <trkpt lat="47.17714" lon="5.52934">
        <ele>332</ele>
        <time>2017-09-03T09:29:56Z</time>
      </trkpt>
      <trkpt lat="47.17719" lon="5.52924">
        <ele>333</ele>
        <time>2017-09-03T09:30:00Z</time>
      </trkpt>
      <trkpt lat="47.17722" lon="5.52913">
        <ele>334</ele>
        <time>2017-09-03T09:30:04Z</time>
      </trkpt>
      <trkpt lat="47.17724" lon="5.52901">
        <ele>336</ele>
        <time>2017-09-03T09:30:08Z</time>
      </trkpt>
      <trkpt lat="47.17723" lon="5.52891">
        <ele>337</ele>
        <time>2017-09-03T09:30:12Z</time>
      </trkpt>
      <trkpt lat="47.17725" lon="5.52881">
        <ele>338</ele>
        <time>2017-09-03T09:30:16Z</time>
      </trkpt>
      <trkpt lat="47.17729" lon="5.52872">
        <ele>339</ele>
        <time>2017-09-03T09:30:20Z</time>
      </trkpt>
      <trkpt lat="47.17733" lon="5.52866">
        <ele>339</ele>
        <time>2017-09-03T09:30:24Z</time>
      </trkpt>
      <trkpt lat="47.17735" lon="5.52858">
        <ele>340</ele>
        <time>2017-09-03T09:30:28Z</time>
      </trkpt>
      <trkpt lat="47.17768" lon="5.52796">
        <ele>347</ele>
        <time>2017-09-03T09:31:28Z</time>
      </trkpt>
      <trkpt lat="47.1777" lon="5.52788">
        <ele>347</ele>
        <time>2017-09-03T09:31:32Z</time>
      </trkpt>
      <trkpt lat="47.17773" lon="5.52781">
        <ele>348</ele>
        <time>2017-09-03T09:31:36Z</time>
      </trkpt>
      <trkpt lat="47.17778" lon="5.52772">
        <ele>348</ele>
        <time>2017-09-03T09:31:40Z</time>
      </trkpt>
      <trkpt lat="47.1778" lon="5.52765">
        <ele>348</ele>
        <time>2017-09-03T09:31:44Z</time>
      </trkpt>
      <trkpt lat="47.17783" lon="5.52752">
        <ele>348</ele>
        <time>2017-09-03T09:31:48Z</time>
      </trkpt>
      <trkpt lat="47.17784" lon="5.52735">
        <ele>347</ele>
        <time>2017-09-03T09:31:52Z</time>
      </trkpt>
      <trkpt lat="47.1779" lon="5.52713">
        <ele>345</ele>
        <time>2017-09-03T09:31:56Z</time>
      </trkpt>
      <trkpt lat="47.17796" lon="5.52691">
        <ele>343</ele>
        <time>2017-09-03T09:32:00Z</time>
      </trkpt>
      <trkpt lat="47.17805" lon="5.52668">
        <ele>340</ele>
        <time>2017-09-03T09:32:04Z</time>
      </trkpt>
      <trkpt lat="47.17813" lon="5.52643">
        <ele>337</ele>
        <time>2017-09-03T09:32:08Z</time>
      </trkpt>
      <trkpt lat="47.17824" lon="5.52615">
        <ele>337</ele>
        <time>2017-09-03T09:32:12Z</time>
      </trkpt>
      <trkpt lat="47.1783" lon="5.52597">
        <ele>337</ele>
        <time>2017-09-03T09:32:16Z</time>
      </trkpt>
      <trkpt lat="47.17838" lon="5.52573">
        <ele>334</ele>
        <time>2017-09-03T09:32:20Z</time>
      </trkpt>
      <trkpt lat="47.17849" lon="5.52547">
        <ele>330</ele>
        <time>2017-09-03T09:32:24Z</time>
      </trkpt>
      <trkpt lat="47.17856" lon="5.52523">
        <ele>327</ele>
        <time>2017-09-03T09:32:28Z</time>
      </trkpt>
      <trkpt lat="47.17864" lon="5.52505">
        <ele>324</ele>
        <time>2017-09-03T09:32:32Z</time>
      </trkpt>
      <trkpt lat="47.17872" lon="5.52485">
        <ele>322</ele>
        <time>2017-09-03T09:32:36Z</time>
      </trkpt>
      <trkpt lat="47.17878" lon="5.52463">
        <ele>322</ele>
        <time>2017-09-03T09:32:40Z</time>
      </trkpt>
      <trkpt lat="47.17881" lon="5.52452">
        <ele>324</ele>
        <time>2017-09-03T09:32:44Z</time>
      </trkpt>
      <trkpt lat="47.17885" lon="5.52441">
        <ele>325</ele>
        <time>2017-09-03T09:32:48Z</time>
      </trkpt>
      <trkpt lat="47.17888" lon="5.52428">
        <ele>326</ele>
        <time>2017-09-03T09:32:52Z</time>
      </trkpt>
      <trkpt lat="47.17895" lon="5.52413">
        <ele>325</ele>
        <time>2017-09-03T09:32:56Z</time>
      </trkpt>
      <trkpt lat="47.17904" lon="5.52394">
        <ele>325</ele>
        <time>2017-09-03T09:33:00Z</time>
      </trkpt>
      <trkpt lat="47.17914" lon="5.52377">
        <ele>322</ele>
        <time>2017-09-03T09:33:04Z</time>
      </trkpt>
      <trkpt lat="47.17919" lon="5.52363">
        <ele>321</ele>
        <time>2017-09-03T09:33:08Z</time>
      </trkpt>
      <trkpt lat="47.17918" lon="5.5235">
        <ele>322</ele>
        <time>2017-09-03T09:33:12Z</time>
      </trkpt>
      <trkpt lat="47.17921" lon="5.5233">
        <ele>323</ele>
        <time>2017-09-03T09:33:20Z</time>
      </trkpt>
      <trkpt lat="47.17925" lon="5.52317">
        <ele>324</ele>
        <time>2017-09-03T09:33:24Z</time>
      </trkpt>
      <trkpt lat="47.17929" lon="5.52307">
        <ele>324</ele>
        <time>2017-09-03T09:33:28Z</time>
      </trkpt>
      <trkpt lat="47.17931" lon="5.52297">
        <ele>324</ele>
        <time>2017-09-03T09:33:32Z</time>
      </trkpt>
      <trkpt lat="47.17931" lon="5.52287">
        <ele>323</ele>
        <time>2017-09-03T09:33:36Z</time>
      </trkpt>
      <trkpt lat="47.17936" lon="5.52271">
        <ele>321</ele>
        <time>2017-09-03T09:33:40Z</time>
      </trkpt>
      <trkpt lat="47.17942" lon="5.52247">
        <ele>322</ele>
        <time>2017-09-03T09:33:44Z</time>
      </trkpt>
      <trkpt lat="47.17947" lon="5.52233">
        <ele>323</ele>
        <time>2017-09-03T09:33:48Z</time>
      </trkpt>
      <trkpt lat="47.17951" lon="5.52219">
        <ele>324</ele>
        <time>2017-09-03T09:33:52Z</time>
      </trkpt>
      <trkpt lat="47.17956" lon="5.52207">
        <ele>326</ele>
        <time>2017-09-03T09:33:56Z</time>
      </trkpt>
      <trkpt lat="47.17963" lon="5.52199">
        <ele>326</ele>
        <time>2017-09-03T09:34:00Z</time>
      </trkpt>
      <trkpt lat="47.17975" lon="5.52182">
        <ele>328</ele>
        <time>2017-09-03T09:34:08Z</time>
      </trkpt>
      <trkpt lat="47.17979" lon="5.52174">
        <ele>329</ele>
        <time>2017-09-03T09:34:12Z</time>
      </trkpt>
      <trkpt lat="47.17985" lon="5.52164">
        <ele>330</ele>
        <time>2017-09-03T09:34:16Z</time>
      </trkpt>
      <trkpt lat="47.17987" lon="5.52153">
        <ele>330</ele>
        <time>2017-09-03T09:34:20Z</time>
      </trkpt>
      <trkpt lat="47.17988" lon="5.52143">
        <ele>330</ele>
        <time>2017-09-03T09:34:24Z</time>
      </trkpt>
      <trkpt lat="47.17985" lon="5.52135">
        <ele>331</ele>
        <time>2017-09-03T09:34:28Z</time>
      </trkpt>
      <trkpt lat="47.17981" lon="5.52127">
        <ele>331</ele>
        <time>2017-09-03T09:34:33Z</time>
      </trkpt>
      <trkpt lat="47.17976" lon="5.52119">
        <ele>331</ele>
        <time>2017-09-03T09:34:36Z</time>
      </trkpt>
      <trkpt lat="47.17972" lon="5.5211">
        <ele>332</ele>
        <time>2017-09-03T09:34:40Z</time>
      </trkpt>
      <trkpt lat="47.17969" lon="5.52098">
        <ele>332</ele>
        <time>2017-09-03T09:34:44Z</time>
      </trkpt>
      <trkpt lat="47.17971" lon="5.52086">
        <ele>333</ele>
        <time>2017-09-03T09:34:48Z</time>
      </trkpt>
      <trkpt lat="47.17972" lon="5.52075">
        <ele>334</ele>
        <time>2017-09-03T09:34:52Z</time>
      </trkpt>
      <trkpt lat="47.17975" lon="5.52065">
        <ele>335</ele>
        <time>2017-09-03T09:34:56Z</time>
      </trkpt>
      <trkpt lat="47.17978" lon="5.52058">
        <ele>336</ele>
        <time>2017-09-03T09:35:00Z</time>
      </trkpt>
      <trkpt lat="47.17982" lon="5.5205">
        <ele>337</ele>
        <time>2017-09-03T09:35:04Z</time>
      </trkpt>
      <trkpt lat="47.17988" lon="5.52043">
        <ele>338</ele>
        <time>2017-09-03T09:35:08Z</time>
      </trkpt>
      <trkpt lat="47.17996" lon="5.52042">
        <ele>338</ele>
        <time>2017-09-03T09:35:12Z</time>
      </trkpt>
      <trkpt lat="47.18001" lon="5.52041">
        <ele>338</ele>
        <time>2017-09-03T09:35:16Z</time>
      </trkpt>
      <trkpt lat="47.18003" lon="5.52038">
        <ele>339</ele>
        <time>2017-09-03T09:35:20Z</time>
      </trkpt>
      <trkpt lat="47.18008" lon="5.52032">
        <ele>339</ele>
        <time>2017-09-03T09:35:24Z</time>
      </trkpt>
      <trkpt lat="47.18013" lon="5.52025">
        <ele>340</ele>
        <time>2017-09-03T09:35:28Z</time>
      </trkpt>
      <trkpt lat="47.18019" lon="5.52018">
        <ele>341</ele>
        <time>2017-09-03T09:35:32Z</time>
      </trkpt>
      <trkpt lat="47.18025" lon="5.52011">
        <ele>342</ele>
        <time>2017-09-03T09:35:36Z</time>
      </trkpt>
      <trkpt lat="47.18032" lon="5.52004">
        <ele>343</ele>
        <time>2017-09-03T09:35:40Z</time>
      </trkpt>
      <trkpt lat="47.18038" lon="5.51999">
        <ele>343</ele>
        <time>2017-09-03T09:35:44Z</time>
      </trkpt>
      <trkpt lat="47.18043" lon="5.51997">
        <ele>344</ele>
        <time>2017-09-03T09:35:48Z</time>
      </trkpt>
      <trkpt lat="47.1805" lon="5.51995">
        <ele>345</ele>
        <time>2017-09-03T09:35:52Z</time>
      </trkpt>
      <trkpt lat="47.18057" lon="5.51992">
        <ele>345</ele>
        <time>2017-09-03T09:35:56Z</time>
      </trkpt>
      <trkpt lat="47.18065" lon="5.51987">
        <ele>346</ele>
        <time>2017-09-03T09:36:00Z</time>
      </trkpt>
      <trkpt lat="47.18072" lon="5.5198">
        <ele>347</ele>
        <time>2017-09-03T09:36:04Z</time>
      </trkpt>
      <trkpt lat="47.18077" lon="5.51974">
        <ele>347</ele>
        <time>2017-09-03T09:36:08Z</time>
      </trkpt>
      <trkpt lat="47.18083" lon="5.51967">
        <ele>348</ele>
        <time>2017-09-03T09:36:12Z</time>
      </trkpt>
      <trkpt lat="47.18091" lon="5.51959">
        <ele>349</ele>
        <time>2017-09-03T09:36:16Z</time>
      </trkpt>
      <trkpt lat="47.18096" lon="5.51951">
        <ele>350</ele>
        <time>2017-09-03T09:36:20Z</time>
      </trkpt>
      <trkpt lat="47.18103" lon="5.51941">
        <ele>350</ele>
        <time>2017-09-03T09:36:24Z</time>
      </trkpt>
      <trkpt lat="47.1811" lon="5.51934">
        <ele>350</ele>
        <time>2017-09-03T09:36:28Z</time>
      </trkpt>
      <trkpt lat="47.18117" lon="5.51927">
        <ele>350</ele>
        <time>2017-09-03T09:36:32Z</time>
      </trkpt>
      <trkpt lat="47.1812" lon="5.51916">
        <ele>350</ele>
        <time>2017-09-03T09:36:36Z</time>
      </trkpt>
      <trkpt lat="47.18114" lon="5.51906">
        <ele>351</ele>
        <time>2017-09-03T09:36:40Z</time>
      </trkpt>
      <trkpt lat="47.18108" lon="5.51896">
        <ele>352</ele>
        <time>2017-09-03T09:36:44Z</time>
      </trkpt>
      <trkpt lat="47.18108" lon="5.51889">
        <ele>353</ele>
        <time>2017-09-03T09:36:48Z</time>
      </trkpt>
      <trkpt lat="47.18108" lon="5.51884">
        <ele>354</ele>
        <time>2017-09-03T09:36:52Z</time>
      </trkpt>
      <trkpt lat="47.18105" lon="5.51879">
        <ele>353</ele>
        <time>2017-09-03T09:36:56Z</time>
      </trkpt>
      <trkpt lat="47.18102" lon="5.51879">
        <ele>354</ele>
        <time>2017-09-03T09:37:00Z</time>
      </trkpt>
      <trkpt lat="47.18094" lon="5.51875">
        <ele>353</ele>
        <time>2017-09-03T09:37:04Z</time>
      </trkpt>
      <trkpt lat="47.18087" lon="5.51875">
        <ele>352</ele>
        <time>2017-09-03T09:37:08Z</time>
      </trkpt>
      <trkpt lat="47.18079" lon="5.51876">
        <ele>351</ele>
        <time>2017-09-03T09:37:12Z</time>
      </trkpt>
      <trkpt lat="47.18067" lon="5.51875">
        <ele>351</ele>
        <time>2017-09-03T09:37:16Z</time>
      </trkpt>
      <trkpt lat="47.18056" lon="5.5187">
        <ele>351</ele>
        <time>2017-09-03T09:37:20Z</time>
      </trkpt>
      <trkpt lat="47.18045" lon="5.51865">
        <ele>351</ele>
        <time>2017-09-03T09:37:24Z</time>
      </trkpt>
      <trkpt lat="47.18034" lon="5.51862">
        <ele>350</ele>
        <time>2017-09-03T09:37:28Z</time>
      </trkpt>
      <trkpt lat="47.18025" lon="5.51856">
        <ele>350</ele>
        <time>2017-09-03T09:37:32Z</time>
      </trkpt>
      <trkpt lat="47.18013" lon="5.5185">
        <ele>350</ele>
        <time>2017-09-03T09:37:36Z</time>
      </trkpt>
      <trkpt lat="47.18006" lon="5.51844">
        <ele>350</ele>
        <time>2017-09-03T09:37:40Z</time>
      </trkpt>
      <trkpt lat="47.17994" lon="5.51836">
        <ele>350</ele>
        <time>2017-09-03T09:37:44Z</time>
      </trkpt>
      <trkpt lat="47.17987" lon="5.51828">
        <ele>350</ele>
        <time>2017-09-03T09:37:48Z</time>
      </trkpt>
      <trkpt lat="47.17972" lon="5.51823">
        <ele>349</ele>
        <time>2017-09-03T09:37:52Z</time>
      </trkpt>
      <trkpt lat="47.17957" lon="5.51813">
        <ele>349</ele>
        <time>2017-09-03T09:37:56Z</time>
      </trkpt>
      <trkpt lat="47.17943" lon="5.51804">
        <ele>349</ele>
        <time>2017-09-03T09:38:00Z</time>
      </trkpt>
      <trkpt lat="47.17929" lon="5.51797">
        <ele>348</ele>
        <time>2017-09-03T09:38:04Z</time>
      </trkpt>
      <trkpt lat="47.17914" lon="5.51783">
        <ele>347</ele>
        <time>2017-09-03T09:38:08Z</time>
      </trkpt>
      <trkpt lat="47.17908" lon="5.51769">
        <ele>347</ele>
        <time>2017-09-03T09:38:12Z</time>
      </trkpt>
      <trkpt lat="47.17902" lon="5.51754">
        <ele>348</ele>
        <time>2017-09-03T09:38:16Z</time>
      </trkpt>
      <trkpt lat="47.17897" lon="5.51737">
        <ele>348</ele>
        <time>2017-09-03T09:38:20Z</time>
      </trkpt>
      <trkpt lat="47.17893" lon="5.51722">
        <ele>348</ele>
        <time>2017-09-03T09:38:24Z</time>
      </trkpt>
      <trkpt lat="47.17888" lon="5.51699">
        <ele>348</ele>
        <time>2017-09-03T09:38:28Z</time>
      </trkpt>
      <trkpt lat="47.17879" lon="5.51679">
        <ele>346</ele>
        <time>2017-09-03T09:38:32Z</time>
      </trkpt>
      <trkpt lat="47.17881" lon="5.51643">
        <ele>345</ele>
        <time>2017-09-03T09:38:36Z</time>
      </trkpt>
      <trkpt lat="47.17888" lon="5.51617">
        <ele>344</ele>
        <time>2017-09-03T09:38:40Z</time>
      </trkpt>
      <trkpt lat="47.17894" lon="5.51589">
        <ele>342</ele>
        <time>2017-09-03T09:38:44Z</time>
      </trkpt>
      <trkpt lat="47.17901" lon="5.51564">
        <ele>341</ele>
        <time>2017-09-03T09:38:48Z</time>
      </trkpt>
      <trkpt lat="47.17914" lon="5.51536">
        <ele>339</ele>
        <time>2017-09-03T09:38:52Z</time>
      </trkpt>
      <trkpt lat="47.17928" lon="5.51504">
        <ele>338</ele>
        <time>2017-09-03T09:38:56Z</time>
      </trkpt>
      <trkpt lat="47.17939" lon="5.51475">
        <ele>337</ele>
        <time>2017-09-03T09:39:00Z</time>
      </trkpt>
      <trkpt lat="47.1795" lon="5.51447">
        <ele>335</ele>
        <time>2017-09-03T09:39:04Z</time>
      </trkpt>
      <trkpt lat="47.17962" lon="5.51417">
        <ele>335</ele>
        <time>2017-09-03T09:39:08Z</time>
      </trkpt>
      <trkpt lat="47.17971" lon="5.51379">
        <ele>334</ele>
        <time>2017-09-03T09:39:12Z</time>
      </trkpt>
      <trkpt lat="47.17983" lon="5.51351">
        <ele>334</ele>
        <time>2017-09-03T09:39:16Z</time>
      </trkpt>
      <trkpt lat="47.17991" lon="5.51321">
        <ele>333</ele>
        <time>2017-09-03T09:39:20Z</time>
      </trkpt>
      <trkpt lat="47.17998" lon="5.51296">
        <ele>333</ele>
        <time>2017-09-03T09:39:24Z</time>
      </trkpt>
      <trkpt lat="47.17999" lon="5.51263">
        <ele>333</ele>
        <time>2017-09-03T09:39:28Z</time>
      </trkpt>
      <trkpt lat="47.18004" lon="5.51223">
        <ele>333</ele>
        <time>2017-09-03T09:39:32Z</time>
      </trkpt>
      <trkpt lat="47.18004" lon="5.51194">
        <ele>332</ele>
        <time>2017-09-03T09:39:36Z</time>
      </trkpt>
      <trkpt lat="47.17999" lon="5.51171">
        <ele>332</ele>
        <time>2017-09-03T09:39:40Z</time>
      </trkpt>
      <trkpt lat="47.18002" lon="5.51144">
        <ele>332</ele>
        <time>2017-09-03T09:39:44Z</time>
      </trkpt>
      <trkpt lat="47.18005" lon="5.51114">
        <ele>330</ele>
        <time>2017-09-03T09:39:48Z</time>
      </trkpt>
      <trkpt lat="47.18008" lon="5.51088">
        <ele>329</ele>
        <time>2017-09-03T09:39:52Z</time>
      </trkpt>
      <trkpt lat="47.17993" lon="5.51045">
        <ele>330</ele>
        <time>2017-09-03T09:40:16Z</time>
      </trkpt>
      <trkpt lat="47.17994" lon="5.51039">
        <ele>330</ele>
        <time>2017-09-03T09:40:20Z</time>
      </trkpt>
      <trkpt lat="47.17996" lon="5.51023">
        <ele>329</ele>
        <time>2017-09-03T09:40:24Z</time>
      </trkpt>
      <trkpt lat="47.18002" lon="5.51">
        <ele>327</ele>
        <time>2017-09-03T09:40:28Z</time>
      </trkpt>
      <trkpt lat="47.18006" lon="5.50978">
        <ele>326</ele>
        <time>2017-09-03T09:40:32Z</time>
      </trkpt>
      <trkpt lat="47.18009" lon="5.5096">
        <ele>325</ele>
        <time>2017-09-03T09:40:36Z</time>
      </trkpt>
      <trkpt lat="47.1801" lon="5.50939">
        <ele>324</ele>
        <time>2017-09-03T09:40:40Z</time>
      </trkpt>
      <trkpt lat="47.1801" lon="5.50919">
        <ele>324</ele>
        <time>2017-09-03T09:40:44Z</time>
      </trkpt>
      <trkpt lat="47.18013" lon="5.50894">
        <ele>325</ele>
        <time>2017-09-03T09:40:48Z</time>
      </trkpt>
      <trkpt lat="47.18013" lon="5.5087">
        <ele>325</ele>
        <time>2017-09-03T09:40:52Z</time>
      </trkpt>
      <trkpt lat="47.1801" lon="5.50852">
        <ele>325</ele>
        <time>2017-09-03T09:40:56Z</time>
      </trkpt>
      <trkpt lat="47.18008" lon="5.50826">
        <ele>325</ele>
        <time>2017-09-03T09:41:00Z</time>
      </trkpt>
      <trkpt lat="47.18008" lon="5.50806">
        <ele>326</ele>
        <time>2017-09-03T09:41:04Z</time>
      </trkpt>
      <trkpt lat="47.18006" lon="5.50788">
        <ele>325</ele>
        <time>2017-09-03T09:41:08Z</time>
      </trkpt>
      <trkpt lat="47.18006" lon="5.5077">
        <ele>323</ele>
        <time>2017-09-03T09:41:12Z</time>
      </trkpt>
      <trkpt lat="47.18002" lon="5.50746">
        <ele>321</ele>
        <time>2017-09-03T09:41:16Z</time>
      </trkpt>
      <trkpt lat="47.18004" lon="5.50719">
        <ele>318</ele>
        <time>2017-09-03T09:41:20Z</time>
      </trkpt>
      <trkpt lat="47.18008" lon="5.50685">
        <ele>316</ele>
        <time>2017-09-03T09:41:24Z</time>
      </trkpt>
      <trkpt lat="47.18011" lon="5.50649">
        <ele>313</ele>
        <time>2017-09-03T09:41:28Z</time>
      </trkpt>
      <trkpt lat="47.18012" lon="5.50619">
        <ele>308</ele>
        <time>2017-09-03T09:41:32Z</time>
      </trkpt>
      <trkpt lat="47.18006" lon="5.50587">
        <ele>305</ele>
        <time>2017-09-03T09:41:36Z</time>
      </trkpt>
      <trkpt lat="47.17994" lon="5.50568">
        <ele>304</ele>
        <time>2017-09-03T09:41:40Z</time>
      </trkpt>
      <trkpt lat="47.17978" lon="5.5055">
        <ele>304</ele>
        <time>2017-09-03T09:41:44Z</time>
      </trkpt>
      <trkpt lat="47.17958" lon="5.5053">
        <ele>304</ele>
        <time>2017-09-03T09:41:48Z</time>
      </trkpt>
      <trkpt lat="47.17937" lon="5.50511">
        <ele>303</ele>
        <time>2017-09-03T09:41:52Z</time>
      </trkpt>
      <trkpt lat="47.17921" lon="5.50499">
        <ele>303</ele>
        <time>2017-09-03T09:41:56Z</time>
      </trkpt>
      <trkpt lat="47.17905" lon="5.50483">
        <ele>301</ele>
        <time>2017-09-03T09:42:00Z</time>
      </trkpt>
      <trkpt lat="47.17885" lon="5.50468">
        <ele>297</ele>
        <time>2017-09-03T09:42:04Z</time>
      </trkpt>
      <trkpt lat="47.17868" lon="5.50456">
        <ele>292</ele>
        <time>2017-09-03T09:42:08Z</time>
      </trkpt>
      <trkpt lat="47.17852" lon="5.50445">
        <ele>287</ele>
        <time>2017-09-03T09:42:12Z</time>
      </trkpt>
      <trkpt lat="47.17838" lon="5.50432">
        <ele>285</ele>
        <time>2017-09-03T09:42:16Z</time>
      </trkpt>
      <trkpt lat="47.17818" lon="5.50418">
        <ele>281</ele>
        <time>2017-09-03T09:42:20Z</time>
      </trkpt>
      <trkpt lat="47.17809" lon="5.50424">
        <ele>280</ele>
        <time>2017-09-03T09:42:24Z</time>
      </trkpt>
      <trkpt lat="47.17801" lon="5.50427">
        <ele>280</ele>
        <time>2017-09-03T09:42:28Z</time>
      </trkpt>
      <trkpt lat="47.17794" lon="5.50433">
        <ele>281</ele>
        <time>2017-09-03T09:42:32Z</time>
      </trkpt>
      <trkpt lat="47.17788" lon="5.50438">
        <ele>281</ele>
        <time>2017-09-03T09:42:36Z</time>
      </trkpt>
      <trkpt lat="47.17781" lon="5.50448">
        <ele>282</ele>
        <time>2017-09-03T09:42:40Z</time>
      </trkpt>
      <trkpt lat="47.17774" lon="5.50458">
        <ele>282</ele>
        <time>2017-09-03T09:42:44Z</time>
      </trkpt>
      <trkpt lat="47.17766" lon="5.50469">
        <ele>283</ele>
        <time>2017-09-03T09:42:48Z</time>
      </trkpt>
      <trkpt lat="47.17761" lon="5.50477">
        <ele>283</ele>
        <time>2017-09-03T09:42:52Z</time>
      </trkpt>
      <trkpt lat="47.1775" lon="5.50491">
        <ele>283</ele>
        <time>2017-09-03T09:42:56Z</time>
      </trkpt>
      <trkpt lat="47.1774" lon="5.50509">
        <ele>284</ele>
        <time>2017-09-03T09:43:00Z</time>
      </trkpt>
      <trkpt lat="47.17728" lon="5.50529">
        <ele>284</ele>
        <time>2017-09-03T09:43:04Z</time>
      </trkpt>
      <trkpt lat="47.17717" lon="5.50546">
        <ele>284</ele>
        <time>2017-09-03T09:43:08Z</time>
      </trkpt>
      <trkpt lat="47.17708" lon="5.50562">
        <ele>283</ele>
        <time>2017-09-03T09:43:12Z</time>
      </trkpt>
      <trkpt lat="47.177" lon="5.5058">
        <ele>283</ele>
        <time>2017-09-03T09:43:16Z</time>
      </trkpt>
      <trkpt lat="47.17691" lon="5.50597">
        <ele>283</ele>
        <time>2017-09-03T09:43:20Z</time>
      </trkpt>
      <trkpt lat="47.17682" lon="5.50613">
        <ele>283</ele>
        <time>2017-09-03T09:43:24Z</time>
      </trkpt>
      <trkpt lat="47.17671" lon="5.50632">
        <ele>283</ele>
        <time>2017-09-03T09:43:28Z</time>
      </trkpt>
      <trkpt lat="47.1766" lon="5.50657">
        <ele>284</ele>
        <time>2017-09-03T09:43:32Z</time>
      </trkpt>
      <trkpt lat="47.17651" lon="5.50678">
        <ele>284</ele>
        <time>2017-09-03T09:43:36Z</time>
      </trkpt>
      <trkpt lat="47.17645" lon="5.50698">
        <ele>285</ele>
        <time>2017-09-03T09:43:40Z</time>
      </trkpt>
      <trkpt lat="47.17641" lon="5.50713">
        <ele>286</ele>
        <time>2017-09-03T09:43:44Z</time>
      </trkpt>
      <trkpt lat="47.17638" lon="5.50727">
        <ele>288</ele>
        <time>2017-09-03T09:43:48Z</time>
      </trkpt>
      <trkpt lat="47.17635" lon="5.50741">
        <ele>288</ele>
        <time>2017-09-03T09:43:52Z</time>
      </trkpt>
      <trkpt lat="47.1763" lon="5.50755">
        <ele>289</ele>
        <time>2017-09-03T09:43:56Z</time>
      </trkpt>
      <trkpt lat="47.17626" lon="5.50769">
        <ele>290</ele>
        <time>2017-09-03T09:44:00Z</time>
      </trkpt>
      <trkpt lat="47.1762" lon="5.50786">
        <ele>290</ele>
        <time>2017-09-03T09:44:04Z</time>
      </trkpt>
      <trkpt lat="47.17614" lon="5.508">
        <ele>291</ele>
        <time>2017-09-03T09:44:08Z</time>
      </trkpt>
      <trkpt lat="47.17609" lon="5.50817">
        <ele>291</ele>
        <time>2017-09-03T09:44:12Z</time>
      </trkpt>
      <trkpt lat="47.17598" lon="5.50836">
        <ele>290</ele>
        <time>2017-09-03T09:44:16Z</time>
      </trkpt>
      <trkpt lat="47.17583" lon="5.50852">
        <ele>289</ele>
        <time>2017-09-03T09:44:20Z</time>
      </trkpt>
      <trkpt lat="47.17565" lon="5.50875">
        <ele>288</ele>
        <time>2017-09-03T09:44:24Z</time>
      </trkpt>
      <trkpt lat="47.17553" lon="5.50901">
        <ele>286</ele>
        <time>2017-09-03T09:44:28Z</time>
      </trkpt>
      <trkpt lat="47.1754" lon="5.50939">
        <ele>284</ele>
        <time>2017-09-03T09:44:32Z</time>
      </trkpt>
      <trkpt lat="47.17533" lon="5.50969">
        <ele>285</ele>
        <time>2017-09-03T09:44:36Z</time>
      </trkpt>
      <trkpt lat="47.17526" lon="5.50996">
        <ele>285</ele>
        <time>2017-09-03T09:44:40Z</time>
      </trkpt>
      <trkpt lat="47.17517" lon="5.5102">
        <ele>284</ele>
        <time>2017-09-03T09:44:44Z</time>
      </trkpt>
      <trkpt lat="47.17509" lon="5.51045">
        <ele>284</ele>
        <time>2017-09-03T09:44:48Z</time>
      </trkpt>
      <trkpt lat="47.17504" lon="5.5107">
        <ele>285</ele>
        <time>2017-09-03T09:44:52Z</time>
      </trkpt>
      <trkpt lat="47.17496" lon="5.51092">
        <ele>285</ele>
        <time>2017-09-03T09:44:56Z</time>
      </trkpt>
      <trkpt lat="47.17489" lon="5.51107">
        <ele>285</ele>
        <time>2017-09-03T09:45:00Z</time>
      </trkpt>
      <trkpt lat="47.17477" lon="5.51126">
        <ele>286</ele>
        <time>2017-09-03T09:45:04Z</time>
      </trkpt>
      <trkpt lat="47.17465" lon="5.51138">
        <ele>286</ele>
        <time>2017-09-03T09:45:08Z</time>
      </trkpt>
      <trkpt lat="47.17451" lon="5.51143">
        <ele>287</ele>
        <time>2017-09-03T09:45:12Z</time>
      </trkpt>
      <trkpt lat="47.17439" lon="5.5115">
        <ele>288</ele>
        <time>2017-09-03T09:45:16Z</time>
      </trkpt>
      <trkpt lat="47.17427" lon="5.51158">
        <ele>289</ele>
        <time>2017-09-03T09:45:20Z</time>
      </trkpt>
      <trkpt lat="47.17417" lon="5.51168">
        <ele>289</ele>
        <time>2017-09-03T09:45:24Z</time>
      </trkpt>
      <trkpt lat="47.17404" lon="5.51178">
        <ele>289</ele>
        <time>2017-09-03T09:45:28Z</time>
      </trkpt>
      <trkpt lat="47.17386" lon="5.51189">
        <ele>289</ele>
        <time>2017-09-03T09:45:32Z</time>
      </trkpt>
      <trkpt lat="47.17368" lon="5.51202">
        <ele>288</ele>
        <time>2017-09-03T09:45:36Z</time>
      </trkpt>
      <trkpt lat="47.17353" lon="5.51214">
        <ele>288</ele>
        <time>2017-09-03T09:45:40Z</time>
      </trkpt>
      <trkpt lat="47.17336" lon="5.51228">
        <ele>288</ele>
        <time>2017-09-03T09:45:44Z</time>
      </trkpt>
      <trkpt lat="47.17317" lon="5.51243">
        <ele>287</ele>
        <time>2017-09-03T09:45:48Z</time>
      </trkpt>
      <trkpt lat="47.17298" lon="5.51259">
        <ele>285</ele>
        <time>2017-09-03T09:45:52Z</time>
      </trkpt>
      <trkpt lat="47.17276" lon="5.51281">
        <ele>285</ele>
        <time>2017-09-03T09:45:56Z</time>
      </trkpt>
      <trkpt lat="47.17253" lon="5.513">
        <ele>285</ele>
        <time>2017-09-03T09:46:00Z</time>
      </trkpt>
      <trkpt lat="47.17233" lon="5.51322">
        <ele>285</ele>
        <time>2017-09-03T09:46:04Z</time>
      </trkpt>
      <trkpt lat="47.17214" lon="5.51342">
        <ele>285</ele>
        <time>2017-09-03T09:46:08Z</time>
      </trkpt>
      <trkpt lat="47.17199" lon="5.51365">
        <ele>285</ele>
        <time>2017-09-03T09:46:12Z</time>
      </trkpt>
      <trkpt lat="47.17188" lon="5.51393">
        <ele>284</ele>
        <time>2017-09-03T09:46:16Z</time>
      </trkpt>
      <trkpt lat="47.17171" lon="5.51425">
        <ele>283</ele>
        <time>2017-09-03T09:46:20Z</time>
      </trkpt>
      <trkpt lat="47.17149" lon="5.51444">
        <ele>282</ele>
        <time>2017-09-03T09:46:24Z</time>
      </trkpt>
      <trkpt lat="47.17121" lon="5.5145">
        <ele>281</ele>
        <time>2017-09-03T09:46:28Z</time>
      </trkpt>
      <trkpt lat="47.17095" lon="5.51439">
        <ele>281</ele>
        <time>2017-09-03T09:46:32Z</time>
      </trkpt>
      <trkpt lat="47.17072" lon="5.51438">
        <ele>282</ele>
        <time>2017-09-03T09:46:37Z</time>
      </trkpt>
      <trkpt lat="47.17046" lon="5.51448">
        <ele>282</ele>
        <time>2017-09-03T09:46:40Z</time>
      </trkpt>
      <trkpt lat="47.17023" lon="5.51459">
        <ele>282</ele>
        <time>2017-09-03T09:46:44Z</time>
      </trkpt>
      <trkpt lat="47.17006" lon="5.51473">
        <ele>283</ele>
        <time>2017-09-03T09:46:48Z</time>
      </trkpt>
      <trkpt lat="47.16991" lon="5.51484">
        <ele>283</ele>
        <time>2017-09-03T09:46:52Z</time>
      </trkpt>
      <trkpt lat="47.16971" lon="5.51491">
        <ele>284</ele>
        <time>2017-09-03T09:46:56Z</time>
      </trkpt>
      <trkpt lat="47.16951" lon="5.51498">
        <ele>284</ele>
        <time>2017-09-03T09:47:00Z</time>
      </trkpt>
      <trkpt lat="47.16927" lon="5.51504">
        <ele>283</ele>
        <time>2017-09-03T09:47:04Z</time>
      </trkpt>
      <trkpt lat="47.16908" lon="5.51498">
        <ele>282</ele>
        <time>2017-09-03T09:47:08Z</time>
      </trkpt>
      <trkpt lat="47.16893" lon="5.51491">
        <ele>282</ele>
        <time>2017-09-03T09:47:12Z</time>
      </trkpt>
      <trkpt lat="47.16875" lon="5.51495">
        <ele>282</ele>
        <time>2017-09-03T09:47:16Z</time>
      </trkpt>
      <trkpt lat="47.16852" lon="5.51498">
        <ele>282</ele>
        <time>2017-09-03T09:47:20Z</time>
      </trkpt>
      <trkpt lat="47.16827" lon="5.51504">
        <ele>282</ele>
        <time>2017-09-03T09:47:24Z</time>
      </trkpt>
      <trkpt lat="47.16807" lon="5.5151">
        <ele>283</ele>
        <time>2017-09-03T09:47:28Z</time>
      </trkpt>
      <trkpt lat="47.16786" lon="5.51518">
        <ele>283</ele>
        <time>2017-09-03T09:47:32Z</time>
      </trkpt>
      <trkpt lat="47.16763" lon="5.51518">
        <ele>283</ele>
        <time>2017-09-03T09:47:36Z</time>
      </trkpt>
      <trkpt lat="47.16744" lon="5.51511">
        <ele>283</ele>
        <time>2017-09-03T09:47:40Z</time>
      </trkpt>
      <trkpt lat="47.16728" lon="5.51498">
        <ele>283</ele>
        <time>2017-09-03T09:47:44Z</time>
      </trkpt>
      <trkpt lat="47.16712" lon="5.51485">
        <ele>284</ele>
        <time>2017-09-03T09:47:48Z</time>
      </trkpt>
      <trkpt lat="47.16698" lon="5.51475">
        <ele>285</ele>
        <time>2017-09-03T09:47:52Z</time>
      </trkpt>
      <trkpt lat="47.16686" lon="5.51466">
        <ele>285</ele>
        <time>2017-09-03T09:47:56Z</time>
      </trkpt>
      <trkpt lat="47.16675" lon="5.51457">
        <ele>286</ele>
        <time>2017-09-03T09:48:00Z</time>
      </trkpt>
      <trkpt lat="47.16664" lon="5.51445">
        <ele>287</ele>
        <time>2017-09-03T09:48:04Z</time>
      </trkpt>
      <trkpt lat="47.16654" lon="5.51435">
        <ele>288</ele>
        <time>2017-09-03T09:48:08Z</time>
      </trkpt>
      <trkpt lat="47.16646" lon="5.51422">
        <ele>288</ele>
        <time>2017-09-03T09:48:12Z</time>
      </trkpt>
      <trkpt lat="47.1664" lon="5.51409">
        <ele>289</ele>
        <time>2017-09-03T09:48:16Z</time>
      </trkpt>
      <trkpt lat="47.16636" lon="5.51393">
        <ele>289</ele>
        <time>2017-09-03T09:48:20Z</time>
      </trkpt>
      <trkpt lat="47.16633" lon="5.51376">
        <ele>289</ele>
        <time>2017-09-03T09:48:24Z</time>
      </trkpt>
      <trkpt lat="47.1663" lon="5.51359">
        <ele>290</ele>
        <time>2017-09-03T09:48:28Z</time>
      </trkpt>
      <trkpt lat="47.16627" lon="5.5134">
        <ele>290</ele>
        <time>2017-09-03T09:48:32Z</time>
      </trkpt>
      <trkpt lat="47.16625" lon="5.51323">
        <ele>291</ele>
        <time>2017-09-03T09:48:36Z</time>
      </trkpt>
      <trkpt lat="47.16623" lon="5.51305">
        <ele>291</ele>
        <time>2017-09-03T09:48:40Z</time>
      </trkpt>
      <trkpt lat="47.16621" lon="5.51287">
        <ele>291</ele>
        <time>2017-09-03T09:48:44Z</time>
      </trkpt>
      <trkpt lat="47.16617" lon="5.5127">
        <ele>291</ele>
        <time>2017-09-03T09:48:48Z</time>
      </trkpt>
      <trkpt lat="47.16613" lon="5.51253">
        <ele>292</ele>
        <time>2017-09-03T09:48:52Z</time>
      </trkpt>
      <trkpt lat="47.16608" lon="5.51237">
        <ele>292</ele>
        <time>2017-09-03T09:48:56Z</time>
      </trkpt>
      <trkpt lat="47.16601" lon="5.5122">
        <ele>292</ele>
        <time>2017-09-03T09:49:00Z</time>
      </trkpt>
      <trkpt lat="47.16593" lon="5.51203">
        <ele>292</ele>
        <time>2017-09-03T09:49:04Z</time>
      </trkpt>
      <trkpt lat="47.16586" lon="5.51187">
        <ele>292</ele>
        <time>2017-09-03T09:49:08Z</time>
      </trkpt>
      <trkpt lat="47.16578" lon="5.5117">
        <ele>293</ele>
        <time>2017-09-03T09:49:12Z</time>
      </trkpt>
      <trkpt lat="47.16571" lon="5.51152">
        <ele>293</ele>
        <time>2017-09-03T09:49:16Z</time>
      </trkpt>
      <trkpt lat="47.16565" lon="5.51135">
        <ele>293</ele>
        <time>2017-09-03T09:49:20Z</time>
      </trkpt>
      <trkpt lat="47.16558" lon="5.51117">
        <ele>293</ele>
        <time>2017-09-03T09:49:24Z</time>
      </trkpt>
      <trkpt lat="47.16554" lon="5.51095">
        <ele>293</ele>
        <time>2017-09-03T09:49:28Z</time>
      </trkpt>
      <trkpt lat="47.1655" lon="5.51077">
        <ele>293</ele>
        <time>2017-09-03T09:49:32Z</time>
      </trkpt>
      <trkpt lat="47.16544" lon="5.51059">
        <ele>293</ele>
        <time>2017-09-03T09:49:36Z</time>
      </trkpt>
      <trkpt lat="47.16537" lon="5.51039">
        <ele>293</ele>
        <time>2017-09-03T09:49:40Z</time>
      </trkpt>
      <trkpt lat="47.16529" lon="5.51019">
        <ele>293</ele>
        <time>2017-09-03T09:49:44Z</time>
      </trkpt>
      <trkpt lat="47.16522" lon="5.51002">
        <ele>294</ele>
        <time>2017-09-03T09:49:48Z</time>
      </trkpt>
      <trkpt lat="47.16513" lon="5.50984">
        <ele>294</ele>
        <time>2017-09-03T09:49:52Z</time>
      </trkpt>
      <trkpt lat="47.16505" lon="5.50966">
        <ele>294</ele>
        <time>2017-09-03T09:49:56Z</time>
      </trkpt>
      <trkpt lat="47.16498" lon="5.50949">
        <ele>295</ele>
        <time>2017-09-03T09:50:00Z</time>
      </trkpt>
      <trkpt lat="47.16493" lon="5.50934">
        <ele>295</ele>
        <time>2017-09-03T09:50:04Z</time>
      </trkpt>
      <trkpt lat="47.16487" lon="5.50918">
        <ele>296</ele>
        <time>2017-09-03T09:50:08Z</time>
      </trkpt>
      <trkpt lat="47.16481" lon="5.50903">
        <ele>296</ele>
        <time>2017-09-03T09:50:12Z</time>
      </trkpt>
      <trkpt lat="47.16475" lon="5.50886">
        <ele>296</ele>
        <time>2017-09-03T09:50:16Z</time>
      </trkpt>
      <trkpt lat="47.16468" lon="5.5087">
        <ele>297</ele>
        <time>2017-09-03T09:50:21Z</time>
      </trkpt>
      <trkpt lat="47.16462" lon="5.50855">
        <ele>297</ele>
        <time>2017-09-03T09:50:24Z</time>
      </trkpt>
      <trkpt lat="47.16455" lon="5.50841">
        <ele>297</ele>
        <time>2017-09-03T09:50:28Z</time>
      </trkpt>
      <trkpt lat="47.16449" lon="5.50827">
        <ele>298</ele>
        <time>2017-09-03T09:50:32Z</time>
      </trkpt>
      <trkpt lat="47.16441" lon="5.50813">
        <ele>298</ele>
        <time>2017-09-03T09:50:36Z</time>
      </trkpt>
      <trkpt lat="47.16432" lon="5.508">
        <ele>299</ele>
        <time>2017-09-03T09:50:40Z</time>
      </trkpt>
      <trkpt lat="47.16425" lon="5.50788">
        <ele>299</ele>
        <time>2017-09-03T09:50:44Z</time>
      </trkpt>
      <trkpt lat="47.16418" lon="5.50776">
        <ele>300</ele>
        <time>2017-09-03T09:50:48Z</time>
      </trkpt>
      <trkpt lat="47.16412" lon="5.50763">
        <ele>301</ele>
        <time>2017-09-03T09:50:52Z</time>
      </trkpt>
      <trkpt lat="47.16407" lon="5.50749">
        <ele>302</ele>
        <time>2017-09-03T09:50:56Z</time>
      </trkpt>
      <trkpt lat="47.16402" lon="5.50734">
        <ele>302</ele>
        <time>2017-09-03T09:51:00Z</time>
      </trkpt>
      <trkpt lat="47.16398" lon="5.5072">
        <ele>303</ele>
        <time>2017-09-03T09:51:04Z</time>
      </trkpt>
      <trkpt lat="47.16394" lon="5.50708">
        <ele>304</ele>
        <time>2017-09-03T09:51:08Z</time>
      </trkpt>
      <trkpt lat="47.16388" lon="5.50695">
        <ele>305</ele>
        <time>2017-09-03T09:51:12Z</time>
      </trkpt>
      <trkpt lat="47.16381" lon="5.50684">
        <ele>306</ele>
        <time>2017-09-03T09:51:16Z</time>
      </trkpt>
      <trkpt lat="47.16375" lon="5.50672">
        <ele>306</ele>
        <time>2017-09-03T09:51:20Z</time>
      </trkpt>
      <trkpt lat="47.16368" lon="5.50661">
        <ele>307</ele>
        <time>2017-09-03T09:51:24Z</time>
      </trkpt>
      <trkpt lat="47.16362" lon="5.50651">
        <ele>308</ele>
        <time>2017-09-03T09:51:28Z</time>
      </trkpt>
      <trkpt lat="47.16358" lon="5.50639">
        <ele>309</ele>
        <time>2017-09-03T09:51:32Z</time>
      </trkpt>
      <trkpt lat="47.16354" lon="5.50628">
        <ele>309</ele>
        <time>2017-09-03T09:51:36Z</time>
      </trkpt>
      <trkpt lat="47.1635" lon="5.50616">
        <ele>310</ele>
        <time>2017-09-03T09:51:40Z</time>
      </trkpt>
      <trkpt lat="47.16346" lon="5.50605">
        <ele>310</ele>
        <time>2017-09-03T09:51:44Z</time>
      </trkpt>
      <trkpt lat="47.16342" lon="5.50592">
        <ele>311</ele>
        <time>2017-09-03T09:51:48Z</time>
      </trkpt>
      <trkpt lat="47.16338" lon="5.50579">
        <ele>311</ele>
        <time>2017-09-03T09:51:52Z</time>
      </trkpt>
      <trkpt lat="47.16333" lon="5.50566">
        <ele>312</ele>
        <time>2017-09-03T09:51:56Z</time>
      </trkpt>
      <trkpt lat="47.16328" lon="5.50554">
        <ele>313</ele>
        <time>2017-09-03T09:52:00Z</time>
      </trkpt>
      <trkpt lat="47.16322" lon="5.5054">
        <ele>313</ele>
        <time>2017-09-03T09:52:04Z</time>
      </trkpt>
      <trkpt lat="47.16317" lon="5.50525">
        <ele>313</ele>
        <time>2017-09-03T09:52:08Z</time>
      </trkpt>
      <trkpt lat="47.16311" lon="5.50511">
        <ele>313</ele>
        <time>2017-09-03T09:52:12Z</time>
      </trkpt>
      <trkpt lat="47.16305" lon="5.50496">
        <ele>313</ele>
        <time>2017-09-03T09:52:16Z</time>
      </trkpt>
      <trkpt lat="47.163" lon="5.5048">
        <ele>313</ele>
        <time>2017-09-03T09:52:20Z</time>
      </trkpt>
      <trkpt lat="47.16294" lon="5.50463">
        <ele>314</ele>
        <time>2017-09-03T09:52:24Z</time>
      </trkpt>
      <trkpt lat="47.16289" lon="5.50447">
        <ele>314</ele>
        <time>2017-09-03T09:52:28Z</time>
      </trkpt>
      <trkpt lat="47.16284" lon="5.5043">
        <ele>315</ele>
        <time>2017-09-03T09:52:32Z</time>
      </trkpt>
      <trkpt lat="47.16279" lon="5.50414">
        <ele>315</ele>
        <time>2017-09-03T09:52:36Z</time>
      </trkpt>
      <trkpt lat="47.16275" lon="5.50397">
        <ele>316</ele>
        <time>2017-09-03T09:52:40Z</time>
      </trkpt>
      <trkpt lat="47.16272" lon="5.5038">
        <ele>316</ele>
        <time>2017-09-03T09:52:44Z</time>
      </trkpt>
      <trkpt lat="47.16271" lon="5.50363">
        <ele>316</ele>
        <time>2017-09-03T09:52:48Z</time>
      </trkpt>
      <trkpt lat="47.1627" lon="5.50342">
        <ele>316</ele>
        <time>2017-09-03T09:52:52Z</time>
      </trkpt>
      <trkpt lat="47.16269" lon="5.50317">
        <ele>315</ele>
        <time>2017-09-03T09:52:56Z</time>
      </trkpt>
      <trkpt lat="47.16262" lon="5.50296">
        <ele>314</ele>
        <time>2017-09-03T09:53:00Z</time>
      </trkpt>
      <trkpt lat="47.1625" lon="5.50289">
        <ele>314</ele>
        <time>2017-09-03T09:53:04Z</time>
      </trkpt>
      <trkpt lat="47.16242" lon="5.50285">
        <ele>315</ele>
        <time>2017-09-03T09:53:08Z</time>
      </trkpt>
      <trkpt lat="47.16232" lon="5.5028">
        <ele>315</ele>
        <time>2017-09-03T09:53:12Z</time>
      </trkpt>
      <trkpt lat="47.16222" lon="5.50277">
        <ele>315</ele>
        <time>2017-09-03T09:53:16Z</time>
      </trkpt>
      <trkpt lat="47.1621" lon="5.50272">
        <ele>315</ele>
        <time>2017-09-03T09:53:20Z</time>
      </trkpt>
      <trkpt lat="47.16198" lon="5.50268">
        <ele>315</ele>
        <time>2017-09-03T09:53:24Z</time>
      </trkpt>
      <trkpt lat="47.16186" lon="5.50264">
        <ele>315</ele>
        <time>2017-09-03T09:53:28Z</time>
      </trkpt>
      <trkpt lat="47.16172" lon="5.50258">
        <ele>315</ele>
        <time>2017-09-03T09:53:32Z</time>
      </trkpt>
      <trkpt lat="47.16158" lon="5.50251">
        <ele>315</ele>
        <time>2017-09-03T09:53:36Z</time>
      </trkpt>
      <trkpt lat="47.16142" lon="5.50241">
        <ele>314</ele>
        <time>2017-09-03T09:53:40Z</time>
      </trkpt>
      <trkpt lat="47.16126" lon="5.50233">
        <ele>313</ele>
        <time>2017-09-03T09:53:44Z</time>
      </trkpt>
      <trkpt lat="47.16112" lon="5.50223">
        <ele>313</ele>
        <time>2017-09-03T09:53:48Z</time>
      </trkpt>
      <trkpt lat="47.16097" lon="5.50214">
        <ele>313</ele>
        <time>2017-09-03T09:53:52Z</time>
      </trkpt>
      <trkpt lat="47.1608" lon="5.50203">
        <ele>314</ele>
        <time>2017-09-03T09:53:56Z</time>
      </trkpt>
      <trkpt lat="47.16063" lon="5.50191">
        <ele>313</ele>
        <time>2017-09-03T09:54:00Z</time>
      </trkpt>
      <trkpt lat="47.16049" lon="5.50182">
        <ele>314</ele>
        <time>2017-09-03T09:54:04Z</time>
      </trkpt>
      <trkpt lat="47.16038" lon="5.50177">
        <ele>315</ele>
        <time>2017-09-03T09:54:08Z</time>
      </trkpt>
      <trkpt lat="47.16027" lon="5.50169">
        <ele>316</ele>
        <time>2017-09-03T09:54:12Z</time>
      </trkpt>
      <trkpt lat="47.16017" lon="5.50159">
        <ele>316</ele>
        <time>2017-09-03T09:54:16Z</time>
      </trkpt>
      <trkpt lat="47.16008" lon="5.5015">
        <ele>317</ele>
        <time>2017-09-03T09:54:20Z</time>
      </trkpt>
      <trkpt lat="47.15998" lon="5.50138">
        <ele>316</ele>
        <time>2017-09-03T09:54:24Z</time>
      </trkpt>
      <trkpt lat="47.15988" lon="5.50124">
        <ele>315</ele>
        <time>2017-09-03T09:54:28Z</time>
      </trkpt>
      <trkpt lat="47.15983" lon="5.50103">
        <ele>315</ele>
        <time>2017-09-03T09:54:32Z</time>
      </trkpt>
      <trkpt lat="47.15979" lon="5.5008">
        <ele>313</ele>
        <time>2017-09-03T09:54:36Z</time>
      </trkpt>
      <trkpt lat="47.15974" lon="5.50054">
        <ele>312</ele>
        <time>2017-09-03T09:54:40Z</time>
      </trkpt>
      <trkpt lat="47.15971" lon="5.50028">
        <ele>310</ele>
        <time>2017-09-03T09:54:44Z</time>
      </trkpt>
      <trkpt lat="47.15961" lon="5.49986">
        <ele>308</ele>
        <time>2017-09-03T09:54:48Z</time>
      </trkpt>
      <trkpt lat="47.1595" lon="5.49945">
        <ele>307</ele>
        <time>2017-09-03T09:54:52Z</time>
      </trkpt>
      <trkpt lat="47.15941" lon="5.49906">
        <ele>305</ele>
        <time>2017-09-03T09:54:56Z</time>
      </trkpt>
      <trkpt lat="47.1593" lon="5.49876">
        <ele>303</ele>
        <time>2017-09-03T09:55:00Z</time>
      </trkpt>
      <trkpt lat="47.15911" lon="5.49865">
        <ele>304</ele>
        <time>2017-09-03T09:55:04Z</time>
      </trkpt>
      <trkpt lat="47.15895" lon="5.4986">
        <ele>306</ele>
        <time>2017-09-03T09:55:08Z</time>
      </trkpt>
      <trkpt lat="47.15885" lon="5.49858">
        <ele>307</ele>
        <time>2017-09-03T09:55:12Z</time>
      </trkpt>
      <trkpt lat="47.15876" lon="5.49857">
        <ele>308</ele>
        <time>2017-09-03T09:55:16Z</time>
      </trkpt>
      <trkpt lat="47.15867" lon="5.49858">
        <ele>309</ele>
        <time>2017-09-03T09:55:20Z</time>
      </trkpt>
      <trkpt lat="47.15858" lon="5.49857">
        <ele>310</ele>
        <time>2017-09-03T09:55:24Z</time>
      </trkpt>
      <trkpt lat="47.15848" lon="5.49856">
        <ele>311</ele>
        <time>2017-09-03T09:55:28Z</time>
      </trkpt>
      <trkpt lat="47.15838" lon="5.49855">
        <ele>312</ele>
        <time>2017-09-03T09:55:32Z</time>
      </trkpt>
      <trkpt lat="47.15827" lon="5.49853">
        <ele>312</ele>
        <time>2017-09-03T09:55:36Z</time>
      </trkpt>
      <trkpt lat="47.15816" lon="5.4985">
        <ele>313</ele>
        <time>2017-09-03T09:55:40Z</time>
      </trkpt>
      <trkpt lat="47.15805" lon="5.49844">
        <ele>313</ele>
        <time>2017-09-03T09:55:44Z</time>
      </trkpt>
      <trkpt lat="47.15794" lon="5.4984">
        <ele>313</ele>
        <time>2017-09-03T09:55:48Z</time>
      </trkpt>
      <trkpt lat="47.15782" lon="5.49833">
        <ele>314</ele>
        <time>2017-09-03T09:55:52Z</time>
      </trkpt>
      <trkpt lat="47.15769" lon="5.49826">
        <ele>314</ele>
        <time>2017-09-03T09:55:56Z</time>
      </trkpt>
      <trkpt lat="47.15755" lon="5.4982">
        <ele>315</ele>
        <time>2017-09-03T09:56:00Z</time>
      </trkpt>
      <trkpt lat="47.15741" lon="5.49811">
        <ele>315</ele>
        <time>2017-09-03T09:56:04Z</time>
      </trkpt>
      <trkpt lat="47.15727" lon="5.49802">
        <ele>315</ele>
        <time>2017-09-03T09:56:09Z</time>
      </trkpt>
      <trkpt lat="47.15712" lon="5.49795">
        <ele>315</ele>
        <time>2017-09-03T09:56:12Z</time>
      </trkpt>
      <trkpt lat="47.15699" lon="5.49787">
        <ele>315</ele>
        <time>2017-09-03T09:56:16Z</time>
      </trkpt>
      <trkpt lat="47.15686" lon="5.49777">
        <ele>316</ele>
        <time>2017-09-03T09:56:20Z</time>
      </trkpt>
      <trkpt lat="47.15674" lon="5.49768">
        <ele>317</ele>
        <time>2017-09-03T09:56:24Z</time>
      </trkpt>
      <trkpt lat="47.15662" lon="5.49759">
        <ele>318</ele>
        <time>2017-09-03T09:56:28Z</time>
      </trkpt>
      <trkpt lat="47.1565" lon="5.49751">
        <ele>319</ele>
        <time>2017-09-03T09:56:32Z</time>
      </trkpt>
      <trkpt lat="47.15638" lon="5.49743">
        <ele>319</ele>
        <time>2017-09-03T09:56:36Z</time>
      </trkpt>
      <trkpt lat="47.15626" lon="5.49734">
        <ele>319</ele>
        <time>2017-09-03T09:56:40Z</time>
      </trkpt>
      <trkpt lat="47.15612" lon="5.49724">
        <ele>319</ele>
        <time>2017-09-03T09:56:44Z</time>
      </trkpt>
      <trkpt lat="47.15597" lon="5.49713">
        <ele>320</ele>
        <time>2017-09-03T09:56:48Z</time>
      </trkpt>
      <trkpt lat="47.15582" lon="5.49702">
        <ele>319</ele>
        <time>2017-09-03T09:56:52Z</time>
      </trkpt>
      <trkpt lat="47.15566" lon="5.49689">
        <ele>319</ele>
        <time>2017-09-03T09:56:56Z</time>
      </trkpt>
      <trkpt lat="47.1555" lon="5.49676">
        <ele>319</ele>
        <time>2017-09-03T09:57:00Z</time>
      </trkpt>
      <trkpt lat="47.15532" lon="5.49664">
        <ele>319</ele>
        <time>2017-09-03T09:57:04Z</time>
      </trkpt>
      <trkpt lat="47.15514" lon="5.49652">
        <ele>319</ele>
        <time>2017-09-03T09:57:08Z</time>
      </trkpt>
      <trkpt lat="47.15496" lon="5.49638">
        <ele>319</ele>
        <time>2017-09-03T09:57:12Z</time>
      </trkpt>
      <trkpt lat="47.15479" lon="5.49625">
        <ele>318</ele>
        <time>2017-09-03T09:57:16Z</time>
      </trkpt>
      <trkpt lat="47.15463" lon="5.49614">
        <ele>318</ele>
        <time>2017-09-03T09:57:20Z</time>
      </trkpt>
      <trkpt lat="47.15446" lon="5.49602">
        <ele>318</ele>
        <time>2017-09-03T09:57:24Z</time>
      </trkpt>
      <trkpt lat="47.1543" lon="5.49589">
        <ele>317</ele>
        <time>2017-09-03T09:57:28Z</time>
      </trkpt>
      <trkpt lat="47.15413" lon="5.49577">
        <ele>317</ele>
        <time>2017-09-03T09:57:32Z</time>
      </trkpt>
      <trkpt lat="47.15395" lon="5.49563">
        <ele>317</ele>
        <time>2017-09-03T09:57:36Z</time>
      </trkpt>
      <trkpt lat="47.15375" lon="5.49548">
        <ele>315</ele>
        <time>2017-09-03T09:57:40Z</time>
      </trkpt>
      <trkpt lat="47.15352" lon="5.49531">
        <ele>313</ele>
        <time>2017-09-03T09:57:44Z</time>
      </trkpt>
      <trkpt lat="47.15327" lon="5.49509">
        <ele>312</ele>
        <time>2017-09-03T09:57:48Z</time>
      </trkpt>
      <trkpt lat="47.15299" lon="5.49486">
        <ele>310</ele>
        <time>2017-09-03T09:57:52Z</time>
      </trkpt>
      <trkpt lat="47.15268" lon="5.49465">
        <ele>309</ele>
        <time>2017-09-03T09:57:56Z</time>
      </trkpt>
      <trkpt lat="47.15237" lon="5.49442">
        <ele>305</ele>
        <time>2017-09-03T09:58:00Z</time>
      </trkpt>
      <trkpt lat="47.15209" lon="5.4942">
        <ele>302</ele>
        <time>2017-09-03T09:58:04Z</time>
      </trkpt>
      <trkpt lat="47.15185" lon="5.49403">
        <ele>299</ele>
        <time>2017-09-03T09:58:08Z</time>
      </trkpt>
      <trkpt lat="47.15161" lon="5.49383">
        <ele>296</ele>
        <time>2017-09-03T09:58:12Z</time>
      </trkpt>
      <trkpt lat="47.15136" lon="5.49364">
        <ele>294</ele>
        <time>2017-09-03T09:58:16Z</time>
      </trkpt>
      <trkpt lat="47.15111" lon="5.49345">
        <ele>291</ele>
        <time>2017-09-03T09:58:20Z</time>
      </trkpt>
      <trkpt lat="47.15086" lon="5.49331">
        <ele>288</ele>
        <time>2017-09-03T09:58:24Z</time>
      </trkpt>
      <trkpt lat="47.15059" lon="5.49307">
        <ele>286</ele>
        <time>2017-09-03T09:58:28Z</time>
      </trkpt>
      <trkpt lat="47.15028" lon="5.49282">
        <ele>285</ele>
        <time>2017-09-03T09:58:32Z</time>
      </trkpt>
      <trkpt lat="47.14998" lon="5.49259">
        <ele>283</ele>
        <time>2017-09-03T09:58:36Z</time>
      </trkpt>
      <trkpt lat="47.14968" lon="5.49235">
        <ele>281</ele>
        <time>2017-09-03T09:58:40Z</time>
      </trkpt>
      <trkpt lat="47.14938" lon="5.49212">
        <ele>280</ele>
        <time>2017-09-03T09:58:44Z</time>
      </trkpt>
      <trkpt lat="47.14909" lon="5.4919">
        <ele>279</ele>
        <time>2017-09-03T09:58:48Z</time>
      </trkpt>
      <trkpt lat="47.14881" lon="5.49169">
        <ele>278</ele>
        <time>2017-09-03T09:58:52Z</time>
      </trkpt>
      <trkpt lat="47.14857" lon="5.49146">
        <ele>277</ele>
        <time>2017-09-03T09:58:56Z</time>
      </trkpt>
      <trkpt lat="47.14841" lon="5.4912">
        <ele>276</ele>
        <time>2017-09-03T09:59:00Z</time>
      </trkpt>
      <trkpt lat="47.14836" lon="5.49094">
        <ele>276</ele>
        <time>2017-09-03T09:59:04Z</time>
      </trkpt>
      <trkpt lat="47.14828" lon="5.49068">
        <ele>277</ele>
        <time>2017-09-03T09:59:08Z</time>
      </trkpt>
      <trkpt lat="47.1481" lon="5.49062">
        <ele>276</ele>
        <time>2017-09-03T09:59:12Z</time>
      </trkpt>
      <trkpt lat="47.14791" lon="5.49074">
        <ele>276</ele>
        <time>2017-09-03T09:59:16Z</time>
      </trkpt>
      <trkpt lat="47.14771" lon="5.49091">
        <ele>275</ele>
        <time>2017-09-03T09:59:20Z</time>
      </trkpt>
      <trkpt lat="47.14755" lon="5.49107">
        <ele>273</ele>
        <time>2017-09-03T09:59:24Z</time>
      </trkpt>
      <trkpt lat="47.14744" lon="5.49102">
        <ele>272</ele>
        <time>2017-09-03T09:59:28Z</time>
      </trkpt>
      <trkpt lat="47.14734" lon="5.4909">
        <ele>272</ele>
        <time>2017-09-03T09:59:32Z</time>
      </trkpt>
      <trkpt lat="47.14726" lon="5.49073">
        <ele>273</ele>
        <time>2017-09-03T09:59:36Z</time>
      </trkpt>
      <trkpt lat="47.1472" lon="5.49058">
        <ele>273</ele>
        <time>2017-09-03T09:59:40Z</time>
      </trkpt>
      <trkpt lat="47.14711" lon="5.49039">
        <ele>274</ele>
        <time>2017-09-03T09:59:44Z</time>
      </trkpt>
      <trkpt lat="47.14701" lon="5.49018">
        <ele>274</ele>
        <time>2017-09-03T09:59:48Z</time>
      </trkpt>
      <trkpt lat="47.14689" lon="5.48993">
        <ele>273</ele>
        <time>2017-09-03T09:59:52Z</time>
      </trkpt>
      <trkpt lat="47.14676" lon="5.48969">
        <ele>273</ele>
        <time>2017-09-03T09:59:56Z</time>
      </trkpt>
      <trkpt lat="47.14661" lon="5.48946">
        <ele>273</ele>
        <time>2017-09-03T10:00:00Z</time>
      </trkpt>
      <trkpt lat="47.14642" lon="5.48922">
        <ele>272</ele>
        <time>2017-09-03T10:00:04Z</time>
      </trkpt>
      <trkpt lat="47.14621" lon="5.48893">
        <ele>270</ele>
        <time>2017-09-03T10:00:08Z</time>
      </trkpt>
      <trkpt lat="47.14596" lon="5.48867">
        <ele>267</ele>
        <time>2017-09-03T10:00:12Z</time>
      </trkpt>
      <trkpt lat="47.14569" lon="5.48846">
        <ele>265</ele>
        <time>2017-09-03T10:00:16Z</time>
      </trkpt>
      <trkpt lat="47.14554" lon="5.48838">
        <ele>263</ele>
        <time>2017-09-03T10:00:20Z</time>
      </trkpt>
      <trkpt lat="47.14545" lon="5.48849">
        <ele>262</ele>
        <time>2017-09-03T10:00:24Z</time>
      </trkpt>
      <trkpt lat="47.14525" lon="5.48865">
        <ele>260</ele>
        <time>2017-09-03T10:00:28Z</time>
      </trkpt>
      <trkpt lat="47.14497" lon="5.48887">
        <ele>258</ele>
        <time>2017-09-03T10:00:32Z</time>
      </trkpt>
      <trkpt lat="47.14464" lon="5.48912">
        <ele>255</ele>
        <time>2017-09-03T10:00:36Z</time>
      </trkpt>
      <trkpt lat="47.1443" lon="5.48932">
        <ele>252</ele>
        <time>2017-09-03T10:00:40Z</time>
      </trkpt>
      <trkpt lat="47.14411" lon="5.48939">
        <ele>249</ele>
        <time>2017-09-03T10:00:44Z</time>
      </trkpt>
      <trkpt lat="47.14404" lon="5.48936">
        <ele>248</ele>
        <time>2017-09-03T10:00:48Z</time>
      </trkpt>
      <trkpt lat="47.14406" lon="5.48925">
        <ele>248</ele>
        <time>2017-09-03T10:00:52Z</time>
      </trkpt>
      <trkpt lat="47.14404" lon="5.48912">
        <ele>248</ele>
        <time>2017-09-03T10:00:56Z</time>
      </trkpt>
      <trkpt lat="47.14405" lon="5.48903">
        <ele>248</ele>
        <time>2017-09-03T10:01:00Z</time>
      </trkpt>
      <trkpt lat="47.14401" lon="5.48911">
        <ele>247</ele>
        <time>2017-09-03T10:04:16Z</time>
      </trkpt>
      <trkpt lat="47.144" lon="5.48921">
        <ele>247</ele>
        <time>2017-09-03T10:04:20Z</time>
      </trkpt>
      <trkpt lat="47.14406" lon="5.48933">
        <ele>247</ele>
        <time>2017-09-03T10:04:24Z</time>
      </trkpt>
      <trkpt lat="47.14417" lon="5.48939">
        <ele>247</ele>
        <time>2017-09-03T10:04:28Z</time>
      </trkpt>
      <trkpt lat="47.14419" lon="5.48932">
        <ele>247</ele>
        <time>2017-09-03T10:04:32Z</time>
      </trkpt>
      <trkpt lat="47.14411" lon="5.48926">
        <ele>247</ele>
        <time>2017-09-03T10:04:36Z</time>
      </trkpt>
      <trkpt lat="47.14411" lon="5.48918">
        <ele>247</ele>
        <time>2017-09-03T10:04:40Z</time>
      </trkpt>
      <trkpt lat="47.14405" lon="5.48916">
        <ele>247</ele>
        <time>2017-09-03T10:04:44Z</time>
      </trkpt>
      <trkpt lat="47.14399" lon="5.48913">
        <ele>248</ele>
        <time>2017-09-03T10:04:48Z</time>
      </trkpt>
      <trkpt lat="47.14403" lon="5.48911">
        <ele>248</ele>
        <time>2017-09-03T10:04:52Z</time>
      </trkpt>
      <trkpt lat="47.14408" lon="5.48925">
        <ele>248</ele>
        <time>2017-09-03T10:04:56Z</time>
      </trkpt>
      <trkpt lat="47.14419" lon="5.48935">
        <ele>248</ele>
        <time>2017-09-03T10:05:00Z</time>
      </trkpt>
      <trkpt lat="47.14433" lon="5.48933">
        <ele>248</ele>
        <time>2017-09-03T10:05:04Z</time>
      </trkpt>
      <trkpt lat="47.14442" lon="5.4893">
        <ele>249</ele>
        <time>2017-09-03T10:05:08Z</time>
      </trkpt>
      <trkpt lat="47.14441" lon="5.48924">
        <ele>249</ele>
        <time>2017-09-03T10:05:52Z</time>
      </trkpt>
      <trkpt lat="47.14431" lon="5.48927">
        <ele>248</ele>
        <time>2017-09-03T10:05:56Z</time>
      </trkpt>
      <trkpt lat="47.14415" lon="5.48932">
        <ele>247</ele>
        <time>2017-09-03T10:06:00Z</time>
      </trkpt>
      <trkpt lat="47.14404" lon="5.48944">
        <ele>247</ele>
        <time>2017-09-03T10:06:04Z</time>
      </trkpt>
      <trkpt lat="47.144" lon="5.48953">
        <ele>247</ele>
        <time>2017-09-03T10:06:08Z</time>
      </trkpt>
      <trkpt lat="47.14402" lon="5.48944">
        <ele>247</ele>
        <time>2017-09-03T10:06:20Z</time>
      </trkpt>
      <trkpt lat="47.14401" lon="5.48936">
        <ele>248</ele>
        <time>2017-09-03T10:06:24Z</time>
      </trkpt>
      <trkpt lat="47.14401" lon="5.48926">
        <ele>248</ele>
        <time>2017-09-03T10:06:28Z</time>
      </trkpt>
      <trkpt lat="47.14403" lon="5.48916">
        <ele>248</ele>
        <time>2017-09-03T10:06:32Z</time>
      </trkpt>
      <trkpt lat="47.14402" lon="5.48908">
        <ele>248</ele>
        <time>2017-09-03T10:06:36Z</time>
      </trkpt>
      <trkpt lat="47.14399" lon="5.48903">
        <ele>248</ele>
        <time>2017-09-03T10:06:40Z</time>
      </trkpt>
      <trkpt lat="47.14395" lon="5.48897">
        <ele>248</ele>
        <time>2017-09-03T10:06:44Z</time>
      </trkpt>
      <trkpt lat="47.14395" lon="5.48889">
        <ele>248</ele>
        <time>2017-09-03T10:06:48Z</time>
      </trkpt>
      <trkpt lat="47.14394" lon="5.48882">
        <ele>248</ele>
        <time>2017-09-03T10:06:52Z</time>
      </trkpt>
      <trkpt lat="47.14394" lon="5.48876">
        <ele>248</ele>
        <time>2017-09-03T10:06:56Z</time>
      </trkpt>
      <trkpt lat="47.14397" lon="5.48872">
        <ele>248</ele>
        <time>2017-09-03T10:07:00Z</time>
      </trkpt>
      <trkpt lat="47.14399" lon="5.4888">
        <ele>248</ele>
        <time>2017-09-03T10:07:04Z</time>
      </trkpt>
      <trkpt lat="47.144" lon="5.48891">
        <ele>248</ele>
        <time>2017-09-03T10:07:08Z</time>
      </trkpt>
      <trkpt lat="47.14402" lon="5.489">
        <ele>248</ele>
        <time>2017-09-03T10:07:12Z</time>
      </trkpt>
      <trkpt lat="47.14403" lon="5.48911">
        <ele>247</ele>
        <time>2017-09-03T10:11:13Z</time>
      </trkpt>
      <trkpt lat="47.14403" lon="5.48926">
        <ele>247</ele>
        <time>2017-09-03T10:11:16Z</time>
      </trkpt>
      <trkpt lat="47.14402" lon="5.48947">
        <ele>247</ele>
        <time>2017-09-03T10:11:20Z</time>
      </trkpt>
      <trkpt lat="47.14403" lon="5.48972">
        <ele>246</ele>
        <time>2017-09-03T10:11:24Z</time>
      </trkpt>
      <trkpt lat="47.14404" lon="5.48998">
        <ele>246</ele>
        <time>2017-09-03T10:11:28Z</time>
      </trkpt>
      <trkpt lat="47.14402" lon="5.4902">
        <ele>246</ele>
        <time>2017-09-03T10:11:32Z</time>
      </trkpt>
      <trkpt lat="47.14396" lon="5.49025">
        <ele>245</ele>
        <time>2017-09-03T10:11:36Z</time>
      </trkpt>
      <trkpt lat="47.14378" lon="5.49013">
        <ele>243</ele>
        <time>2017-09-03T10:11:40Z</time>
      </trkpt>
      <trkpt lat="47.14357" lon="5.48997">
        <ele>240</ele>
        <time>2017-09-03T10:11:44Z</time>
      </trkpt>
      <trkpt lat="47.14337" lon="5.48984">
        <ele>237</ele>
        <time>2017-09-03T10:11:48Z</time>
      </trkpt>
      <trkpt lat="47.14319" lon="5.48959">
        <ele>236</ele>
        <time>2017-09-03T10:11:52Z</time>
      </trkpt>
      <trkpt lat="47.14307" lon="5.48943">
        <ele>235</ele>
        <time>2017-09-03T10:11:56Z</time>
      </trkpt>
      <trkpt lat="47.14292" lon="5.48946">
        <ele>235</ele>
        <time>2017-09-03T10:12:00Z</time>
      </trkpt>
      <trkpt lat="47.14275" lon="5.48948">
        <ele>235</ele>
        <time>2017-09-03T10:12:04Z</time>
      </trkpt>
      <trkpt lat="47.14255" lon="5.48951">
        <ele>234</ele>
        <time>2017-09-03T10:12:08Z</time>
      </trkpt>
      <trkpt lat="47.14236" lon="5.48957">
        <ele>234</ele>
        <time>2017-09-03T10:12:12Z</time>
      </trkpt>
      <trkpt lat="47.14217" lon="5.4897">
        <ele>234</ele>
        <time>2017-09-03T10:12:16Z</time>
      </trkpt>
      <trkpt lat="47.14207" lon="5.48996">
        <ele>233</ele>
        <time>2017-09-03T10:12:20Z</time>
      </trkpt>
      <trkpt lat="47.14193" lon="5.4902">
        <ele>232</ele>
        <time>2017-09-03T10:12:24Z</time>
      </trkpt>
      <trkpt lat="47.14166" lon="5.49016">
        <ele>231</ele>
        <time>2017-09-03T10:12:28Z</time>
      </trkpt>
      <trkpt lat="47.14138" lon="5.49009">
        <ele>230</ele>
        <time>2017-09-03T10:12:32Z</time>
      </trkpt>
      <trkpt lat="47.1411" lon="5.48991">
        <ele>229</ele>
        <time>2017-09-03T10:12:36Z</time>
      </trkpt>
      <trkpt lat="47.14082" lon="5.48974">
        <ele>228</ele>
        <time>2017-09-03T10:12:40Z</time>
      </trkpt>
      <trkpt lat="47.14059" lon="5.48983">
        <ele>227</ele>
        <time>2017-09-03T10:12:44Z</time>
      </trkpt>
      <trkpt lat="47.14047" lon="5.49017">
        <ele>226</ele>
        <time>2017-09-03T10:12:48Z</time>
      </trkpt>
      <trkpt lat="47.14036" lon="5.4905">
        <ele>227</ele>
        <time>2017-09-03T10:12:52Z</time>
      </trkpt>
      <trkpt lat="47.14025" lon="5.49077">
        <ele>226</ele>
        <time>2017-09-03T10:12:56Z</time>
      </trkpt>
      <trkpt lat="47.14015" lon="5.49097">
        <ele>226</ele>
        <time>2017-09-03T10:13:00Z</time>
      </trkpt>
      <trkpt lat="47.13999" lon="5.49102">
        <ele>226</ele>
        <time>2017-09-03T10:13:04Z</time>
      </trkpt>
      <trkpt lat="47.13989" lon="5.49105">
        <ele>228</ele>
        <time>2017-09-03T10:13:08Z</time>
      </trkpt>
      <trkpt lat="47.1398" lon="5.49108">
        <ele>228</ele>
        <time>2017-09-03T10:13:12Z</time>
      </trkpt>
      <trkpt lat="47.13972" lon="5.4911">
        <ele>229</ele>
        <time>2017-09-03T10:13:16Z</time>
      </trkpt>
      <trkpt lat="47.13965" lon="5.49109">
        <ele>230</ele>
        <time>2017-09-03T10:13:20Z</time>
      </trkpt>
      <trkpt lat="47.13958" lon="5.49107">
        <ele>231</ele>
        <time>2017-09-03T10:13:24Z</time>
      </trkpt>
      <trkpt lat="47.13952" lon="5.49106">
        <ele>232</ele>
        <time>2017-09-03T10:13:28Z</time>
      </trkpt>
      <trkpt lat="47.13949" lon="5.49106">
        <ele>233</ele>
        <time>2017-09-03T10:13:32Z</time>
      </trkpt>
      <trkpt lat="47.13945" lon="5.49107">
        <ele>234</ele>
        <time>2017-09-03T10:13:36Z</time>
      </trkpt>
      <trkpt lat="47.1394" lon="5.49107">
        <ele>235</ele>
        <time>2017-09-03T10:13:40Z</time>
      </trkpt>
      <trkpt lat="47.13932" lon="5.49106">
        <ele>236</ele>
        <time>2017-09-03T10:13:44Z</time>
      </trkpt>
      <trkpt lat="47.13927" lon="5.49107">
        <ele>236</ele>
        <time>2017-09-03T10:13:48Z</time>
      </trkpt>
      <trkpt lat="47.13919" lon="5.49107">
        <ele>238</ele>
        <time>2017-09-03T10:13:52Z</time>
      </trkpt>
      <trkpt lat="47.13913" lon="5.49108">
        <ele>239</ele>
        <time>2017-09-03T10:13:56Z</time>
      </trkpt>
      <trkpt lat="47.13908" lon="5.4911">
        <ele>239</ele>
        <time>2017-09-03T10:14:00Z</time>
      </trkpt>
      <trkpt lat="47.13902" lon="5.4911">
        <ele>240</ele>
        <time>2017-09-03T10:14:04Z</time>
      </trkpt>
      <trkpt lat="47.13897" lon="5.4911">
        <ele>241</ele>
        <time>2017-09-03T10:14:08Z</time>
      </trkpt>
      <trkpt lat="47.13891" lon="5.49108">
        <ele>242</ele>
        <time>2017-09-03T10:14:12Z</time>
      </trkpt>
      <trkpt lat="47.13886" lon="5.49107">
        <ele>243</ele>
        <time>2017-09-03T10:14:16Z</time>
      </trkpt>
      <trkpt lat="47.1388" lon="5.49104">
        <ele>243</ele>
        <time>2017-09-03T10:14:20Z</time>
      </trkpt>
      <trkpt lat="47.13874" lon="5.491">
        <ele>244</ele>
        <time>2017-09-03T10:14:24Z</time>
      </trkpt>
      <trkpt lat="47.13869" lon="5.49097">
        <ele>245</ele>
        <time>2017-09-03T10:14:28Z</time>
      </trkpt>
      <trkpt lat="47.13863" lon="5.49094">
        <ele>246</ele>
        <time>2017-09-03T10:14:32Z</time>
      </trkpt>
      <trkpt lat="47.13857" lon="5.4909">
        <ele>247</ele>
        <time>2017-09-03T10:14:36Z</time>
      </trkpt>
      <trkpt lat="47.13852" lon="5.49086">
        <ele>248</ele>
        <time>2017-09-03T10:14:40Z</time>
      </trkpt>
      <trkpt lat="47.13848" lon="5.49081">
        <ele>249</ele>
        <time>2017-09-03T10:14:44Z</time>
      </trkpt>
      <trkpt lat="47.13843" lon="5.49077">
        <ele>250</ele>
        <time>2017-09-03T10:14:48Z</time>
      </trkpt>
      <trkpt lat="47.13838" lon="5.49075">
        <ele>250</ele>
        <time>2017-09-03T10:14:52Z</time>
      </trkpt>
      <trkpt lat="47.13834" lon="5.49074">
        <ele>251</ele>
        <time>2017-09-03T10:14:56Z</time>
      </trkpt>
      <trkpt lat="47.13829" lon="5.49073">
        <ele>252</ele>
        <time>2017-09-03T10:15:00Z</time>
      </trkpt>
      <trkpt lat="47.13823" lon="5.49072">
        <ele>253</ele>
        <time>2017-09-03T10:15:04Z</time>
      </trkpt>
      <trkpt lat="47.13819" lon="5.49071">
        <ele>254</ele>
        <time>2017-09-03T10:15:09Z</time>
      </trkpt>
      <trkpt lat="47.13814" lon="5.4907">
        <ele>254</ele>
        <time>2017-09-03T10:15:16Z</time>
      </trkpt>
      <trkpt lat="47.13809" lon="5.49069">
        <ele>255</ele>
        <time>2017-09-03T10:15:20Z</time>
      </trkpt>
      <trkpt lat="47.13803" lon="5.49069">
        <ele>255</ele>
        <time>2017-09-03T10:15:24Z</time>
      </trkpt>
      <trkpt lat="47.13798" lon="5.49069">
        <ele>256</ele>
        <time>2017-09-03T10:15:28Z</time>
      </trkpt>
      <trkpt lat="47.1379" lon="5.49066">
        <ele>256</ele>
        <time>2017-09-03T10:15:32Z</time>
      </trkpt>
      <trkpt lat="47.13777" lon="5.49063">
        <ele>257</ele>
        <time>2017-09-03T10:15:36Z</time>
      </trkpt>
      <trkpt lat="47.13769" lon="5.49062">
        <ele>257</ele>
        <time>2017-09-03T10:15:40Z</time>
      </trkpt>
      <trkpt lat="47.13761" lon="5.49063">
        <ele>257</ele>
        <time>2017-09-03T10:15:44Z</time>
      </trkpt>
      <trkpt lat="47.13754" lon="5.49062">
        <ele>258</ele>
        <time>2017-09-03T10:15:48Z</time>
      </trkpt>
      <trkpt lat="47.13745" lon="5.49063">
        <ele>259</ele>
        <time>2017-09-03T10:15:52Z</time>
      </trkpt>
      <trkpt lat="47.13736" lon="5.49062">
        <ele>259</ele>
        <time>2017-09-03T10:15:56Z</time>
      </trkpt>
      <trkpt lat="47.13728" lon="5.49061">
        <ele>259</ele>
        <time>2017-09-03T10:16:00Z</time>
      </trkpt>
      <trkpt lat="47.1372" lon="5.49056">
        <ele>259</ele>
        <time>2017-09-03T10:16:04Z</time>
      </trkpt>
      <trkpt lat="47.13718" lon="5.49035">
        <ele>259</ele>
        <time>2017-09-03T10:16:08Z</time>
      </trkpt>
      <trkpt lat="47.13709" lon="5.49027">
        <ele>257</ele>
        <time>2017-09-03T10:16:12Z</time>
      </trkpt>
      <trkpt lat="47.13704" lon="5.49032">
        <ele>256</ele>
        <time>2017-09-03T10:16:16Z</time>
      </trkpt>
      <trkpt lat="47.13698" lon="5.49036">
        <ele>256</ele>
        <time>2017-09-03T10:16:20Z</time>
      </trkpt>
      <trkpt lat="47.13689" lon="5.49042">
        <ele>256</ele>
        <time>2017-09-03T10:16:24Z</time>
      </trkpt>
      <trkpt lat="47.1368" lon="5.49046">
        <ele>257</ele>
        <time>2017-09-03T10:16:28Z</time>
      </trkpt>
      <trkpt lat="47.13668" lon="5.49047">
        <ele>258</ele>
        <time>2017-09-03T10:16:32Z</time>
      </trkpt>
      <trkpt lat="47.13655" lon="5.49048">
        <ele>258</ele>
        <time>2017-09-03T10:16:36Z</time>
      </trkpt>
      <trkpt lat="47.13643" lon="5.49046">
        <ele>259</ele>
        <time>2017-09-03T10:16:40Z</time>
      </trkpt>
      <trkpt lat="47.13629" lon="5.49044">
        <ele>259</ele>
        <time>2017-09-03T10:16:44Z</time>
      </trkpt>
      <trkpt lat="47.13616" lon="5.49044">
        <ele>260</ele>
        <time>2017-09-03T10:16:48Z</time>
      </trkpt>
      <trkpt lat="47.13603" lon="5.49045">
        <ele>260</ele>
        <time>2017-09-03T10:16:52Z</time>
      </trkpt>
      <trkpt lat="47.1359" lon="5.49045">
        <ele>260</ele>
        <time>2017-09-03T10:16:56Z</time>
      </trkpt>
      <trkpt lat="47.13578" lon="5.49045">
        <ele>260</ele>
        <time>2017-09-03T10:17:00Z</time>
      </trkpt>
      <trkpt lat="47.13569" lon="5.49049">
        <ele>261</ele>
        <time>2017-09-03T10:17:04Z</time>
      </trkpt>
      <trkpt lat="47.13564" lon="5.49059">
        <ele>262</ele>
        <time>2017-09-03T10:17:08Z</time>
      </trkpt>
      <trkpt lat="47.13565" lon="5.49072">
        <ele>263</ele>
        <time>2017-09-03T10:17:12Z</time>
      </trkpt>
      <trkpt lat="47.13567" lon="5.49087">
        <ele>263</ele>
        <time>2017-09-03T10:17:16Z</time>
      </trkpt>
      <trkpt lat="47.13569" lon="5.49102">
        <ele>264</ele>
        <time>2017-09-03T10:17:20Z</time>
      </trkpt>
      <trkpt lat="47.13572" lon="5.49116">
        <ele>264</ele>
        <time>2017-09-03T10:17:24Z</time>
      </trkpt>
      <trkpt lat="47.13575" lon="5.4913">
        <ele>265</ele>
        <time>2017-09-03T10:17:28Z</time>
      </trkpt>
      <trkpt lat="47.13577" lon="5.49143">
        <ele>265</ele>
        <time>2017-09-03T10:17:32Z</time>
      </trkpt>
      <trkpt lat="47.13579" lon="5.49156">
        <ele>266</ele>
        <time>2017-09-03T10:17:36Z</time>
      </trkpt>
      <trkpt lat="47.13581" lon="5.49168">
        <ele>267</ele>
        <time>2017-09-03T10:17:40Z</time>
      </trkpt>
      <trkpt lat="47.13579" lon="5.4918">
        <ele>267</ele>
        <time>2017-09-03T10:17:44Z</time>
      </trkpt>
      <trkpt lat="47.13579" lon="5.49189">
        <ele>268</ele>
        <time>2017-09-03T10:17:48Z</time>
      </trkpt>
      <trkpt lat="47.13582" lon="5.49199">
        <ele>268</ele>
        <time>2017-09-03T10:17:52Z</time>
      </trkpt>
      <trkpt lat="47.13583" lon="5.49209">
        <ele>269</ele>
        <time>2017-09-03T10:17:56Z</time>
      </trkpt>
      <trkpt lat="47.13582" lon="5.49219">
        <ele>270</ele>
        <time>2017-09-03T10:18:00Z</time>
      </trkpt>
      <trkpt lat="47.1358" lon="5.49227">
        <ele>270</ele>
        <time>2017-09-03T10:18:04Z</time>
      </trkpt>
      <trkpt lat="47.13576" lon="5.49235">
        <ele>271</ele>
        <time>2017-09-03T10:18:08Z</time>
      </trkpt>
      <trkpt lat="47.13573" lon="5.49244">
        <ele>271</ele>
        <time>2017-09-03T10:18:12Z</time>
      </trkpt>
      <trkpt lat="47.13568" lon="5.49251">
        <ele>272</ele>
        <time>2017-09-03T10:18:20Z</time>
      </trkpt>
      <trkpt lat="47.13565" lon="5.49261">
        <ele>272</ele>
        <time>2017-09-03T10:18:24Z</time>
      </trkpt>
      <trkpt lat="47.13564" lon="5.49271">
        <ele>272</ele>
        <time>2017-09-03T10:18:28Z</time>
      </trkpt>
      <trkpt lat="47.1356" lon="5.49281">
        <ele>272</ele>
        <time>2017-09-03T10:18:32Z</time>
      </trkpt>
      <trkpt lat="47.13557" lon="5.49289">
        <ele>272</ele>
        <time>2017-09-03T10:18:36Z</time>
      </trkpt>
      <trkpt lat="47.13553" lon="5.49299">
        <ele>273</ele>
        <time>2017-09-03T10:18:40Z</time>
      </trkpt>
      <trkpt lat="47.13546" lon="5.49307">
        <ele>274</ele>
        <time>2017-09-03T10:18:44Z</time>
      </trkpt>
      <trkpt lat="47.13539" lon="5.49317">
        <ele>274</ele>
        <time>2017-09-03T10:18:48Z</time>
      </trkpt>
      <trkpt lat="47.13528" lon="5.49331">
        <ele>275</ele>
        <time>2017-09-03T10:18:52Z</time>
      </trkpt>
      <trkpt lat="47.13518" lon="5.49335">
        <ele>275</ele>
        <time>2017-09-03T10:18:56Z</time>
      </trkpt>
      <trkpt lat="47.13511" lon="5.49341">
        <ele>275</ele>
        <time>2017-09-03T10:19:00Z</time>
      </trkpt>
      <trkpt lat="47.13494" lon="5.49355">
        <ele>276</ele>
        <time>2017-09-03T10:19:04Z</time>
      </trkpt>
      <trkpt lat="47.13487" lon="5.49364">
        <ele>276</ele>
        <time>2017-09-03T10:19:08Z</time>
      </trkpt>
      <trkpt lat="47.13477" lon="5.4937">
        <ele>276</ele>
        <time>2017-09-03T10:19:12Z</time>
      </trkpt>
      <trkpt lat="47.13468" lon="5.49369">
        <ele>277</ele>
        <time>2017-09-03T10:19:16Z</time>
      </trkpt>
      <trkpt lat="47.13463" lon="5.49364">
        <ele>278</ele>
        <time>2017-09-03T10:19:20Z</time>
      </trkpt>
      <trkpt lat="47.13457" lon="5.4936">
        <ele>279</ele>
        <time>2017-09-03T10:19:24Z</time>
      </trkpt>
      <trkpt lat="47.13452" lon="5.49352">
        <ele>279</ele>
        <time>2017-09-03T10:19:28Z</time>
      </trkpt>
      <trkpt lat="47.13446" lon="5.49345">
        <ele>280</ele>
        <time>2017-09-03T10:19:32Z</time>
      </trkpt>
      <trkpt lat="47.13441" lon="5.49337">
        <ele>281</ele>
        <time>2017-09-03T10:19:36Z</time>
      </trkpt>
      <trkpt lat="47.13437" lon="5.49327">
        <ele>281</ele>
        <time>2017-09-03T10:19:40Z</time>
      </trkpt>
      <trkpt lat="47.1343" lon="5.49321">
        <ele>281</ele>
        <time>2017-09-03T10:19:44Z</time>
      </trkpt>
      <trkpt lat="47.13422" lon="5.49318">
        <ele>282</ele>
        <time>2017-09-03T10:19:48Z</time>
      </trkpt>
      <trkpt lat="47.13414" lon="5.49314">
        <ele>282</ele>
        <time>2017-09-03T10:19:52Z</time>
      </trkpt>
      <trkpt lat="47.13406" lon="5.49307">
        <ele>283</ele>
        <time>2017-09-03T10:19:56Z</time>
      </trkpt>
      <trkpt lat="47.13399" lon="5.49298">
        <ele>283</ele>
        <time>2017-09-03T10:20:00Z</time>
      </trkpt>
      <trkpt lat="47.13389" lon="5.49289">
        <ele>284</ele>
        <time>2017-09-03T10:20:04Z</time>
      </trkpt>
      <trkpt lat="47.13382" lon="5.49281">
        <ele>285</ele>
        <time>2017-09-03T10:20:08Z</time>
      </trkpt>
      <trkpt lat="47.13373" lon="5.49275">
        <ele>285</ele>
        <time>2017-09-03T10:20:12Z</time>
      </trkpt>
      <trkpt lat="47.13364" lon="5.49272">
        <ele>286</ele>
        <time>2017-09-03T10:20:16Z</time>
      </trkpt>
      <trkpt lat="47.13356" lon="5.49271">
        <ele>287</ele>
        <time>2017-09-03T10:20:20Z</time>
      </trkpt>
      <trkpt lat="47.1335" lon="5.49271">
        <ele>287</ele>
        <time>2017-09-03T10:20:24Z</time>
      </trkpt>
      <trkpt lat="47.13346" lon="5.49271">
        <ele>287</ele>
        <time>2017-09-03T10:20:28Z</time>
      </trkpt>
      <trkpt lat="47.13338" lon="5.49268">
        <ele>288</ele>
        <time>2017-09-03T10:20:32Z</time>
      </trkpt>
      <trkpt lat="47.13331" lon="5.49266">
        <ele>288</ele>
        <time>2017-09-03T10:20:36Z</time>
      </trkpt>
      <trkpt lat="47.13325" lon="5.49264">
        <ele>289</ele>
        <time>2017-09-03T10:20:40Z</time>
      </trkpt>
      <trkpt lat="47.13319" lon="5.49266">
        <ele>289</ele>
        <time>2017-09-03T10:20:44Z</time>
      </trkpt>
      <trkpt lat="47.13314" lon="5.49273">
        <ele>289</ele>
        <time>2017-09-03T10:20:48Z</time>
      </trkpt>
      <trkpt lat="47.13307" lon="5.49278">
        <ele>290</ele>
        <time>2017-09-03T10:20:52Z</time>
      </trkpt>
      <trkpt lat="47.13301" lon="5.49285">
        <ele>290</ele>
        <time>2017-09-03T10:20:56Z</time>
      </trkpt>
      <trkpt lat="47.133" lon="5.49295">
        <ele>289</ele>
        <time>2017-09-03T10:21:00Z</time>
      </trkpt>
      <trkpt lat="47.13294" lon="5.493">
        <ele>288</ele>
        <time>2017-09-03T10:21:04Z</time>
      </trkpt>
      <trkpt lat="47.13287" lon="5.49302">
        <ele>290</ele>
        <time>2017-09-03T10:21:08Z</time>
      </trkpt>
      <trkpt lat="47.13282" lon="5.49304">
        <ele>291</ele>
        <time>2017-09-03T10:21:12Z</time>
      </trkpt>
      <trkpt lat="47.13277" lon="5.49304">
        <ele>292</ele>
        <time>2017-09-03T10:21:16Z</time>
      </trkpt>
      <trkpt lat="47.13271" lon="5.49303">
        <ele>293</ele>
        <time>2017-09-03T10:21:20Z</time>
      </trkpt>
      <trkpt lat="47.13266" lon="5.49304">
        <ele>294</ele>
        <time>2017-09-03T10:21:24Z</time>
      </trkpt>
      <trkpt lat="47.13259" lon="5.49305">
        <ele>294</ele>
        <time>2017-09-03T10:21:28Z</time>
      </trkpt>
      <trkpt lat="47.13253" lon="5.49303">
        <ele>295</ele>
        <time>2017-09-03T10:21:32Z</time>
      </trkpt>
      <trkpt lat="47.13247" lon="5.49303">
        <ele>296</ele>
        <time>2017-09-03T10:21:36Z</time>
      </trkpt>
      <trkpt lat="47.13241" lon="5.49305">
        <ele>297</ele>
        <time>2017-09-03T10:21:44Z</time>
      </trkpt>
      <trkpt lat="47.13235" lon="5.49306">
        <ele>298</ele>
        <time>2017-09-03T10:21:48Z</time>
      </trkpt>
      <trkpt lat="47.13221" lon="5.49307">
        <ele>299</ele>
        <time>2017-09-03T10:21:52Z</time>
      </trkpt>
      <trkpt lat="47.13216" lon="5.49308">
        <ele>299</ele>
        <time>2017-09-03T10:21:56Z</time>
      </trkpt>
      <trkpt lat="47.13209" lon="5.4931">
        <ele>300</ele>
        <time>2017-09-03T10:22:00Z</time>
      </trkpt>
      <trkpt lat="47.13203" lon="5.49311">
        <ele>301</ele>
        <time>2017-09-03T10:22:04Z</time>
      </trkpt>
      <trkpt lat="47.13198" lon="5.49311">
        <ele>301</ele>
        <time>2017-09-03T10:22:08Z</time>
      </trkpt>
      <trkpt lat="47.13193" lon="5.4931">
        <ele>302</ele>
        <time>2017-09-03T10:22:12Z</time>
      </trkpt>
      <trkpt lat="47.13187" lon="5.49309">
        <ele>302</ele>
        <time>2017-09-03T10:22:16Z</time>
      </trkpt>
      <trkpt lat="47.13182" lon="5.49308">
        <ele>303</ele>
        <time>2017-09-03T10:22:20Z</time>
      </trkpt>
      <trkpt lat="47.13178" lon="5.49309">
        <ele>303</ele>
        <time>2017-09-03T10:22:24Z</time>
      </trkpt>
      <trkpt lat="47.13172" lon="5.4931">
        <ele>303</ele>
        <time>2017-09-03T10:22:28Z</time>
      </trkpt>
      <trkpt lat="47.13168" lon="5.49312">
        <ele>304</ele>
        <time>2017-09-03T10:22:32Z</time>
      </trkpt>
      <trkpt lat="47.13161" lon="5.49311">
        <ele>304</ele>
        <time>2017-09-03T10:22:36Z</time>
      </trkpt>
      <trkpt lat="47.13154" lon="5.49312">
        <ele>304</ele>
        <time>2017-09-03T10:22:40Z</time>
      </trkpt>
      <trkpt lat="47.13146" lon="5.49313">
        <ele>305</ele>
        <time>2017-09-03T10:22:44Z</time>
      </trkpt>
      <trkpt lat="47.13138" lon="5.49313">
        <ele>305</ele>
        <time>2017-09-03T10:22:48Z</time>
      </trkpt>
      <trkpt lat="47.13132" lon="5.49314">
        <ele>305</ele>
        <time>2017-09-03T10:22:52Z</time>
      </trkpt>
      <trkpt lat="47.13125" lon="5.49313">
        <ele>306</ele>
        <time>2017-09-03T10:22:56Z</time>
      </trkpt>
      <trkpt lat="47.13118" lon="5.49312">
        <ele>306</ele>
        <time>2017-09-03T10:23:00Z</time>
      </trkpt>
      <trkpt lat="47.13111" lon="5.49313">
        <ele>306</ele>
        <time>2017-09-03T10:23:04Z</time>
      </trkpt>
      <trkpt lat="47.13105" lon="5.49311">
        <ele>306</ele>
        <time>2017-09-03T10:23:08Z</time>
      </trkpt>
      <trkpt lat="47.13091" lon="5.49305">
        <ele>308</ele>
        <time>2017-09-03T10:23:24Z</time>
      </trkpt>
      <trkpt lat="47.13083" lon="5.49301">
        <ele>308</ele>
        <time>2017-09-03T10:23:28Z</time>
      </trkpt>
      <trkpt lat="47.13073" lon="5.49299">
        <ele>308</ele>
        <time>2017-09-03T10:23:32Z</time>
      </trkpt>
      <trkpt lat="47.13063" lon="5.49297">
        <ele>308</ele>
        <time>2017-09-03T10:23:36Z</time>
      </trkpt>
      <trkpt lat="47.13055" lon="5.49297">
        <ele>308</ele>
        <time>2017-09-03T10:23:40Z</time>
      </trkpt>
      <trkpt lat="47.13048" lon="5.49295">
        <ele>309</ele>
        <time>2017-09-03T10:23:44Z</time>
      </trkpt>
      <trkpt lat="47.13042" lon="5.49292">
        <ele>309</ele>
        <time>2017-09-03T10:23:48Z</time>
      </trkpt>
      <trkpt lat="47.13033" lon="5.4929">
        <ele>309</ele>
        <time>2017-09-03T10:23:52Z</time>
      </trkpt>
      <trkpt lat="47.13029" lon="5.49286">
        <ele>309</ele>
        <time>2017-09-03T10:23:56Z</time>
      </trkpt>
      <trkpt lat="47.13025" lon="5.49278">
        <ele>310</ele>
        <time>2017-09-03T10:24:00Z</time>
      </trkpt>
      <trkpt lat="47.13017" lon="5.49271">
        <ele>310</ele>
        <time>2017-09-03T10:24:04Z</time>
      </trkpt>
      <trkpt lat="47.1301" lon="5.49265">
        <ele>310</ele>
        <time>2017-09-03T10:24:08Z</time>
      </trkpt>
      <trkpt lat="47.13003" lon="5.49263">
        <ele>310</ele>
        <time>2017-09-03T10:24:12Z</time>
      </trkpt>
      <trkpt lat="47.12998" lon="5.49259">
        <ele>310</ele>
        <time>2017-09-03T10:24:16Z</time>
      </trkpt>
      <trkpt lat="47.12991" lon="5.49256">
        <ele>310</ele>
        <time>2017-09-03T10:24:20Z</time>
      </trkpt>
      <trkpt lat="47.12986" lon="5.4925">
        <ele>310</ele>
        <time>2017-09-03T10:24:24Z</time>
      </trkpt>
      <trkpt lat="47.1298" lon="5.49245">
        <ele>310</ele>
        <time>2017-09-03T10:24:28Z</time>
      </trkpt>
      <trkpt lat="47.12972" lon="5.4924">
        <ele>310</ele>
        <time>2017-09-03T10:24:32Z</time>
      </trkpt>
      <trkpt lat="47.12964" lon="5.49234">
        <ele>310</ele>
        <time>2017-09-03T10:24:36Z</time>
      </trkpt>
      <trkpt lat="47.12956" lon="5.49224">
        <ele>311</ele>
        <time>2017-09-03T10:24:40Z</time>
      </trkpt>
      <trkpt lat="47.12948" lon="5.49215">
        <ele>311</ele>
        <time>2017-09-03T10:24:44Z</time>
      </trkpt>
      <trkpt lat="47.1294" lon="5.49205">
        <ele>310</ele>
        <time>2017-09-03T10:24:48Z</time>
      </trkpt>
      <trkpt lat="47.12932" lon="5.49195">
        <ele>311</ele>
        <time>2017-09-03T10:24:52Z</time>
      </trkpt>
      <trkpt lat="47.12927" lon="5.49188">
        <ele>311</ele>
        <time>2017-09-03T10:24:56Z</time>
      </trkpt>
      <trkpt lat="47.1292" lon="5.49179">
        <ele>311</ele>
        <time>2017-09-03T10:25:00Z</time>
      </trkpt>
      <trkpt lat="47.12915" lon="5.49172">
        <ele>311</ele>
        <time>2017-09-03T10:25:04Z</time>
      </trkpt>
      <trkpt lat="47.12913" lon="5.49162">
        <ele>311</ele>
        <time>2017-09-03T10:25:08Z</time>
      </trkpt>
      <trkpt lat="47.12909" lon="5.49156">
        <ele>311</ele>
        <time>2017-09-03T10:25:12Z</time>
      </trkpt>
      <trkpt lat="47.12905" lon="5.49148">
        <ele>311</ele>
        <time>2017-09-03T10:25:16Z</time>
      </trkpt>
      <trkpt lat="47.12903" lon="5.49139">
        <ele>311</ele>
        <time>2017-09-03T10:25:20Z</time>
      </trkpt>
      <trkpt lat="47.129" lon="5.4912">
        <ele>312</ele>
        <time>2017-09-03T10:25:32Z</time>
      </trkpt>
      <trkpt lat="47.12899" lon="5.49112">
        <ele>312</ele>
        <time>2017-09-03T10:25:36Z</time>
      </trkpt>
      <trkpt lat="47.12894" lon="5.49103">
        <ele>313</ele>
        <time>2017-09-03T10:25:40Z</time>
      </trkpt>
      <trkpt lat="47.12891" lon="5.49096">
        <ele>315</ele>
        <time>2017-09-03T10:25:44Z</time>
      </trkpt>
      <trkpt lat="47.12889" lon="5.49091">
        <ele>315</ele>
        <time>2017-09-03T10:25:48Z</time>
      </trkpt>
      <trkpt lat="47.12857" lon="5.49006">
        <ele>327</ele>
        <time>2017-09-03T10:27:16Z</time>
      </trkpt>
      <trkpt lat="47.12859" lon="5.49001">
        <ele>328</ele>
        <time>2017-09-03T10:27:20Z</time>
      </trkpt>
      <trkpt lat="47.12859" lon="5.48993">
        <ele>328</ele>
        <time>2017-09-03T10:27:24Z</time>
      </trkpt>
      <trkpt lat="47.1286" lon="5.48984">
        <ele>329</ele>
        <time>2017-09-03T10:27:28Z</time>
      </trkpt>
      <trkpt lat="47.12862" lon="5.48975">
        <ele>329</ele>
        <time>2017-09-03T10:27:32Z</time>
      </trkpt>
      <trkpt lat="47.12864" lon="5.48966">
        <ele>329</ele>
        <time>2017-09-03T10:27:36Z</time>
      </trkpt>
      <trkpt lat="47.12868" lon="5.48958">
        <ele>330</ele>
        <time>2017-09-03T10:27:40Z</time>
      </trkpt>
      <trkpt lat="47.12872" lon="5.48954">
        <ele>330</ele>
        <time>2017-09-03T10:27:44Z</time>
      </trkpt>
      <trkpt lat="47.12877" lon="5.48945">
        <ele>330</ele>
        <time>2017-09-03T10:27:48Z</time>
      </trkpt>
      <trkpt lat="47.12879" lon="5.48936">
        <ele>331</ele>
        <time>2017-09-03T10:27:52Z</time>
      </trkpt>
      <trkpt lat="47.12878" lon="5.48928">
        <ele>331</ele>
        <time>2017-09-03T10:27:56Z</time>
      </trkpt>
      <trkpt lat="47.12881" lon="5.48919">
        <ele>332</ele>
        <time>2017-09-03T10:28:00Z</time>
      </trkpt>
      <trkpt lat="47.12884" lon="5.48911">
        <ele>333</ele>
        <time>2017-09-03T10:28:05Z</time>
      </trkpt>
      <trkpt lat="47.12887" lon="5.48902">
        <ele>333</ele>
        <time>2017-09-03T10:28:12Z</time>
      </trkpt>
      <trkpt lat="47.1289" lon="5.48893">
        <ele>334</ele>
        <time>2017-09-03T10:28:16Z</time>
      </trkpt>
      <trkpt lat="47.12893" lon="5.48885">
        <ele>334</ele>
        <time>2017-09-03T10:28:20Z</time>
      </trkpt>
      <trkpt lat="47.12895" lon="5.48872">
        <ele>335</ele>
        <time>2017-09-03T10:28:24Z</time>
      </trkpt>
      <trkpt lat="47.12897" lon="5.48845">
        <ele>335</ele>
        <time>2017-09-03T10:28:28Z</time>
      </trkpt>
      <trkpt lat="47.12899" lon="5.48831">
        <ele>336</ele>
        <time>2017-09-03T10:28:32Z</time>
      </trkpt>
      <trkpt lat="47.12899" lon="5.48815">
        <ele>336</ele>
        <time>2017-09-03T10:28:36Z</time>
      </trkpt>
      <trkpt lat="47.129" lon="5.48798">
        <ele>336</ele>
        <time>2017-09-03T10:28:40Z</time>
      </trkpt>
      <trkpt lat="47.129" lon="5.48784">
        <ele>336</ele>
        <time>2017-09-03T10:28:44Z</time>
      </trkpt>
      <trkpt lat="47.12899" lon="5.48769">
        <ele>336</ele>
        <time>2017-09-03T10:28:48Z</time>
      </trkpt>
      <trkpt lat="47.129" lon="5.48753">
        <ele>336</ele>
        <time>2017-09-03T10:28:52Z</time>
      </trkpt>
      <trkpt lat="47.12901" lon="5.48735">
        <ele>336</ele>
        <time>2017-09-03T10:28:56Z</time>
      </trkpt>
      <trkpt lat="47.12905" lon="5.4872">
        <ele>336</ele>
        <time>2017-09-03T10:29:00Z</time>
      </trkpt>
      <trkpt lat="47.1291" lon="5.48703">
        <ele>335</ele>
        <time>2017-09-03T10:29:04Z</time>
      </trkpt>
      <trkpt lat="47.12914" lon="5.48687">
        <ele>334</ele>
        <time>2017-09-03T10:29:08Z</time>
      </trkpt>
      <trkpt lat="47.12916" lon="5.48658">
        <ele>333</ele>
        <time>2017-09-03T10:29:12Z</time>
      </trkpt>
      <trkpt lat="47.12926" lon="5.48631">
        <ele>331</ele>
        <time>2017-09-03T10:29:16Z</time>
      </trkpt>
      <trkpt lat="47.12932" lon="5.486">
        <ele>329</ele>
        <time>2017-09-03T10:29:20Z</time>
      </trkpt>
      <trkpt lat="47.12941" lon="5.48575">
        <ele>326</ele>
        <time>2017-09-03T10:29:24Z</time>
      </trkpt>
      <trkpt lat="47.12947" lon="5.48545">
        <ele>324</ele>
        <time>2017-09-03T10:29:28Z</time>
      </trkpt>
      <trkpt lat="47.12945" lon="5.48519">
        <ele>322</ele>
        <time>2017-09-03T10:29:32Z</time>
      </trkpt>
      <trkpt lat="47.12949" lon="5.485">
        <ele>322</ele>
        <time>2017-09-03T10:29:36Z</time>
      </trkpt>
      <trkpt lat="47.12953" lon="5.48485">
        <ele>323</ele>
        <time>2017-09-03T10:29:40Z</time>
      </trkpt>
      <trkpt lat="47.12956" lon="5.48476">
        <ele>324</ele>
        <time>2017-09-03T10:29:44Z</time>
      </trkpt>
      <trkpt lat="47.1296" lon="5.48461">
        <ele>325</ele>
        <time>2017-09-03T10:29:52Z</time>
      </trkpt>
      <trkpt lat="47.12963" lon="5.48448">
        <ele>325</ele>
        <time>2017-09-03T10:29:56Z</time>
      </trkpt>
      <trkpt lat="47.12967" lon="5.48435">
        <ele>325</ele>
        <time>2017-09-03T10:30:00Z</time>
      </trkpt>
      <trkpt lat="47.12971" lon="5.48423">
        <ele>326</ele>
        <time>2017-09-03T10:30:04Z</time>
      </trkpt>
      <trkpt lat="47.12977" lon="5.48411">
        <ele>326</ele>
        <time>2017-09-03T10:30:08Z</time>
      </trkpt>
      <trkpt lat="47.12976" lon="5.48399">
        <ele>327</ele>
        <time>2017-09-03T10:30:12Z</time>
      </trkpt>
      <trkpt lat="47.12975" lon="5.48385">
        <ele>327</ele>
        <time>2017-09-03T10:30:16Z</time>
      </trkpt>
      <trkpt lat="47.12973" lon="5.48371">
        <ele>328</ele>
        <time>2017-09-03T10:30:20Z</time>
      </trkpt>
      <trkpt lat="47.12968" lon="5.4836">
        <ele>328</ele>
        <time>2017-09-03T10:30:24Z</time>
      </trkpt>
      <trkpt lat="47.12963" lon="5.48348">
        <ele>328</ele>
        <time>2017-09-03T10:30:28Z</time>
      </trkpt>
      <trkpt lat="47.1296" lon="5.48339">
        <ele>328</ele>
        <time>2017-09-03T10:30:32Z</time>
      </trkpt>
      <trkpt lat="47.12963" lon="5.48327">
        <ele>328</ele>
        <time>2017-09-03T10:31:44Z</time>
      </trkpt>
      <trkpt lat="47.12966" lon="5.48325">
        <ele>328</ele>
        <time>2017-09-03T10:31:48Z</time>
      </trkpt>
      <trkpt lat="47.12975" lon="5.48313">
        <ele>328</ele>
        <time>2017-09-03T10:32:36Z</time>
      </trkpt>
      <trkpt lat="47.12984" lon="5.48304">
        <ele>327</ele>
        <time>2017-09-03T10:32:40Z</time>
      </trkpt>
      <trkpt lat="47.12993" lon="5.48294">
        <ele>326</ele>
        <time>2017-09-03T10:32:44Z</time>
      </trkpt>
      <trkpt lat="47.13002" lon="5.48285">
        <ele>326</ele>
        <time>2017-09-03T10:32:48Z</time>
      </trkpt>
      <trkpt lat="47.13014" lon="5.48274">
        <ele>325</ele>
        <time>2017-09-03T10:32:52Z</time>
      </trkpt>
      <trkpt lat="47.13024" lon="5.48261">
        <ele>323</ele>
        <time>2017-09-03T10:32:56Z</time>
      </trkpt>
      <trkpt lat="47.13035" lon="5.48254">
        <ele>321</ele>
        <time>2017-09-03T10:33:00Z</time>
      </trkpt>
      <trkpt lat="47.13041" lon="5.48245">
        <ele>320</ele>
        <time>2017-09-03T10:33:04Z</time>
      </trkpt>
      <trkpt lat="47.13037" lon="5.48235">
        <ele>320</ele>
        <time>2017-09-03T10:33:08Z</time>
      </trkpt>
      <trkpt lat="47.13029" lon="5.48226">
        <ele>320</ele>
        <time>2017-09-03T10:33:12Z</time>
      </trkpt>
      <trkpt lat="47.13019" lon="5.48215">
        <ele>320</ele>
        <time>2017-09-03T10:33:16Z</time>
      </trkpt>
      <trkpt lat="47.13009" lon="5.48203">
        <ele>321</ele>
        <time>2017-09-03T10:33:20Z</time>
      </trkpt>
      <trkpt lat="47.12997" lon="5.48191">
        <ele>321</ele>
        <time>2017-09-03T10:33:24Z</time>
      </trkpt>
      <trkpt lat="47.12985" lon="5.48178">
        <ele>321</ele>
        <time>2017-09-03T10:33:28Z</time>
      </trkpt>
      <trkpt lat="47.12972" lon="5.48164">
        <ele>321</ele>
        <time>2017-09-03T10:33:32Z</time>
      </trkpt>
      <trkpt lat="47.12959" lon="5.4815">
        <ele>320</ele>
        <time>2017-09-03T10:33:36Z</time>
      </trkpt>
      <trkpt lat="47.12946" lon="5.48137">
        <ele>320</ele>
        <time>2017-09-03T10:33:40Z</time>
      </trkpt>
      <trkpt lat="47.12938" lon="5.48121">
        <ele>319</ele>
        <time>2017-09-03T10:33:44Z</time>
      </trkpt>
      <trkpt lat="47.12945" lon="5.481">
        <ele>318</ele>
        <time>2017-09-03T10:33:48Z</time>
      </trkpt>
      <trkpt lat="47.12948" lon="5.4808">
        <ele>316</ele>
        <time>2017-09-03T10:33:52Z</time>
      </trkpt>
      <trkpt lat="47.12952" lon="5.48064">
        <ele>315</ele>
        <time>2017-09-03T10:33:56Z</time>
      </trkpt>
      <trkpt lat="47.12953" lon="5.48051">
        <ele>314</ele>
        <time>2017-09-03T10:34:00Z</time>
      </trkpt>
      <trkpt lat="47.1296" lon="5.48034">
        <ele>312</ele>
        <time>2017-09-03T10:34:04Z</time>
      </trkpt>
      <trkpt lat="47.12964" lon="5.48013">
        <ele>311</ele>
        <time>2017-09-03T10:34:08Z</time>
      </trkpt>
      <trkpt lat="47.12965" lon="5.47993">
        <ele>310</ele>
        <time>2017-09-03T10:34:12Z</time>
      </trkpt>
      <trkpt lat="47.12967" lon="5.47979">
        <ele>310</ele>
        <time>2017-09-03T10:34:16Z</time>
      </trkpt>
      <trkpt lat="47.12972" lon="5.47962">
        <ele>310</ele>
        <time>2017-09-03T10:34:20Z</time>
      </trkpt>
      <trkpt lat="47.12973" lon="5.47945">
        <ele>310</ele>
        <time>2017-09-03T10:34:24Z</time>
      </trkpt>
      <trkpt lat="47.12976" lon="5.47927">
        <ele>311</ele>
        <time>2017-09-03T10:34:28Z</time>
      </trkpt>
      <trkpt lat="47.1298" lon="5.47915">
        <ele>312</ele>
        <time>2017-09-03T10:34:32Z</time>
      </trkpt>
      <trkpt lat="47.12981" lon="5.47898">
        <ele>313</ele>
        <time>2017-09-03T10:34:36Z</time>
      </trkpt>
      <trkpt lat="47.12984" lon="5.47884">
        <ele>313</ele>
        <time>2017-09-03T10:34:40Z</time>
      </trkpt>
      <trkpt lat="47.12987" lon="5.47867">
        <ele>314</ele>
        <time>2017-09-03T10:34:44Z</time>
      </trkpt>
      <trkpt lat="47.12987" lon="5.47851">
        <ele>314</ele>
        <time>2017-09-03T10:34:48Z</time>
      </trkpt>
      <trkpt lat="47.12988" lon="5.47838">
        <ele>315</ele>
        <time>2017-09-03T10:34:52Z</time>
      </trkpt>
      <trkpt lat="47.12992" lon="5.47827">
        <ele>316</ele>
        <time>2017-09-03T10:34:56Z</time>
      </trkpt>
      <trkpt lat="47.12995" lon="5.47819">
        <ele>316</ele>
        <time>2017-09-03T10:35:00Z</time>
      </trkpt>
      <trkpt lat="47.12997" lon="5.4781">
        <ele>317</ele>
        <time>2017-09-03T10:35:04Z</time>
      </trkpt>
      <trkpt lat="47.13" lon="5.47803">
        <ele>318</ele>
        <time>2017-09-03T10:35:08Z</time>
      </trkpt>
      <trkpt lat="47.13" lon="5.47794">
        <ele>319</ele>
        <time>2017-09-03T10:35:12Z</time>
      </trkpt>
      <trkpt lat="47.13" lon="5.47785">
        <ele>319</ele>
        <time>2017-09-03T10:35:16Z</time>
      </trkpt>
      <trkpt lat="47.13002" lon="5.47775">
        <ele>320</ele>
        <time>2017-09-03T10:35:20Z</time>
      </trkpt>
      <trkpt lat="47.13005" lon="5.47767">
        <ele>320</ele>
        <time>2017-09-03T10:35:24Z</time>
      </trkpt>
      <trkpt lat="47.1301" lon="5.47759">
        <ele>320</ele>
        <time>2017-09-03T10:35:28Z</time>
      </trkpt>
      <trkpt lat="47.13011" lon="5.47753">
        <ele>320</ele>
        <time>2017-09-03T10:35:32Z</time>
      </trkpt>
      <trkpt lat="47.13006" lon="5.47747">
        <ele>321</ele>
        <time>2017-09-03T10:35:36Z</time>
      </trkpt>
      <trkpt lat="47.13002" lon="5.47742">
        <ele>321</ele>
        <time>2017-09-03T10:35:40Z</time>
      </trkpt>
      <trkpt lat="47.12996" lon="5.47735">
        <ele>321</ele>
        <time>2017-09-03T10:35:44Z</time>
      </trkpt>
      <trkpt lat="47.12991" lon="5.47728">
        <ele>322</ele>
        <time>2017-09-03T10:35:49Z</time>
      </trkpt>
      <trkpt lat="47.12985" lon="5.47722">
        <ele>322</ele>
        <time>2017-09-03T10:35:52Z</time>
      </trkpt>
      <trkpt lat="47.1298" lon="5.47715">
        <ele>323</ele>
        <time>2017-09-03T10:35:56Z</time>
      </trkpt>
      <trkpt lat="47.12975" lon="5.47711">
        <ele>323</ele>
        <time>2017-09-03T10:36:00Z</time>
      </trkpt>
      <trkpt lat="47.1297" lon="5.47707">
        <ele>323</ele>
        <time>2017-09-03T10:36:04Z</time>
      </trkpt>
      <trkpt lat="47.12967" lon="5.47702">
        <ele>324</ele>
        <time>2017-09-03T10:36:08Z</time>
      </trkpt>
      <trkpt lat="47.12962" lon="5.47699">
        <ele>324</ele>
        <time>2017-09-03T10:36:12Z</time>
      </trkpt>
      <trkpt lat="47.12955" lon="5.47695">
        <ele>325</ele>
        <time>2017-09-03T10:36:16Z</time>
      </trkpt>
      <trkpt lat="47.12949" lon="5.47692">
        <ele>326</ele>
        <time>2017-09-03T10:36:20Z</time>
      </trkpt>
      <trkpt lat="47.12944" lon="5.4769">
        <ele>326</ele>
        <time>2017-09-03T10:36:24Z</time>
      </trkpt>
      <trkpt lat="47.12939" lon="5.47686">
        <ele>326</ele>
        <time>2017-09-03T10:36:28Z</time>
      </trkpt>
      <trkpt lat="47.12934" lon="5.47686">
        <ele>327</ele>
        <time>2017-09-03T10:36:32Z</time>
      </trkpt>
      <trkpt lat="47.12928" lon="5.47687">
        <ele>328</ele>
        <time>2017-09-03T10:36:36Z</time>
      </trkpt>
      <trkpt lat="47.12921" lon="5.47685">
        <ele>328</ele>
        <time>2017-09-03T10:36:40Z</time>
      </trkpt>
      <trkpt lat="47.12914" lon="5.47684">
        <ele>329</ele>
        <time>2017-09-03T10:36:44Z</time>
      </trkpt>
      <trkpt lat="47.12908" lon="5.47683">
        <ele>329</ele>
        <time>2017-09-03T10:36:48Z</time>
      </trkpt>
      <trkpt lat="47.12903" lon="5.4768">
        <ele>330</ele>
        <time>2017-09-03T10:36:52Z</time>
      </trkpt>
      <trkpt lat="47.12898" lon="5.47678">
        <ele>331</ele>
        <time>2017-09-03T10:36:56Z</time>
      </trkpt>
      <trkpt lat="47.12892" lon="5.47675">
        <ele>331</ele>
        <time>2017-09-03T10:37:00Z</time>
      </trkpt>
      <trkpt lat="47.12886" lon="5.47675">
        <ele>331</ele>
        <time>2017-09-03T10:37:04Z</time>
      </trkpt>
      <trkpt lat="47.1288" lon="5.47678">
        <ele>332</ele>
        <time>2017-09-03T10:37:08Z</time>
      </trkpt>
      <trkpt lat="47.12875" lon="5.47681">
        <ele>332</ele>
        <time>2017-09-03T10:37:12Z</time>
      </trkpt>
      <trkpt lat="47.12871" lon="5.47682">
        <ele>333</ele>
        <time>2017-09-03T10:37:16Z</time>
      </trkpt>
      <trkpt lat="47.12865" lon="5.47684">
        <ele>333</ele>
        <time>2017-09-03T10:37:20Z</time>
      </trkpt>
      <trkpt lat="47.12858" lon="5.47685">
        <ele>333</ele>
        <time>2017-09-03T10:37:24Z</time>
      </trkpt>
      <trkpt lat="47.1285" lon="5.47685">
        <ele>333</ele>
        <time>2017-09-03T10:37:28Z</time>
      </trkpt>
      <trkpt lat="47.12843" lon="5.47685">
        <ele>334</ele>
        <time>2017-09-03T10:37:32Z</time>
      </trkpt>
      <trkpt lat="47.12837" lon="5.47685">
        <ele>334</ele>
        <time>2017-09-03T10:37:36Z</time>
      </trkpt>
      <trkpt lat="47.1283" lon="5.47685">
        <ele>334</ele>
        <time>2017-09-03T10:37:40Z</time>
      </trkpt>
      <trkpt lat="47.12822" lon="5.47685">
        <ele>335</ele>
        <time>2017-09-03T10:37:44Z</time>
      </trkpt>
      <trkpt lat="47.12815" lon="5.47686">
        <ele>335</ele>
        <time>2017-09-03T10:37:48Z</time>
      </trkpt>
      <trkpt lat="47.12808" lon="5.47687">
        <ele>336</ele>
        <time>2017-09-03T10:37:52Z</time>
      </trkpt>
      <trkpt lat="47.12802" lon="5.47688">
        <ele>336</ele>
        <time>2017-09-03T10:37:56Z</time>
      </trkpt>
      <trkpt lat="47.12797" lon="5.47688">
        <ele>337</ele>
        <time>2017-09-03T10:38:00Z</time>
      </trkpt>
      <trkpt lat="47.12792" lon="5.47689">
        <ele>337</ele>
        <time>2017-09-03T10:38:04Z</time>
      </trkpt>
      <trkpt lat="47.12787" lon="5.47691">
        <ele>338</ele>
        <time>2017-09-03T10:38:08Z</time>
      </trkpt>
      <trkpt lat="47.12778" lon="5.47693">
        <ele>338</ele>
        <time>2017-09-03T10:38:12Z</time>
      </trkpt>
      <trkpt lat="47.1277" lon="5.47698">
        <ele>338</ele>
        <time>2017-09-03T10:38:16Z</time>
      </trkpt>
      <trkpt lat="47.1276" lon="5.47703">
        <ele>338</ele>
        <time>2017-09-03T10:38:20Z</time>
      </trkpt>
      <trkpt lat="47.12749" lon="5.47708">
        <ele>338</ele>
        <time>2017-09-03T10:38:24Z</time>
      </trkpt>
      <trkpt lat="47.12738" lon="5.47709">
        <ele>338</ele>
        <time>2017-09-03T10:38:28Z</time>
      </trkpt>
      <trkpt lat="47.12728" lon="5.47707">
        <ele>338</ele>
        <time>2017-09-03T10:38:32Z</time>
      </trkpt>
      <trkpt lat="47.12715" lon="5.47704">
        <ele>339</ele>
        <time>2017-09-03T10:38:36Z</time>
      </trkpt>
      <trkpt lat="47.12701" lon="5.47702">
        <ele>339</ele>
        <time>2017-09-03T10:38:40Z</time>
      </trkpt>
      <trkpt lat="47.12689" lon="5.47698">
        <ele>339</ele>
        <time>2017-09-03T10:38:44Z</time>
      </trkpt>
      <trkpt lat="47.12678" lon="5.47695">
        <ele>339</ele>
        <time>2017-09-03T10:38:48Z</time>
      </trkpt>
      <trkpt lat="47.1267" lon="5.47694">
        <ele>340</ele>
        <time>2017-09-03T10:38:52Z</time>
      </trkpt>
      <trkpt lat="47.12662" lon="5.47694">
        <ele>340</ele>
        <time>2017-09-03T10:38:56Z</time>
      </trkpt>
      <trkpt lat="47.12654" lon="5.47693">
        <ele>340</ele>
        <time>2017-09-03T10:39:00Z</time>
      </trkpt>
      <trkpt lat="47.12647" lon="5.47689">
        <ele>341</ele>
        <time>2017-09-03T10:39:04Z</time>
      </trkpt>
      <trkpt lat="47.12638" lon="5.47683">
        <ele>341</ele>
        <time>2017-09-03T10:39:08Z</time>
      </trkpt>
      <trkpt lat="47.12631" lon="5.47678">
        <ele>341</ele>
        <time>2017-09-03T10:39:12Z</time>
      </trkpt>
      <trkpt lat="47.12621" lon="5.47671">
        <ele>341</ele>
        <time>2017-09-03T10:39:16Z</time>
      </trkpt>
      <trkpt lat="47.12612" lon="5.47664">
        <ele>342</ele>
        <time>2017-09-03T10:39:20Z</time>
      </trkpt>
      <trkpt lat="47.12604" lon="5.47658">
        <ele>342</ele>
        <time>2017-09-03T10:39:24Z</time>
      </trkpt>
      <trkpt lat="47.12598" lon="5.47651">
        <ele>342</ele>
        <time>2017-09-03T10:39:28Z</time>
      </trkpt>
      <trkpt lat="47.12592" lon="5.47644">
        <ele>343</ele>
        <time>2017-09-03T10:39:32Z</time>
      </trkpt>
      <trkpt lat="47.12585" lon="5.47641">
        <ele>343</ele>
        <time>2017-09-03T10:39:36Z</time>
      </trkpt>
      <trkpt lat="47.12578" lon="5.47636">
        <ele>343</ele>
        <time>2017-09-03T10:39:40Z</time>
      </trkpt>
      <trkpt lat="47.12569" lon="5.47632">
        <ele>344</ele>
        <time>2017-09-03T10:39:44Z</time>
      </trkpt>
      <trkpt lat="47.12559" lon="5.47625">
        <ele>344</ele>
        <time>2017-09-03T10:39:48Z</time>
      </trkpt>
      <trkpt lat="47.12548" lon="5.4762">
        <ele>344</ele>
        <time>2017-09-03T10:39:52Z</time>
      </trkpt>
      <trkpt lat="47.1254" lon="5.47614">
        <ele>344</ele>
        <time>2017-09-03T10:39:56Z</time>
      </trkpt>
      <trkpt lat="47.12533" lon="5.47605">
        <ele>345</ele>
        <time>2017-09-03T10:40:00Z</time>
      </trkpt>
      <trkpt lat="47.1253" lon="5.47597">
        <ele>345</ele>
        <time>2017-09-03T10:40:04Z</time>
      </trkpt>
      <trkpt lat="47.12533" lon="5.47588">
        <ele>345</ele>
        <time>2017-09-03T10:40:08Z</time>
      </trkpt>
      <trkpt lat="47.12537" lon="5.47579">
        <ele>346</ele>
        <time>2017-09-03T10:40:12Z</time>
      </trkpt>
      <trkpt lat="47.12541" lon="5.4757">
        <ele>346</ele>
        <time>2017-09-03T10:40:16Z</time>
      </trkpt>
      <trkpt lat="47.12545" lon="5.47563">
        <ele>347</ele>
        <time>2017-09-03T10:40:20Z</time>
      </trkpt>
      <trkpt lat="47.12543" lon="5.47552">
        <ele>347</ele>
        <time>2017-09-03T10:40:24Z</time>
      </trkpt>
      <trkpt lat="47.12537" lon="5.47542">
        <ele>347</ele>
        <time>2017-09-03T10:40:28Z</time>
      </trkpt>
      <trkpt lat="47.1253" lon="5.47535">
        <ele>347</ele>
        <time>2017-09-03T10:40:32Z</time>
      </trkpt>
      <trkpt lat="47.12523" lon="5.47527">
        <ele>347</ele>
        <time>2017-09-03T10:40:36Z</time>
      </trkpt>
      <trkpt lat="47.12515" lon="5.4752">
        <ele>348</ele>
        <time>2017-09-03T10:40:40Z</time>
      </trkpt>
      <trkpt lat="47.12506" lon="5.47513">
        <ele>348</ele>
        <time>2017-09-03T10:40:44Z</time>
      </trkpt>
      <trkpt lat="47.12498" lon="5.47508">
        <ele>348</ele>
        <time>2017-09-03T10:40:48Z</time>
      </trkpt>
      <trkpt lat="47.12489" lon="5.47503">
        <ele>347</ele>
        <time>2017-09-03T10:40:52Z</time>
      </trkpt>
      <trkpt lat="47.1248" lon="5.47497">
        <ele>347</ele>
        <time>2017-09-03T10:40:56Z</time>
      </trkpt>
      <trkpt lat="47.12475" lon="5.47494">
        <ele>347</ele>
        <time>2017-09-03T10:41:00Z</time>
      </trkpt>
      <trkpt lat="47.12468" lon="5.47472">
        <ele>347</ele>
        <time>2017-09-03T10:53:48Z</time>
      </trkpt>
      <trkpt lat="47.12465" lon="5.47464">
        <ele>347</ele>
        <time>2017-09-03T10:53:52Z</time>
      </trkpt>
      <trkpt lat="47.12463" lon="5.47455">
        <ele>347</ele>
        <time>2017-09-03T10:53:56Z</time>
      </trkpt>
      <trkpt lat="47.12465" lon="5.47444">
        <ele>347</ele>
        <time>2017-09-03T10:54:00Z</time>
      </trkpt>
      <trkpt lat="47.12467" lon="5.47432">
        <ele>346</ele>
        <time>2017-09-03T10:54:04Z</time>
      </trkpt>
      <trkpt lat="47.12466" lon="5.47423">
        <ele>346</ele>
        <time>2017-09-03T10:54:08Z</time>
      </trkpt>
      <trkpt lat="47.12468" lon="5.47429">
        <ele>346</ele>
        <time>2017-09-03T10:54:16Z</time>
      </trkpt>
      <trkpt lat="47.12466" lon="5.47437">
        <ele>346</ele>
        <time>2017-09-03T10:54:20Z</time>
      </trkpt>
      <trkpt lat="47.12467" lon="5.47446">
        <ele>346</ele>
        <time>2017-09-03T10:54:24Z</time>
      </trkpt>
      <trkpt lat="47.1247" lon="5.47447">
        <ele>347</ele>
        <time>2017-09-03T10:57:28Z</time>
      </trkpt>
      <trkpt lat="47.12471" lon="5.47453">
        <ele>347</ele>
        <time>2017-09-03T10:57:32Z</time>
      </trkpt>
      <trkpt lat="47.12478" lon="5.47447">
        <ele>348</ele>
        <time>2017-09-03T10:57:36Z</time>
      </trkpt>
      <trkpt lat="47.12482" lon="5.47431">
        <ele>347</ele>
        <time>2017-09-03T10:57:40Z</time>
      </trkpt>
      <trkpt lat="47.12485" lon="5.47414">
        <ele>347</ele>
        <time>2017-09-03T10:57:44Z</time>
      </trkpt>
      <trkpt lat="47.12489" lon="5.47395">
        <ele>346</ele>
        <time>2017-09-03T10:57:48Z</time>
      </trkpt>
      <trkpt lat="47.12493" lon="5.47374">
        <ele>345</ele>
        <time>2017-09-03T10:57:52Z</time>
      </trkpt>
      <trkpt lat="47.12499" lon="5.47352">
        <ele>344</ele>
        <time>2017-09-03T10:57:56Z</time>
      </trkpt>
      <trkpt lat="47.12503" lon="5.47335">
        <ele>343</ele>
        <time>2017-09-03T10:58:00Z</time>
      </trkpt>
      <trkpt lat="47.12507" lon="5.47319">
        <ele>342</ele>
        <time>2017-09-03T10:58:04Z</time>
      </trkpt>
      <trkpt lat="47.12513" lon="5.47303">
        <ele>341</ele>
        <time>2017-09-03T10:58:08Z</time>
      </trkpt>
      <trkpt lat="47.12521" lon="5.47281">
        <ele>339</ele>
        <time>2017-09-03T10:58:12Z</time>
      </trkpt>
      <trkpt lat="47.12533" lon="5.47255">
        <ele>338</ele>
        <time>2017-09-03T10:58:16Z</time>
      </trkpt>
      <trkpt lat="47.12548" lon="5.47231">
        <ele>337</ele>
        <time>2017-09-03T10:58:20Z</time>
      </trkpt>
      <trkpt lat="47.12564" lon="5.47208">
        <ele>335</ele>
        <time>2017-09-03T10:58:24Z</time>
      </trkpt>
      <trkpt lat="47.12581" lon="5.47196">
        <ele>333</ele>
        <time>2017-09-03T10:58:28Z</time>
      </trkpt>
      <trkpt lat="47.12589" lon="5.47186">
        <ele>331</ele>
        <time>2017-09-03T10:58:32Z</time>
      </trkpt>
      <trkpt lat="47.12593" lon="5.47177">
        <ele>330</ele>
        <time>2017-09-03T10:58:40Z</time>
      </trkpt>
      <trkpt lat="47.12599" lon="5.47163">
        <ele>330</ele>
        <time>2017-09-03T10:58:44Z</time>
      </trkpt>
      <trkpt lat="47.12606" lon="5.4715">
        <ele>328</ele>
        <time>2017-09-03T10:58:48Z</time>
      </trkpt>
      <trkpt lat="47.1262" lon="5.47132">
        <ele>326</ele>
        <time>2017-09-03T10:58:52Z</time>
      </trkpt>
      <trkpt lat="47.1263" lon="5.47106">
        <ele>324</ele>
        <time>2017-09-03T10:58:56Z</time>
      </trkpt>
      <trkpt lat="47.12638" lon="5.47072">
        <ele>322</ele>
        <time>2017-09-03T10:59:00Z</time>
      </trkpt>
      <trkpt lat="47.12641" lon="5.47044">
        <ele>319</ele>
        <time>2017-09-03T10:59:04Z</time>
      </trkpt>
      <trkpt lat="47.12636" lon="5.47014">
        <ele>317</ele>
        <time>2017-09-03T10:59:08Z</time>
      </trkpt>
      <trkpt lat="47.12628" lon="5.46984">
        <ele>315</ele>
        <time>2017-09-03T10:59:12Z</time>
      </trkpt>
      <trkpt lat="47.12614" lon="5.46955">
        <ele>314</ele>
        <time>2017-09-03T10:59:16Z</time>
      </trkpt>
      <trkpt lat="47.126" lon="5.46924">
        <ele>311</ele>
        <time>2017-09-03T10:59:20Z</time>
      </trkpt>
      <trkpt lat="47.12586" lon="5.46899">
        <ele>309</ele>
        <time>2017-09-03T10:59:24Z</time>
      </trkpt>
      <trkpt lat="47.12566" lon="5.46874">
        <ele>308</ele>
        <time>2017-09-03T10:59:28Z</time>
      </trkpt>
      <trkpt lat="47.1255" lon="5.46855">
        <ele>306</ele>
        <time>2017-09-03T10:59:32Z</time>
      </trkpt>
      <trkpt lat="47.12536" lon="5.46835">
        <ele>304</ele>
        <time>2017-09-03T10:59:36Z</time>
      </trkpt>
      <trkpt lat="47.12528" lon="5.46806">
        <ele>301</ele>
        <time>2017-09-03T10:59:40Z</time>
      </trkpt>
      <trkpt lat="47.12515" lon="5.46779">
        <ele>299</ele>
        <time>2017-09-03T10:59:44Z</time>
      </trkpt>
      <trkpt lat="47.12503" lon="5.4676">
        <ele>294</ele>
        <time>2017-09-03T10:59:48Z</time>
      </trkpt>
      <trkpt lat="47.12495" lon="5.46753">
        <ele>294</ele>
        <time>2017-09-03T10:59:52Z</time>
      </trkpt>
      <trkpt lat="47.12495" lon="5.4673">
        <ele>292</ele>
        <time>2017-09-03T10:59:56Z</time>
      </trkpt>
      <trkpt lat="47.12499" lon="5.46704">
        <ele>289</ele>
        <time>2017-09-03T11:00:00Z</time>
      </trkpt>
      <trkpt lat="47.125" lon="5.46677">
        <ele>288</ele>
        <time>2017-09-03T11:00:04Z</time>
      </trkpt>
      <trkpt lat="47.12497" lon="5.46647">
        <ele>286</ele>
        <time>2017-09-03T11:00:08Z</time>
      </trkpt>
      <trkpt lat="47.12494" lon="5.46624">
        <ele>284</ele>
        <time>2017-09-03T11:00:12Z</time>
      </trkpt>
      <trkpt lat="47.12485" lon="5.46594">
        <ele>281</ele>
        <time>2017-09-03T11:00:16Z</time>
      </trkpt>
      <trkpt lat="47.1248" lon="5.46557">
        <ele>280</ele>
        <time>2017-09-03T11:00:20Z</time>
      </trkpt>
      <trkpt lat="47.12479" lon="5.46527">
        <ele>278</ele>
        <time>2017-09-03T11:00:24Z</time>
      </trkpt>
      <trkpt lat="47.12486" lon="5.4651">
        <ele>278</ele>
        <time>2017-09-03T11:00:29Z</time>
      </trkpt>
      <trkpt lat="47.1249" lon="5.46506">
        <ele>278</ele>
        <time>2017-09-03T11:00:32Z</time>
      </trkpt>
      <trkpt lat="47.12494" lon="5.46507">
        <ele>278</ele>
        <time>2017-09-03T11:00:36Z</time>
      </trkpt>
      <trkpt lat="47.12501" lon="5.46509">
        <ele>279</ele>
        <time>2017-09-03T11:00:40Z</time>
      </trkpt>
      <trkpt lat="47.12508" lon="5.46513">
        <ele>280</ele>
        <time>2017-09-03T11:00:44Z</time>
      </trkpt>
      <trkpt lat="47.12515" lon="5.46516">
        <ele>280</ele>
        <time>2017-09-03T11:00:48Z</time>
      </trkpt>
      <trkpt lat="47.12524" lon="5.46517">
        <ele>281</ele>
        <time>2017-09-03T11:00:52Z</time>
      </trkpt>
      <trkpt lat="47.12536" lon="5.46515">
        <ele>281</ele>
        <time>2017-09-03T11:00:56Z</time>
      </trkpt>
      <trkpt lat="47.12556" lon="5.46514">
        <ele>280</ele>
        <time>2017-09-03T11:01:00Z</time>
      </trkpt>
      <trkpt lat="47.12575" lon="5.46498">
        <ele>278</ele>
        <time>2017-09-03T11:01:04Z</time>
      </trkpt>
      <trkpt lat="47.12584" lon="5.46462">
        <ele>276</ele>
        <time>2017-09-03T11:01:08Z</time>
      </trkpt>
      <trkpt lat="47.12587" lon="5.46411">
        <ele>272</ele>
        <time>2017-09-03T11:01:12Z</time>
      </trkpt>
      <trkpt lat="47.12585" lon="5.4636">
        <ele>267</ele>
        <time>2017-09-03T11:01:16Z</time>
      </trkpt>
      <trkpt lat="47.12575" lon="5.46316">
        <ele>263</ele>
        <time>2017-09-03T11:01:20Z</time>
      </trkpt>
      <trkpt lat="47.12569" lon="5.46268">
        <ele>260</ele>
        <time>2017-09-03T11:01:24Z</time>
      </trkpt>
      <trkpt lat="47.1257" lon="5.46221">
        <ele>256</ele>
        <time>2017-09-03T11:01:28Z</time>
      </trkpt>
      <trkpt lat="47.12575" lon="5.4617">
        <ele>254</ele>
        <time>2017-09-03T11:01:32Z</time>
      </trkpt>
      <trkpt lat="47.12579" lon="5.46129">
        <ele>251</ele>
        <time>2017-09-03T11:01:36Z</time>
      </trkpt>
      <trkpt lat="47.12567" lon="5.46112">
        <ele>249</ele>
        <time>2017-09-03T11:01:40Z</time>
      </trkpt>
      <trkpt lat="47.12549" lon="5.46113">
        <ele>249</ele>
        <time>2017-09-03T11:01:44Z</time>
      </trkpt>
      <trkpt lat="47.12532" lon="5.46114">
        <ele>250</ele>
        <time>2017-09-03T11:01:48Z</time>
      </trkpt>
      <trkpt lat="47.12518" lon="5.46114">
        <ele>250</ele>
        <time>2017-09-03T11:01:52Z</time>
      </trkpt>
      <trkpt lat="47.12512" lon="5.46101">
        <ele>251</ele>
        <time>2017-09-03T11:01:56Z</time>
      </trkpt>
      <trkpt lat="47.12513" lon="5.46077">
        <ele>250</ele>
        <time>2017-09-03T11:02:00Z</time>
      </trkpt>
      <trkpt lat="47.12518" lon="5.46049">
        <ele>250</ele>
        <time>2017-09-03T11:02:04Z</time>
      </trkpt>
      <trkpt lat="47.12521" lon="5.46022">
        <ele>248</ele>
        <time>2017-09-03T11:02:08Z</time>
      </trkpt>
      <trkpt lat="47.12523" lon="5.45994">
        <ele>247</ele>
        <time>2017-09-03T11:02:12Z</time>
      </trkpt>
      <trkpt lat="47.12525" lon="5.45964">
        <ele>246</ele>
        <time>2017-09-03T11:02:16Z</time>
      </trkpt>
      <trkpt lat="47.12527" lon="5.45935">
        <ele>245</ele>
        <time>2017-09-03T11:02:20Z</time>
      </trkpt>
      <trkpt lat="47.12529" lon="5.45907">
        <ele>244</ele>
        <time>2017-09-03T11:02:24Z</time>
      </trkpt>
      <trkpt lat="47.12525" lon="5.45883">
        <ele>243</ele>
        <time>2017-09-03T11:02:28Z</time>
      </trkpt>
      <trkpt lat="47.12519" lon="5.45858">
        <ele>242</ele>
        <time>2017-09-03T11:02:32Z</time>
      </trkpt>
      <trkpt lat="47.12517" lon="5.45828">
        <ele>240</ele>
        <time>2017-09-03T11:02:36Z</time>
      </trkpt>
      <trkpt lat="47.12514" lon="5.45809">
        <ele>239</ele>
        <time>2017-09-03T11:02:40Z</time>
      </trkpt>
      <trkpt lat="47.12512" lon="5.45795">
        <ele>239</ele>
        <time>2017-09-03T11:02:44Z</time>
      </trkpt>
      <trkpt lat="47.12511" lon="5.45776">
        <ele>240</ele>
        <time>2017-09-03T11:02:48Z</time>
      </trkpt>
      <trkpt lat="47.12515" lon="5.45759">
        <ele>240</ele>
        <time>2017-09-03T11:02:52Z</time>
      </trkpt>
      <trkpt lat="47.12523" lon="5.45743">
        <ele>240</ele>
        <time>2017-09-03T11:02:56Z</time>
      </trkpt>
      <trkpt lat="47.12536" lon="5.45725">
        <ele>239</ele>
        <time>2017-09-03T11:03:00Z</time>
      </trkpt>
      <trkpt lat="47.12552" lon="5.457">
        <ele>238</ele>
        <time>2017-09-03T11:03:04Z</time>
      </trkpt>
      <trkpt lat="47.12569" lon="5.45665">
        <ele>235</ele>
        <time>2017-09-03T11:03:08Z</time>
      </trkpt>
      <trkpt lat="47.12583" lon="5.45622">
        <ele>234</ele>
        <time>2017-09-03T11:03:12Z</time>
      </trkpt>
      <trkpt lat="47.12595" lon="5.45581">
        <ele>234</ele>
        <time>2017-09-03T11:03:16Z</time>
      </trkpt>
      <trkpt lat="47.12604" lon="5.45542">
        <ele>233</ele>
        <time>2017-09-03T11:03:20Z</time>
      </trkpt>
      <trkpt lat="47.12603" lon="5.45514">
        <ele>231</ele>
        <time>2017-09-03T11:03:24Z</time>
      </trkpt>
      <trkpt lat="47.12589" lon="5.45492">
        <ele>230</ele>
        <time>2017-09-03T11:03:28Z</time>
      </trkpt>
      <trkpt lat="47.12576" lon="5.45466">
        <ele>229</ele>
        <time>2017-09-03T11:03:32Z</time>
      </trkpt>
      <trkpt lat="47.12574" lon="5.4544">
        <ele>230</ele>
        <time>2017-09-03T11:03:36Z</time>
      </trkpt>
      <trkpt lat="47.12575" lon="5.45416">
        <ele>230</ele>
        <time>2017-09-03T11:03:40Z</time>
      </trkpt>
      <trkpt lat="47.1257" lon="5.45394">
        <ele>231</ele>
        <time>2017-09-03T11:03:44Z</time>
      </trkpt>
      <trkpt lat="47.12561" lon="5.4537">
        <ele>231</ele>
        <time>2017-09-03T11:03:48Z</time>
      </trkpt>
      <trkpt lat="47.12548" lon="5.45351">
        <ele>232</ele>
        <time>2017-09-03T11:03:52Z</time>
      </trkpt>
      <trkpt lat="47.12533" lon="5.45331">
        <ele>232</ele>
        <time>2017-09-03T11:03:56Z</time>
      </trkpt>
      <trkpt lat="47.12517" lon="5.45307">
        <ele>231</ele>
        <time>2017-09-03T11:04:00Z</time>
      </trkpt>
      <trkpt lat="47.12497" lon="5.45293">
        <ele>230</ele>
        <time>2017-09-03T11:04:04Z</time>
      </trkpt>
      <trkpt lat="47.12491" lon="5.45303">
        <ele>231</ele>
        <time>2017-09-03T11:04:08Z</time>
      </trkpt>
      <trkpt lat="47.12486" lon="5.45311">
        <ele>232</ele>
        <time>2017-09-03T11:04:12Z</time>
      </trkpt>
      <trkpt lat="47.1248" lon="5.45318">
        <ele>232</ele>
        <time>2017-09-03T11:04:16Z</time>
      </trkpt>
      <trkpt lat="47.12474" lon="5.45326">
        <ele>233</ele>
        <time>2017-09-03T11:04:20Z</time>
      </trkpt>
      <trkpt lat="47.12468" lon="5.45335">
        <ele>234</ele>
        <time>2017-09-03T11:04:24Z</time>
      </trkpt>
      <trkpt lat="47.12463" lon="5.45343">
        <ele>234</ele>
        <time>2017-09-03T11:04:28Z</time>
      </trkpt>
      <trkpt lat="47.12458" lon="5.45352">
        <ele>235</ele>
        <time>2017-09-03T11:04:32Z</time>
      </trkpt>
      <trkpt lat="47.12453" lon="5.45359">
        <ele>236</ele>
        <time>2017-09-03T11:04:36Z</time>
      </trkpt>
      <trkpt lat="47.12448" lon="5.45367">
        <ele>236</ele>
        <time>2017-09-03T11:04:40Z</time>
      </trkpt>
      <trkpt lat="47.12443" lon="5.45375">
        <ele>237</ele>
        <time>2017-09-03T11:04:44Z</time>
      </trkpt>
      <trkpt lat="47.12439" lon="5.45384">
        <ele>238</ele>
        <time>2017-09-03T11:04:48Z</time>
      </trkpt>
      <trkpt lat="47.12435" lon="5.45392">
        <ele>239</ele>
        <time>2017-09-03T11:04:52Z</time>
      </trkpt>
      <trkpt lat="47.12429" lon="5.45398">
        <ele>239</ele>
        <time>2017-09-03T11:04:56Z</time>
      </trkpt>
      <trkpt lat="47.12424" lon="5.45405">
        <ele>239</ele>
        <time>2017-09-03T11:05:00Z</time>
      </trkpt>
      <trkpt lat="47.12419" lon="5.45413">
        <ele>240</ele>
        <time>2017-09-03T11:05:04Z</time>
      </trkpt>
      <trkpt lat="47.12414" lon="5.45418">
        <ele>241</ele>
        <time>2017-09-03T11:05:08Z</time>
      </trkpt>
      <trkpt lat="47.12408" lon="5.45425">
        <ele>242</ele>
        <time>2017-09-03T11:05:12Z</time>
      </trkpt>
      <trkpt lat="47.12402" lon="5.45431">
        <ele>242</ele>
        <time>2017-09-03T11:05:16Z</time>
      </trkpt>
      <trkpt lat="47.12396" lon="5.45437">
        <ele>243</ele>
        <time>2017-09-03T11:05:20Z</time>
      </trkpt>
      <trkpt lat="47.1239" lon="5.45443">
        <ele>244</ele>
        <time>2017-09-03T11:05:24Z</time>
      </trkpt>
      <trkpt lat="47.12384" lon="5.4545">
        <ele>244</ele>
        <time>2017-09-03T11:05:28Z</time>
      </trkpt>
      <trkpt lat="47.1238" lon="5.45457">
        <ele>245</ele>
        <time>2017-09-03T11:05:32Z</time>
      </trkpt>
      <trkpt lat="47.12374" lon="5.45467">
        <ele>246</ele>
        <time>2017-09-03T11:05:36Z</time>
      </trkpt>
      <trkpt lat="47.12369" lon="5.45475">
        <ele>247</ele>
        <time>2017-09-03T11:05:40Z</time>
      </trkpt>
      <trkpt lat="47.12363" lon="5.45482">
        <ele>248</ele>
        <time>2017-09-03T11:05:44Z</time>
      </trkpt>
      <trkpt lat="47.12357" lon="5.45487">
        <ele>249</ele>
        <time>2017-09-03T11:05:48Z</time>
      </trkpt>
      <trkpt lat="47.12352" lon="5.45493">
        <ele>250</ele>
        <time>2017-09-03T11:05:52Z</time>
      </trkpt>
      <trkpt lat="47.12347" lon="5.45499">
        <ele>251</ele>
        <time>2017-09-03T11:05:56Z</time>
      </trkpt>
      <trkpt lat="47.12339" lon="5.45505">
        <ele>251</ele>
        <time>2017-09-03T11:06:01Z</time>
      </trkpt>
      <trkpt lat="47.12332" lon="5.45508">
        <ele>252</ele>
        <time>2017-09-03T11:06:04Z</time>
      </trkpt>
      <trkpt lat="47.12327" lon="5.45513">
        <ele>252</ele>
        <time>2017-09-03T11:06:08Z</time>
      </trkpt>
      <trkpt lat="47.12321" lon="5.45517">
        <ele>253</ele>
        <time>2017-09-03T11:06:12Z</time>
      </trkpt>
      <trkpt lat="47.12314" lon="5.4552">
        <ele>254</ele>
        <time>2017-09-03T11:06:16Z</time>
      </trkpt>
      <trkpt lat="47.12306" lon="5.45525">
        <ele>254</ele>
        <time>2017-09-03T11:06:20Z</time>
      </trkpt>
      <trkpt lat="47.123" lon="5.4553">
        <ele>255</ele>
        <time>2017-09-03T11:06:24Z</time>
      </trkpt>
      <trkpt lat="47.12292" lon="5.45537">
        <ele>255</ele>
        <time>2017-09-03T11:06:28Z</time>
      </trkpt>
      <trkpt lat="47.12286" lon="5.45542">
        <ele>255</ele>
        <time>2017-09-03T11:06:32Z</time>
      </trkpt>
      <trkpt lat="47.12278" lon="5.45546">
        <ele>256</ele>
        <time>2017-09-03T11:06:36Z</time>
      </trkpt>
      <trkpt lat="47.1227" lon="5.45551">
        <ele>256</ele>
        <time>2017-09-03T11:06:40Z</time>
      </trkpt>
      <trkpt lat="47.12264" lon="5.45558">
        <ele>256</ele>
        <time>2017-09-03T11:06:44Z</time>
      </trkpt>
      <trkpt lat="47.12256" lon="5.45562">
        <ele>256</ele>
        <time>2017-09-03T11:06:48Z</time>
      </trkpt>
      <trkpt lat="47.12247" lon="5.45567">
        <ele>257</ele>
        <time>2017-09-03T11:06:52Z</time>
      </trkpt>
      <trkpt lat="47.12238" lon="5.45573">
        <ele>257</ele>
        <time>2017-09-03T11:06:56Z</time>
      </trkpt>
      <trkpt lat="47.12228" lon="5.4558">
        <ele>257</ele>
        <time>2017-09-03T11:07:00Z</time>
      </trkpt>
      <trkpt lat="47.12217" lon="5.45586">
        <ele>257</ele>
        <time>2017-09-03T11:07:04Z</time>
      </trkpt>
      <trkpt lat="47.12206" lon="5.45595">
        <ele>258</ele>
        <time>2017-09-03T11:07:08Z</time>
      </trkpt>
      <trkpt lat="47.12195" lon="5.45605">
        <ele>258</ele>
        <time>2017-09-03T11:07:12Z</time>
      </trkpt>
      <trkpt lat="47.12187" lon="5.45612">
        <ele>258</ele>
        <time>2017-09-03T11:07:16Z</time>
      </trkpt>
      <trkpt lat="47.12178" lon="5.45615">
        <ele>258</ele>
        <time>2017-09-03T11:07:20Z</time>
      </trkpt>
      <trkpt lat="47.12168" lon="5.45621">
        <ele>258</ele>
        <time>2017-09-03T11:07:24Z</time>
      </trkpt>
      <trkpt lat="47.12159" lon="5.45627">
        <ele>259</ele>
        <time>2017-09-03T11:07:28Z</time>
      </trkpt>
      <trkpt lat="47.12148" lon="5.45639">
        <ele>259</ele>
        <time>2017-09-03T11:07:32Z</time>
      </trkpt>
      <trkpt lat="47.1214" lon="5.45652">
        <ele>260</ele>
        <time>2017-09-03T11:07:36Z</time>
      </trkpt>
      <trkpt lat="47.12135" lon="5.45661">
        <ele>260</ele>
        <time>2017-09-03T11:07:40Z</time>
      </trkpt>
      <trkpt lat="47.12124" lon="5.45685">
        <ele>262</ele>
        <time>2017-09-03T11:07:52Z</time>
      </trkpt>
      <trkpt lat="47.12118" lon="5.4569">
        <ele>263</ele>
        <time>2017-09-03T11:07:56Z</time>
      </trkpt>
      <trkpt lat="47.12112" lon="5.45693">
        <ele>263</ele>
        <time>2017-09-03T11:08:00Z</time>
      </trkpt>
      <trkpt lat="47.12104" lon="5.45697">
        <ele>265</ele>
        <time>2017-09-03T11:08:08Z</time>
      </trkpt>
      <trkpt lat="47.12099" lon="5.45697">
        <ele>265</ele>
        <time>2017-09-03T11:08:12Z</time>
      </trkpt>
      <trkpt lat="47.12094" lon="5.45697">
        <ele>266</ele>
        <time>2017-09-03T11:08:16Z</time>
      </trkpt>
      <trkpt lat="47.12086" lon="5.45696">
        <ele>266</ele>
        <time>2017-09-03T11:08:20Z</time>
      </trkpt>
      <trkpt lat="47.12077" lon="5.45694">
        <ele>267</ele>
        <time>2017-09-03T11:08:24Z</time>
      </trkpt>
      <trkpt lat="47.12067" lon="5.45692">
        <ele>267</ele>
        <time>2017-09-03T11:08:28Z</time>
      </trkpt>
      <trkpt lat="47.12058" lon="5.45691">
        <ele>267</ele>
        <time>2017-09-03T11:08:32Z</time>
      </trkpt>
      <trkpt lat="47.12048" lon="5.45688">
        <ele>268</ele>
        <time>2017-09-03T11:08:36Z</time>
      </trkpt>
      <trkpt lat="47.12038" lon="5.45683">
        <ele>268</ele>
        <time>2017-09-03T11:08:40Z</time>
      </trkpt>
      <trkpt lat="47.12029" lon="5.45681">
        <ele>268</ele>
        <time>2017-09-03T11:08:44Z</time>
      </trkpt>
      <trkpt lat="47.1202" lon="5.45681">
        <ele>269</ele>
        <time>2017-09-03T11:08:48Z</time>
      </trkpt>
      <trkpt lat="47.12011" lon="5.45679">
        <ele>270</ele>
        <time>2017-09-03T11:08:52Z</time>
      </trkpt>
      <trkpt lat="47.12003" lon="5.45677">
        <ele>270</ele>
        <time>2017-09-03T11:08:56Z</time>
      </trkpt>
      <trkpt lat="47.1199" lon="5.45671">
        <ele>270</ele>
        <time>2017-09-03T11:09:00Z</time>
      </trkpt>
      <trkpt lat="47.11978" lon="5.45665">
        <ele>271</ele>
        <time>2017-09-03T11:09:04Z</time>
      </trkpt>
      <trkpt lat="47.11967" lon="5.45658">
        <ele>271</ele>
        <time>2017-09-03T11:09:08Z</time>
      </trkpt>
      <trkpt lat="47.11953" lon="5.45653">
        <ele>272</ele>
        <time>2017-09-03T11:09:12Z</time>
      </trkpt>
      <trkpt lat="47.11941" lon="5.4565">
        <ele>272</ele>
        <time>2017-09-03T11:09:16Z</time>
      </trkpt>
      <trkpt lat="47.11929" lon="5.45647">
        <ele>272</ele>
        <time>2017-09-03T11:09:20Z</time>
      </trkpt>
      <trkpt lat="47.11919" lon="5.45644">
        <ele>272</ele>
        <time>2017-09-03T11:09:24Z</time>
      </trkpt>
      <trkpt lat="47.11905" lon="5.45636">
        <ele>272</ele>
        <time>2017-09-03T11:09:28Z</time>
      </trkpt>
      <trkpt lat="47.1189" lon="5.45626">
        <ele>272</ele>
        <time>2017-09-03T11:09:32Z</time>
      </trkpt>
      <trkpt lat="47.11877" lon="5.45615">
        <ele>272</ele>
        <time>2017-09-03T11:09:36Z</time>
      </trkpt>
      <trkpt lat="47.11862" lon="5.45607">
        <ele>272</ele>
        <time>2017-09-03T11:09:40Z</time>
      </trkpt>
      <trkpt lat="47.11849" lon="5.45602">
        <ele>272</ele>
        <time>2017-09-03T11:09:44Z</time>
      </trkpt>
      <trkpt lat="47.11835" lon="5.45595">
        <ele>273</ele>
        <time>2017-09-03T11:09:48Z</time>
      </trkpt>
      <trkpt lat="47.11823" lon="5.4559">
        <ele>273</ele>
        <time>2017-09-03T11:09:52Z</time>
      </trkpt>
      <trkpt lat="47.11811" lon="5.45582">
        <ele>273</ele>
        <time>2017-09-03T11:09:56Z</time>
      </trkpt>
      <trkpt lat="47.11795" lon="5.45571">
        <ele>273</ele>
        <time>2017-09-03T11:10:00Z</time>
      </trkpt>
      <trkpt lat="47.11782" lon="5.45562">
        <ele>273</ele>
        <time>2017-09-03T11:10:04Z</time>
      </trkpt>
      <trkpt lat="47.11768" lon="5.45555">
        <ele>273</ele>
        <time>2017-09-03T11:10:08Z</time>
      </trkpt>
      <trkpt lat="47.11751" lon="5.45547">
        <ele>273</ele>
        <time>2017-09-03T11:10:12Z</time>
      </trkpt>
      <trkpt lat="47.11734" lon="5.45538">
        <ele>273</ele>
        <time>2017-09-03T11:10:16Z</time>
      </trkpt>
      <trkpt lat="47.11715" lon="5.45526">
        <ele>273</ele>
        <time>2017-09-03T11:10:20Z</time>
      </trkpt>
      <trkpt lat="47.11699" lon="5.4552">
        <ele>273</ele>
        <time>2017-09-03T11:10:24Z</time>
      </trkpt>
      <trkpt lat="47.11682" lon="5.45515">
        <ele>272</ele>
        <time>2017-09-03T11:10:28Z</time>
      </trkpt>
      <trkpt lat="47.11664" lon="5.45505">
        <ele>273</ele>
        <time>2017-09-03T11:10:32Z</time>
      </trkpt>
      <trkpt lat="47.1165" lon="5.45498">
        <ele>273</ele>
        <time>2017-09-03T11:10:36Z</time>
      </trkpt>
      <trkpt lat="47.11634" lon="5.45487">
        <ele>273</ele>
        <time>2017-09-03T11:10:40Z</time>
      </trkpt>
      <trkpt lat="47.11616" lon="5.45474">
        <ele>273</ele>
        <time>2017-09-03T11:10:44Z</time>
      </trkpt>
      <trkpt lat="47.11597" lon="5.45471">
        <ele>273</ele>
        <time>2017-09-03T11:10:48Z</time>
      </trkpt>
      <trkpt lat="47.11578" lon="5.45474">
        <ele>273</ele>
        <time>2017-09-03T11:10:52Z</time>
      </trkpt>
      <trkpt lat="47.11559" lon="5.45477">
        <ele>274</ele>
        <time>2017-09-03T11:10:56Z</time>
      </trkpt>
      <trkpt lat="47.11543" lon="5.45487">
        <ele>274</ele>
        <time>2017-09-03T11:11:00Z</time>
      </trkpt>
      <trkpt lat="47.11528" lon="5.45496">
        <ele>274</ele>
        <time>2017-09-03T11:11:04Z</time>
      </trkpt>
      <trkpt lat="47.11514" lon="5.45506">
        <ele>275</ele>
        <time>2017-09-03T11:11:08Z</time>
      </trkpt>
      <trkpt lat="47.11502" lon="5.45518">
        <ele>275</ele>
        <time>2017-09-03T11:11:12Z</time>
      </trkpt>
      <trkpt lat="47.1149" lon="5.45529">
        <ele>276</ele>
        <time>2017-09-03T11:11:16Z</time>
      </trkpt>
      <trkpt lat="47.11478" lon="5.4554">
        <ele>276</ele>
        <time>2017-09-03T11:11:20Z</time>
      </trkpt>
      <trkpt lat="47.11465" lon="5.45548">
        <ele>276</ele>
        <time>2017-09-03T11:11:24Z</time>
      </trkpt>
      <trkpt lat="47.1145" lon="5.45556">
        <ele>277</ele>
        <time>2017-09-03T11:11:28Z</time>
      </trkpt>
      <trkpt lat="47.11437" lon="5.45565">
        <ele>276</ele>
        <time>2017-09-03T11:11:32Z</time>
      </trkpt>
      <trkpt lat="47.11426" lon="5.45576">
        <ele>276</ele>
        <time>2017-09-03T11:11:36Z</time>
      </trkpt>
      <trkpt lat="47.11417" lon="5.45584">
        <ele>276</ele>
        <time>2017-09-03T11:11:40Z</time>
      </trkpt>
      <trkpt lat="47.11403" lon="5.45592">
        <ele>276</ele>
        <time>2017-09-03T11:11:44Z</time>
      </trkpt>
      <trkpt lat="47.11388" lon="5.45608">
        <ele>276</ele>
        <time>2017-09-03T11:11:48Z</time>
      </trkpt>
      <trkpt lat="47.1137" lon="5.4562">
        <ele>274</ele>
        <time>2017-09-03T11:11:52Z</time>
      </trkpt>
      <trkpt lat="47.11352" lon="5.45631">
        <ele>273</ele>
        <time>2017-09-03T11:11:56Z</time>
      </trkpt>
      <trkpt lat="47.11345" lon="5.45654">
        <ele>271</ele>
        <time>2017-09-03T11:12:00Z</time>
      </trkpt>
      <trkpt lat="47.11353" lon="5.4568">
        <ele>270</ele>
        <time>2017-09-03T11:12:04Z</time>
      </trkpt>
      <trkpt lat="47.11356" lon="5.45704">
        <ele>269</ele>
        <time>2017-09-03T11:12:08Z</time>
      </trkpt>
      <trkpt lat="47.11342" lon="5.45738">
        <ele>268</ele>
        <time>2017-09-03T11:12:12Z</time>
      </trkpt>
      <trkpt lat="47.11327" lon="5.45769">
        <ele>267</ele>
        <time>2017-09-03T11:12:16Z</time>
      </trkpt>
      <trkpt lat="47.11315" lon="5.45786">
        <ele>268</ele>
        <time>2017-09-03T11:12:20Z</time>
      </trkpt>
      <trkpt lat="47.11307" lon="5.458">
        <ele>269</ele>
        <time>2017-09-03T11:12:24Z</time>
      </trkpt>
      <trkpt lat="47.113" lon="5.45812">
        <ele>270</ele>
        <time>2017-09-03T11:12:28Z</time>
      </trkpt>
      <trkpt lat="47.11293" lon="5.45825">
        <ele>271</ele>
        <time>2017-09-03T11:12:32Z</time>
      </trkpt>
      <trkpt lat="47.11288" lon="5.45839">
        <ele>272</ele>
        <time>2017-09-03T11:12:36Z</time>
      </trkpt>
      <trkpt lat="47.11281" lon="5.45853">
        <ele>272</ele>
        <time>2017-09-03T11:12:40Z</time>
      </trkpt>
      <trkpt lat="47.11275" lon="5.45867">
        <ele>273</ele>
        <time>2017-09-03T11:12:44Z</time>
      </trkpt>
      <trkpt lat="47.1127" lon="5.45879">
        <ele>274</ele>
        <time>2017-09-03T11:12:48Z</time>
      </trkpt>
      <trkpt lat="47.11263" lon="5.45891">
        <ele>275</ele>
        <time>2017-09-03T11:12:52Z</time>
      </trkpt>
      <trkpt lat="47.11256" lon="5.45901">
        <ele>276</ele>
        <time>2017-09-03T11:12:56Z</time>
      </trkpt>
      <trkpt lat="47.11248" lon="5.45904">
        <ele>277</ele>
        <time>2017-09-03T11:13:00Z</time>
      </trkpt>
      <trkpt lat="47.11243" lon="5.45894">
        <ele>277</ele>
        <time>2017-09-03T11:13:04Z</time>
      </trkpt>
      <trkpt lat="47.11235" lon="5.45874">
        <ele>277</ele>
        <time>2017-09-03T11:13:08Z</time>
      </trkpt>
      <trkpt lat="47.11226" lon="5.45854">
        <ele>276</ele>
        <time>2017-09-03T11:13:12Z</time>
      </trkpt>
      <trkpt lat="47.11216" lon="5.45831">
        <ele>274</ele>
        <time>2017-09-03T11:13:16Z</time>
      </trkpt>
      <trkpt lat="47.11204" lon="5.45802">
        <ele>273</ele>
        <time>2017-09-03T11:13:20Z</time>
      </trkpt>
      <trkpt lat="47.11192" lon="5.45763">
        <ele>272</ele>
        <time>2017-09-03T11:13:24Z</time>
      </trkpt>
      <trkpt lat="47.1119" lon="5.45717">
        <ele>269</ele>
        <time>2017-09-03T11:13:28Z</time>
      </trkpt>
      <trkpt lat="47.11198" lon="5.45669">
        <ele>268</ele>
        <time>2017-09-03T11:13:32Z</time>
      </trkpt>
      <trkpt lat="47.11209" lon="5.45628">
        <ele>265</ele>
        <time>2017-09-03T11:13:36Z</time>
      </trkpt>
      <trkpt lat="47.11226" lon="5.45593">
        <ele>263</ele>
        <time>2017-09-03T11:13:40Z</time>
      </trkpt>
      <trkpt lat="47.11236" lon="5.45553">
        <ele>262</ele>
        <time>2017-09-03T11:13:44Z</time>
      </trkpt>
      <trkpt lat="47.11222" lon="5.45511">
        <ele>260</ele>
        <time>2017-09-03T11:13:48Z</time>
      </trkpt>
      <trkpt lat="47.11202" lon="5.4547">
        <ele>258</ele>
        <time>2017-09-03T11:13:52Z</time>
      </trkpt>
      <trkpt lat="47.1118" lon="5.45427">
        <ele>256</ele>
        <time>2017-09-03T11:13:56Z</time>
      </trkpt>
      <trkpt lat="47.11155" lon="5.45384">
        <ele>254</ele>
        <time>2017-09-03T11:14:00Z</time>
      </trkpt>
      <trkpt lat="47.11129" lon="5.45341">
        <ele>252</ele>
        <time>2017-09-03T11:14:04Z</time>
      </trkpt>
      <trkpt lat="47.11102" lon="5.45299">
        <ele>250</ele>
        <time>2017-09-03T11:14:08Z</time>
      </trkpt>
      <trkpt lat="47.11077" lon="5.45257">
        <ele>249</ele>
        <time>2017-09-03T11:14:12Z</time>
      </trkpt>
      <trkpt lat="47.11053" lon="5.45218">
        <ele>247</ele>
        <time>2017-09-03T11:14:16Z</time>
      </trkpt>
      <trkpt lat="47.1103" lon="5.45181">
        <ele>246</ele>
        <time>2017-09-03T11:14:20Z</time>
      </trkpt>
      <trkpt lat="47.11009" lon="5.45147">
        <ele>245</ele>
        <time>2017-09-03T11:14:24Z</time>
      </trkpt>
      <trkpt lat="47.10989" lon="5.45113">
        <ele>245</ele>
        <time>2017-09-03T11:14:28Z</time>
      </trkpt>
      <trkpt lat="47.10969" lon="5.4508">
        <ele>244</ele>
        <time>2017-09-03T11:14:32Z</time>
      </trkpt>
      <trkpt lat="47.10948" lon="5.45046">
        <ele>243</ele>
        <time>2017-09-03T11:14:36Z</time>
      </trkpt>
      <trkpt lat="47.10928" lon="5.45012">
        <ele>242</ele>
        <time>2017-09-03T11:14:40Z</time>
      </trkpt>
      <trkpt lat="47.10907" lon="5.44979">
        <ele>241</ele>
        <time>2017-09-03T11:14:44Z</time>
      </trkpt>
      <trkpt lat="47.10886" lon="5.44948">
        <ele>240</ele>
        <time>2017-09-03T11:14:48Z</time>
      </trkpt>
      <trkpt lat="47.10868" lon="5.44914">
        <ele>240</ele>
        <time>2017-09-03T11:14:52Z</time>
      </trkpt>
      <trkpt lat="47.10853" lon="5.4488">
        <ele>240</ele>
        <time>2017-09-03T11:14:56Z</time>
      </trkpt>
      <trkpt lat="47.10839" lon="5.44846">
        <ele>239</ele>
        <time>2017-09-03T11:15:00Z</time>
      </trkpt>
      <trkpt lat="47.10828" lon="5.44814">
        <ele>239</ele>
        <time>2017-09-03T11:15:04Z</time>
      </trkpt>
      <trkpt lat="47.10819" lon="5.44784">
        <ele>239</ele>
        <time>2017-09-03T11:15:08Z</time>
      </trkpt>
      <trkpt lat="47.10812" lon="5.4476">
        <ele>240</ele>
        <time>2017-09-03T11:15:12Z</time>
      </trkpt>
      <trkpt lat="47.10803" lon="5.44757">
        <ele>240</ele>
        <time>2017-09-03T11:15:17Z</time>
      </trkpt>
      <trkpt lat="47.10798" lon="5.44767">
        <ele>240</ele>
        <time>2017-09-03T11:15:20Z</time>
      </trkpt>
      <trkpt lat="47.10793" lon="5.44777">
        <ele>240</ele>
        <time>2017-09-03T11:15:24Z</time>
      </trkpt>
      <trkpt lat="47.10787" lon="5.44787">
        <ele>241</ele>
        <time>2017-09-03T11:15:28Z</time>
      </trkpt>
      <trkpt lat="47.10781" lon="5.44799">
        <ele>242</ele>
        <time>2017-09-03T11:15:32Z</time>
      </trkpt>
      <trkpt lat="47.10774" lon="5.44811">
        <ele>242</ele>
        <time>2017-09-03T11:15:36Z</time>
      </trkpt>
      <trkpt lat="47.10767" lon="5.44824">
        <ele>242</ele>
        <time>2017-09-03T11:15:40Z</time>
      </trkpt>
      <trkpt lat="47.10761" lon="5.44836">
        <ele>243</ele>
        <time>2017-09-03T11:15:44Z</time>
      </trkpt>
      <trkpt lat="47.10756" lon="5.4485">
        <ele>243</ele>
        <time>2017-09-03T11:15:48Z</time>
      </trkpt>
      <trkpt lat="47.10754" lon="5.44863">
        <ele>244</ele>
        <time>2017-09-03T11:15:52Z</time>
      </trkpt>
      <trkpt lat="47.10752" lon="5.44876">
        <ele>244</ele>
        <time>2017-09-03T11:15:56Z</time>
      </trkpt>
      <trkpt lat="47.1075" lon="5.44887">
        <ele>245</ele>
        <time>2017-09-03T11:16:00Z</time>
      </trkpt>
      <trkpt lat="47.10747" lon="5.44899">
        <ele>245</ele>
        <time>2017-09-03T11:16:04Z</time>
      </trkpt>
      <trkpt lat="47.10746" lon="5.44911">
        <ele>245</ele>
        <time>2017-09-03T11:16:08Z</time>
      </trkpt>
      <trkpt lat="47.10745" lon="5.44919">
        <ele>246</ele>
        <time>2017-09-03T11:16:12Z</time>
      </trkpt>
      <trkpt lat="47.10744" lon="5.44927">
        <ele>246</ele>
        <time>2017-09-03T11:16:16Z</time>
      </trkpt>
      <trkpt lat="47.10745" lon="5.44932">
        <ele>247</ele>
        <time>2017-09-03T11:16:20Z</time>
      </trkpt>
      <trkpt lat="47.10743" lon="5.4494">
        <ele>249</ele>
        <time>2017-09-03T11:16:24Z</time>
      </trkpt>
      <trkpt lat="47.10742" lon="5.44947">
        <ele>250</ele>
        <time>2017-09-03T11:16:28Z</time>
      </trkpt>
      <trkpt lat="47.1074" lon="5.44954">
        <ele>251</ele>
        <time>2017-09-03T11:16:32Z</time>
      </trkpt>
      <trkpt lat="47.10741" lon="5.4496">
        <ele>252</ele>
        <time>2017-09-03T11:16:36Z</time>
      </trkpt>
      <trkpt lat="47.10739" lon="5.44968">
        <ele>253</ele>
        <time>2017-09-03T11:16:40Z</time>
      </trkpt>
      <trkpt lat="47.10738" lon="5.44977">
        <ele>254</ele>
        <time>2017-09-03T11:16:44Z</time>
      </trkpt>
      <trkpt lat="47.10737" lon="5.44983">
        <ele>254</ele>
        <time>2017-09-03T11:16:48Z</time>
      </trkpt>
      <trkpt lat="47.10734" lon="5.44994">
        <ele>255</ele>
        <time>2017-09-03T11:16:52Z</time>
      </trkpt>
      <trkpt lat="47.10732" lon="5.45002">
        <ele>255</ele>
        <time>2017-09-03T11:16:56Z</time>
      </trkpt>
      <trkpt lat="47.10731" lon="5.45011">
        <ele>256</ele>
        <time>2017-09-03T11:17:00Z</time>
      </trkpt>
      <trkpt lat="47.10729" lon="5.45019">
        <ele>257</ele>
        <time>2017-09-03T11:17:04Z</time>
      </trkpt>
      <trkpt lat="47.10727" lon="5.45027">
        <ele>257</ele>
        <time>2017-09-03T11:17:08Z</time>
      </trkpt>
      <trkpt lat="47.10724" lon="5.45037">
        <ele>258</ele>
        <time>2017-09-03T11:17:12Z</time>
      </trkpt>
      <trkpt lat="47.10723" lon="5.45044">
        <ele>258</ele>
        <time>2017-09-03T11:17:16Z</time>
      </trkpt>
      <trkpt lat="47.10721" lon="5.45052">
        <ele>259</ele>
        <time>2017-09-03T11:17:20Z</time>
      </trkpt>
      <trkpt lat="47.10721" lon="5.4506">
        <ele>260</ele>
        <time>2017-09-03T11:17:24Z</time>
      </trkpt>
      <trkpt lat="47.1072" lon="5.4507">
        <ele>261</ele>
        <time>2017-09-03T11:17:28Z</time>
      </trkpt>
      <trkpt lat="47.10718" lon="5.4508">
        <ele>261</ele>
        <time>2017-09-03T11:17:32Z</time>
      </trkpt>
      <trkpt lat="47.10717" lon="5.4509">
        <ele>262</ele>
        <time>2017-09-03T11:17:36Z</time>
      </trkpt>
      <trkpt lat="47.10715" lon="5.45097">
        <ele>263</ele>
        <time>2017-09-03T11:17:40Z</time>
      </trkpt>
      <trkpt lat="47.10712" lon="5.45104">
        <ele>264</ele>
        <time>2017-09-03T11:17:44Z</time>
      </trkpt>
      <trkpt lat="47.10706" lon="5.45109">
        <ele>265</ele>
        <time>2017-09-03T11:17:48Z</time>
      </trkpt>
      <trkpt lat="47.10702" lon="5.45105">
        <ele>265</ele>
        <time>2017-09-03T11:17:52Z</time>
      </trkpt>
      <trkpt lat="47.10699" lon="5.451">
        <ele>265</ele>
        <time>2017-09-03T11:17:56Z</time>
      </trkpt>
      <trkpt lat="47.10696" lon="5.45095">
        <ele>265</ele>
        <time>2017-09-03T11:18:00Z</time>
      </trkpt>
      <trkpt lat="47.10693" lon="5.45089">
        <ele>265</ele>
        <time>2017-09-03T11:18:04Z</time>
      </trkpt>
      <trkpt lat="47.1069" lon="5.45081">
        <ele>265</ele>
        <time>2017-09-03T11:18:08Z</time>
      </trkpt>
      <trkpt lat="47.10685" lon="5.45073">
        <ele>265</ele>
        <time>2017-09-03T11:18:32Z</time>
      </trkpt>
      <trkpt lat="47.10677" lon="5.45064">
        <ele>265</ele>
        <time>2017-09-03T11:18:36Z</time>
      </trkpt>
      <trkpt lat="47.10665" lon="5.45052">
        <ele>265</ele>
        <time>2017-09-03T11:18:40Z</time>
      </trkpt>
      <trkpt lat="47.10652" lon="5.45039">
        <ele>265</ele>
        <time>2017-09-03T11:18:44Z</time>
      </trkpt>
      <trkpt lat="47.10639" lon="5.45029">
        <ele>265</ele>
        <time>2017-09-03T11:18:48Z</time>
      </trkpt>
      <trkpt lat="47.10625" lon="5.4502">
        <ele>265</ele>
        <time>2017-09-03T11:18:52Z</time>
      </trkpt>
      <trkpt lat="47.10611" lon="5.45012">
        <ele>265</ele>
        <time>2017-09-03T11:18:56Z</time>
      </trkpt>
      <trkpt lat="47.10597" lon="5.45004">
        <ele>265</ele>
        <time>2017-09-03T11:19:00Z</time>
      </trkpt>
      <trkpt lat="47.10583" lon="5.44996">
        <ele>265</ele>
        <time>2017-09-03T11:19:04Z</time>
      </trkpt>
      <trkpt lat="47.10571" lon="5.44991">
        <ele>265</ele>
        <time>2017-09-03T11:19:08Z</time>
      </trkpt>
      <trkpt lat="47.10563" lon="5.44986">
        <ele>265</ele>
        <time>2017-09-03T11:19:12Z</time>
      </trkpt>
      <trkpt lat="47.10557" lon="5.44982">
        <ele>264</ele>
        <time>2017-09-03T11:19:40Z</time>
      </trkpt>
      <trkpt lat="47.10547" lon="5.44977">
        <ele>264</ele>
        <time>2017-09-03T11:19:44Z</time>
      </trkpt>
      <trkpt lat="47.10533" lon="5.44979">
        <ele>263</ele>
        <time>2017-09-03T11:19:48Z</time>
      </trkpt>
      <trkpt lat="47.10525" lon="5.44992">
        <ele>263</ele>
        <time>2017-09-03T11:19:52Z</time>
      </trkpt>
      <trkpt lat="47.10518" lon="5.45007">
        <ele>264</ele>
        <time>2017-09-03T11:19:56Z</time>
      </trkpt>
      <trkpt lat="47.10511" lon="5.45023">
        <ele>264</ele>
        <time>2017-09-03T11:20:00Z</time>
      </trkpt>
      <trkpt lat="47.10505" lon="5.45041">
        <ele>265</ele>
        <time>2017-09-03T11:20:04Z</time>
      </trkpt>
      <trkpt lat="47.105" lon="5.4506">
        <ele>265</ele>
        <time>2017-09-03T11:20:08Z</time>
      </trkpt>
      <trkpt lat="47.10496" lon="5.45079">
        <ele>266</ele>
        <time>2017-09-03T11:20:12Z</time>
      </trkpt>
      <trkpt lat="47.10488" lon="5.45093">
        <ele>266</ele>
        <time>2017-09-03T11:20:16Z</time>
      </trkpt>
      <trkpt lat="47.10479" lon="5.45094">
        <ele>267</ele>
        <time>2017-09-03T11:20:20Z</time>
      </trkpt>
      <trkpt lat="47.10469" lon="5.45096">
        <ele>267</ele>
        <time>2017-09-03T11:20:24Z</time>
      </trkpt>
      <trkpt lat="47.1046" lon="5.45091">
        <ele>267</ele>
        <time>2017-09-03T11:20:28Z</time>
      </trkpt>
      <trkpt lat="47.10452" lon="5.4508">
        <ele>268</ele>
        <time>2017-09-03T11:20:32Z</time>
      </trkpt>
      <trkpt lat="47.10444" lon="5.45069">
        <ele>268</ele>
        <time>2017-09-03T11:20:36Z</time>
      </trkpt>
      <trkpt lat="47.10438" lon="5.45059">
        <ele>267</ele>
        <time>2017-09-03T11:20:40Z</time>
      </trkpt>
      <trkpt lat="47.10427" lon="5.45054">
        <ele>267</ele>
        <time>2017-09-03T11:20:44Z</time>
      </trkpt>
      <trkpt lat="47.10424" lon="5.45057">
        <ele>268</ele>
        <time>2017-09-03T11:20:48Z</time>
      </trkpt>
      <trkpt lat="47.10421" lon="5.4506">
        <ele>268</ele>
        <time>2017-09-03T11:20:52Z</time>
      </trkpt>
      <trkpt lat="47.10418" lon="5.45064">
        <ele>269</ele>
        <time>2017-09-03T11:20:56Z</time>
      </trkpt>
      <trkpt lat="47.10416" lon="5.45069">
        <ele>270</ele>
        <time>2017-09-03T11:21:00Z</time>
      </trkpt>
      <trkpt lat="47.10413" lon="5.45074">
        <ele>271</ele>
        <time>2017-09-03T11:21:04Z</time>
      </trkpt>
      <trkpt lat="47.10407" lon="5.45077">
        <ele>272</ele>
        <time>2017-09-03T11:21:08Z</time>
      </trkpt>
      <trkpt lat="47.10402" lon="5.45077">
        <ele>274</ele>
        <time>2017-09-03T11:21:12Z</time>
      </trkpt>
      <trkpt lat="47.10398" lon="5.45079">
        <ele>275</ele>
        <time>2017-09-03T11:21:16Z</time>
      </trkpt>
      <trkpt lat="47.104" lon="5.45085">
        <ele>276</ele>
        <time>2017-09-03T11:21:20Z</time>
      </trkpt>
      <trkpt lat="47.10403" lon="5.45091">
        <ele>277</ele>
        <time>2017-09-03T11:21:24Z</time>
      </trkpt>
      <trkpt lat="47.10401" lon="5.45096">
        <ele>277</ele>
        <time>2017-09-03T11:21:28Z</time>
      </trkpt>
      <trkpt lat="47.10396" lon="5.45097">
        <ele>280</ele>
        <time>2017-09-03T11:21:32Z</time>
      </trkpt>
      <trkpt lat="47.10393" lon="5.45101">
        <ele>281</ele>
        <time>2017-09-03T11:21:36Z</time>
      </trkpt>
      <trkpt lat="47.10394" lon="5.45106">
        <ele>282</ele>
        <time>2017-09-03T11:21:40Z</time>
      </trkpt>
      <trkpt lat="47.10394" lon="5.45111">
        <ele>284</ele>
        <time>2017-09-03T11:21:44Z</time>
      </trkpt>
      <trkpt lat="47.10392" lon="5.45118">
        <ele>285</ele>
        <time>2017-09-03T11:21:48Z</time>
      </trkpt>
      <trkpt lat="47.10389" lon="5.45124">
        <ele>286</ele>
        <time>2017-09-03T11:21:52Z</time>
      </trkpt>
      <trkpt lat="47.10386" lon="5.45127">
        <ele>288</ele>
        <time>2017-09-03T11:21:56Z</time>
      </trkpt>
      <trkpt lat="47.10381" lon="5.45129">
        <ele>288</ele>
        <time>2017-09-03T11:22:00Z</time>
      </trkpt>
      <trkpt lat="47.10376" lon="5.45131">
        <ele>289</ele>
        <time>2017-09-03T11:22:04Z</time>
      </trkpt>
      <trkpt lat="47.10372" lon="5.45135">
        <ele>290</ele>
        <time>2017-09-03T11:22:08Z</time>
      </trkpt>
      <trkpt lat="47.10369" lon="5.4514">
        <ele>291</ele>
        <time>2017-09-03T11:22:12Z</time>
      </trkpt>
      <trkpt lat="47.10365" lon="5.45145">
        <ele>292</ele>
        <time>2017-09-03T11:22:16Z</time>
      </trkpt>
      <trkpt lat="47.10359" lon="5.45148">
        <ele>293</ele>
        <time>2017-09-03T11:22:20Z</time>
      </trkpt>
      <trkpt lat="47.10354" lon="5.45151">
        <ele>294</ele>
        <time>2017-09-03T11:22:24Z</time>
      </trkpt>
      <trkpt lat="47.10351" lon="5.45157">
        <ele>294</ele>
        <time>2017-09-03T11:22:28Z</time>
      </trkpt>
      <trkpt lat="47.10349" lon="5.45165">
        <ele>295</ele>
        <time>2017-09-03T11:22:32Z</time>
      </trkpt>
      <trkpt lat="47.10346" lon="5.45175">
        <ele>295</ele>
        <time>2017-09-03T11:22:36Z</time>
      </trkpt>
      <trkpt lat="47.10341" lon="5.45185">
        <ele>295</ele>
        <time>2017-09-03T11:22:40Z</time>
      </trkpt>
      <trkpt lat="47.10338" lon="5.45196">
        <ele>295</ele>
        <time>2017-09-03T11:22:44Z</time>
      </trkpt>
      <trkpt lat="47.10334" lon="5.45207">
        <ele>295</ele>
        <time>2017-09-03T11:22:48Z</time>
      </trkpt>
      <trkpt lat="47.10329" lon="5.4522">
        <ele>294</ele>
        <time>2017-09-03T11:22:52Z</time>
      </trkpt>
      <trkpt lat="47.10322" lon="5.45238">
        <ele>294</ele>
        <time>2017-09-03T11:22:56Z</time>
      </trkpt>
      <trkpt lat="47.10314" lon="5.45257">
        <ele>293</ele>
        <time>2017-09-03T11:23:00Z</time>
      </trkpt>
      <trkpt lat="47.10309" lon="5.4527">
        <ele>293</ele>
        <time>2017-09-03T11:23:04Z</time>
      </trkpt>
      <trkpt lat="47.10299" lon="5.45282">
        <ele>292</ele>
        <time>2017-09-03T11:23:08Z</time>
      </trkpt>
      <trkpt lat="47.10284" lon="5.45287">
        <ele>291</ele>
        <time>2017-09-03T11:23:12Z</time>
      </trkpt>
      <trkpt lat="47.10268" lon="5.4529">
        <ele>290</ele>
        <time>2017-09-03T11:23:16Z</time>
      </trkpt>
      <trkpt lat="47.1025" lon="5.45283">
        <ele>289</ele>
        <time>2017-09-03T11:23:20Z</time>
      </trkpt>
      <trkpt lat="47.10232" lon="5.45274">
        <ele>289</ele>
        <time>2017-09-03T11:23:24Z</time>
      </trkpt>
      <trkpt lat="47.10215" lon="5.45267">
        <ele>288</ele>
        <time>2017-09-03T11:23:28Z</time>
      </trkpt>
      <trkpt lat="47.102" lon="5.45261">
        <ele>288</ele>
        <time>2017-09-03T11:23:32Z</time>
      </trkpt>
      <trkpt lat="47.10184" lon="5.45255">
        <ele>287</ele>
        <time>2017-09-03T11:23:36Z</time>
      </trkpt>
      <trkpt lat="47.10171" lon="5.45247">
        <ele>286</ele>
        <time>2017-09-03T11:23:40Z</time>
      </trkpt>
      <trkpt lat="47.1016" lon="5.4524">
        <ele>286</ele>
        <time>2017-09-03T11:23:44Z</time>
      </trkpt>
      <trkpt lat="47.10149" lon="5.45234">
        <ele>286</ele>
        <time>2017-09-03T11:23:48Z</time>
      </trkpt>
      <trkpt lat="47.10137" lon="5.45229">
        <ele>286</ele>
        <time>2017-09-03T11:23:52Z</time>
      </trkpt>
      <trkpt lat="47.10124" lon="5.45224">
        <ele>286</ele>
        <time>2017-09-03T11:23:56Z</time>
      </trkpt>
      <trkpt lat="47.10107" lon="5.45216">
        <ele>286</ele>
        <time>2017-09-03T11:25:40Z</time>
      </trkpt>
      <trkpt lat="47.10104" lon="5.45223">
        <ele>285</ele>
        <time>2017-09-03T11:25:44Z</time>
      </trkpt>
      <trkpt lat="47.101" lon="5.45229">
        <ele>284</ele>
        <time>2017-09-03T11:25:48Z</time>
      </trkpt>
      <trkpt lat="47.10099" lon="5.45233">
        <ele>284</ele>
        <time>2017-09-03T11:25:52Z</time>
      </trkpt>
      <trkpt lat="47.10096" lon="5.45242">
        <ele>282</ele>
        <time>2017-09-03T11:25:56Z</time>
      </trkpt>
      <trkpt lat="47.10091" lon="5.45256">
        <ele>281</ele>
        <time>2017-09-03T11:26:00Z</time>
      </trkpt>
      <trkpt lat="47.10086" lon="5.45273">
        <ele>279</ele>
        <time>2017-09-03T11:26:04Z</time>
      </trkpt>
      <trkpt lat="47.10078" lon="5.45289">
        <ele>278</ele>
        <time>2017-09-03T11:26:08Z</time>
      </trkpt>
      <trkpt lat="47.10071" lon="5.45304">
        <ele>277</ele>
        <time>2017-09-03T11:26:12Z</time>
      </trkpt>
      <trkpt lat="47.10065" lon="5.45324">
        <ele>276</ele>
        <time>2017-09-03T11:26:16Z</time>
      </trkpt>
      <trkpt lat="47.1006" lon="5.45345">
        <ele>274</ele>
        <time>2017-09-03T11:26:20Z</time>
      </trkpt>
      <trkpt lat="47.10053" lon="5.45367">
        <ele>272</ele>
        <time>2017-09-03T11:26:24Z</time>
      </trkpt>
      <trkpt lat="47.10044" lon="5.45381">
        <ele>271</ele>
        <time>2017-09-03T11:26:28Z</time>
      </trkpt>
      <trkpt lat="47.10033" lon="5.45381">
        <ele>269</ele>
        <time>2017-09-03T11:26:32Z</time>
      </trkpt>
      <trkpt lat="47.1002" lon="5.45384">
        <ele>269</ele>
        <time>2017-09-03T11:26:36Z</time>
      </trkpt>
      <trkpt lat="47.10011" lon="5.45384">
        <ele>269</ele>
        <time>2017-09-03T11:26:40Z</time>
      </trkpt>
      <trkpt lat="47.09999" lon="5.45378">
        <ele>269</ele>
        <time>2017-09-03T11:26:44Z</time>
      </trkpt>
      <trkpt lat="47.09987" lon="5.45371">
        <ele>269</ele>
        <time>2017-09-03T11:26:48Z</time>
      </trkpt>
      <trkpt lat="47.09977" lon="5.45363">
        <ele>269</ele>
        <time>2017-09-03T11:26:52Z</time>
      </trkpt>
      <trkpt lat="47.09969" lon="5.45359">
        <ele>269</ele>
        <time>2017-09-03T11:26:56Z</time>
      </trkpt>
      <trkpt lat="47.09959" lon="5.45351">
        <ele>269</ele>
        <time>2017-09-03T11:27:00Z</time>
      </trkpt>
      <trkpt lat="47.0995" lon="5.45355">
        <ele>269</ele>
        <time>2017-09-03T11:27:04Z</time>
      </trkpt>
      <trkpt lat="47.09938" lon="5.4537">
        <ele>267</ele>
        <time>2017-09-03T11:27:08Z</time>
      </trkpt>
      <trkpt lat="47.09924" lon="5.45387">
        <ele>265</ele>
        <time>2017-09-03T11:27:12Z</time>
      </trkpt>
      <trkpt lat="47.09912" lon="5.45409">
        <ele>263</ele>
        <time>2017-09-03T11:27:16Z</time>
      </trkpt>
      <trkpt lat="47.099" lon="5.45431">
        <ele>262</ele>
        <time>2017-09-03T11:27:20Z</time>
      </trkpt>
      <trkpt lat="47.09888" lon="5.45446">
        <ele>260</ele>
        <time>2017-09-03T11:27:24Z</time>
      </trkpt>
      <trkpt lat="47.09879" lon="5.45458">
        <ele>259</ele>
        <time>2017-09-03T11:27:28Z</time>
      </trkpt>
      <trkpt lat="47.09863" lon="5.45465">
        <ele>257</ele>
        <time>2017-09-03T11:27:32Z</time>
      </trkpt>
      <trkpt lat="47.09846" lon="5.45465">
        <ele>257</ele>
        <time>2017-09-03T11:27:36Z</time>
      </trkpt>
      <trkpt lat="47.09831" lon="5.45464">
        <ele>256</ele>
        <time>2017-09-03T11:27:40Z</time>
      </trkpt>
      <trkpt lat="47.09813" lon="5.45462">
        <ele>256</ele>
        <time>2017-09-03T11:27:44Z</time>
      </trkpt>
      <trkpt lat="47.09796" lon="5.45458">
        <ele>255</ele>
        <time>2017-09-03T11:27:48Z</time>
      </trkpt>
      <trkpt lat="47.0978" lon="5.45456">
        <ele>255</ele>
        <time>2017-09-03T11:27:52Z</time>
      </trkpt>
      <trkpt lat="47.09762" lon="5.45453">
        <ele>254</ele>
        <time>2017-09-03T11:27:56Z</time>
      </trkpt>
      <trkpt lat="47.09746" lon="5.45448">
        <ele>254</ele>
        <time>2017-09-03T11:28:00Z</time>
      </trkpt>
      <trkpt lat="47.09728" lon="5.45442">
        <ele>253</ele>
        <time>2017-09-03T11:28:04Z</time>
      </trkpt>
      <trkpt lat="47.09709" lon="5.45437">
        <ele>252</ele>
        <time>2017-09-03T11:28:08Z</time>
      </trkpt>
      <trkpt lat="47.09691" lon="5.45429">
        <ele>252</ele>
        <time>2017-09-03T11:28:12Z</time>
      </trkpt>
      <trkpt lat="47.09676" lon="5.4542">
        <ele>252</ele>
        <time>2017-09-03T11:28:16Z</time>
      </trkpt>
      <trkpt lat="47.09661" lon="5.45409">
        <ele>251</ele>
        <time>2017-09-03T11:28:20Z</time>
      </trkpt>
      <trkpt lat="47.09646" lon="5.45398">
        <ele>251</ele>
        <time>2017-09-03T11:28:24Z</time>
      </trkpt>
      <trkpt lat="47.0963" lon="5.45387">
        <ele>251</ele>
        <time>2017-09-03T11:28:28Z</time>
      </trkpt>
      <trkpt lat="47.09616" lon="5.45376">
        <ele>250</ele>
        <time>2017-09-03T11:28:32Z</time>
      </trkpt>
      <trkpt lat="47.09602" lon="5.45366">
        <ele>250</ele>
        <time>2017-09-03T11:28:36Z</time>
      </trkpt>
      <trkpt lat="47.09588" lon="5.45355">
        <ele>249</ele>
        <time>2017-09-03T11:28:40Z</time>
      </trkpt>
      <trkpt lat="47.09576" lon="5.45345">
        <ele>249</ele>
        <time>2017-09-03T11:28:44Z</time>
      </trkpt>
      <trkpt lat="47.09564" lon="5.45336">
        <ele>250</ele>
        <time>2017-09-03T11:28:48Z</time>
      </trkpt>
      <trkpt lat="47.09552" lon="5.45327">
        <ele>251</ele>
        <time>2017-09-03T11:28:52Z</time>
      </trkpt>
      <trkpt lat="47.09539" lon="5.45316">
        <ele>251</ele>
        <time>2017-09-03T11:28:56Z</time>
      </trkpt>
      <trkpt lat="47.09527" lon="5.45307">
        <ele>251</ele>
        <time>2017-09-03T11:29:01Z</time>
      </trkpt>
      <trkpt lat="47.0951" lon="5.45291">
        <ele>251</ele>
        <time>2017-09-03T11:29:08Z</time>
      </trkpt>
      <trkpt lat="47.09498" lon="5.45282">
        <ele>251</ele>
        <time>2017-09-03T11:29:12Z</time>
      </trkpt>
      <trkpt lat="47.09485" lon="5.45271">
        <ele>251</ele>
        <time>2017-09-03T11:29:16Z</time>
      </trkpt>
      <trkpt lat="47.09473" lon="5.45266">
        <ele>251</ele>
        <time>2017-09-03T11:29:20Z</time>
      </trkpt>
      <trkpt lat="47.09463" lon="5.45278">
        <ele>251</ele>
        <time>2017-09-03T11:29:24Z</time>
      </trkpt>
      <trkpt lat="47.09449" lon="5.45301">
        <ele>250</ele>
        <time>2017-09-03T11:29:28Z</time>
      </trkpt>
      <trkpt lat="47.09433" lon="5.45332">
        <ele>248</ele>
        <time>2017-09-03T11:29:32Z</time>
      </trkpt>
      <trkpt lat="47.0942" lon="5.45368">
        <ele>246</ele>
        <time>2017-09-03T11:29:36Z</time>
      </trkpt>
      <trkpt lat="47.09412" lon="5.45405">
        <ele>246</ele>
        <time>2017-09-03T11:29:40Z</time>
      </trkpt>
      <trkpt lat="47.09404" lon="5.45443">
        <ele>245</ele>
        <time>2017-09-03T11:29:44Z</time>
      </trkpt>
      <trkpt lat="47.09391" lon="5.45484">
        <ele>243</ele>
        <time>2017-09-03T11:29:48Z</time>
      </trkpt>
      <trkpt lat="47.09371" lon="5.45524">
        <ele>241</ele>
        <time>2017-09-03T11:29:52Z</time>
      </trkpt>
      <trkpt lat="47.09349" lon="5.4556">
        <ele>240</ele>
        <time>2017-09-03T11:29:56Z</time>
      </trkpt>
      <trkpt lat="47.09327" lon="5.45596">
        <ele>238</ele>
        <time>2017-09-03T11:30:00Z</time>
      </trkpt>
      <trkpt lat="47.09305" lon="5.45631">
        <ele>235</ele>
        <time>2017-09-03T11:30:04Z</time>
      </trkpt>
      <trkpt lat="47.09289" lon="5.45645">
        <ele>234</ele>
        <time>2017-09-03T11:30:08Z</time>
      </trkpt>
      <trkpt lat="47.09272" lon="5.45633">
        <ele>234</ele>
        <time>2017-09-03T11:30:12Z</time>
      </trkpt>
      <trkpt lat="47.09256" lon="5.45617">
        <ele>234</ele>
        <time>2017-09-03T11:30:16Z</time>
      </trkpt>
      <trkpt lat="47.09238" lon="5.45601">
        <ele>234</ele>
        <time>2017-09-03T11:30:20Z</time>
      </trkpt>
      <trkpt lat="47.09217" lon="5.45583">
        <ele>233</ele>
        <time>2017-09-03T11:30:24Z</time>
      </trkpt>
      <trkpt lat="47.09194" lon="5.45563">
        <ele>232</ele>
        <time>2017-09-03T11:30:28Z</time>
      </trkpt>
      <trkpt lat="47.09175" lon="5.45547">
        <ele>232</ele>
        <time>2017-09-03T11:30:32Z</time>
      </trkpt>
      <trkpt lat="47.09159" lon="5.45533">
        <ele>233</ele>
        <time>2017-09-03T11:30:36Z</time>
      </trkpt>
      <trkpt lat="47.09147" lon="5.45523">
        <ele>233</ele>
        <time>2017-09-03T11:30:40Z</time>
      </trkpt>
      <trkpt lat="47.09138" lon="5.45515">
        <ele>235</ele>
        <time>2017-09-03T11:30:44Z</time>
      </trkpt>
      <trkpt lat="47.0913" lon="5.45508">
        <ele>236</ele>
        <time>2017-09-03T11:30:48Z</time>
      </trkpt>
      <trkpt lat="47.09122" lon="5.455">
        <ele>237</ele>
        <time>2017-09-03T11:30:52Z</time>
      </trkpt>
      <trkpt lat="47.09113" lon="5.45492">
        <ele>238</ele>
        <time>2017-09-03T11:30:56Z</time>
      </trkpt>
      <trkpt lat="47.09104" lon="5.45485">
        <ele>239</ele>
        <time>2017-09-03T11:31:00Z</time>
      </trkpt>
      <trkpt lat="47.09096" lon="5.45477">
        <ele>239</ele>
        <time>2017-09-03T11:31:04Z</time>
      </trkpt>
      <trkpt lat="47.09086" lon="5.45467">
        <ele>240</ele>
        <time>2017-09-03T11:31:08Z</time>
      </trkpt>
      <trkpt lat="47.09075" lon="5.45457">
        <ele>239</ele>
        <time>2017-09-03T11:31:12Z</time>
      </trkpt>
      <trkpt lat="47.09062" lon="5.45447">
        <ele>239</ele>
        <time>2017-09-03T11:31:16Z</time>
      </trkpt>
      <trkpt lat="47.09047" lon="5.45434">
        <ele>239</ele>
        <time>2017-09-03T11:31:20Z</time>
      </trkpt>
      <trkpt lat="47.09032" lon="5.45421">
        <ele>239</ele>
        <time>2017-09-03T11:31:24Z</time>
      </trkpt>
      <trkpt lat="47.09016" lon="5.45406">
        <ele>238</ele>
        <time>2017-09-03T11:31:28Z</time>
      </trkpt>
      <trkpt lat="47.09001" lon="5.4539">
        <ele>237</ele>
        <time>2017-09-03T11:31:32Z</time>
      </trkpt>
      <trkpt lat="47.08985" lon="5.45374">
        <ele>237</ele>
        <time>2017-09-03T11:31:36Z</time>
      </trkpt>
      <trkpt lat="47.08968" lon="5.45355">
        <ele>236</ele>
        <time>2017-09-03T11:31:40Z</time>
      </trkpt>
      <trkpt lat="47.0895" lon="5.45335">
        <ele>236</ele>
        <time>2017-09-03T11:31:44Z</time>
      </trkpt>
      <trkpt lat="47.08934" lon="5.45322">
        <ele>235</ele>
        <time>2017-09-03T11:31:48Z</time>
      </trkpt>
      <trkpt lat="47.08916" lon="5.45314">
        <ele>234</ele>
        <time>2017-09-03T11:31:52Z</time>
      </trkpt>
      <trkpt lat="47.08899" lon="5.45303">
        <ele>234</ele>
        <time>2017-09-03T11:31:56Z</time>
      </trkpt>
      <trkpt lat="47.0888" lon="5.45288">
        <ele>234</ele>
        <time>2017-09-03T11:32:00Z</time>
      </trkpt>
      <trkpt lat="47.0886" lon="5.45269">
        <ele>233</ele>
        <time>2017-09-03T11:32:04Z</time>
      </trkpt>
      <trkpt lat="47.08838" lon="5.4525">
        <ele>231</ele>
        <time>2017-09-03T11:32:08Z</time>
      </trkpt>
      <trkpt lat="47.08814" lon="5.45228">
        <ele>230</ele>
        <time>2017-09-03T11:32:12Z</time>
      </trkpt>
      <trkpt lat="47.08788" lon="5.45206">
        <ele>228</ele>
        <time>2017-09-03T11:32:16Z</time>
      </trkpt>
      <trkpt lat="47.08761" lon="5.45182">
        <ele>227</ele>
        <time>2017-09-03T11:32:20Z</time>
      </trkpt>
      <trkpt lat="47.08734" lon="5.45158">
        <ele>226</ele>
        <time>2017-09-03T11:32:24Z</time>
      </trkpt>
      <trkpt lat="47.0871" lon="5.45136">
        <ele>226</ele>
        <time>2017-09-03T11:32:28Z</time>
      </trkpt>
      <trkpt lat="47.08688" lon="5.45116">
        <ele>226</ele>
        <time>2017-09-03T11:32:32Z</time>
      </trkpt>
      <trkpt lat="47.08665" lon="5.45099">
        <ele>226</ele>
        <time>2017-09-03T11:32:36Z</time>
      </trkpt>
      <trkpt lat="47.08645" lon="5.45082">
        <ele>226</ele>
        <time>2017-09-03T11:32:40Z</time>
      </trkpt>
      <trkpt lat="47.08628" lon="5.4507">
        <ele>227</ele>
        <time>2017-09-03T11:32:44Z</time>
      </trkpt>
      <trkpt lat="47.08612" lon="5.45056">
        <ele>228</ele>
        <time>2017-09-03T11:32:48Z</time>
      </trkpt>
      <trkpt lat="47.08595" lon="5.45042">
        <ele>228</ele>
        <time>2017-09-03T11:32:52Z</time>
      </trkpt>
      <trkpt lat="47.08579" lon="5.45028">
        <ele>229</ele>
        <time>2017-09-03T11:32:56Z</time>
      </trkpt>
      <trkpt lat="47.08563" lon="5.45014">
        <ele>229</ele>
        <time>2017-09-03T11:33:00Z</time>
      </trkpt>
      <trkpt lat="47.08546" lon="5.44998">
        <ele>229</ele>
        <time>2017-09-03T11:33:04Z</time>
      </trkpt>
      <trkpt lat="47.08528" lon="5.44983">
        <ele>229</ele>
        <time>2017-09-03T11:33:08Z</time>
      </trkpt>
      <trkpt lat="47.0851" lon="5.44968">
        <ele>229</ele>
        <time>2017-09-03T11:33:12Z</time>
      </trkpt>
      <trkpt lat="47.08493" lon="5.44953">
        <ele>229</ele>
        <time>2017-09-03T11:33:16Z</time>
      </trkpt>
      <trkpt lat="47.08474" lon="5.44937">
        <ele>229</ele>
        <time>2017-09-03T11:33:20Z</time>
      </trkpt>
      <trkpt lat="47.08454" lon="5.4492">
        <ele>228</ele>
        <time>2017-09-03T11:33:24Z</time>
      </trkpt>
      <trkpt lat="47.08435" lon="5.44903">
        <ele>228</ele>
        <time>2017-09-03T11:33:28Z</time>
      </trkpt>
      <trkpt lat="47.08414" lon="5.44884">
        <ele>226</ele>
        <time>2017-09-03T11:33:32Z</time>
      </trkpt>
      <trkpt lat="47.08392" lon="5.44865">
        <ele>226</ele>
        <time>2017-09-03T11:33:36Z</time>
      </trkpt>
      <trkpt lat="47.08378" lon="5.44844">
        <ele>225</ele>
        <time>2017-09-03T11:33:40Z</time>
      </trkpt>
      <trkpt lat="47.08388" lon="5.4483">
        <ele>224</ele>
        <time>2017-09-03T11:33:44Z</time>
      </trkpt>
      <trkpt lat="47.08403" lon="5.44829">
        <ele>225</ele>
        <time>2017-09-03T11:33:49Z</time>
      </trkpt>
      <trkpt lat="47.08418" lon="5.44831">
        <ele>225</ele>
        <time>2017-09-03T11:33:53Z</time>
      </trkpt>
      <trkpt lat="47.08433" lon="5.44833">
        <ele>226</ele>
        <time>2017-09-03T11:34:00Z</time>
      </trkpt>
      <trkpt lat="47.08447" lon="5.44828">
        <ele>226</ele>
        <time>2017-09-03T11:34:04Z</time>
      </trkpt>
      <trkpt lat="47.0846" lon="5.44814">
        <ele>226</ele>
        <time>2017-09-03T11:34:08Z</time>
      </trkpt>
      <trkpt lat="47.08472" lon="5.44794">
        <ele>227</ele>
        <time>2017-09-03T11:34:12Z</time>
      </trkpt>
      <trkpt lat="47.08481" lon="5.44775">
        <ele>228</ele>
        <time>2017-09-03T11:34:17Z</time>
      </trkpt>
      <trkpt lat="47.08487" lon="5.44755">
        <ele>228</ele>
        <time>2017-09-03T11:34:20Z</time>
      </trkpt>
      <trkpt lat="47.08491" lon="5.44738">
        <ele>227</ele>
        <time>2017-09-03T11:34:24Z</time>
      </trkpt>
      <trkpt lat="47.08495" lon="5.4472">
        <ele>228</ele>
        <time>2017-09-03T11:34:28Z</time>
      </trkpt>
      <trkpt lat="47.08497" lon="5.44701">
        <ele>228</ele>
        <time>2017-09-03T11:34:32Z</time>
      </trkpt>
      <trkpt lat="47.08498" lon="5.4468">
        <ele>229</ele>
        <time>2017-09-03T11:34:36Z</time>
      </trkpt>
      <trkpt lat="47.085" lon="5.4466">
        <ele>229</ele>
        <time>2017-09-03T11:34:40Z</time>
      </trkpt>
      <trkpt lat="47.08502" lon="5.44642">
        <ele>229</ele>
        <time>2017-09-03T11:34:44Z</time>
      </trkpt>
      <trkpt lat="47.08506" lon="5.44624">
        <ele>229</ele>
        <time>2017-09-03T11:34:48Z</time>
      </trkpt>
      <trkpt lat="47.08508" lon="5.44607">
        <ele>229</ele>
        <time>2017-09-03T11:34:52Z</time>
      </trkpt>
      <trkpt lat="47.0851" lon="5.4459">
        <ele>229</ele>
        <time>2017-09-03T11:34:56Z</time>
      </trkpt>
      <trkpt lat="47.08511" lon="5.44576">
        <ele>229</ele>
        <time>2017-09-03T11:35:00Z</time>
      </trkpt>
      <trkpt lat="47.0851" lon="5.44557">
        <ele>230</ele>
        <time>2017-09-03T11:35:04Z</time>
      </trkpt>
      <trkpt lat="47.08507" lon="5.44535">
        <ele>230</ele>
        <time>2017-09-03T11:35:08Z</time>
      </trkpt>
      <trkpt lat="47.08505" lon="5.44513">
        <ele>230</ele>
        <time>2017-09-03T11:35:12Z</time>
      </trkpt>
      <trkpt lat="47.08503" lon="5.4449">
        <ele>230</ele>
        <time>2017-09-03T11:35:16Z</time>
      </trkpt>
      <trkpt lat="47.08502" lon="5.44468">
        <ele>231</ele>
        <time>2017-09-03T11:35:20Z</time>
      </trkpt>
      <trkpt lat="47.085" lon="5.44446">
        <ele>231</ele>
        <time>2017-09-03T11:35:24Z</time>
      </trkpt>
      <trkpt lat="47.085" lon="5.44427">
        <ele>232</ele>
        <time>2017-09-03T11:35:28Z</time>
      </trkpt>
      <trkpt lat="47.08499" lon="5.4441">
        <ele>232</ele>
        <time>2017-09-03T11:35:32Z</time>
      </trkpt>
      <trkpt lat="47.08498" lon="5.4439">
        <ele>233</ele>
        <time>2017-09-03T11:35:36Z</time>
      </trkpt>
      <trkpt lat="47.08498" lon="5.44376">
        <ele>234</ele>
        <time>2017-09-03T11:35:40Z</time>
      </trkpt>
      <trkpt lat="47.08497" lon="5.44363">
        <ele>234</ele>
        <time>2017-09-03T11:35:44Z</time>
      </trkpt>
      <trkpt lat="47.08498" lon="5.44354">
        <ele>234</ele>
        <time>2017-09-03T11:35:48Z</time>
      </trkpt>
      <trkpt lat="47.08502" lon="5.4435">
        <ele>234</ele>
        <time>2017-09-03T11:35:52Z</time>
      </trkpt>
      <trkpt lat="47.08506" lon="5.44349">
        <ele>234</ele>
        <time>2017-09-03T11:35:56Z</time>
      </trkpt>
      <trkpt lat="47.08515" lon="5.44349">
        <ele>235</ele>
        <time>2017-09-03T11:36:00Z</time>
      </trkpt>
      <trkpt lat="47.08521" lon="5.44352">
        <ele>235</ele>
        <time>2017-09-03T11:36:04Z</time>
      </trkpt>
      <trkpt lat="47.08528" lon="5.44353">
        <ele>236</ele>
        <time>2017-09-03T11:36:08Z</time>
      </trkpt>
      <trkpt lat="47.08535" lon="5.44356">
        <ele>236</ele>
        <time>2017-09-03T11:36:12Z</time>
      </trkpt>
      <trkpt lat="47.08543" lon="5.44361">
        <ele>236</ele>
        <time>2017-09-03T11:36:16Z</time>
      </trkpt>
      <trkpt lat="47.08549" lon="5.44363">
        <ele>236</ele>
        <time>2017-09-03T11:36:20Z</time>
      </trkpt>
      <trkpt lat="47.08554" lon="5.44364">
        <ele>237</ele>
        <time>2017-09-03T11:36:24Z</time>
      </trkpt>
      <trkpt lat="47.08561" lon="5.44368">
        <ele>237</ele>
        <time>2017-09-03T11:36:28Z</time>
      </trkpt>
      <trkpt lat="47.08567" lon="5.44371">
        <ele>237</ele>
        <time>2017-09-03T11:36:32Z</time>
      </trkpt>
      <trkpt lat="47.08577" lon="5.44376">
        <ele>238</ele>
        <time>2017-09-03T11:36:36Z</time>
      </trkpt>
      <trkpt lat="47.08583" lon="5.44378">
        <ele>238</ele>
        <time>2017-09-03T11:36:40Z</time>
      </trkpt>
      <trkpt lat="47.0859" lon="5.44382">
        <ele>239</ele>
        <time>2017-09-03T11:36:44Z</time>
      </trkpt>
      <trkpt lat="47.08597" lon="5.44385">
        <ele>239</ele>
        <time>2017-09-03T11:36:48Z</time>
      </trkpt>
      <trkpt lat="47.08605" lon="5.44387">
        <ele>239</ele>
        <time>2017-09-03T11:36:52Z</time>
      </trkpt>
      <trkpt lat="47.0861" lon="5.44388">
        <ele>240</ele>
        <time>2017-09-03T11:36:56Z</time>
      </trkpt>
      <trkpt lat="47.08624" lon="5.44395">
        <ele>240</ele>
        <time>2017-09-03T11:37:04Z</time>
      </trkpt>
      <trkpt lat="47.0863" lon="5.44398">
        <ele>241</ele>
        <time>2017-09-03T11:37:08Z</time>
      </trkpt>
      <trkpt lat="47.08637" lon="5.44401">
        <ele>241</ele>
        <time>2017-09-03T11:37:12Z</time>
      </trkpt>
      <trkpt lat="47.08643" lon="5.44403">
        <ele>241</ele>
        <time>2017-09-03T11:37:16Z</time>
      </trkpt>
      <trkpt lat="47.08651" lon="5.44405">
        <ele>242</ele>
        <time>2017-09-03T11:37:20Z</time>
      </trkpt>
      <trkpt lat="47.0866" lon="5.4441">
        <ele>242</ele>
        <time>2017-09-03T11:37:24Z</time>
      </trkpt>
      <trkpt lat="47.08668" lon="5.44414">
        <ele>242</ele>
        <time>2017-09-03T11:37:28Z</time>
      </trkpt>
      <trkpt lat="47.08675" lon="5.44418">
        <ele>243</ele>
        <time>2017-09-03T11:37:32Z</time>
      </trkpt>
      <trkpt lat="47.08681" lon="5.44419">
        <ele>243</ele>
        <time>2017-09-03T11:37:36Z</time>
      </trkpt>
      <trkpt lat="47.08687" lon="5.44425">
        <ele>244</ele>
        <time>2017-09-03T11:37:40Z</time>
      </trkpt>
      <trkpt lat="47.08696" lon="5.44428">
        <ele>244</ele>
        <time>2017-09-03T11:37:44Z</time>
      </trkpt>
      <trkpt lat="47.08703" lon="5.44432">
        <ele>244</ele>
        <time>2017-09-03T11:37:48Z</time>
      </trkpt>
      <trkpt lat="47.08708" lon="5.44436">
        <ele>244</ele>
        <time>2017-09-03T11:37:52Z</time>
      </trkpt>
      <trkpt lat="47.08714" lon="5.44441">
        <ele>245</ele>
        <time>2017-09-03T11:37:56Z</time>
      </trkpt>
      <trkpt lat="47.0873" lon="5.4444">
        <ele>245</ele>
        <time>2017-09-03T11:38:08Z</time>
      </trkpt>
      <trkpt lat="47.08736" lon="5.44434">
        <ele>245</ele>
        <time>2017-09-03T11:38:12Z</time>
      </trkpt>
      <trkpt lat="47.08742" lon="5.44427">
        <ele>245</ele>
        <time>2017-09-03T11:38:16Z</time>
      </trkpt>
      <trkpt lat="47.08747" lon="5.44417">
        <ele>244</ele>
        <time>2017-09-03T11:38:20Z</time>
      </trkpt>
      <trkpt lat="47.08753" lon="5.44402">
        <ele>244</ele>
        <time>2017-09-03T11:38:24Z</time>
      </trkpt>
      <trkpt lat="47.08761" lon="5.44384">
        <ele>243</ele>
        <time>2017-09-03T11:38:28Z</time>
      </trkpt>
      <trkpt lat="47.08771" lon="5.44367">
        <ele>242</ele>
        <time>2017-09-03T11:38:32Z</time>
      </trkpt>
      <trkpt lat="47.08781" lon="5.44342">
        <ele>241</ele>
        <time>2017-09-03T11:38:36Z</time>
      </trkpt>
      <trkpt lat="47.08791" lon="5.44312">
        <ele>239</ele>
        <time>2017-09-03T11:38:40Z</time>
      </trkpt>
      <trkpt lat="47.08798" lon="5.44278">
        <ele>239</ele>
        <time>2017-09-03T11:38:44Z</time>
      </trkpt>
      <trkpt lat="47.08809" lon="5.44244">
        <ele>238</ele>
        <time>2017-09-03T11:38:48Z</time>
      </trkpt>
      <trkpt lat="47.08815" lon="5.44221">
        <ele>238</ele>
        <time>2017-09-03T11:38:52Z</time>
      </trkpt>
      <trkpt lat="47.0882" lon="5.44196">
        <ele>239</ele>
        <time>2017-09-03T11:38:56Z</time>
      </trkpt>
      <trkpt lat="47.08829" lon="5.44174">
        <ele>239</ele>
        <time>2017-09-03T11:39:00Z</time>
      </trkpt>
      <trkpt lat="47.08837" lon="5.44154">
        <ele>240</ele>
        <time>2017-09-03T11:39:04Z</time>
      </trkpt>
      <trkpt lat="47.08841" lon="5.44132">
        <ele>241</ele>
        <time>2017-09-03T11:39:08Z</time>
      </trkpt>
      <trkpt lat="47.08845" lon="5.4411">
        <ele>242</ele>
        <time>2017-09-03T11:39:12Z</time>
      </trkpt>
      <trkpt lat="47.08848" lon="5.44088">
        <ele>242</ele>
        <time>2017-09-03T11:39:16Z</time>
      </trkpt>
      <trkpt lat="47.0885" lon="5.4407">
        <ele>243</ele>
        <time>2017-09-03T11:39:20Z</time>
      </trkpt>
      <trkpt lat="47.08854" lon="5.44053">
        <ele>244</ele>
        <time>2017-09-03T11:39:24Z</time>
      </trkpt>
      <trkpt lat="47.08858" lon="5.44037">
        <ele>244</ele>
        <time>2017-09-03T11:39:28Z</time>
      </trkpt>
      <trkpt lat="47.0886" lon="5.4402">
        <ele>244</ele>
        <time>2017-09-03T11:39:32Z</time>
      </trkpt>
      <trkpt lat="47.08866" lon="5.44002">
        <ele>244</ele>
        <time>2017-09-03T11:39:36Z</time>
      </trkpt>
      <trkpt lat="47.0887" lon="5.43982">
        <ele>244</ele>
        <time>2017-09-03T11:39:40Z</time>
      </trkpt>
      <trkpt lat="47.08874" lon="5.43959">
        <ele>244</ele>
        <time>2017-09-03T11:39:44Z</time>
      </trkpt>
      <trkpt lat="47.0888" lon="5.43937">
        <ele>244</ele>
        <time>2017-09-03T11:39:48Z</time>
      </trkpt>
      <trkpt lat="47.08883" lon="5.43915">
        <ele>244</ele>
        <time>2017-09-03T11:39:52Z</time>
      </trkpt>
      <trkpt lat="47.08888" lon="5.43892">
        <ele>244</ele>
        <time>2017-09-03T11:39:56Z</time>
      </trkpt>
      <trkpt lat="47.08892" lon="5.4387">
        <ele>245</ele>
        <time>2017-09-03T11:40:00Z</time>
      </trkpt>
      <trkpt lat="47.08894" lon="5.43847">
        <ele>245</ele>
        <time>2017-09-03T11:40:04Z</time>
      </trkpt>
      <trkpt lat="47.08893" lon="5.43826">
        <ele>246</ele>
        <time>2017-09-03T11:40:08Z</time>
      </trkpt>
      <trkpt lat="47.0889" lon="5.43807">
        <ele>247</ele>
        <time>2017-09-03T11:40:12Z</time>
      </trkpt>
      <trkpt lat="47.08888" lon="5.43792">
        <ele>248</ele>
        <time>2017-09-03T11:40:17Z</time>
      </trkpt>
      <trkpt lat="47.08886" lon="5.43775">
        <ele>249</ele>
        <time>2017-09-03T11:40:20Z</time>
      </trkpt>
      <trkpt lat="47.08883" lon="5.4376">
        <ele>250</ele>
        <time>2017-09-03T11:40:24Z</time>
      </trkpt>
      <trkpt lat="47.08878" lon="5.43747">
        <ele>250</ele>
        <time>2017-09-03T11:40:28Z</time>
      </trkpt>
      <trkpt lat="47.08872" lon="5.43742">
        <ele>251</ele>
        <time>2017-09-03T11:40:32Z</time>
      </trkpt>
      <trkpt lat="47.08862" lon="5.43742">
        <ele>251</ele>
        <time>2017-09-03T11:40:36Z</time>
      </trkpt>
      <trkpt lat="47.08854" lon="5.4374">
        <ele>250</ele>
        <time>2017-09-03T11:40:40Z</time>
      </trkpt>
      <trkpt lat="47.08844" lon="5.43738">
        <ele>251</ele>
        <time>2017-09-03T11:40:44Z</time>
      </trkpt>
      <trkpt lat="47.08832" lon="5.43737">
        <ele>251</ele>
        <time>2017-09-03T11:40:48Z</time>
      </trkpt>
      <trkpt lat="47.08822" lon="5.43735">
        <ele>251</ele>
        <time>2017-09-03T11:40:52Z</time>
      </trkpt>
      <trkpt lat="47.08811" lon="5.43733">
        <ele>251</ele>
        <time>2017-09-03T11:40:56Z</time>
      </trkpt>
      <trkpt lat="47.08798" lon="5.4373">
        <ele>250</ele>
        <time>2017-09-03T11:41:00Z</time>
      </trkpt>
      <trkpt lat="47.08787" lon="5.43728">
        <ele>250</ele>
        <time>2017-09-03T11:41:04Z</time>
      </trkpt>
      <trkpt lat="47.08776" lon="5.43726">
        <ele>250</ele>
        <time>2017-09-03T11:41:08Z</time>
      </trkpt>
      <trkpt lat="47.08766" lon="5.43725">
        <ele>251</ele>
        <time>2017-09-03T11:41:12Z</time>
      </trkpt>
      <trkpt lat="47.08755" lon="5.4372">
        <ele>250</ele>
        <time>2017-09-03T11:41:16Z</time>
      </trkpt>
      <trkpt lat="47.08741" lon="5.43716">
        <ele>250</ele>
        <time>2017-09-03T11:41:20Z</time>
      </trkpt>
      <trkpt lat="47.08727" lon="5.43709">
        <ele>250</ele>
        <time>2017-09-03T11:41:24Z</time>
      </trkpt>
      <trkpt lat="47.0871" lon="5.43706">
        <ele>250</ele>
        <time>2017-09-03T11:41:28Z</time>
      </trkpt>
      <trkpt lat="47.08691" lon="5.43702">
        <ele>250</ele>
        <time>2017-09-03T11:41:32Z</time>
      </trkpt>
      <trkpt lat="47.08673" lon="5.43698">
        <ele>250</ele>
        <time>2017-09-03T11:41:36Z</time>
      </trkpt>
      <trkpt lat="47.08654" lon="5.43694">
        <ele>249</ele>
        <time>2017-09-03T11:41:40Z</time>
      </trkpt>
      <trkpt lat="47.08634" lon="5.4369">
        <ele>249</ele>
        <time>2017-09-03T11:41:44Z</time>
      </trkpt>
      <trkpt lat="47.08622" lon="5.4368">
        <ele>248</ele>
        <time>2017-09-03T11:41:48Z</time>
      </trkpt>
      <trkpt lat="47.08623" lon="5.43667">
        <ele>248</ele>
        <time>2017-09-03T11:41:52Z</time>
      </trkpt>
      <trkpt lat="47.08625" lon="5.43653">
        <ele>249</ele>
        <time>2017-09-03T11:41:56Z</time>
      </trkpt>
      <trkpt lat="47.08626" lon="5.43639">
        <ele>249</ele>
        <time>2017-09-03T11:42:00Z</time>
      </trkpt>
      <trkpt lat="47.08626" lon="5.43621">
        <ele>249</ele>
        <time>2017-09-03T11:42:04Z</time>
      </trkpt>
      <trkpt lat="47.08626" lon="5.436">
        <ele>249</ele>
        <time>2017-09-03T11:42:08Z</time>
      </trkpt>
      <trkpt lat="47.08625" lon="5.43588">
        <ele>250</ele>
        <time>2017-09-03T11:42:12Z</time>
      </trkpt>
      <trkpt lat="47.08619" lon="5.43575">
        <ele>250</ele>
        <time>2017-09-03T11:42:16Z</time>
      </trkpt>
      <trkpt lat="47.08607" lon="5.43566">
        <ele>249</ele>
        <time>2017-09-03T11:42:20Z</time>
      </trkpt>
      <trkpt lat="47.08592" lon="5.43554">
        <ele>249</ele>
        <time>2017-09-03T11:42:24Z</time>
      </trkpt>
      <trkpt lat="47.08575" lon="5.43547">
        <ele>249</ele>
        <time>2017-09-03T11:42:28Z</time>
      </trkpt>
      <trkpt lat="47.0856" lon="5.43539">
        <ele>248</ele>
        <time>2017-09-03T11:42:32Z</time>
      </trkpt>
      <trkpt lat="47.08548" lon="5.43531">
        <ele>248</ele>
        <time>2017-09-03T11:42:36Z</time>
      </trkpt>
      <trkpt lat="47.08535" lon="5.4352">
        <ele>248</ele>
        <time>2017-09-03T11:42:40Z</time>
      </trkpt>
      <trkpt lat="47.08523" lon="5.43512">
        <ele>248</ele>
        <time>2017-09-03T11:42:44Z</time>
      </trkpt>
      <trkpt lat="47.0851" lon="5.43504">
        <ele>247</ele>
        <time>2017-09-03T11:42:48Z</time>
      </trkpt>
      <trkpt lat="47.08497" lon="5.43495">
        <ele>247</ele>
        <time>2017-09-03T11:42:52Z</time>
      </trkpt>
      <trkpt lat="47.08481" lon="5.43486">
        <ele>246</ele>
        <time>2017-09-03T11:42:56Z</time>
      </trkpt>
      <trkpt lat="47.08463" lon="5.43476">
        <ele>246</ele>
        <time>2017-09-03T11:43:00Z</time>
      </trkpt>
      <trkpt lat="47.08442" lon="5.43463">
        <ele>245</ele>
        <time>2017-09-03T11:43:04Z</time>
      </trkpt>
      <trkpt lat="47.08422" lon="5.43448">
        <ele>244</ele>
        <time>2017-09-03T11:43:08Z</time>
      </trkpt>
      <trkpt lat="47.08396" lon="5.43437">
        <ele>242</ele>
        <time>2017-09-03T11:43:12Z</time>
      </trkpt>
      <trkpt lat="47.08376" lon="5.43427">
        <ele>240</ele>
        <time>2017-09-03T11:43:16Z</time>
      </trkpt>
      <trkpt lat="47.08361" lon="5.43419">
        <ele>239</ele>
        <time>2017-09-03T11:43:20Z</time>
      </trkpt>
      <trkpt lat="47.08343" lon="5.4341">
        <ele>239</ele>
        <time>2017-09-03T11:43:24Z</time>
      </trkpt>
      <trkpt lat="47.08323" lon="5.43401">
        <ele>238</ele>
        <time>2017-09-03T11:43:28Z</time>
      </trkpt>
      <trkpt lat="47.08307" lon="5.43392">
        <ele>239</ele>
        <time>2017-09-03T11:43:32Z</time>
      </trkpt>
      <trkpt lat="47.08294" lon="5.43384">
        <ele>240</ele>
        <time>2017-09-03T11:43:36Z</time>
      </trkpt>
      <trkpt lat="47.08282" lon="5.43378">
        <ele>240</ele>
        <time>2017-09-03T11:43:40Z</time>
      </trkpt>
      <trkpt lat="47.08267" lon="5.43368">
        <ele>241</ele>
        <time>2017-09-03T11:43:44Z</time>
      </trkpt>
      <trkpt lat="47.08254" lon="5.43363">
        <ele>243</ele>
        <time>2017-09-03T11:43:48Z</time>
      </trkpt>
      <trkpt lat="47.08242" lon="5.43356">
        <ele>244</ele>
        <time>2017-09-03T11:43:52Z</time>
      </trkpt>
      <trkpt lat="47.08228" lon="5.43348">
        <ele>244</ele>
        <time>2017-09-03T11:43:56Z</time>
      </trkpt>
      <trkpt lat="47.08216" lon="5.43341">
        <ele>245</ele>
        <time>2017-09-03T11:44:00Z</time>
      </trkpt>
      <trkpt lat="47.08207" lon="5.43335">
        <ele>245</ele>
        <time>2017-09-03T11:44:04Z</time>
      </trkpt>
      <trkpt lat="47.08197" lon="5.4333">
        <ele>244</ele>
        <time>2017-09-03T11:44:08Z</time>
      </trkpt>
      <trkpt lat="47.08185" lon="5.43324">
        <ele>244</ele>
        <time>2017-09-03T11:44:12Z</time>
      </trkpt>
      <trkpt lat="47.08175" lon="5.43331">
        <ele>244</ele>
        <time>2017-09-03T11:44:16Z</time>
      </trkpt>
      <trkpt lat="47.08168" lon="5.43344">
        <ele>244</ele>
        <time>2017-09-03T11:44:20Z</time>
      </trkpt>
      <trkpt lat="47.08163" lon="5.43356">
        <ele>245</ele>
        <time>2017-09-03T11:44:24Z</time>
      </trkpt>
      <trkpt lat="47.08156" lon="5.43369">
        <ele>245</ele>
        <time>2017-09-03T11:44:28Z</time>
      </trkpt>
      <trkpt lat="47.08152" lon="5.43384">
        <ele>245</ele>
        <time>2017-09-03T11:44:32Z</time>
      </trkpt>
      <trkpt lat="47.08147" lon="5.43397">
        <ele>245</ele>
        <time>2017-09-03T11:44:36Z</time>
      </trkpt>
      <trkpt lat="47.08142" lon="5.43408">
        <ele>244</ele>
        <time>2017-09-03T11:44:40Z</time>
      </trkpt>
      <trkpt lat="47.08139" lon="5.43421">
        <ele>244</ele>
        <time>2017-09-03T11:44:44Z</time>
      </trkpt>
      <trkpt lat="47.08133" lon="5.43437">
        <ele>243</ele>
        <time>2017-09-03T11:44:48Z</time>
      </trkpt>
      <trkpt lat="47.08126" lon="5.4346">
        <ele>241</ele>
        <time>2017-09-03T11:44:52Z</time>
      </trkpt>
      <trkpt lat="47.08116" lon="5.43486">
        <ele>239</ele>
        <time>2017-09-03T11:44:56Z</time>
      </trkpt>
      <trkpt lat="47.08112" lon="5.43509">
        <ele>238</ele>
        <time>2017-09-03T11:45:00Z</time>
      </trkpt>
      <trkpt lat="47.08105" lon="5.43531">
        <ele>237</ele>
        <time>2017-09-03T11:45:04Z</time>
      </trkpt>
      <trkpt lat="47.081" lon="5.43554">
        <ele>236</ele>
        <time>2017-09-03T11:45:08Z</time>
      </trkpt>
      <trkpt lat="47.0809" lon="5.43584">
        <ele>235</ele>
        <time>2017-09-03T11:45:12Z</time>
      </trkpt>
      <trkpt lat="47.08079" lon="5.43614">
        <ele>234</ele>
        <time>2017-09-03T11:45:16Z</time>
      </trkpt>
      <trkpt lat="47.08071" lon="5.43642">
        <ele>233</ele>
        <time>2017-09-03T11:45:20Z</time>
      </trkpt>
      <trkpt lat="47.08063" lon="5.43666">
        <ele>233</ele>
        <time>2017-09-03T11:45:24Z</time>
      </trkpt>
      <trkpt lat="47.08056" lon="5.4369">
        <ele>233</ele>
        <time>2017-09-03T11:45:28Z</time>
      </trkpt>
      <trkpt lat="47.0805" lon="5.4371">
        <ele>233</ele>
        <time>2017-09-03T11:45:32Z</time>
      </trkpt>
      <trkpt lat="47.08043" lon="5.43732">
        <ele>233</ele>
        <time>2017-09-03T11:45:36Z</time>
      </trkpt>
      <trkpt lat="47.08038" lon="5.43754">
        <ele>233</ele>
        <time>2017-09-03T11:45:40Z</time>
      </trkpt>
      <trkpt lat="47.0803" lon="5.43777">
        <ele>233</ele>
        <time>2017-09-03T11:45:44Z</time>
      </trkpt>
      <trkpt lat="47.08028" lon="5.43799">
        <ele>232</ele>
        <time>2017-09-03T11:45:48Z</time>
      </trkpt>
      <trkpt lat="47.08028" lon="5.43827">
        <ele>232</ele>
        <time>2017-09-03T11:45:52Z</time>
      </trkpt>
      <trkpt lat="47.08029" lon="5.43857">
        <ele>233</ele>
        <time>2017-09-03T11:45:56Z</time>
      </trkpt>
      <trkpt lat="47.08028" lon="5.43887">
        <ele>234</ele>
        <time>2017-09-03T11:46:00Z</time>
      </trkpt>
      <trkpt lat="47.08028" lon="5.43914">
        <ele>234</ele>
        <time>2017-09-03T11:46:04Z</time>
      </trkpt>
      <trkpt lat="47.08026" lon="5.43939">
        <ele>234</ele>
        <time>2017-09-03T11:46:08Z</time>
      </trkpt>
      <trkpt lat="47.08023" lon="5.43964">
        <ele>234</ele>
        <time>2017-09-03T11:46:12Z</time>
      </trkpt>
      <trkpt lat="47.08022" lon="5.4399">
        <ele>234</ele>
        <time>2017-09-03T11:46:16Z</time>
      </trkpt>
      <trkpt lat="47.0802" lon="5.44014">
        <ele>235</ele>
        <time>2017-09-03T11:46:20Z</time>
      </trkpt>
      <trkpt lat="47.08017" lon="5.44038">
        <ele>235</ele>
        <time>2017-09-03T11:46:24Z</time>
      </trkpt>
      <trkpt lat="47.08012" lon="5.44066">
        <ele>233</ele>
        <time>2017-09-03T11:46:28Z</time>
      </trkpt>
      <trkpt lat="47.08006" lon="5.44103">
        <ele>231</ele>
        <time>2017-09-03T11:46:32Z</time>
      </trkpt>
      <trkpt lat="47.07998" lon="5.44149">
        <ele>229</ele>
        <time>2017-09-03T11:46:36Z</time>
      </trkpt>
      <trkpt lat="47.07991" lon="5.44196">
        <ele>228</ele>
        <time>2017-09-03T11:46:40Z</time>
      </trkpt>
      <trkpt lat="47.07977" lon="5.44236">
        <ele>227</ele>
        <time>2017-09-03T11:46:44Z</time>
      </trkpt>
      <trkpt lat="47.07963" lon="5.44271">
        <ele>227</ele>
        <time>2017-09-03T11:46:48Z</time>
      </trkpt>
      <trkpt lat="47.0795" lon="5.44302">
        <ele>227</ele>
        <time>2017-09-03T11:46:52Z</time>
      </trkpt>
      <trkpt lat="47.07937" lon="5.4433">
        <ele>226</ele>
        <time>2017-09-03T11:46:56Z</time>
      </trkpt>
      <trkpt lat="47.07924" lon="5.44358">
        <ele>226</ele>
        <time>2017-09-03T11:47:00Z</time>
      </trkpt>
      <trkpt lat="47.0791" lon="5.44387">
        <ele>225</ele>
        <time>2017-09-03T11:47:04Z</time>
      </trkpt>
      <trkpt lat="47.07894" lon="5.44411">
        <ele>225</ele>
        <time>2017-09-03T11:47:08Z</time>
      </trkpt>
      <trkpt lat="47.07876" lon="5.44406">
        <ele>225</ele>
        <time>2017-09-03T11:47:12Z</time>
      </trkpt>
      <trkpt lat="47.07864" lon="5.44391">
        <ele>225</ele>
        <time>2017-09-03T11:47:16Z</time>
      </trkpt>
      <trkpt lat="47.07854" lon="5.44393">
        <ele>225</ele>
        <time>2017-09-03T11:47:20Z</time>
      </trkpt>
      <trkpt lat="47.0785" lon="5.4441">
        <ele>226</ele>
        <time>2017-09-03T11:47:24Z</time>
      </trkpt>
      <trkpt lat="47.07847" lon="5.44429">
        <ele>225</ele>
        <time>2017-09-03T11:47:28Z</time>
      </trkpt>
      <trkpt lat="47.07844" lon="5.44454">
        <ele>225</ele>
        <time>2017-09-03T11:47:32Z</time>
      </trkpt>
      <trkpt lat="47.0784" lon="5.44484">
        <ele>224</ele>
        <time>2017-09-03T11:47:36Z</time>
      </trkpt>
      <trkpt lat="47.07836" lon="5.44521">
        <ele>222</ele>
        <time>2017-09-03T11:47:40Z</time>
      </trkpt>
      <trkpt lat="47.0783" lon="5.44564">
        <ele>221</ele>
        <time>2017-09-03T11:47:44Z</time>
      </trkpt>
      <trkpt lat="47.07825" lon="5.44602">
        <ele>220</ele>
        <time>2017-09-03T11:47:48Z</time>
      </trkpt>
      <trkpt lat="47.07818" lon="5.44615">
        <ele>219</ele>
        <time>2017-09-03T11:47:52Z</time>
      </trkpt>
      <trkpt lat="47.07808" lon="5.44604">
        <ele>218</ele>
        <time>2017-09-03T11:47:56Z</time>
      </trkpt>
      <trkpt lat="47.07796" lon="5.44589">
        <ele>217</ele>
        <time>2017-09-03T11:48:00Z</time>
      </trkpt>
      <trkpt lat="47.07784" lon="5.44583">
        <ele>216</ele>
        <time>2017-09-03T11:48:04Z</time>
      </trkpt>
      <trkpt lat="47.07778" lon="5.44591">
        <ele>216</ele>
        <time>2017-09-03T11:48:08Z</time>
      </trkpt>
      <trkpt lat="47.07774" lon="5.44606">
        <ele>215</ele>
        <time>2017-09-03T11:48:12Z</time>
      </trkpt>
      <trkpt lat="47.07775" lon="5.44625">
        <ele>216</ele>
        <time>2017-09-03T11:48:16Z</time>
      </trkpt>
      <trkpt lat="47.07771" lon="5.44647">
        <ele>215</ele>
        <time>2017-09-03T11:48:20Z</time>
      </trkpt>
      <trkpt lat="47.07768" lon="5.44669">
        <ele>216</ele>
        <time>2017-09-03T11:48:24Z</time>
      </trkpt>
      <trkpt lat="47.07766" lon="5.44691">
        <ele>216</ele>
        <time>2017-09-03T11:48:28Z</time>
      </trkpt>
      <trkpt lat="47.07764" lon="5.44713">
        <ele>216</ele>
        <time>2017-09-03T11:48:32Z</time>
      </trkpt>
      <trkpt lat="47.07759" lon="5.44734">
        <ele>216</ele>
        <time>2017-09-03T11:48:36Z</time>
      </trkpt>
      <trkpt lat="47.07752" lon="5.44754">
        <ele>216</ele>
        <time>2017-09-03T11:48:40Z</time>
      </trkpt>
      <trkpt lat="47.07742" lon="5.44771">
        <ele>216</ele>
        <time>2017-09-03T11:48:44Z</time>
      </trkpt>
      <trkpt lat="47.07733" lon="5.44789">
        <ele>216</ele>
        <time>2017-09-03T11:48:48Z</time>
      </trkpt>
      <trkpt lat="47.07731" lon="5.44812">
        <ele>216</ele>
        <time>2017-09-03T11:48:52Z</time>
      </trkpt>
      <trkpt lat="47.07737" lon="5.44834">
        <ele>217</ele>
        <time>2017-09-03T11:48:56Z</time>
      </trkpt>
      <trkpt lat="47.07749" lon="5.44854">
        <ele>217</ele>
        <time>2017-09-03T11:49:00Z</time>
      </trkpt>
      <trkpt lat="47.07764" lon="5.44867">
        <ele>217</ele>
        <time>2017-09-03T11:49:04Z</time>
      </trkpt>
      <trkpt lat="47.07776" lon="5.44877">
        <ele>217</ele>
        <time>2017-09-03T11:49:08Z</time>
      </trkpt>
      <trkpt lat="47.07779" lon="5.44898">
        <ele>216</ele>
        <time>2017-09-03T11:49:12Z</time>
      </trkpt>
      <trkpt lat="47.07767" lon="5.44916">
        <ele>216</ele>
        <time>2017-09-03T11:49:16Z</time>
      </trkpt>
      <trkpt lat="47.07751" lon="5.44934">
        <ele>216</ele>
        <time>2017-09-03T11:49:20Z</time>
      </trkpt>
      <trkpt lat="47.07731" lon="5.44952">
        <ele>216</ele>
        <time>2017-09-03T11:49:24Z</time>
      </trkpt>
      <trkpt lat="47.07712" lon="5.44972">
        <ele>216</ele>
        <time>2017-09-03T11:49:28Z</time>
      </trkpt>
      <trkpt lat="47.07691" lon="5.44988">
        <ele>216</ele>
        <time>2017-09-03T11:49:32Z</time>
      </trkpt>
      <trkpt lat="47.07672" lon="5.45001">
        <ele>216</ele>
        <time>2017-09-03T11:49:36Z</time>
      </trkpt>
      <trkpt lat="47.07658" lon="5.45015">
        <ele>216</ele>
        <time>2017-09-03T11:49:40Z</time>
      </trkpt>
      <trkpt lat="47.07642" lon="5.45028">
        <ele>217</ele>
        <time>2017-09-03T11:49:44Z</time>
      </trkpt>
      <trkpt lat="47.07626" lon="5.45043">
        <ele>216</ele>
        <time>2017-09-03T11:49:48Z</time>
      </trkpt>
      <trkpt lat="47.07608" lon="5.45055">
        <ele>217</ele>
        <time>2017-09-03T11:49:52Z</time>
      </trkpt>
      <trkpt lat="47.07591" lon="5.45065">
        <ele>217</ele>
        <time>2017-09-03T11:49:56Z</time>
      </trkpt>
      <trkpt lat="47.07575" lon="5.45079">
        <ele>217</ele>
        <time>2017-09-03T11:50:00Z</time>
      </trkpt>
      <trkpt lat="47.07567" lon="5.45092">
        <ele>217</ele>
        <time>2017-09-03T11:50:04Z</time>
      </trkpt>
      <trkpt lat="47.07576" lon="5.45104">
        <ele>218</ele>
        <time>2017-09-03T11:50:08Z</time>
      </trkpt>
      <trkpt lat="47.07588" lon="5.45116">
        <ele>218</ele>
        <time>2017-09-03T11:50:12Z</time>
      </trkpt>
      <trkpt lat="47.07596" lon="5.45129">
        <ele>218</ele>
        <time>2017-09-03T11:50:16Z</time>
      </trkpt>
      <trkpt lat="47.07606" lon="5.45142">
        <ele>218</ele>
        <time>2017-09-03T11:50:20Z</time>
      </trkpt>
      <trkpt lat="47.07618" lon="5.45157">
        <ele>219</ele>
        <time>2017-09-03T11:50:24Z</time>
      </trkpt>
      <trkpt lat="47.07626" lon="5.4517">
        <ele>219</ele>
        <time>2017-09-03T11:50:28Z</time>
      </trkpt>
      <trkpt lat="47.07637" lon="5.45184">
        <ele>219</ele>
        <time>2017-09-03T11:50:32Z</time>
      </trkpt>
      <trkpt lat="47.07642" lon="5.45195">
        <ele>219</ele>
        <time>2017-09-03T11:50:36Z</time>
      </trkpt>
      <trkpt lat="47.07652" lon="5.45209">
        <ele>219</ele>
        <time>2017-09-03T11:50:40Z</time>
      </trkpt>
      <trkpt lat="47.07665" lon="5.45225">
        <ele>219</ele>
        <time>2017-09-03T11:50:44Z</time>
      </trkpt>
      <trkpt lat="47.07679" lon="5.45243">
        <ele>219</ele>
        <time>2017-09-03T11:50:48Z</time>
      </trkpt>
      <trkpt lat="47.07694" lon="5.45262">
        <ele>219</ele>
        <time>2017-09-03T11:50:52Z</time>
      </trkpt>
      <trkpt lat="47.07706" lon="5.45281">
        <ele>219</ele>
        <time>2017-09-03T11:50:56Z</time>
      </trkpt>
      <trkpt lat="47.07718" lon="5.453">
        <ele>219</ele>
        <time>2017-09-03T11:51:00Z</time>
      </trkpt>
      <trkpt lat="47.07731" lon="5.45319">
        <ele>219</ele>
        <time>2017-09-03T11:51:04Z</time>
      </trkpt>
      <trkpt lat="47.07744" lon="5.45339">
        <ele>219</ele>
        <time>2017-09-03T11:51:08Z</time>
      </trkpt>
      <trkpt lat="47.07748" lon="5.45361">
        <ele>219</ele>
        <time>2017-09-03T11:51:12Z</time>
      </trkpt>
      <trkpt lat="47.07743" lon="5.45378">
        <ele>220</ele>
        <time>2017-09-03T11:51:16Z</time>
      </trkpt>
      <trkpt lat="47.07731" lon="5.45393">
        <ele>220</ele>
        <time>2017-09-03T11:51:20Z</time>
      </trkpt>
      <trkpt lat="47.07718" lon="5.45412">
        <ele>221</ele>
        <time>2017-09-03T11:51:24Z</time>
      </trkpt>
      <trkpt lat="47.07704" lon="5.45433">
        <ele>221</ele>
        <time>2017-09-03T11:51:28Z</time>
      </trkpt>
      <trkpt lat="47.07686" lon="5.45456">
        <ele>222</ele>
        <time>2017-09-03T11:51:32Z</time>
      </trkpt>
      <trkpt lat="47.07666" lon="5.45477">
        <ele>223</ele>
        <time>2017-09-03T11:51:36Z</time>
      </trkpt>
      <trkpt lat="47.0765" lon="5.45499">
        <ele>224</ele>
        <time>2017-09-03T11:51:40Z</time>
      </trkpt>
      <trkpt lat="47.0764" lon="5.45521">
        <ele>225</ele>
        <time>2017-09-03T11:51:44Z</time>
      </trkpt>
      <trkpt lat="47.07627" lon="5.45541">
        <ele>226</ele>
        <time>2017-09-03T11:51:48Z</time>
      </trkpt>
      <trkpt lat="47.07616" lon="5.45562">
        <ele>226</ele>
        <time>2017-09-03T11:51:52Z</time>
      </trkpt>
      <trkpt lat="47.07606" lon="5.45583">
        <ele>227</ele>
        <time>2017-09-03T11:51:56Z</time>
      </trkpt>
      <trkpt lat="47.07594" lon="5.45603">
        <ele>228</ele>
        <time>2017-09-03T11:52:00Z</time>
      </trkpt>
      <trkpt lat="47.07583" lon="5.45623">
        <ele>229</ele>
        <time>2017-09-03T11:52:04Z</time>
      </trkpt>
      <trkpt lat="47.07572" lon="5.45645">
        <ele>229</ele>
        <time>2017-09-03T11:52:08Z</time>
      </trkpt>
      <trkpt lat="47.07566" lon="5.45668">
        <ele>230</ele>
        <time>2017-09-03T11:52:12Z</time>
      </trkpt>
      <trkpt lat="47.07563" lon="5.45689">
        <ele>230</ele>
        <time>2017-09-03T11:52:16Z</time>
      </trkpt>
      <trkpt lat="47.07557" lon="5.45711">
        <ele>231</ele>
        <time>2017-09-03T11:52:20Z</time>
      </trkpt>
      <trkpt lat="47.07549" lon="5.45731">
        <ele>232</ele>
        <time>2017-09-03T11:52:24Z</time>
      </trkpt>
      <trkpt lat="47.07541" lon="5.45751">
        <ele>232</ele>
        <time>2017-09-03T11:52:28Z</time>
      </trkpt>
      <trkpt lat="47.07534" lon="5.45771">
        <ele>233</ele>
        <time>2017-09-03T11:52:32Z</time>
      </trkpt>
      <trkpt lat="47.07528" lon="5.45793">
        <ele>233</ele>
        <time>2017-09-03T11:52:36Z</time>
      </trkpt>
      <trkpt lat="47.07517" lon="5.45814">
        <ele>233</ele>
        <time>2017-09-03T11:52:40Z</time>
      </trkpt>
      <trkpt lat="47.07504" lon="5.45836">
        <ele>233</ele>
        <time>2017-09-03T11:52:44Z</time>
      </trkpt>
      <trkpt lat="47.0749" lon="5.4586">
        <ele>233</ele>
        <time>2017-09-03T11:52:48Z</time>
      </trkpt>
      <trkpt lat="47.07477" lon="5.45884">
        <ele>233</ele>
        <time>2017-09-03T11:52:52Z</time>
      </trkpt>
      <trkpt lat="47.07463" lon="5.45907">
        <ele>234</ele>
        <time>2017-09-03T11:52:56Z</time>
      </trkpt>
      <trkpt lat="47.0745" lon="5.45929">
        <ele>234</ele>
        <time>2017-09-03T11:53:00Z</time>
      </trkpt>
      <trkpt lat="47.07437" lon="5.45948">
        <ele>235</ele>
        <time>2017-09-03T11:53:04Z</time>
      </trkpt>
      <trkpt lat="47.07425" lon="5.45964">
        <ele>236</ele>
        <time>2017-09-03T11:53:08Z</time>
      </trkpt>
      <trkpt lat="47.07413" lon="5.45977">
        <ele>237</ele>
        <time>2017-09-03T11:53:12Z</time>
      </trkpt>
      <trkpt lat="47.07397" lon="5.45989">
        <ele>238</ele>
        <time>2017-09-03T11:53:16Z</time>
      </trkpt>
      <trkpt lat="47.07382" lon="5.46001">
        <ele>239</ele>
        <time>2017-09-03T11:53:20Z</time>
      </trkpt>
      <trkpt lat="47.07369" lon="5.46012">
        <ele>240</ele>
        <time>2017-09-03T11:53:24Z</time>
      </trkpt>
      <trkpt lat="47.07356" lon="5.46026">
        <ele>240</ele>
        <time>2017-09-03T11:53:28Z</time>
      </trkpt>
      <trkpt lat="47.07344" lon="5.46041">
        <ele>241</ele>
        <time>2017-09-03T11:53:32Z</time>
      </trkpt>
      <trkpt lat="47.07333" lon="5.46056">
        <ele>242</ele>
        <time>2017-09-03T11:53:36Z</time>
      </trkpt>
      <trkpt lat="47.07321" lon="5.46073">
        <ele>243</ele>
        <time>2017-09-03T11:53:40Z</time>
      </trkpt>
      <trkpt lat="47.07309" lon="5.46092">
        <ele>242</ele>
        <time>2017-09-03T11:53:44Z</time>
      </trkpt>
      <trkpt lat="47.07295" lon="5.46115">
        <ele>242</ele>
        <time>2017-09-03T11:53:48Z</time>
      </trkpt>
      <trkpt lat="47.0728" lon="5.46135">
        <ele>242</ele>
        <time>2017-09-03T11:53:52Z</time>
      </trkpt>
      <trkpt lat="47.07281" lon="5.46146">
        <ele>241</ele>
        <time>2017-09-03T11:53:56Z</time>
      </trkpt>
      <trkpt lat="47.07284" lon="5.4615">
        <ele>241</ele>
        <time>2017-09-03T11:54:36Z</time>
      </trkpt>
      <trkpt lat="47.07292" lon="5.4616">
        <ele>241</ele>
        <time>2017-09-03T11:54:40Z</time>
      </trkpt>
      <trkpt lat="47.07301" lon="5.4617">
        <ele>242</ele>
        <time>2017-09-03T11:54:44Z</time>
      </trkpt>
      <trkpt lat="47.07312" lon="5.46182">
        <ele>242</ele>
        <time>2017-09-03T11:54:48Z</time>
      </trkpt>
      <trkpt lat="47.07322" lon="5.46193">
        <ele>243</ele>
        <time>2017-09-03T11:54:52Z</time>
      </trkpt>
      <trkpt lat="47.07333" lon="5.46205">
        <ele>243</ele>
        <time>2017-09-03T11:54:56Z</time>
      </trkpt>
      <trkpt lat="47.07344" lon="5.4622">
        <ele>244</ele>
        <time>2017-09-03T11:55:00Z</time>
      </trkpt>
      <trkpt lat="47.07356" lon="5.46235">
        <ele>244</ele>
        <time>2017-09-03T11:55:04Z</time>
      </trkpt>
      <trkpt lat="47.07368" lon="5.46249">
        <ele>245</ele>
        <time>2017-09-03T11:55:08Z</time>
      </trkpt>
      <trkpt lat="47.07379" lon="5.46265">
        <ele>245</ele>
        <time>2017-09-03T11:55:12Z</time>
      </trkpt>
      <trkpt lat="47.07389" lon="5.46279">
        <ele>245</ele>
        <time>2017-09-03T11:55:16Z</time>
      </trkpt>
      <trkpt lat="47.07398" lon="5.4629">
        <ele>246</ele>
        <time>2017-09-03T11:55:20Z</time>
      </trkpt>
      <trkpt lat="47.07408" lon="5.46302">
        <ele>246</ele>
        <time>2017-09-03T11:55:24Z</time>
      </trkpt>
      <trkpt lat="47.0742" lon="5.46315">
        <ele>246</ele>
        <time>2017-09-03T11:55:28Z</time>
      </trkpt>
      <trkpt lat="47.07432" lon="5.46332">
        <ele>247</ele>
        <time>2017-09-03T11:55:32Z</time>
      </trkpt>
      <trkpt lat="47.07429" lon="5.46348">
        <ele>247</ele>
        <time>2017-09-03T11:55:36Z</time>
      </trkpt>
      <trkpt lat="47.07421" lon="5.46365">
        <ele>247</ele>
        <time>2017-09-03T11:55:40Z</time>
      </trkpt>
      <trkpt lat="47.07411" lon="5.46388">
        <ele>246</ele>
        <time>2017-09-03T11:55:44Z</time>
      </trkpt>
      <trkpt lat="47.07396" lon="5.46416">
        <ele>246</ele>
        <time>2017-09-03T11:55:48Z</time>
      </trkpt>
      <trkpt lat="47.0738" lon="5.46448">
        <ele>245</ele>
        <time>2017-09-03T11:55:52Z</time>
      </trkpt>
      <trkpt lat="47.07363" lon="5.46482">
        <ele>244</ele>
        <time>2017-09-03T11:55:56Z</time>
      </trkpt>
      <trkpt lat="47.07346" lon="5.46515">
        <ele>243</ele>
        <time>2017-09-03T11:56:00Z</time>
      </trkpt>
      <trkpt lat="47.07328" lon="5.46551">
        <ele>242</ele>
        <time>2017-09-03T11:56:04Z</time>
      </trkpt>
      <trkpt lat="47.07309" lon="5.46584">
        <ele>240</ele>
        <time>2017-09-03T11:56:08Z</time>
      </trkpt>
      <trkpt lat="47.07292" lon="5.46617">
        <ele>239</ele>
        <time>2017-09-03T11:56:12Z</time>
      </trkpt>
      <trkpt lat="47.07275" lon="5.46647">
        <ele>239</ele>
        <time>2017-09-03T11:56:16Z</time>
      </trkpt>
      <trkpt lat="47.07261" lon="5.46674">
        <ele>238</ele>
        <time>2017-09-03T11:56:20Z</time>
      </trkpt>
      <trkpt lat="47.07249" lon="5.46694">
        <ele>237</ele>
        <time>2017-09-03T11:56:28Z</time>
      </trkpt>
      <trkpt lat="47.07239" lon="5.46714">
        <ele>237</ele>
        <time>2017-09-03T11:56:32Z</time>
      </trkpt>
      <trkpt lat="47.07229" lon="5.46727">
        <ele>236</ele>
        <time>2017-09-03T11:56:36Z</time>
      </trkpt>
      <trkpt lat="47.07222" lon="5.46725">
        <ele>236</ele>
        <time>2017-09-03T11:56:40Z</time>
      </trkpt>
      <trkpt lat="47.07214" lon="5.46719">
        <ele>236</ele>
        <time>2017-09-03T11:56:44Z</time>
      </trkpt>
      <trkpt lat="47.07207" lon="5.46713">
        <ele>237</ele>
        <time>2017-09-03T11:56:48Z</time>
      </trkpt>
      <trkpt lat="47.07193" lon="5.46722">
        <ele>237</ele>
        <time>2017-09-03T11:56:52Z</time>
      </trkpt>
      <trkpt lat="47.07173" lon="5.46743">
        <ele>235</ele>
        <time>2017-09-03T11:57:00Z</time>
      </trkpt>
      <trkpt lat="47.07164" lon="5.46759">
        <ele>233</ele>
        <time>2017-09-03T11:57:04Z</time>
      </trkpt>
      <trkpt lat="47.07155" lon="5.46773">
        <ele>231</ele>
        <time>2017-09-03T11:57:08Z</time>
      </trkpt>
      <trkpt lat="47.07145" lon="5.4679">
        <ele>227</ele>
        <time>2017-09-03T11:57:12Z</time>
      </trkpt>
      <trkpt lat="47.07148" lon="5.4681">
        <ele>224</ele>
        <time>2017-09-03T11:57:16Z</time>
      </trkpt>
      <trkpt lat="47.07155" lon="5.46829">
        <ele>223</ele>
        <time>2017-09-03T11:57:20Z</time>
      </trkpt>
      <trkpt lat="47.07169" lon="5.46849">
        <ele>222</ele>
        <time>2017-09-03T11:57:24Z</time>
      </trkpt>
      <trkpt lat="47.07186" lon="5.4687">
        <ele>221</ele>
        <time>2017-09-03T11:57:28Z</time>
      </trkpt>
      <trkpt lat="47.07208" lon="5.46899">
        <ele>219</ele>
        <time>2017-09-03T11:57:32Z</time>
      </trkpt>
      <trkpt lat="47.07228" lon="5.46934">
        <ele>218</ele>
        <time>2017-09-03T11:57:36Z</time>
      </trkpt>
      <trkpt lat="47.07255" lon="5.46982">
        <ele>215</ele>
        <time>2017-09-03T11:57:40Z</time>
      </trkpt>
      <trkpt lat="47.07256" lon="5.47021">
        <ele>214</ele>
        <time>2017-09-03T11:57:44Z</time>
      </trkpt>
      <trkpt lat="47.07254" lon="5.47051">
        <ele>213</ele>
        <time>2017-09-03T11:57:48Z</time>
      </trkpt>
      <trkpt lat="47.07269" lon="5.47068">
        <ele>212</ele>
        <time>2017-09-03T11:57:52Z</time>
      </trkpt>
      <trkpt lat="47.07279" lon="5.47078">
        <ele>211</ele>
        <time>2017-09-03T11:57:56Z</time>
      </trkpt>
      <trkpt lat="47.07293" lon="5.47092">
        <ele>210</ele>
        <time>2017-09-03T11:58:00Z</time>
      </trkpt>
      <trkpt lat="47.07309" lon="5.47109">
        <ele>210</ele>
        <time>2017-09-03T11:58:04Z</time>
      </trkpt>
      <trkpt lat="47.0733" lon="5.47124">
        <ele>210</ele>
        <time>2017-09-03T11:58:08Z</time>
      </trkpt>
      <trkpt lat="47.07351" lon="5.47139">
        <ele>210</ele>
        <time>2017-09-03T11:58:12Z</time>
      </trkpt>
      <trkpt lat="47.07371" lon="5.47154">
        <ele>210</ele>
        <time>2017-09-03T11:58:16Z</time>
      </trkpt>
      <trkpt lat="47.07389" lon="5.47165">
        <ele>210</ele>
        <time>2017-09-03T11:58:20Z</time>
      </trkpt>
      <trkpt lat="47.07407" lon="5.47178">
        <ele>210</ele>
        <time>2017-09-03T11:58:24Z</time>
      </trkpt>
      <trkpt lat="47.07423" lon="5.47192">
        <ele>210</ele>
        <time>2017-09-03T11:58:28Z</time>
      </trkpt>
      <trkpt lat="47.07438" lon="5.47207">
        <ele>209</ele>
        <time>2017-09-03T11:58:32Z</time>
      </trkpt>
      <trkpt lat="47.07454" lon="5.4722">
        <ele>210</ele>
        <time>2017-09-03T11:58:36Z</time>
      </trkpt>
      <trkpt lat="47.0747" lon="5.47232">
        <ele>210</ele>
        <time>2017-09-03T11:58:40Z</time>
      </trkpt>
      <trkpt lat="47.07484" lon="5.47244">
        <ele>209</ele>
        <time>2017-09-03T11:58:44Z</time>
      </trkpt>
      <trkpt lat="47.07499" lon="5.47256">
        <ele>209</ele>
        <time>2017-09-03T11:58:48Z</time>
      </trkpt>
      <trkpt lat="47.07514" lon="5.47266">
        <ele>209</ele>
        <time>2017-09-03T11:58:52Z</time>
      </trkpt>
      <trkpt lat="47.07528" lon="5.47277">
        <ele>209</ele>
        <time>2017-09-03T11:58:56Z</time>
      </trkpt>
      <trkpt lat="47.07543" lon="5.47288">
        <ele>210</ele>
        <time>2017-09-03T11:59:00Z</time>
      </trkpt>
      <trkpt lat="47.07557" lon="5.47299">
        <ele>210</ele>
        <time>2017-09-03T11:59:05Z</time>
      </trkpt>
      <trkpt lat="47.07569" lon="5.47314">
        <ele>210</ele>
        <time>2017-09-03T11:59:12Z</time>
      </trkpt>
      <trkpt lat="47.07579" lon="5.47332">
        <ele>210</ele>
        <time>2017-09-03T11:59:16Z</time>
      </trkpt>
      <trkpt lat="47.07588" lon="5.47346">
        <ele>209</ele>
        <time>2017-09-03T11:59:20Z</time>
      </trkpt>
      <trkpt lat="47.07598" lon="5.47362">
        <ele>210</ele>
        <time>2017-09-03T11:59:24Z</time>
      </trkpt>
      <trkpt lat="47.07608" lon="5.47376">
        <ele>210</ele>
        <time>2017-09-03T11:59:28Z</time>
      </trkpt>
      <trkpt lat="47.07618" lon="5.47389">
        <ele>210</ele>
        <time>2017-09-03T11:59:32Z</time>
      </trkpt>
      <trkpt lat="47.07627" lon="5.47406">
        <ele>209</ele>
        <time>2017-09-03T11:59:36Z</time>
      </trkpt>
      <trkpt lat="47.07635" lon="5.47422">
        <ele>209</ele>
        <time>2017-09-03T11:59:40Z</time>
      </trkpt>
      <trkpt lat="47.07645" lon="5.47438">
        <ele>210</ele>
        <time>2017-09-03T11:59:44Z</time>
      </trkpt>
      <trkpt lat="47.07655" lon="5.47454">
        <ele>209</ele>
        <time>2017-09-03T11:59:48Z</time>
      </trkpt>
      <trkpt lat="47.07665" lon="5.47472">
        <ele>209</ele>
        <time>2017-09-03T11:59:52Z</time>
      </trkpt>
      <trkpt lat="47.07676" lon="5.47488">
        <ele>209</ele>
        <time>2017-09-03T11:59:56Z</time>
      </trkpt>
      <trkpt lat="47.07686" lon="5.47506">
        <ele>209</ele>
        <time>2017-09-03T12:00:00Z</time>
      </trkpt>
      <trkpt lat="47.07696" lon="5.47524">
        <ele>209</ele>
        <time>2017-09-03T12:00:04Z</time>
      </trkpt>
      <trkpt lat="47.07707" lon="5.47543">
        <ele>209</ele>
        <time>2017-09-03T12:00:08Z</time>
      </trkpt>
      <trkpt lat="47.0773" lon="5.47579">
        <ele>210</ele>
        <time>2017-09-03T12:00:12Z</time>
      </trkpt>
      <trkpt lat="47.07751" lon="5.47612">
        <ele>210</ele>
        <time>2017-09-03T12:00:20Z</time>
      </trkpt>
      <trkpt lat="47.07762" lon="5.47629">
        <ele>209</ele>
        <time>2017-09-03T12:00:24Z</time>
      </trkpt>
      <trkpt lat="47.07772" lon="5.47646">
        <ele>209</ele>
        <time>2017-09-03T12:00:28Z</time>
      </trkpt>
      <trkpt lat="47.07781" lon="5.47662">
        <ele>209</ele>
        <time>2017-09-03T12:00:32Z</time>
      </trkpt>
      <trkpt lat="47.0779" lon="5.47677">
        <ele>209</ele>
        <time>2017-09-03T12:00:36Z</time>
      </trkpt>
      <trkpt lat="47.078" lon="5.47693">
        <ele>210</ele>
        <time>2017-09-03T12:00:40Z</time>
      </trkpt>
      <trkpt lat="47.0781" lon="5.47709">
        <ele>210</ele>
        <time>2017-09-03T12:00:44Z</time>
      </trkpt>
      <trkpt lat="47.07818" lon="5.47723">
        <ele>210</ele>
        <time>2017-09-03T12:00:48Z</time>
      </trkpt>
      <trkpt lat="47.07827" lon="5.47737">
        <ele>210</ele>
        <time>2017-09-03T12:00:52Z</time>
      </trkpt>
      <trkpt lat="47.07837" lon="5.47752">
        <ele>210</ele>
        <time>2017-09-03T12:00:56Z</time>
      </trkpt>
      <trkpt lat="47.07847" lon="5.47767">
        <ele>210</ele>
        <time>2017-09-03T12:01:00Z</time>
      </trkpt>
      <trkpt lat="47.07857" lon="5.47782">
        <ele>210</ele>
        <time>2017-09-03T12:01:04Z</time>
      </trkpt>
      <trkpt lat="47.07866" lon="5.47797">
        <ele>210</ele>
        <time>2017-09-03T12:01:08Z</time>
      </trkpt>
      <trkpt lat="47.07875" lon="5.4781">
        <ele>210</ele>
        <time>2017-09-03T12:01:12Z</time>
      </trkpt>
      <trkpt lat="47.07885" lon="5.47825">
        <ele>210</ele>
        <time>2017-09-03T12:01:16Z</time>
      </trkpt>
      <trkpt lat="47.07892" lon="5.47838">
        <ele>211</ele>
        <time>2017-09-03T12:01:20Z</time>
      </trkpt>
      <trkpt lat="47.07899" lon="5.4785">
        <ele>210</ele>
        <time>2017-09-03T12:01:24Z</time>
      </trkpt>
      <trkpt lat="47.07907" lon="5.47864">
        <ele>210</ele>
        <time>2017-09-03T12:01:28Z</time>
      </trkpt>
      <trkpt lat="47.07916" lon="5.4788">
        <ele>211</ele>
        <time>2017-09-03T12:01:32Z</time>
      </trkpt>
      <trkpt lat="47.07925" lon="5.47896">
        <ele>211</ele>
        <time>2017-09-03T12:01:36Z</time>
      </trkpt>
      <trkpt lat="47.07935" lon="5.47912">
        <ele>211</ele>
        <time>2017-09-03T12:01:40Z</time>
      </trkpt>
      <trkpt lat="47.07946" lon="5.47927">
        <ele>211</ele>
        <time>2017-09-03T12:01:44Z</time>
      </trkpt>
      <trkpt lat="47.07957" lon="5.47945">
        <ele>211</ele>
        <time>2017-09-03T12:01:48Z</time>
      </trkpt>
      <trkpt lat="47.07966" lon="5.47959">
        <ele>211</ele>
        <time>2017-09-03T12:01:52Z</time>
      </trkpt>
      <trkpt lat="47.07975" lon="5.47975">
        <ele>211</ele>
        <time>2017-09-03T12:01:56Z</time>
      </trkpt>
      <trkpt lat="47.07983" lon="5.4799">
        <ele>211</ele>
        <time>2017-09-03T12:02:00Z</time>
      </trkpt>
      <trkpt lat="47.07991" lon="5.48005">
        <ele>211</ele>
        <time>2017-09-03T12:02:04Z</time>
      </trkpt>
      <trkpt lat="47.08001" lon="5.4802">
        <ele>211</ele>
        <time>2017-09-03T12:02:12Z</time>
      </trkpt>
      <trkpt lat="47.08009" lon="5.48033">
        <ele>211</ele>
        <time>2017-09-03T12:02:16Z</time>
      </trkpt>
      <trkpt lat="47.08024" lon="5.48049">
        <ele>211</ele>
        <time>2017-09-03T12:02:20Z</time>
      </trkpt>
      <trkpt lat="47.08038" lon="5.48061">
        <ele>212</ele>
        <time>2017-09-03T12:02:24Z</time>
      </trkpt>
      <trkpt lat="47.0805" lon="5.48071">
        <ele>212</ele>
        <time>2017-09-03T12:02:28Z</time>
      </trkpt>
      <trkpt lat="47.08062" lon="5.48073">
        <ele>213</ele>
        <time>2017-09-03T12:02:32Z</time>
      </trkpt>
      <trkpt lat="47.08071" lon="5.48067">
        <ele>213</ele>
        <time>2017-09-03T12:02:36Z</time>
      </trkpt>
      <trkpt lat="47.08082" lon="5.48057">
        <ele>213</ele>
        <time>2017-09-03T12:02:40Z</time>
      </trkpt>
      <trkpt lat="47.08093" lon="5.4804">
        <ele>213</ele>
        <time>2017-09-03T12:02:44Z</time>
      </trkpt>
      <trkpt lat="47.08089" lon="5.48022">
        <ele>212</ele>
        <time>2017-09-03T12:02:48Z</time>
      </trkpt>
      <trkpt lat="47.08078" lon="5.48005">
        <ele>213</ele>
        <time>2017-09-03T12:02:52Z</time>
      </trkpt>
      <trkpt lat="47.08063" lon="5.47991">
        <ele>213</ele>
        <time>2017-09-03T12:02:56Z</time>
      </trkpt>
      <trkpt lat="47.08049" lon="5.47978">
        <ele>213</ele>
        <time>2017-09-03T12:03:00Z</time>
      </trkpt>
      <trkpt lat="47.08036" lon="5.47963">
        <ele>213</ele>
        <time>2017-09-03T12:03:04Z</time>
      </trkpt>
      <trkpt lat="47.08015" lon="5.4793">
        <ele>212</ele>
        <time>2017-09-03T12:03:08Z</time>
      </trkpt>
      <trkpt lat="47.08004" lon="5.47912">
        <ele>212</ele>
        <time>2017-09-03T12:03:12Z</time>
      </trkpt>
      <trkpt lat="47.07991" lon="5.47891">
        <ele>212</ele>
        <time>2017-09-03T12:03:16Z</time>
      </trkpt>
      <trkpt lat="47.07978" lon="5.47873">
        <ele>212</ele>
        <time>2017-09-03T12:03:20Z</time>
      </trkpt>
      <trkpt lat="47.07965" lon="5.47854">
        <ele>212</ele>
        <time>2017-09-03T12:03:24Z</time>
      </trkpt>
      <trkpt lat="47.07959" lon="5.47832">
        <ele>212</ele>
        <time>2017-09-03T12:03:28Z</time>
      </trkpt>
      <trkpt lat="47.07966" lon="5.47815">
        <ele>212</ele>
        <time>2017-09-03T12:03:32Z</time>
      </trkpt>
      <trkpt lat="47.07975" lon="5.47809">
        <ele>213</ele>
        <time>2017-09-03T12:03:36Z</time>
      </trkpt>
      <trkpt lat="47.07985" lon="5.47801">
        <ele>213</ele>
        <time>2017-09-03T12:03:40Z</time>
      </trkpt>
      <trkpt lat="47.07992" lon="5.47795">
        <ele>214</ele>
        <time>2017-09-03T12:03:44Z</time>
      </trkpt>
      <trkpt lat="47.07996" lon="5.47789">
        <ele>215</ele>
        <time>2017-09-03T12:03:48Z</time>
      </trkpt>
      <trkpt lat="47.08001" lon="5.47784">
        <ele>216</ele>
        <time>2017-09-03T12:03:52Z</time>
      </trkpt>
      <trkpt lat="47.08006" lon="5.47779">
        <ele>217</ele>
        <time>2017-09-03T12:03:56Z</time>
      </trkpt>
      <trkpt lat="47.0801" lon="5.47774">
        <ele>218</ele>
        <time>2017-09-03T12:04:00Z</time>
      </trkpt>
      <trkpt lat="47.08016" lon="5.47769">
        <ele>219</ele>
        <time>2017-09-03T12:04:04Z</time>
      </trkpt>
      <trkpt lat="47.08021" lon="5.47764">
        <ele>219</ele>
        <time>2017-09-03T12:04:08Z</time>
      </trkpt>
      <trkpt lat="47.08027" lon="5.47759">
        <ele>220</ele>
        <time>2017-09-03T12:04:12Z</time>
      </trkpt>
      <trkpt lat="47.08033" lon="5.47757">
        <ele>220</ele>
        <time>2017-09-03T12:04:16Z</time>
      </trkpt>
      <trkpt lat="47.08039" lon="5.47762">
        <ele>221</ele>
        <time>2017-09-03T12:04:20Z</time>
      </trkpt>
      <trkpt lat="47.08043" lon="5.47768">
        <ele>222</ele>
        <time>2017-09-03T12:04:24Z</time>
      </trkpt>
      <trkpt lat="47.08047" lon="5.47774">
        <ele>223</ele>
        <time>2017-09-03T12:04:28Z</time>
      </trkpt>
      <trkpt lat="47.08052" lon="5.47782">
        <ele>224</ele>
        <time>2017-09-03T12:04:32Z</time>
      </trkpt>
      <trkpt lat="47.08057" lon="5.4779">
        <ele>225</ele>
        <time>2017-09-03T12:04:36Z</time>
      </trkpt>
      <trkpt lat="47.08062" lon="5.47796">
        <ele>225</ele>
        <time>2017-09-03T12:04:40Z</time>
      </trkpt>
      <trkpt lat="47.08068" lon="5.47802">
        <ele>226</ele>
        <time>2017-09-03T12:04:44Z</time>
      </trkpt>
      <trkpt lat="47.08073" lon="5.47807">
        <ele>227</ele>
        <time>2017-09-03T12:04:48Z</time>
      </trkpt>
      <trkpt lat="47.08077" lon="5.47811">
        <ele>227</ele>
        <time>2017-09-03T12:04:52Z</time>
      </trkpt>
      <trkpt lat="47.08082" lon="5.47813">
        <ele>228</ele>
        <time>2017-09-03T12:04:56Z</time>
      </trkpt>
      <trkpt lat="47.08084" lon="5.47814">
        <ele>229</ele>
        <time>2017-09-03T12:05:00Z</time>
      </trkpt>
      <trkpt lat="47.08094" lon="5.4781">
        <ele>231</ele>
        <time>2017-09-03T12:05:12Z</time>
      </trkpt>
      <trkpt lat="47.081" lon="5.47806">
        <ele>232</ele>
        <time>2017-09-03T12:05:16Z</time>
      </trkpt>
      <trkpt lat="47.08105" lon="5.47801">
        <ele>233</ele>
        <time>2017-09-03T12:05:20Z</time>
      </trkpt>
      <trkpt lat="47.08107" lon="5.47795">
        <ele>234</ele>
        <time>2017-09-03T12:05:24Z</time>
      </trkpt>
      <trkpt lat="47.08112" lon="5.4779">
        <ele>235</ele>
        <time>2017-09-03T12:05:28Z</time>
      </trkpt>
      <trkpt lat="47.08116" lon="5.47784">
        <ele>235</ele>
        <time>2017-09-03T12:05:32Z</time>
      </trkpt>
      <trkpt lat="47.08121" lon="5.47779">
        <ele>236</ele>
        <time>2017-09-03T12:05:36Z</time>
      </trkpt>
      <trkpt lat="47.08125" lon="5.47774">
        <ele>236</ele>
        <time>2017-09-03T12:05:40Z</time>
      </trkpt>
      <trkpt lat="47.08129" lon="5.47768">
        <ele>237</ele>
        <time>2017-09-03T12:05:44Z</time>
      </trkpt>
      <trkpt lat="47.08134" lon="5.47763">
        <ele>238</ele>
        <time>2017-09-03T12:05:49Z</time>
      </trkpt>
      <trkpt lat="47.08137" lon="5.47758">
        <ele>238</ele>
        <time>2017-09-03T12:05:52Z</time>
      </trkpt>
      <trkpt lat="47.08141" lon="5.47752">
        <ele>239</ele>
        <time>2017-09-03T12:05:56Z</time>
      </trkpt>
      <trkpt lat="47.08145" lon="5.47745">
        <ele>240</ele>
        <time>2017-09-03T12:06:00Z</time>
      </trkpt>
      <trkpt lat="47.08149" lon="5.47738">
        <ele>240</ele>
        <time>2017-09-03T12:06:04Z</time>
      </trkpt>
      <trkpt lat="47.08153" lon="5.47731">
        <ele>241</ele>
        <time>2017-09-03T12:06:08Z</time>
      </trkpt>
      <trkpt lat="47.08155" lon="5.47724">
        <ele>242</ele>
        <time>2017-09-03T12:06:12Z</time>
      </trkpt>
      <trkpt lat="47.08156" lon="5.47715">
        <ele>243</ele>
        <time>2017-09-03T12:06:16Z</time>
      </trkpt>
      <trkpt lat="47.08155" lon="5.47707">
        <ele>244</ele>
        <time>2017-09-03T12:06:20Z</time>
      </trkpt>
      <trkpt lat="47.08153" lon="5.477">
        <ele>244</ele>
        <time>2017-09-03T12:06:24Z</time>
      </trkpt>
      <trkpt lat="47.08151" lon="5.47693">
        <ele>245</ele>
        <time>2017-09-03T12:06:28Z</time>
      </trkpt>
      <trkpt lat="47.08148" lon="5.47685">
        <ele>245</ele>
        <time>2017-09-03T12:06:32Z</time>
      </trkpt>
      <trkpt lat="47.08144" lon="5.47679">
        <ele>246</ele>
        <time>2017-09-03T12:06:36Z</time>
      </trkpt>
      <trkpt lat="47.08138" lon="5.47678">
        <ele>247</ele>
        <time>2017-09-03T12:06:40Z</time>
      </trkpt>
      <trkpt lat="47.0813" lon="5.47681">
        <ele>247</ele>
        <time>2017-09-03T12:06:44Z</time>
      </trkpt>
      <trkpt lat="47.08122" lon="5.47692">
        <ele>247</ele>
        <time>2017-09-03T12:06:48Z</time>
      </trkpt>
      <trkpt lat="47.08115" lon="5.47709">
        <ele>246</ele>
        <time>2017-09-03T12:06:52Z</time>
      </trkpt>
      <trkpt lat="47.08107" lon="5.47731">
        <ele>246</ele>
        <time>2017-09-03T12:06:56Z</time>
      </trkpt>
      <trkpt lat="47.08098" lon="5.47755">
        <ele>245</ele>
        <time>2017-09-03T12:07:00Z</time>
      </trkpt>
      <trkpt lat="47.0809" lon="5.47783">
        <ele>245</ele>
        <time>2017-09-03T12:07:04Z</time>
      </trkpt>
      <trkpt lat="47.08082" lon="5.47812">
        <ele>244</ele>
        <time>2017-09-03T12:07:08Z</time>
      </trkpt>
      <trkpt lat="47.08074" lon="5.47844">
        <ele>243</ele>
        <time>2017-09-03T12:07:12Z</time>
      </trkpt>
      <trkpt lat="47.08064" lon="5.47878">
        <ele>242</ele>
        <time>2017-09-03T12:07:16Z</time>
      </trkpt>
      <trkpt lat="47.08055" lon="5.47914">
        <ele>241</ele>
        <time>2017-09-03T12:07:20Z</time>
      </trkpt>
      <trkpt lat="47.08045" lon="5.47951">
        <ele>240</ele>
        <time>2017-09-03T12:07:24Z</time>
      </trkpt>
      <trkpt lat="47.08035" lon="5.47988">
        <ele>240</ele>
        <time>2017-09-03T12:07:28Z</time>
      </trkpt>
      <trkpt lat="47.08025" lon="5.48026">
        <ele>239</ele>
        <time>2017-09-03T12:07:32Z</time>
      </trkpt>
      <trkpt lat="47.08014" lon="5.48063">
        <ele>237</ele>
        <time>2017-09-03T12:07:36Z</time>
      </trkpt>
      <trkpt lat="47.08004" lon="5.48102">
        <ele>236</ele>
        <time>2017-09-03T12:07:40Z</time>
      </trkpt>
      <trkpt lat="47.07993" lon="5.48142">
        <ele>235</ele>
        <time>2017-09-03T12:07:44Z</time>
      </trkpt>
      <trkpt lat="47.07982" lon="5.48182">
        <ele>234</ele>
        <time>2017-09-03T12:07:48Z</time>
      </trkpt>
      <trkpt lat="47.07972" lon="5.48223">
        <ele>232</ele>
        <time>2017-09-03T12:07:52Z</time>
      </trkpt>
      <trkpt lat="47.0796" lon="5.48265">
        <ele>231</ele>
        <time>2017-09-03T12:07:56Z</time>
      </trkpt>
      <trkpt lat="47.07949" lon="5.48308">
        <ele>230</ele>
        <time>2017-09-03T12:08:00Z</time>
      </trkpt>
      <trkpt lat="47.07938" lon="5.4835">
        <ele>229</ele>
        <time>2017-09-03T12:08:04Z</time>
      </trkpt>
      <trkpt lat="47.07928" lon="5.48386">
        <ele>228</ele>
        <time>2017-09-03T12:08:08Z</time>
      </trkpt>
      <trkpt lat="47.07923" lon="5.48407">
        <ele>227</ele>
        <time>2017-09-03T12:08:12Z</time>
      </trkpt>
      <trkpt lat="47.07924" lon="5.48418">
        <ele>226</ele>
        <time>2017-09-03T12:08:16Z</time>
      </trkpt>
      <trkpt lat="47.07928" lon="5.48418">
        <ele>225</ele>
        <time>2017-09-03T12:08:20Z</time>
      </trkpt>
      <trkpt lat="47.07932" lon="5.48408">
        <ele>222</ele>
        <time>2017-09-03T12:08:24Z</time>
      </trkpt>
      <trkpt lat="47.07936" lon="5.48425">
        <ele>221</ele>
        <time>2017-09-03T12:08:28Z</time>
      </trkpt>
      <trkpt lat="47.07942" lon="5.48429">
        <ele>220</ele>
        <time>2017-09-03T12:08:32Z</time>
      </trkpt>
      <trkpt lat="47.07941" lon="5.48412">
        <ele>219</ele>
        <time>2017-09-03T12:08:36Z</time>
      </trkpt>
      <trkpt lat="47.07946" lon="5.48413">
        <ele>218</ele>
        <time>2017-09-03T12:08:40Z</time>
      </trkpt>
      <trkpt lat="47.07955" lon="5.48436">
        <ele>217</ele>
        <time>2017-09-03T12:08:44Z</time>
      </trkpt>
      <trkpt lat="47.07964" lon="5.48447">
        <ele>215</ele>
        <time>2017-09-03T12:08:48Z</time>
      </trkpt>
      <trkpt lat="47.07967" lon="5.48436">
        <ele>214</ele>
        <time>2017-09-03T12:08:52Z</time>
      </trkpt>
      <trkpt lat="47.07972" lon="5.48416">
        <ele>213</ele>
        <time>2017-09-03T12:08:56Z</time>
      </trkpt>
      <trkpt lat="47.07972" lon="5.48399">
        <ele>213</ele>
        <time>2017-09-03T12:09:01Z</time>
      </trkpt>
      <trkpt lat="47.07964" lon="5.48385">
        <ele>213</ele>
        <time>2017-09-03T12:09:04Z</time>
      </trkpt>
      <trkpt lat="47.0796" lon="5.48367">
        <ele>214</ele>
        <time>2017-09-03T12:09:08Z</time>
      </trkpt>
      <trkpt lat="47.07953" lon="5.48352">
        <ele>214</ele>
        <time>2017-09-03T12:09:12Z</time>
      </trkpt>
      <trkpt lat="47.07943" lon="5.4834">
        <ele>213</ele>
        <time>2017-09-03T12:09:16Z</time>
      </trkpt>
      <trkpt lat="47.07931" lon="5.48331">
        <ele>213</ele>
        <time>2017-09-03T12:09:20Z</time>
      </trkpt>
      <trkpt lat="47.07917" lon="5.48328">
        <ele>213</ele>
        <time>2017-09-03T12:09:24Z</time>
      </trkpt>
      <trkpt lat="47.07904" lon="5.48335">
        <ele>213</ele>
        <time>2017-09-03T12:09:28Z</time>
      </trkpt>
      <trkpt lat="47.07896" lon="5.48349">
        <ele>213</ele>
        <time>2017-09-03T12:09:32Z</time>
      </trkpt>
      <trkpt lat="47.07892" lon="5.48368">
        <ele>214</ele>
        <time>2017-09-03T12:09:36Z</time>
      </trkpt>
      <trkpt lat="47.07889" lon="5.48387">
        <ele>214</ele>
        <time>2017-09-03T12:09:40Z</time>
      </trkpt>
      <trkpt lat="47.07885" lon="5.48406">
        <ele>214</ele>
        <time>2017-09-03T12:09:44Z</time>
      </trkpt>
      <trkpt lat="47.0788" lon="5.4843">
        <ele>215</ele>
        <time>2017-09-03T12:09:48Z</time>
      </trkpt>
      <trkpt lat="47.07875" lon="5.48451">
        <ele>215</ele>
        <time>2017-09-03T12:09:52Z</time>
      </trkpt>
      <trkpt lat="47.07871" lon="5.48472">
        <ele>215</ele>
        <time>2017-09-03T12:09:56Z</time>
      </trkpt>
      <trkpt lat="47.07863" lon="5.48491">
        <ele>215</ele>
        <time>2017-09-03T12:10:00Z</time>
      </trkpt>
      <trkpt lat="47.07859" lon="5.48509">
        <ele>215</ele>
        <time>2017-09-03T12:10:04Z</time>
      </trkpt>
      <trkpt lat="47.07855" lon="5.48525">
        <ele>214</ele>
        <time>2017-09-03T12:10:08Z</time>
      </trkpt>
      <trkpt lat="47.0785" lon="5.48544">
        <ele>215</ele>
        <time>2017-09-03T12:10:12Z</time>
      </trkpt>
      <trkpt lat="47.07847" lon="5.48566">
        <ele>215</ele>
        <time>2017-09-03T12:10:16Z</time>
      </trkpt>
      <trkpt lat="47.07842" lon="5.48589">
        <ele>215</ele>
        <time>2017-09-03T12:10:20Z</time>
      </trkpt>
      <trkpt lat="47.07835" lon="5.48611">
        <ele>215</ele>
        <time>2017-09-03T12:10:24Z</time>
      </trkpt>
      <trkpt lat="47.07831" lon="5.48634">
        <ele>215</ele>
        <time>2017-09-03T12:10:28Z</time>
      </trkpt>
      <trkpt lat="47.07829" lon="5.48654">
        <ele>214</ele>
        <time>2017-09-03T12:10:32Z</time>
      </trkpt>
      <trkpt lat="47.07824" lon="5.48677">
        <ele>215</ele>
        <time>2017-09-03T12:10:36Z</time>
      </trkpt>
      <trkpt lat="47.07821" lon="5.48698">
        <ele>215</ele>
        <time>2017-09-03T12:10:40Z</time>
      </trkpt>
      <trkpt lat="47.07815" lon="5.4872">
        <ele>214</ele>
        <time>2017-09-03T12:10:44Z</time>
      </trkpt>
      <trkpt lat="47.07809" lon="5.4874">
        <ele>215</ele>
        <time>2017-09-03T12:10:48Z</time>
      </trkpt>
      <trkpt lat="47.07803" lon="5.48759">
        <ele>215</ele>
        <time>2017-09-03T12:10:52Z</time>
      </trkpt>
      <trkpt lat="47.07794" lon="5.48775">
        <ele>215</ele>
        <time>2017-09-03T12:10:56Z</time>
      </trkpt>
      <trkpt lat="47.07783" lon="5.48788">
        <ele>215</ele>
        <time>2017-09-03T12:11:00Z</time>
      </trkpt>
      <trkpt lat="47.07773" lon="5.48799">
        <ele>216</ele>
        <time>2017-09-03T12:11:04Z</time>
      </trkpt>
      <trkpt lat="47.07763" lon="5.48809">
        <ele>217</ele>
        <time>2017-09-03T12:11:08Z</time>
      </trkpt>
      <trkpt lat="47.07753" lon="5.4882">
        <ele>217</ele>
        <time>2017-09-03T12:11:12Z</time>
      </trkpt>
      <trkpt lat="47.07742" lon="5.48832">
        <ele>216</ele>
        <time>2017-09-03T12:11:16Z</time>
      </trkpt>
      <trkpt lat="47.07732" lon="5.48848">
        <ele>216</ele>
        <time>2017-09-03T12:11:20Z</time>
      </trkpt>
      <trkpt lat="47.07732" lon="5.48874">
        <ele>215</ele>
        <time>2017-09-03T12:11:24Z</time>
      </trkpt>
      <trkpt lat="47.07734" lon="5.48892">
        <ele>215</ele>
        <time>2017-09-03T12:11:28Z</time>
      </trkpt>
      <trkpt lat="47.07724" lon="5.48889">
        <ele>214</ele>
        <time>2017-09-03T12:11:32Z</time>
      </trkpt>
      <trkpt lat="47.0771" lon="5.4889">
        <ele>214</ele>
        <time>2017-09-03T12:11:36Z</time>
      </trkpt>
      <trkpt lat="47.07699" lon="5.48901">
        <ele>214</ele>
        <time>2017-09-03T12:11:40Z</time>
      </trkpt>
      <trkpt lat="47.07691" lon="5.4892">
        <ele>215</ele>
        <time>2017-09-03T12:11:44Z</time>
      </trkpt>
      <trkpt lat="47.07684" lon="5.4894">
        <ele>215</ele>
        <time>2017-09-03T12:11:48Z</time>
      </trkpt>
      <trkpt lat="47.07676" lon="5.48961">
        <ele>215</ele>
        <time>2017-09-03T12:11:52Z</time>
      </trkpt>
      <trkpt lat="47.07665" lon="5.48976">
        <ele>215</ele>
        <time>2017-09-03T12:11:56Z</time>
      </trkpt>
      <trkpt lat="47.07652" lon="5.48989">
        <ele>215</ele>
        <time>2017-09-03T12:12:00Z</time>
      </trkpt>
      <trkpt lat="47.07639" lon="5.49003">
        <ele>215</ele>
        <time>2017-09-03T12:12:04Z</time>
      </trkpt>
      <trkpt lat="47.07628" lon="5.49018">
        <ele>215</ele>
        <time>2017-09-03T12:12:08Z</time>
      </trkpt>
      <trkpt lat="47.07616" lon="5.49031">
        <ele>216</ele>
        <time>2017-09-03T12:12:12Z</time>
      </trkpt>
      <trkpt lat="47.07605" lon="5.49048">
        <ele>216</ele>
        <time>2017-09-03T12:12:16Z</time>
      </trkpt>
      <trkpt lat="47.07593" lon="5.49067">
        <ele>215</ele>
        <time>2017-09-03T12:12:20Z</time>
      </trkpt>
      <trkpt lat="47.07578" lon="5.49081">
        <ele>215</ele>
        <time>2017-09-03T12:12:24Z</time>
      </trkpt>
      <trkpt lat="47.07559" lon="5.49082">
        <ele>215</ele>
        <time>2017-09-03T12:12:28Z</time>
      </trkpt>
      <trkpt lat="47.07544" lon="5.49065">
        <ele>214</ele>
        <time>2017-09-03T12:12:32Z</time>
      </trkpt>
      <trkpt lat="47.07531" lon="5.49041">
        <ele>214</ele>
        <time>2017-09-03T12:12:36Z</time>
      </trkpt>
      <trkpt lat="47.07519" lon="5.49017">
        <ele>213</ele>
        <time>2017-09-03T12:12:40Z</time>
      </trkpt>
      <trkpt lat="47.07507" lon="5.48994">
        <ele>212</ele>
        <time>2017-09-03T12:12:44Z</time>
      </trkpt>
      <trkpt lat="47.07494" lon="5.48972">
        <ele>212</ele>
        <time>2017-09-03T12:12:48Z</time>
      </trkpt>
      <trkpt lat="47.07482" lon="5.48951">
        <ele>212</ele>
        <time>2017-09-03T12:12:52Z</time>
      </trkpt>
      <trkpt lat="47.07471" lon="5.48929">
        <ele>212</ele>
        <time>2017-09-03T12:12:56Z</time>
      </trkpt>
      <trkpt lat="47.07461" lon="5.48911">
        <ele>212</ele>
        <time>2017-09-03T12:13:00Z</time>
      </trkpt>
      <trkpt lat="47.07452" lon="5.48894">
        <ele>212</ele>
        <time>2017-09-03T12:13:04Z</time>
      </trkpt>
      <trkpt lat="47.07441" lon="5.48873">
        <ele>212</ele>
        <time>2017-09-03T12:13:08Z</time>
      </trkpt>
      <trkpt lat="47.0743" lon="5.48851">
        <ele>211</ele>
        <time>2017-09-03T12:13:12Z</time>
      </trkpt>
      <trkpt lat="47.07417" lon="5.4883">
        <ele>212</ele>
        <time>2017-09-03T12:13:16Z</time>
      </trkpt>
      <trkpt lat="47.07406" lon="5.4881">
        <ele>212</ele>
        <time>2017-09-03T12:13:20Z</time>
      </trkpt>
      <trkpt lat="47.07396" lon="5.4879">
        <ele>212</ele>
        <time>2017-09-03T12:13:24Z</time>
      </trkpt>
      <trkpt lat="47.07387" lon="5.48772">
        <ele>213</ele>
        <time>2017-09-03T12:13:28Z</time>
      </trkpt>
      <trkpt lat="47.07379" lon="5.48756">
        <ele>213</ele>
        <time>2017-09-03T12:13:32Z</time>
      </trkpt>
      <trkpt lat="47.0737" lon="5.4874">
        <ele>213</ele>
        <time>2017-09-03T12:13:36Z</time>
      </trkpt>
      <trkpt lat="47.07362" lon="5.48723">
        <ele>213</ele>
        <time>2017-09-03T12:13:40Z</time>
      </trkpt>
      <trkpt lat="47.07352" lon="5.48703">
        <ele>213</ele>
        <time>2017-09-03T12:13:44Z</time>
      </trkpt>
      <trkpt lat="47.07344" lon="5.4869">
        <ele>213</ele>
        <time>2017-09-03T12:13:48Z</time>
      </trkpt>
      <trkpt lat="47.07331" lon="5.48682">
        <ele>214</ele>
        <time>2017-09-03T12:13:52Z</time>
      </trkpt>
      <trkpt lat="47.07319" lon="5.4869">
        <ele>214</ele>
        <time>2017-09-03T12:13:56Z</time>
      </trkpt>
      <trkpt lat="47.0731" lon="5.48696">
        <ele>215</ele>
        <time>2017-09-03T12:14:00Z</time>
      </trkpt>
      <trkpt lat="47.07302" lon="5.48692">
        <ele>216</ele>
        <time>2017-09-03T12:14:04Z</time>
      </trkpt>
      <trkpt lat="47.07293" lon="5.48686">
        <ele>216</ele>
        <time>2017-09-03T12:14:08Z</time>
      </trkpt>
      <trkpt lat="47.07284" lon="5.48688">
        <ele>217</ele>
        <time>2017-09-03T12:14:12Z</time>
      </trkpt>
      <trkpt lat="47.07276" lon="5.48698">
        <ele>218</ele>
        <time>2017-09-03T12:14:16Z</time>
      </trkpt>
      <trkpt lat="47.07269" lon="5.48709">
        <ele>218</ele>
        <time>2017-09-03T12:14:20Z</time>
      </trkpt>
      <trkpt lat="47.07262" lon="5.48722">
        <ele>218</ele>
        <time>2017-09-03T12:14:24Z</time>
      </trkpt>
      <trkpt lat="47.07258" lon="5.48735">
        <ele>219</ele>
        <time>2017-09-03T12:14:28Z</time>
      </trkpt>
      <trkpt lat="47.07254" lon="5.48745">
        <ele>220</ele>
        <time>2017-09-03T12:14:32Z</time>
      </trkpt>
      <trkpt lat="47.07251" lon="5.48754">
        <ele>221</ele>
        <time>2017-09-03T12:14:36Z</time>
      </trkpt>
      <trkpt lat="47.07245" lon="5.48765">
        <ele>221</ele>
        <time>2017-09-03T12:14:40Z</time>
      </trkpt>
      <trkpt lat="47.07237" lon="5.48776">
        <ele>221</ele>
        <time>2017-09-03T12:14:44Z</time>
      </trkpt>
      <trkpt lat="47.07228" lon="5.4879">
        <ele>221</ele>
        <time>2017-09-03T12:14:48Z</time>
      </trkpt>
      <trkpt lat="47.07219" lon="5.48788">
        <ele>221</ele>
        <time>2017-09-03T12:14:52Z</time>
      </trkpt>
      <trkpt lat="47.07208" lon="5.48777">
        <ele>220</ele>
        <time>2017-09-03T12:14:56Z</time>
      </trkpt>
      <trkpt lat="47.07196" lon="5.48764">
        <ele>220</ele>
        <time>2017-09-03T12:15:01Z</time>
      </trkpt>
      <trkpt lat="47.07183" lon="5.48751">
        <ele>220</ele>
        <time>2017-09-03T12:15:04Z</time>
      </trkpt>
      <trkpt lat="47.0717" lon="5.48738">
        <ele>220</ele>
        <time>2017-09-03T12:15:08Z</time>
      </trkpt>
      <trkpt lat="47.07157" lon="5.48725">
        <ele>220</ele>
        <time>2017-09-03T12:15:12Z</time>
      </trkpt>
      <trkpt lat="47.07143" lon="5.4871">
        <ele>221</ele>
        <time>2017-09-03T12:15:16Z</time>
      </trkpt>
      <trkpt lat="47.07129" lon="5.48696">
        <ele>220</ele>
        <time>2017-09-03T12:15:20Z</time>
      </trkpt>
      <trkpt lat="47.07115" lon="5.48682">
        <ele>220</ele>
        <time>2017-09-03T12:15:24Z</time>
      </trkpt>
      <trkpt lat="47.07101" lon="5.48668">
        <ele>220</ele>
        <time>2017-09-03T12:15:28Z</time>
      </trkpt>
      <trkpt lat="47.07088" lon="5.48655">
        <ele>221</ele>
        <time>2017-09-03T12:15:32Z</time>
      </trkpt>
      <trkpt lat="47.07076" lon="5.48645">
        <ele>221</ele>
        <time>2017-09-03T12:15:36Z</time>
      </trkpt>
      <trkpt lat="47.07074" lon="5.4863">
        <ele>221</ele>
        <time>2017-09-03T12:15:40Z</time>
      </trkpt>
      <trkpt lat="47.07081" lon="5.48613">
        <ele>221</ele>
        <time>2017-09-03T12:15:44Z</time>
      </trkpt>
      <trkpt lat="47.0709" lon="5.48591">
        <ele>220</ele>
        <time>2017-09-03T12:15:48Z</time>
      </trkpt>
      <trkpt lat="47.07101" lon="5.48568">
        <ele>219</ele>
        <time>2017-09-03T12:15:52Z</time>
      </trkpt>
      <trkpt lat="47.07113" lon="5.48547">
        <ele>219</ele>
        <time>2017-09-03T12:15:56Z</time>
      </trkpt>
      <trkpt lat="47.07123" lon="5.4853">
        <ele>218</ele>
        <time>2017-09-03T12:16:00Z</time>
      </trkpt>
      <trkpt lat="47.07135" lon="5.48513">
        <ele>218</ele>
        <time>2017-09-03T12:16:04Z</time>
      </trkpt>
      <trkpt lat="47.07147" lon="5.48505">
        <ele>218</ele>
        <time>2017-09-03T12:16:08Z</time>
      </trkpt>
      <trkpt lat="47.07151" lon="5.48503">
        <ele>218</ele>
        <time>2017-09-03T12:16:12Z</time>
      </trkpt>
      <trkpt lat="47.07158" lon="5.485">
        <ele>218</ele>
        <time>2017-09-03T12:16:16Z</time>
      </trkpt>
      <trkpt lat="47.07164" lon="5.48495">
        <ele>218</ele>
        <time>2017-09-03T12:16:20Z</time>
      </trkpt>
      <trkpt lat="47.07169" lon="5.48491">
        <ele>218</ele>
        <time>2017-09-03T12:16:24Z</time>
      </trkpt>
    </trkseg>
  </trk>
</gpx>